<?xml version='1.0' encoding='UTF-8'?><gpx version="1.1" creator="JPX - https://github.com/jenetics/jpx" xmlns="http://www.topografix.com/GPX/1/1"><trk><trkseg><trkpt lat="44.454485" lon="11.4241067"><ele>75.0</ele><time>2026-04-04T08:00:18.994Z</time></trkpt><trkpt lat="44.45441" lon="11.4240867"><ele>75.0</ele><time>2026-04-04T08:00:31.995Z</time></trkpt><trkpt lat="44.4541167" lon="11.424055"><ele>75.0</ele><time>2026-04-04T08:01:09.996Z</time></trkpt><trkpt lat="44.4540533" lon="11.424095"><ele>75.0</ele><time>2026-04-04T08:01:10.997Z</time></trkpt><trkpt lat="44.4539867" lon="11.424155"><ele>75.0</ele><time>2026-04-04T08:01:11.998Z</time></trkpt><trkpt lat="44.4539167" lon="11.4242167"><ele>75.0</ele><time>2026-04-04T08:01:12.997Z</time></trkpt><trkpt lat="44.45384" lon="11.4242883"><ele>75.0</ele><time>2026-04-04T08:01:13.999Z</time></trkpt><trkpt lat="44.45376" lon="11.42436"><ele>75.0</ele><time>2026-04-04T08:01:14.998Z</time></trkpt><trkpt lat="44.4536833" lon="11.4244367"><ele>75.0</ele><time>2026-04-04T08:01:15.997Z</time></trkpt><trkpt lat="44.4536017" lon="11.4245083"><ele>74.8</ele><time>2026-04-04T08:01:16.998Z</time></trkpt><trkpt lat="44.4535133" lon="11.424585"><ele>74.6</ele><time>2026-04-04T08:01:17.995Z</time></trkpt><trkpt lat="44.4534267" lon="11.424665"><ele>74.4</ele><time>2026-04-04T08:01:18.995Z</time></trkpt><trkpt lat="44.4533483" lon="11.42473"><ele>74.2</ele><time>2026-04-04T08:01:19.996Z</time></trkpt><trkpt lat="44.4532783" lon="11.4247917"><ele>74.0</ele><time>2026-04-04T08:01:20.995Z</time></trkpt><trkpt lat="44.4531333" lon="11.424895"><ele>74.0</ele><time>2026-04-04T08:01:22.995Z</time></trkpt><trkpt lat="44.4530583" lon="11.42494"><ele>74.0</ele><time>2026-04-04T08:01:23.996Z</time></trkpt><trkpt lat="44.45299" lon="11.42498"><ele>74.0</ele><time>2026-04-04T08:01:24.998Z</time></trkpt><trkpt lat="44.4528867" lon="11.425045"><ele>74.0</ele><time>2026-04-04T08:01:26.997Z</time></trkpt><trkpt lat="44.4528133" lon="11.4250833"><ele>74.0</ele><time>2026-04-04T08:01:28.998Z</time></trkpt><trkpt lat="44.4527367" lon="11.4251283"><ele>74.0</ele><time>2026-04-04T08:01:31.997Z</time></trkpt><trkpt lat="44.45267" lon="11.425165"><ele>74.4</ele><time>2026-04-04T08:01:35.997Z</time></trkpt><trkpt lat="44.4525967" lon="11.4251933"><ele>74.80000000000001</ele><time>2026-04-04T08:01:49.997Z</time></trkpt><trkpt lat="44.4524267" lon="11.425255"><ele>75.19999999999999</ele><time>2026-04-04T08:01:55.998Z</time></trkpt><trkpt lat="44.452345" lon="11.425285"><ele>75.6</ele><time>2026-04-04T08:01:57.995Z</time></trkpt><trkpt lat="44.452275" lon="11.4253183"><ele>76.0</ele><time>2026-04-04T08:01:59.995Z</time></trkpt><trkpt lat="44.452215" lon="11.4252867"><ele>76.0</ele><time>2026-04-04T08:02:02.997Z</time></trkpt><trkpt lat="44.4521567" lon="11.4253333"><ele>76.0</ele><time>2026-04-04T08:36:40.998Z</time></trkpt><trkpt lat="44.45203" lon="11.4254233"><ele>76.0</ele><time>2026-04-04T08:36:44.997Z</time></trkpt><trkpt lat="44.4519467" lon="11.425455"><ele>76.0</ele><time>2026-04-04T08:36:45.998Z</time></trkpt><trkpt lat="44.451865" lon="11.4255017"><ele>76.0</ele><time>2026-04-04T08:36:46.998Z</time></trkpt><trkpt lat="44.45178" lon="11.42556"><ele>76.39999999999999</ele><time>2026-04-04T08:36:47.998Z</time></trkpt><trkpt lat="44.4516917" lon="11.4256183"><ele>76.8</ele><time>2026-04-04T08:36:48.997Z</time></trkpt><trkpt lat="44.45161" lon="11.425675"><ele>77.19999999999999</ele><time>2026-04-04T08:36:49.996Z</time></trkpt><trkpt lat="44.4515267" lon="11.42574"><ele>77.6</ele><time>2026-04-04T08:36:50.998Z</time></trkpt><trkpt lat="44.4514317" lon="11.425805"><ele>78.0</ele><time>2026-04-04T08:36:51.997Z</time></trkpt><trkpt lat="44.45133" lon="11.4258783"><ele>78.2</ele><time>2026-04-04T08:36:52.996Z</time></trkpt><trkpt lat="44.4512367" lon="11.4259517"><ele>78.4</ele><time>2026-04-04T08:36:53.997Z</time></trkpt><trkpt lat="44.451155" lon="11.4260233"><ele>78.60000000000001</ele><time>2026-04-04T08:36:54.997Z</time></trkpt><trkpt lat="44.4510767" lon="11.4260967"><ele>78.8</ele><time>2026-04-04T08:36:55.995Z</time></trkpt><trkpt lat="44.4509867" lon="11.4261933"><ele>79.0</ele><time>2026-04-04T08:36:56.996Z</time></trkpt><trkpt lat="44.4508917" lon="11.4262983"><ele>78.5</ele><time>2026-04-04T08:36:57.998Z</time></trkpt><trkpt lat="44.4507933" lon="11.42641"><ele>78.0</ele><time>2026-04-04T08:36:58.998Z</time></trkpt><trkpt lat="44.4506983" lon="11.4265183"><ele>77.5</ele><time>2026-04-04T08:36:59.996Z</time></trkpt><trkpt lat="44.4506067" lon="11.4266233"><ele>77.0</ele><time>2026-04-04T08:37:00.997Z</time></trkpt><trkpt lat="44.4505083" lon="11.4267283"><ele>77.33333333333334</ele><time>2026-04-04T08:37:01.997Z</time></trkpt><trkpt lat="44.4503133" lon="11.4269333"><ele>77.66666666666667</ele><time>2026-04-04T08:37:03.996Z</time></trkpt><trkpt lat="44.4502233" lon="11.427025"><ele>78.0</ele><time>2026-04-04T08:37:04.997Z</time></trkpt><trkpt lat="44.450135" lon="11.42712"><ele>77.25</ele><time>2026-04-04T08:37:05.996Z</time></trkpt><trkpt lat="44.4500383" lon="11.427225"><ele>76.5</ele><time>2026-04-04T08:37:06.997Z</time></trkpt><trkpt lat="44.449935" lon="11.4273367"><ele>75.75</ele><time>2026-04-04T08:37:07.996Z</time></trkpt><trkpt lat="44.4498267" lon="11.4274583"><ele>75.0</ele><time>2026-04-04T08:37:08.996Z</time></trkpt><trkpt lat="44.44972" lon="11.4275717"><ele>74.5</ele><time>2026-04-04T08:37:09.996Z</time></trkpt><trkpt lat="44.449615" lon="11.4276983"><ele>74.0</ele><time>2026-04-04T08:37:10.996Z</time></trkpt><trkpt lat="44.4495117" lon="11.42783"><ele>73.5</ele><time>2026-04-04T08:37:11.997Z</time></trkpt><trkpt lat="44.449425" lon="11.4279667"><ele>73.0</ele><time>2026-04-04T08:37:12.996Z</time></trkpt><trkpt lat="44.4493517" lon="11.428125"><ele>73.0</ele><time>2026-04-04T08:37:13.997Z</time></trkpt><trkpt lat="44.4492833" lon="11.4283117"><ele>73.0</ele><time>2026-04-04T08:37:14.996Z</time></trkpt><trkpt lat="44.44922" lon="11.4285283"><ele>73.0</ele><time>2026-04-04T08:37:15.996Z</time></trkpt><trkpt lat="44.4491567" lon="11.4287517"><ele>72.66666666666666</ele><time>2026-04-04T08:37:16.997Z</time></trkpt><trkpt lat="44.4491017" lon="11.4289917"><ele>72.33333333333333</ele><time>2026-04-04T08:37:17.995Z</time></trkpt><trkpt lat="44.449045" lon="11.4292583"><ele>72.0</ele><time>2026-04-04T08:37:18.994Z</time></trkpt><trkpt lat="44.4489883" lon="11.4294967"><ele>71.0</ele><time>2026-04-04T08:37:19.996Z</time></trkpt><trkpt lat="44.448935" lon="11.429715"><ele>70.0</ele><time>2026-04-04T08:37:20.995Z</time></trkpt><trkpt lat="44.4488833" lon="11.4299183"><ele>69.0</ele><time>2026-04-04T08:37:21.996Z</time></trkpt><trkpt lat="44.4488383" lon="11.4301083"><ele>68.66666666666667</ele><time>2026-04-04T08:37:22.995Z</time></trkpt><trkpt lat="44.4487483" lon="11.4304767"><ele>68.33333333333334</ele><time>2026-04-04T08:37:24.997Z</time></trkpt><trkpt lat="44.4487017" lon="11.4306433"><ele>68.0</ele><time>2026-04-04T08:37:25.997Z</time></trkpt><trkpt lat="44.4486583" lon="11.4308067"><ele>68.0</ele><time>2026-04-04T08:37:26.996Z</time></trkpt><trkpt lat="44.4486133" lon="11.4309783"><ele>68.0</ele><time>2026-04-04T08:37:27.996Z</time></trkpt><trkpt lat="44.4485667" lon="11.431155"><ele>68.0</ele><time>2026-04-04T08:37:28.996Z</time></trkpt><trkpt lat="44.4485183" lon="11.4313333"><ele>68.0</ele><time>2026-04-04T08:37:29.997Z</time></trkpt><trkpt lat="44.448475" lon="11.4315133"><ele>68.25</ele><time>2026-04-04T08:37:30.996Z</time></trkpt><trkpt lat="44.44843" lon="11.4316767"><ele>68.5</ele><time>2026-04-04T08:37:31.996Z</time></trkpt><trkpt lat="44.44839" lon="11.4318317"><ele>68.75</ele><time>2026-04-04T08:37:32.997Z</time></trkpt><trkpt lat="44.4483533" lon="11.4319767"><ele>69.0</ele><time>2026-04-04T08:37:33.996Z</time></trkpt><trkpt lat="44.448315" lon="11.4321083"><ele>69.0</ele><time>2026-04-04T08:37:34.996Z</time></trkpt><trkpt lat="44.4482817" lon="11.4322217"><ele>69.0</ele><time>2026-04-04T08:37:35.997Z</time></trkpt><trkpt lat="44.44825" lon="11.4323183"><ele>69.0</ele><time>2026-04-04T08:37:36.997Z</time></trkpt><trkpt lat="44.4481583" lon="11.4324017"><ele>69.0</ele><time>2026-04-04T08:37:38.996Z</time></trkpt><trkpt lat="44.448095" lon="11.43242"><ele>69.0</ele><time>2026-04-04T08:37:39.998Z</time></trkpt><trkpt lat="44.4479983" lon="11.4324233"><ele>69.0</ele><time>2026-04-04T08:37:40.996Z</time></trkpt><trkpt lat="44.4478917" lon="11.4324167"><ele>69.0</ele><time>2026-04-04T08:37:41.996Z</time></trkpt><trkpt lat="44.447775" lon="11.4324083"><ele>69.0</ele><time>2026-04-04T08:37:42.996Z</time></trkpt><trkpt lat="44.4476733" lon="11.4324033"><ele>69.0</ele><time>2026-04-04T08:37:43.997Z</time></trkpt><trkpt lat="44.4475017" lon="11.4324183"><ele>69.0</ele><time>2026-04-04T08:37:45.996Z</time></trkpt><trkpt lat="44.44743" lon="11.4324583"><ele>69.0</ele><time>2026-04-04T08:37:46.996Z</time></trkpt><trkpt lat="44.4473667" lon="11.4325233"><ele>69.0</ele><time>2026-04-04T08:37:47.997Z</time></trkpt><trkpt lat="44.4473117" lon="11.432635"><ele>69.0</ele><time>2026-04-04T08:37:48.996Z</time></trkpt><trkpt lat="44.4472617" lon="11.4327783"><ele>69.0</ele><time>2026-04-04T08:37:49.998Z</time></trkpt><trkpt lat="44.44722" lon="11.4329283"><ele>69.0</ele><time>2026-04-04T08:37:50.997Z</time></trkpt><trkpt lat="44.44718" lon="11.4330667"><ele>69.2</ele><time>2026-04-04T08:37:51.997Z</time></trkpt><trkpt lat="44.4471417" lon="11.4332017"><ele>69.4</ele><time>2026-04-04T08:37:52.998Z</time></trkpt><trkpt lat="44.44711" lon="11.4333267"><ele>69.6</ele><time>2026-04-04T08:37:53.996Z</time></trkpt><trkpt lat="44.447075" lon="11.433435"><ele>69.8</ele><time>2026-04-04T08:37:54.996Z</time></trkpt><trkpt lat="44.4470433" lon="11.4335617"><ele>70.0</ele><time>2026-04-04T08:37:55.998Z</time></trkpt><trkpt lat="44.4470117" lon="11.4336933"><ele>69.6</ele><time>2026-04-04T08:37:56.997Z</time></trkpt><trkpt lat="44.44697" lon="11.4338383"><ele>69.2</ele><time>2026-04-04T08:37:57.997Z</time></trkpt><trkpt lat="44.446945" lon="11.433995"><ele>68.8</ele><time>2026-04-04T08:37:58.996Z</time></trkpt><trkpt lat="44.4469183" lon="11.434145"><ele>68.4</ele><time>2026-04-04T08:37:59.997Z</time></trkpt><trkpt lat="44.4468833" lon="11.4342817"><ele>68.0</ele><time>2026-04-04T08:38:00.998Z</time></trkpt><trkpt lat="44.4468467" lon="11.434425"><ele>68.0</ele><time>2026-04-04T08:38:01.996Z</time></trkpt><trkpt lat="44.4468117" lon="11.4345633"><ele>68.0</ele><time>2026-04-04T08:38:03Z</time></trkpt><trkpt lat="44.4467733" lon="11.43469"><ele>68.0</ele><time>2026-04-04T08:38:03.998Z</time></trkpt><trkpt lat="44.4467283" lon="11.4348167"><ele>68.0</ele><time>2026-04-04T08:38:04.997Z</time></trkpt><trkpt lat="44.44664" lon="11.43503"><ele>68.0</ele><time>2026-04-04T08:38:06.994Z</time></trkpt><trkpt lat="44.4465917" lon="11.435125"><ele>68.0</ele><time>2026-04-04T08:38:07.996Z</time></trkpt><trkpt lat="44.4465433" lon="11.4352"><ele>68.0</ele><time>2026-04-04T08:38:08.998Z</time></trkpt><trkpt lat="44.44648" lon="11.4352267"><ele>68.0</ele><time>2026-04-04T08:38:09.996Z</time></trkpt><trkpt lat="44.4463567" lon="11.4352467"><ele>68.0</ele><time>2026-04-04T08:38:11.997Z</time></trkpt><trkpt lat="44.4462883" lon="11.4352283"><ele>68.0</ele><time>2026-04-04T08:38:12.996Z</time></trkpt><trkpt lat="44.4462133" lon="11.4352"><ele>67.99999999999999</ele><time>2026-04-04T08:38:13.997Z</time></trkpt><trkpt lat="44.4461417" lon="11.4351533"><ele>68.0</ele><time>2026-04-04T08:38:14.997Z</time></trkpt><trkpt lat="44.446075" lon="11.4351033"><ele>68.0</ele><time>2026-04-04T08:38:15.997Z</time></trkpt><trkpt lat="44.4460083" lon="11.43506"><ele>68.0</ele><time>2026-04-04T08:38:16.997Z</time></trkpt><trkpt lat="44.4459333" lon="11.4350283"><ele>68.0</ele><time>2026-04-04T08:38:17.994Z</time></trkpt><trkpt lat="44.4458633" lon="11.4350233"><ele>67.99999999999999</ele><time>2026-04-04T08:38:18.998Z</time></trkpt><trkpt lat="44.4457933" lon="11.435025"><ele>68.0</ele><time>2026-04-04T08:38:20Z</time></trkpt><trkpt lat="44.445725" lon="11.4350183"><ele>68.0</ele><time>2026-04-04T08:38:20.996Z</time></trkpt><trkpt lat="44.4456617" lon="11.4350217"><ele>68.0</ele><time>2026-04-04T08:38:21.997Z</time></trkpt><trkpt lat="44.4455617" lon="11.4350117"><ele>68.0</ele><time>2026-04-04T08:38:23.996Z</time></trkpt><trkpt lat="44.4454867" lon="11.43493"><ele>68.0</ele><time>2026-04-04T08:38:25.997Z</time></trkpt><trkpt lat="44.4454133" lon="11.4346133"><ele>67.66666666666667</ele><time>2026-04-04T08:38:28.996Z</time></trkpt><trkpt lat="44.4453917" lon="11.4344817"><ele>67.33333333333334</ele><time>2026-04-04T08:38:29.997Z</time></trkpt><trkpt lat="44.4453733" lon="11.43437"><ele>67.0</ele><time>2026-04-04T08:38:30.996Z</time></trkpt><trkpt lat="44.445365" lon="11.43427"><ele>66.66666666666667</ele><time>2026-04-04T08:38:31.997Z</time></trkpt><trkpt lat="44.4453483" lon="11.4341717"><ele>66.33333333333333</ele><time>2026-04-04T08:38:32.997Z</time></trkpt><trkpt lat="44.445335" lon="11.4340783"><ele>66.0</ele><time>2026-04-04T08:38:33.997Z</time></trkpt><trkpt lat="44.4453133" lon="11.4339933"><ele>66.0</ele><time>2026-04-04T08:38:34.996Z</time></trkpt><trkpt lat="44.445275" lon="11.43391"><ele>66.0</ele><time>2026-04-04T08:38:35.997Z</time></trkpt><trkpt lat="44.4452317" lon="11.4338367"><ele>66.0</ele><time>2026-04-04T08:38:36.996Z</time></trkpt><trkpt lat="44.4451717" lon="11.4337783"><ele>66.0</ele><time>2026-04-04T08:38:37.996Z</time></trkpt><trkpt lat="44.44509" lon="11.4337283"><ele>66.0</ele><time>2026-04-04T08:38:38.997Z</time></trkpt><trkpt lat="44.444985" lon="11.4336767"><ele>66.0</ele><time>2026-04-04T08:38:39.996Z</time></trkpt><trkpt lat="44.44486" lon="11.4336217"><ele>66.6</ele><time>2026-04-04T08:38:40.997Z</time></trkpt><trkpt lat="44.4447517" lon="11.4335667"><ele>67.19999999999999</ele><time>2026-04-04T08:38:41.997Z</time></trkpt><trkpt lat="44.4446417" lon="11.4335"><ele>67.80000000000001</ele><time>2026-04-04T08:38:42.996Z</time></trkpt><trkpt lat="44.4445383" lon="11.4334317"><ele>68.4</ele><time>2026-04-04T08:38:43.994Z</time></trkpt><trkpt lat="44.44445" lon="11.4333817"><ele>69.0</ele><time>2026-04-04T08:38:44.994Z</time></trkpt><trkpt lat="44.4443683" lon="11.4333483"><ele>70.4</ele><time>2026-04-04T08:38:45.996Z</time></trkpt><trkpt lat="44.4442883" lon="11.4333233"><ele>71.80000000000001</ele><time>2026-04-04T08:38:46.996Z</time></trkpt><trkpt lat="44.44413" lon="11.4333517"><ele>73.19999999999999</ele><time>2026-04-04T08:38:48.996Z</time></trkpt><trkpt lat="44.44405" lon="11.4333983"><ele>74.6</ele><time>2026-04-04T08:38:49.997Z</time></trkpt><trkpt lat="44.4439667" lon="11.4334733"><ele>76.0</ele><time>2026-04-04T08:38:50.995Z</time></trkpt><trkpt lat="44.44388" lon="11.4335683"><ele>76.8</ele><time>2026-04-04T08:38:51.994Z</time></trkpt><trkpt lat="44.4437933" lon="11.433655"><ele>77.6</ele><time>2026-04-04T08:38:52.995Z</time></trkpt><trkpt lat="44.4437067" lon="11.4337367"><ele>78.4</ele><time>2026-04-04T08:38:53.995Z</time></trkpt><trkpt lat="44.4436217" lon="11.4337983"><ele>79.2</ele><time>2026-04-04T08:38:54.995Z</time></trkpt><trkpt lat="44.4435367" lon="11.433855"><ele>80.0</ele><time>2026-04-04T08:38:55.996Z</time></trkpt><trkpt lat="44.443445" lon="11.43391"><ele>80.0</ele><time>2026-04-04T08:38:56.995Z</time></trkpt><trkpt lat="44.4433583" lon="11.4339867"><ele>80.0</ele><time>2026-04-04T08:38:57.995Z</time></trkpt><trkpt lat="44.4432783" lon="11.4340633"><ele>80.0</ele><time>2026-04-04T08:38:58.995Z</time></trkpt><trkpt lat="44.443215" lon="11.4341467"><ele>80.0</ele><time>2026-04-04T08:38:59.995Z</time></trkpt><trkpt lat="44.4431683" lon="11.4342317"><ele>80.0</ele><time>2026-04-04T08:39:00.996Z</time></trkpt><trkpt lat="44.44313" lon="11.4343283"><ele>80.0</ele><time>2026-04-04T08:39:01.998Z</time></trkpt><trkpt lat="44.44311" lon="11.4344283"><ele>80.0</ele><time>2026-04-04T08:39:02.996Z</time></trkpt><trkpt lat="44.44309" lon="11.4345183"><ele>80.0</ele><time>2026-04-04T08:39:03.996Z</time></trkpt><trkpt lat="44.44304" lon="11.4346633"><ele>80.0</ele><time>2026-04-04T08:39:05.997Z</time></trkpt><trkpt lat="44.4429533" lon="11.4347383"><ele>80.0</ele><time>2026-04-04T08:39:07.995Z</time></trkpt><trkpt lat="44.442745" lon="11.4346833"><ele>80.66666666666667</ele><time>2026-04-04T08:39:10.996Z</time></trkpt><trkpt lat="44.4426733" lon="11.4346517"><ele>81.33333333333334</ele><time>2026-04-04T08:39:11.997Z</time></trkpt><trkpt lat="44.4426117" lon="11.4346183"><ele>82.0</ele><time>2026-04-04T08:39:12.998Z</time></trkpt><trkpt lat="44.4425067" lon="11.4345617"><ele>82.66666666666667</ele><time>2026-04-04T08:39:14.996Z</time></trkpt><trkpt lat="44.442425" lon="11.4345233"><ele>83.33333333333333</ele><time>2026-04-04T08:39:16.996Z</time></trkpt><trkpt lat="44.4423633" lon="11.43449"><ele>84.0</ele><time>2026-04-04T08:39:17.995Z</time></trkpt><trkpt lat="44.4422867" lon="11.43446"><ele>84.0</ele><time>2026-04-04T08:39:18.999Z</time></trkpt><trkpt lat="44.4422083" lon="11.434435"><ele>84.0</ele><time>2026-04-04T08:39:19.998Z</time></trkpt><trkpt lat="44.442125" lon="11.4344017"><ele>84.0</ele><time>2026-04-04T08:39:20.998Z</time></trkpt><trkpt lat="44.4420383" lon="11.434375"><ele>84.0</ele><time>2026-04-04T08:39:21.996Z</time></trkpt><trkpt lat="44.4419517" lon="11.43434"><ele>84.0</ele><time>2026-04-04T08:39:22.996Z</time></trkpt><trkpt lat="44.441865" lon="11.4343167"><ele>84.0</ele><time>2026-04-04T08:39:23.997Z</time></trkpt><trkpt lat="44.4417817" lon="11.4342983"><ele>85.2</ele><time>2026-04-04T08:39:24.997Z</time></trkpt><trkpt lat="44.4417033" lon="11.434275"><ele>86.4</ele><time>2026-04-04T08:39:25.999Z</time></trkpt><trkpt lat="44.441615" lon="11.4342433"><ele>87.6</ele><time>2026-04-04T08:39:26.997Z</time></trkpt><trkpt lat="44.44152" lon="11.4341933"><ele>88.8</ele><time>2026-04-04T08:39:27.998Z</time></trkpt><trkpt lat="44.441425" lon="11.4341317"><ele>90.0</ele><time>2026-04-04T08:39:28.997Z</time></trkpt><trkpt lat="44.4412333" lon="11.4339617"><ele>90.4</ele><time>2026-04-04T08:39:30.994Z</time></trkpt><trkpt lat="44.4411417" lon="11.43387"><ele>90.8</ele><time>2026-04-04T08:39:31.995Z</time></trkpt><trkpt lat="44.4410533" lon="11.433785"><ele>91.19999999999999</ele><time>2026-04-04T08:39:32.997Z</time></trkpt><trkpt lat="44.4409633" lon="11.4337133"><ele>91.6</ele><time>2026-04-04T08:39:33.995Z</time></trkpt><trkpt lat="44.4408717" lon="11.43364"><ele>92.0</ele><time>2026-04-04T08:39:34.997Z</time></trkpt><trkpt lat="44.4407733" lon="11.43357"><ele>91.8</ele><time>2026-04-04T08:39:35.997Z</time></trkpt><trkpt lat="44.44067" lon="11.4334983"><ele>91.6</ele><time>2026-04-04T08:39:36.994Z</time></trkpt><trkpt lat="44.4405633" lon="11.4334267"><ele>91.39999999999999</ele><time>2026-04-04T08:39:37.997Z</time></trkpt><trkpt lat="44.4404617" lon="11.4333617"><ele>91.19999999999999</ele><time>2026-04-04T08:39:38.997Z</time></trkpt><trkpt lat="44.440375" lon="11.433305"><ele>91.0</ele><time>2026-04-04T08:39:39.997Z</time></trkpt><trkpt lat="44.440275" lon="11.433225"><ele>91.0</ele><time>2026-04-04T08:39:40.996Z</time></trkpt><trkpt lat="44.4401633" lon="11.4331267"><ele>91.0</ele><time>2026-04-04T08:39:41.998Z</time></trkpt><trkpt lat="44.4400533" lon="11.433025"><ele>91.0</ele><time>2026-04-04T08:39:42.997Z</time></trkpt><trkpt lat="44.43995" lon="11.4329217"><ele>91.0</ele><time>2026-04-04T08:39:43.996Z</time></trkpt><trkpt lat="44.43985" lon="11.43282"><ele>91.75</ele><time>2026-04-04T08:39:44.996Z</time></trkpt><trkpt lat="44.4397417" lon="11.4327133"><ele>92.5</ele><time>2026-04-04T08:39:45.996Z</time></trkpt><trkpt lat="44.4396233" lon="11.4326183"><ele>93.25</ele><time>2026-04-04T08:39:46.997Z</time></trkpt><trkpt lat="44.4394917" lon="11.432535"><ele>94.0</ele><time>2026-04-04T08:39:47.998Z</time></trkpt><trkpt lat="44.4393633" lon="11.43246"><ele>94.0</ele><time>2026-04-04T08:39:48.998Z</time></trkpt><trkpt lat="44.43924" lon="11.432385"><ele>94.0</ele><time>2026-04-04T08:39:49.997Z</time></trkpt><trkpt lat="44.4390417" lon="11.4322583"><ele>94.0</ele><time>2026-04-04T08:39:51.998Z</time></trkpt><trkpt lat="44.43896" lon="11.4322033"><ele>94.0</ele><time>2026-04-04T08:39:52.997Z</time></trkpt><trkpt lat="44.4388933" lon="11.43215"><ele>95.0</ele><time>2026-04-04T08:39:53.997Z</time></trkpt><trkpt lat="44.438825" lon="11.4320983"><ele>96.0</ele><time>2026-04-04T08:39:54.998Z</time></trkpt><trkpt lat="44.4387567" lon="11.4320433"><ele>97.0</ele><time>2026-04-04T08:39:55.995Z</time></trkpt><trkpt lat="44.4386883" lon="11.431965"><ele>98.0</ele><time>2026-04-04T08:39:56.994Z</time></trkpt><trkpt lat="44.43862" lon="11.4318817"><ele>99.00000000000001</ele><time>2026-04-04T08:39:57.997Z</time></trkpt><trkpt lat="44.4385433" lon="11.4318167"><ele>100.0</ele><time>2026-04-04T08:39:58.996Z</time></trkpt><trkpt lat="44.43846" lon="11.4317617"><ele>100.0</ele><time>2026-04-04T08:39:59.997Z</time></trkpt><trkpt lat="44.4383667" lon="11.4317333"><ele>100.0</ele><time>2026-04-04T08:40:00.997Z</time></trkpt><trkpt lat="44.4382483" lon="11.4317083"><ele>100.0</ele><time>2026-04-04T08:40:01.995Z</time></trkpt><trkpt lat="44.4381217" lon="11.4316833"><ele>100.0</ele><time>2026-04-04T08:40:02.998Z</time></trkpt><trkpt lat="44.4379867" lon="11.4316617"><ele>99.0</ele><time>2026-04-04T08:40:03.995Z</time></trkpt><trkpt lat="44.43785" lon="11.4316417"><ele>98.0</ele><time>2026-04-04T08:40:04.996Z</time></trkpt><trkpt lat="44.4377033" lon="11.4316267"><ele>97.0</ele><time>2026-04-04T08:40:05.997Z</time></trkpt><trkpt lat="44.4375533" lon="11.4316"><ele>96.0</ele><time>2026-04-04T08:40:06.998Z</time></trkpt><trkpt lat="44.4374183" lon="11.4315783"><ele>96.0</ele><time>2026-04-04T08:40:07.997Z</time></trkpt><trkpt lat="44.4372983" lon="11.4315517"><ele>96.0</ele><time>2026-04-04T08:40:08.997Z</time></trkpt><trkpt lat="44.43719" lon="11.4315333"><ele>96.0</ele><time>2026-04-04T08:40:09.997Z</time></trkpt><trkpt lat="44.4371083" lon="11.431515"><ele>96.0</ele><time>2026-04-04T08:40:10.997Z</time></trkpt><trkpt lat="44.4369333" lon="11.4314767"><ele>95.6</ele><time>2026-04-04T08:40:12.994Z</time></trkpt><trkpt lat="44.436835" lon="11.4314617"><ele>95.19999999999999</ele><time>2026-04-04T08:40:13.996Z</time></trkpt><trkpt lat="44.4367317" lon="11.4314533"><ele>94.80000000000001</ele><time>2026-04-04T08:40:14.996Z</time></trkpt><trkpt lat="44.4366233" lon="11.4314467"><ele>94.4</ele><time>2026-04-04T08:40:15.997Z</time></trkpt><trkpt lat="44.43651" lon="11.4314467"><ele>94.0</ele><time>2026-04-04T08:40:16.996Z</time></trkpt><trkpt lat="44.436405" lon="11.4314467"><ele>93.2</ele><time>2026-04-04T08:40:17.998Z</time></trkpt><trkpt lat="44.4362967" lon="11.4314483"><ele>92.4</ele><time>2026-04-04T08:40:18.995Z</time></trkpt><trkpt lat="44.43619" lon="11.4314567"><ele>91.6</ele><time>2026-04-04T08:40:19.997Z</time></trkpt><trkpt lat="44.4360833" lon="11.4314617"><ele>90.8</ele><time>2026-04-04T08:40:20.995Z</time></trkpt><trkpt lat="44.4359867" lon="11.431465"><ele>90.0</ele><time>2026-04-04T08:40:21.997Z</time></trkpt><trkpt lat="44.4359" lon="11.4314683"><ele>90.0</ele><time>2026-04-04T08:40:22.995Z</time></trkpt><trkpt lat="44.4358" lon="11.43147"><ele>90.0</ele><time>2026-04-04T08:40:23.998Z</time></trkpt><trkpt lat="44.43569" lon="11.4314783"><ele>90.0</ele><time>2026-04-04T08:40:24.997Z</time></trkpt><trkpt lat="44.4355733" lon="11.43148"><ele>90.0</ele><time>2026-04-04T08:40:25.995Z</time></trkpt><trkpt lat="44.4354633" lon="11.43149"><ele>90.0</ele><time>2026-04-04T08:40:26.997Z</time></trkpt><trkpt lat="44.4353567" lon="11.4315117"><ele>89.2</ele><time>2026-04-04T08:40:27.998Z</time></trkpt><trkpt lat="44.4352467" lon="11.4315417"><ele>88.4</ele><time>2026-04-04T08:40:28.996Z</time></trkpt><trkpt lat="44.4351383" lon="11.4315633"><ele>87.6</ele><time>2026-04-04T08:40:29.995Z</time></trkpt><trkpt lat="44.4350367" lon="11.4315917"><ele>86.8</ele><time>2026-04-04T08:40:30.998Z</time></trkpt><trkpt lat="44.434935" lon="11.4316183"><ele>86.0</ele><time>2026-04-04T08:40:31.997Z</time></trkpt><trkpt lat="44.43475" lon="11.4316733"><ele>86.0</ele><time>2026-04-04T08:40:33.996Z</time></trkpt><trkpt lat="44.43466" lon="11.431695"><ele>86.0</ele><time>2026-04-04T08:40:34.996Z</time></trkpt><trkpt lat="44.434575" lon="11.431715"><ele>86.0</ele><time>2026-04-04T08:40:35.997Z</time></trkpt><trkpt lat="44.43449" lon="11.4317367"><ele>86.0</ele><time>2026-04-04T08:40:36.998Z</time></trkpt><trkpt lat="44.4344017" lon="11.4317567"><ele>86.0</ele><time>2026-04-04T08:40:37.995Z</time></trkpt><trkpt lat="44.43431" lon="11.4317783"><ele>86.0</ele><time>2026-04-04T08:40:38.997Z</time></trkpt><trkpt lat="44.43422" lon="11.431805"><ele>84.8</ele><time>2026-04-04T08:40:39.996Z</time></trkpt><trkpt lat="44.43413" lon="11.4318333"><ele>83.6</ele><time>2026-04-04T08:40:40.998Z</time></trkpt><trkpt lat="44.4340433" lon="11.4318617"><ele>82.4</ele><time>2026-04-04T08:40:41.996Z</time></trkpt><trkpt lat="44.433955" lon="11.4318933"><ele>81.2</ele><time>2026-04-04T08:40:42.998Z</time></trkpt><trkpt lat="44.4338617" lon="11.4319367"><ele>80.0</ele><time>2026-04-04T08:40:43.997Z</time></trkpt><trkpt lat="44.4337633" lon="11.4319967"><ele>79.2</ele><time>2026-04-04T08:40:44.997Z</time></trkpt><trkpt lat="44.4336617" lon="11.43207"><ele>78.4</ele><time>2026-04-04T08:40:45.997Z</time></trkpt><trkpt lat="44.433565" lon="11.4321467"><ele>77.6</ele><time>2026-04-04T08:40:46.996Z</time></trkpt><trkpt lat="44.4334733" lon="11.4322267"><ele>76.8</ele><time>2026-04-04T08:40:47.995Z</time></trkpt><trkpt lat="44.4333883" lon="11.4323033"><ele>76.0</ele><time>2026-04-04T08:40:48.995Z</time></trkpt><trkpt lat="44.4333067" lon="11.4323717"><ele>76.0</ele><time>2026-04-04T08:40:49.995Z</time></trkpt><trkpt lat="44.433235" lon="11.4324317"><ele>76.0</ele><time>2026-04-04T08:40:50.995Z</time></trkpt><trkpt lat="44.4331683" lon="11.4324833"><ele>76.0</ele><time>2026-04-04T08:40:51.994Z</time></trkpt><trkpt lat="44.433105" lon="11.43252"><ele>76.0</ele><time>2026-04-04T08:40:52.994Z</time></trkpt><trkpt lat="44.4329667" lon="11.43257"><ele>76.0</ele><time>2026-04-04T08:40:54.999Z</time></trkpt><trkpt lat="44.4329" lon="11.43257"><ele>76.0</ele><time>2026-04-04T08:40:55.997Z</time></trkpt><trkpt lat="44.4328317" lon="11.4325517"><ele>76.0</ele><time>2026-04-04T08:40:56.997Z</time></trkpt><trkpt lat="44.4327617" lon="11.4325283"><ele>76.0</ele><time>2026-04-04T08:40:57.995Z</time></trkpt><trkpt lat="44.4326883" lon="11.4324917"><ele>76.0</ele><time>2026-04-04T08:40:59.001Z</time></trkpt><trkpt lat="44.4326067" lon="11.4324417"><ele>76.0</ele><time>2026-04-04T08:40:59.997Z</time></trkpt><trkpt lat="44.4325217" lon="11.4323867"><ele>76.0</ele><time>2026-04-04T08:41:00.996Z</time></trkpt><trkpt lat="44.4324317" lon="11.4323283"><ele>76.0</ele><time>2026-04-04T08:41:01.998Z</time></trkpt><trkpt lat="44.43234" lon="11.43227"><ele>76.0</ele><time>2026-04-04T08:41:02.997Z</time></trkpt><trkpt lat="44.4322417" lon="11.43221"><ele>76.0</ele><time>2026-04-04T08:41:03.998Z</time></trkpt><trkpt lat="44.4321383" lon="11.4321517"><ele>76.0</ele><time>2026-04-04T08:41:04.999Z</time></trkpt><trkpt lat="44.4320317" lon="11.4320883"><ele>76.0</ele><time>2026-04-04T08:41:05.998Z</time></trkpt><trkpt lat="44.4319217" lon="11.4320283"><ele>76.6</ele><time>2026-04-04T08:41:06.998Z</time></trkpt><trkpt lat="44.4318133" lon="11.4319667"><ele>77.19999999999999</ele><time>2026-04-04T08:41:07.995Z</time></trkpt><trkpt lat="44.4317133" lon="11.431905"><ele>77.80000000000001</ele><time>2026-04-04T08:41:08.998Z</time></trkpt><trkpt lat="44.4316133" lon="11.43185"><ele>78.4</ele><time>2026-04-04T08:41:09.997Z</time></trkpt><trkpt lat="44.4315167" lon="11.431795"><ele>79.0</ele><time>2026-04-04T08:41:10.997Z</time></trkpt><trkpt lat="44.4314233" lon="11.4317483"><ele>79.0</ele><time>2026-04-04T08:41:11.998Z</time></trkpt><trkpt lat="44.4313267" lon="11.431695"><ele>79.0</ele><time>2026-04-04T08:41:12.997Z</time></trkpt><trkpt lat="44.4312333" lon="11.4316467"><ele>79.0</ele><time>2026-04-04T08:41:14Z</time></trkpt><trkpt lat="44.4310717" lon="11.43155"><ele>79.0</ele><time>2026-04-04T08:41:15.996Z</time></trkpt><trkpt lat="44.4309983" lon="11.43151"><ele>78.83333333333333</ele><time>2026-04-04T08:41:16.997Z</time></trkpt><trkpt lat="44.430925" lon="11.431465"><ele>78.66666666666666</ele><time>2026-04-04T08:41:17.994Z</time></trkpt><trkpt lat="44.4308483" lon="11.4314167"><ele>78.5</ele><time>2026-04-04T08:41:18.996Z</time></trkpt><trkpt lat="44.4307667" lon="11.4313667"><ele>78.33333333333333</ele><time>2026-04-04T08:41:19.995Z</time></trkpt><trkpt lat="44.43069" lon="11.431325"><ele>78.16666666666667</ele><time>2026-04-04T08:41:20.994Z</time></trkpt><trkpt lat="44.4306083" lon="11.43128"><ele>78.0</ele><time>2026-04-04T08:41:21.995Z</time></trkpt><trkpt lat="44.4305317" lon="11.4312417"><ele>78.0</ele><time>2026-04-04T08:41:22.996Z</time></trkpt><trkpt lat="44.4304533" lon="11.4312033"><ele>78.0</ele><time>2026-04-04T08:41:23.994Z</time></trkpt><trkpt lat="44.43037" lon="11.4311583"><ele>78.0</ele><time>2026-04-04T08:41:24.994Z</time></trkpt><trkpt lat="44.4302883" lon="11.4311183"><ele>78.0</ele><time>2026-04-04T08:41:25.997Z</time></trkpt><trkpt lat="44.430215" lon="11.4310783"><ele>78.0</ele><time>2026-04-04T08:41:26.995Z</time></trkpt><trkpt lat="44.43014" lon="11.4310383"><ele>78.0</ele><time>2026-04-04T08:41:27.994Z</time></trkpt><trkpt lat="44.43006" lon="11.4310017"><ele>78.0</ele><time>2026-04-04T08:41:28.995Z</time></trkpt><trkpt lat="44.4299783" lon="11.4309567"><ele>78.0</ele><time>2026-04-04T08:41:29.998Z</time></trkpt><trkpt lat="44.42991" lon="11.4309017"><ele>78.0</ele><time>2026-04-04T08:41:30.998Z</time></trkpt><trkpt lat="44.4298433" lon="11.4308333"><ele>78.0</ele><time>2026-04-04T08:41:31.997Z</time></trkpt><trkpt lat="44.429775" lon="11.43076"><ele>78.0</ele><time>2026-04-04T08:41:32.995Z</time></trkpt><trkpt lat="44.4297217" lon="11.4306917"><ele>78.0</ele><time>2026-04-04T08:41:33.997Z</time></trkpt><trkpt lat="44.4296517" lon="11.430595"><ele>78.25</ele><time>2026-04-04T08:41:34.998Z</time></trkpt><trkpt lat="44.42952" lon="11.4303667"><ele>78.5</ele><time>2026-04-04T08:41:36.997Z</time></trkpt><trkpt lat="44.4294567" lon="11.43025"><ele>78.75</ele><time>2026-04-04T08:41:37.997Z</time></trkpt><trkpt lat="44.4293917" lon="11.4301217"><ele>79.0</ele><time>2026-04-04T08:41:38.996Z</time></trkpt><trkpt lat="44.4293283" lon="11.4299933"><ele>79.0</ele><time>2026-04-04T08:41:39.996Z</time></trkpt><trkpt lat="44.4292633" lon="11.429865"><ele>79.0</ele><time>2026-04-04T08:41:40.996Z</time></trkpt><trkpt lat="44.429195" lon="11.4297333"><ele>79.0</ele><time>2026-04-04T08:41:41.998Z</time></trkpt><trkpt lat="44.4291333" lon="11.42961"><ele>79.0</ele><time>2026-04-04T08:41:42.996Z</time></trkpt><trkpt lat="44.4290717" lon="11.4294867"><ele>79.0</ele><time>2026-04-04T08:41:43.997Z</time></trkpt><trkpt lat="44.4290117" lon="11.4293683"><ele>78.8</ele><time>2026-04-04T08:41:44.998Z</time></trkpt><trkpt lat="44.428945" lon="11.4292533"><ele>78.60000000000001</ele><time>2026-04-04T08:41:45.997Z</time></trkpt><trkpt lat="44.4288883" lon="11.4291483"><ele>78.4</ele><time>2026-04-04T08:41:46.996Z</time></trkpt><trkpt lat="44.428825" lon="11.429035"><ele>78.2</ele><time>2026-04-04T08:41:47.995Z</time></trkpt><trkpt lat="44.42876" lon="11.42892"><ele>78.0</ele><time>2026-04-04T08:41:48.994Z</time></trkpt><trkpt lat="44.4286933" lon="11.4288033"><ele>79.4</ele><time>2026-04-04T08:41:49.995Z</time></trkpt><trkpt lat="44.428625" lon="11.42869"><ele>80.8</ele><time>2026-04-04T08:41:50.995Z</time></trkpt><trkpt lat="44.4285533" lon="11.4285867"><ele>82.2</ele><time>2026-04-04T08:41:51.995Z</time></trkpt><trkpt lat="44.428475" lon="11.428485"><ele>83.6</ele><time>2026-04-04T08:41:52.994Z</time></trkpt><trkpt lat="44.4283967" lon="11.4283783"><ele>85.0</ele><time>2026-04-04T08:41:53.994Z</time></trkpt><trkpt lat="44.42831" lon="11.428275"><ele>85.0</ele><time>2026-04-04T08:41:54.998Z</time></trkpt><trkpt lat="44.4282167" lon="11.42817"><ele>85.0</ele><time>2026-04-04T08:41:55.997Z</time></trkpt><trkpt lat="44.4280433" lon="11.4279733"><ele>85.0</ele><time>2026-04-04T08:41:57.996Z</time></trkpt><trkpt lat="44.4279617" lon="11.4278933"><ele>85.0</ele><time>2026-04-04T08:41:58.995Z</time></trkpt><trkpt lat="44.4278867" lon="11.4278233"><ele>85.5</ele><time>2026-04-04T08:41:59.995Z</time></trkpt><trkpt lat="44.42782" lon="11.4277567"><ele>86.0</ele><time>2026-04-04T08:42:00.995Z</time></trkpt><trkpt lat="44.4277533" lon="11.4276883"><ele>86.5</ele><time>2026-04-04T08:42:01.995Z</time></trkpt><trkpt lat="44.427685" lon="11.42762"><ele>87.0</ele><time>2026-04-04T08:42:02.993Z</time></trkpt><trkpt lat="44.4276117" lon="11.4275583"><ele>87.5</ele><time>2026-04-04T08:42:03.994Z</time></trkpt><trkpt lat="44.4275367" lon="11.427505"><ele>88.0</ele><time>2026-04-04T08:42:04.997Z</time></trkpt><trkpt lat="44.4274617" lon="11.4274567"><ele>88.0</ele><time>2026-04-04T08:42:05.994Z</time></trkpt><trkpt lat="44.4273817" lon="11.4274183"><ele>88.0</ele><time>2026-04-04T08:42:06.995Z</time></trkpt><trkpt lat="44.4272967" lon="11.4273767"><ele>88.0</ele><time>2026-04-04T08:42:07.996Z</time></trkpt><trkpt lat="44.427205" lon="11.4273317"><ele>88.0</ele><time>2026-04-04T08:42:08.995Z</time></trkpt><trkpt lat="44.4271083" lon="11.4272833"><ele>88.0</ele><time>2026-04-04T08:42:09.994Z</time></trkpt><trkpt lat="44.42701" lon="11.42723"><ele>86.75</ele><time>2026-04-04T08:42:10.996Z</time></trkpt><trkpt lat="44.426905" lon="11.427175"><ele>85.5</ele><time>2026-04-04T08:42:11.995Z</time></trkpt><trkpt lat="44.4267933" lon="11.4271183"><ele>84.25</ele><time>2026-04-04T08:42:12.994Z</time></trkpt><trkpt lat="44.4266817" lon="11.4270583"><ele>83.0</ele><time>2026-04-04T08:42:13.995Z</time></trkpt><trkpt lat="44.4265767" lon="11.427"><ele>83.0</ele><time>2026-04-04T08:42:14.995Z</time></trkpt><trkpt lat="44.42648" lon="11.42695"><ele>83.0</ele><time>2026-04-04T08:42:15.996Z</time></trkpt><trkpt lat="44.4263883" lon="11.426905"><ele>83.0</ele><time>2026-04-04T08:42:16.997Z</time></trkpt><trkpt lat="44.4262" lon="11.426805"><ele>83.0</ele><time>2026-04-04T08:42:18.999Z</time></trkpt><trkpt lat="44.4261083" lon="11.4267517"><ele>83.0</ele><time>2026-04-04T08:42:19.994Z</time></trkpt><trkpt lat="44.426025" lon="11.426695"><ele>83.0</ele><time>2026-04-04T08:42:20.994Z</time></trkpt><trkpt lat="44.4259467" lon="11.426645"><ele>83.0</ele><time>2026-04-04T08:42:21.997Z</time></trkpt><trkpt lat="44.4258667" lon="11.4266017"><ele>83.0</ele><time>2026-04-04T08:42:22.997Z</time></trkpt><trkpt lat="44.42579" lon="11.426555"><ele>83.0</ele><time>2026-04-04T08:42:23.996Z</time></trkpt><trkpt lat="44.4257133" lon="11.4265067"><ele>83.0</ele><time>2026-04-04T08:42:24.997Z</time></trkpt><trkpt lat="44.4256317" lon="11.4264517"><ele>83.0</ele><time>2026-04-04T08:42:25.998Z</time></trkpt><trkpt lat="44.42555" lon="11.426395"><ele>83.0</ele><time>2026-04-04T08:42:26.997Z</time></trkpt><trkpt lat="44.42546" lon="11.4263383"><ele>83.0</ele><time>2026-04-04T08:42:27.996Z</time></trkpt><trkpt lat="44.4253717" lon="11.426285"><ele>83.0</ele><time>2026-04-04T08:42:28.998Z</time></trkpt><trkpt lat="44.4252717" lon="11.42623"><ele>83.0</ele><time>2026-04-04T08:42:29.994Z</time></trkpt><trkpt lat="44.4251667" lon="11.426175"><ele>83.75</ele><time>2026-04-04T08:42:31Z</time></trkpt><trkpt lat="44.4250567" lon="11.4261183"><ele>84.5</ele><time>2026-04-04T08:42:31.995Z</time></trkpt><trkpt lat="44.424945" lon="11.4260667"><ele>85.25</ele><time>2026-04-04T08:42:32.997Z</time></trkpt><trkpt lat="44.4248333" lon="11.42601"><ele>86.0</ele><time>2026-04-04T08:42:33.995Z</time></trkpt><trkpt lat="44.4247283" lon="11.425955"><ele>84.75</ele><time>2026-04-04T08:42:34.995Z</time></trkpt><trkpt lat="44.4246183" lon="11.42589"><ele>83.5</ele><time>2026-04-04T08:42:35.995Z</time></trkpt><trkpt lat="44.4245067" lon="11.4258267"><ele>82.25</ele><time>2026-04-04T08:42:36.997Z</time></trkpt><trkpt lat="44.4244017" lon="11.4257583"><ele>81.0</ele><time>2026-04-04T08:42:37.997Z</time></trkpt><trkpt lat="44.424185" lon="11.4256217"><ele>81.0</ele><time>2026-04-04T08:42:39.995Z</time></trkpt><trkpt lat="44.424075" lon="11.4255567"><ele>81.0</ele><time>2026-04-04T08:42:40.998Z</time></trkpt><trkpt lat="44.4239617" lon="11.4254917"><ele>81.0</ele><time>2026-04-04T08:42:41.996Z</time></trkpt><trkpt lat="44.4238433" lon="11.4254283"><ele>81.0</ele><time>2026-04-04T08:42:42.995Z</time></trkpt><trkpt lat="44.4237217" lon="11.42536"><ele>82.0</ele><time>2026-04-04T08:42:43.998Z</time></trkpt><trkpt lat="44.423605" lon="11.4252883"><ele>83.0</ele><time>2026-04-04T08:42:44.998Z</time></trkpt><trkpt lat="44.4234833" lon="11.4252217"><ele>84.0</ele><time>2026-04-04T08:42:45.996Z</time></trkpt><trkpt lat="44.4233583" lon="11.4251517"><ele>85.0</ele><time>2026-04-04T08:42:46.997Z</time></trkpt><trkpt lat="44.4232283" lon="11.42508"><ele>85.0</ele><time>2026-04-04T08:42:47.998Z</time></trkpt><trkpt lat="44.4231" lon="11.425005"><ele>85.0</ele><time>2026-04-04T08:42:48.996Z</time></trkpt><trkpt lat="44.4229733" lon="11.4249267"><ele>85.0</ele><time>2026-04-04T08:42:49.996Z</time></trkpt><trkpt lat="44.4228533" lon="11.4248583"><ele>85.0</ele><time>2026-04-04T08:42:50.994Z</time></trkpt><trkpt lat="44.4227333" lon="11.4247917"><ele>85.25</ele><time>2026-04-04T08:42:51.995Z</time></trkpt><trkpt lat="44.42261" lon="11.4247183"><ele>85.5</ele><time>2026-04-04T08:42:52.996Z</time></trkpt><trkpt lat="44.42248" lon="11.424645"><ele>85.75</ele><time>2026-04-04T08:42:53.995Z</time></trkpt><trkpt lat="44.4223533" lon="11.4245717"><ele>86.0</ele><time>2026-04-04T08:42:54.995Z</time></trkpt><trkpt lat="44.4222367" lon="11.4245"><ele>85.75</ele><time>2026-04-04T08:42:55.996Z</time></trkpt><trkpt lat="44.422125" lon="11.424435"><ele>85.5</ele><time>2026-04-04T08:42:56.997Z</time></trkpt><trkpt lat="44.4220167" lon="11.4243717"><ele>85.25</ele><time>2026-04-04T08:42:57.998Z</time></trkpt><trkpt lat="44.42191" lon="11.4243133"><ele>85.0</ele><time>2026-04-04T08:42:58.996Z</time></trkpt><trkpt lat="44.4217083" lon="11.4242017"><ele>85.0</ele><time>2026-04-04T08:43:00.997Z</time></trkpt><trkpt lat="44.4216083" lon="11.4241483"><ele>85.0</ele><time>2026-04-04T08:43:01.996Z</time></trkpt><trkpt lat="44.4215083" lon="11.4240917"><ele>85.0</ele><time>2026-04-04T08:43:02.994Z</time></trkpt><trkpt lat="44.4214017" lon="11.4240333"><ele>85.0</ele><time>2026-04-04T08:43:03.994Z</time></trkpt><trkpt lat="44.42129" lon="11.423975"><ele>85.0</ele><time>2026-04-04T08:43:04.995Z</time></trkpt><trkpt lat="44.4211783" lon="11.4239083"><ele>85.5</ele><time>2026-04-04T08:43:05.994Z</time></trkpt><trkpt lat="44.4210733" lon="11.4238517"><ele>86.0</ele><time>2026-04-04T08:43:06.995Z</time></trkpt><trkpt lat="44.4209683" lon="11.4237983"><ele>86.5</ele><time>2026-04-04T08:43:07.997Z</time></trkpt><trkpt lat="44.4208617" lon="11.4237383"><ele>87.0</ele><time>2026-04-04T08:43:08.998Z</time></trkpt><trkpt lat="44.4207567" lon="11.423685"><ele>88.6</ele><time>2026-04-04T08:43:09.997Z</time></trkpt><trkpt lat="44.4206517" lon="11.4236283"><ele>90.19999999999999</ele><time>2026-04-04T08:43:10.995Z</time></trkpt><trkpt lat="44.4205483" lon="11.42358"><ele>91.8</ele><time>2026-04-04T08:43:11.994Z</time></trkpt><trkpt lat="44.42044" lon="11.4235283"><ele>93.4</ele><time>2026-04-04T08:43:12.994Z</time></trkpt><trkpt lat="44.4203367" lon="11.423475"><ele>95.0</ele><time>2026-04-04T08:43:13.994Z</time></trkpt><trkpt lat="44.4202367" lon="11.4234217"><ele>95.0</ele><time>2026-04-04T08:43:14.995Z</time></trkpt><trkpt lat="44.4201233" lon="11.4233683"><ele>95.0</ele><time>2026-04-04T08:43:15.994Z</time></trkpt><trkpt lat="44.420025" lon="11.4233183"><ele>95.0</ele><time>2026-04-04T08:43:16.996Z</time></trkpt><trkpt lat="44.41993" lon="11.4232633"><ele>95.0</ele><time>2026-04-04T08:43:17.995Z</time></trkpt><trkpt lat="44.4198317" lon="11.4232133"><ele>95.0</ele><time>2026-04-04T08:43:18.994Z</time></trkpt><trkpt lat="44.41973" lon="11.4231683"><ele>94.0</ele><time>2026-04-04T08:43:19.997Z</time></trkpt><trkpt lat="44.4195217" lon="11.423105"><ele>93.0</ele><time>2026-04-04T08:43:21.995Z</time></trkpt><trkpt lat="44.41941" lon="11.4230867"><ele>92.0</ele><time>2026-04-04T08:43:22.997Z</time></trkpt><trkpt lat="44.4192917" lon="11.423075"><ele>91.0</ele><time>2026-04-04T08:43:23.996Z</time></trkpt><trkpt lat="44.419185" lon="11.42305"><ele>91.0</ele><time>2026-04-04T08:43:24.995Z</time></trkpt><trkpt lat="44.4190733" lon="11.4230233"><ele>91.0</ele><time>2026-04-04T08:43:25.994Z</time></trkpt><trkpt lat="44.418965" lon="11.422995"><ele>91.0</ele><time>2026-04-04T08:43:26.996Z</time></trkpt><trkpt lat="44.4188333" lon="11.4229717"><ele>91.0</ele><time>2026-04-04T08:43:27.998Z</time></trkpt><trkpt lat="44.4186767" lon="11.4229617"><ele>93.75</ele><time>2026-04-04T08:43:28.998Z</time></trkpt><trkpt lat="44.4185283" lon="11.42295"><ele>96.5</ele><time>2026-04-04T08:43:29.996Z</time></trkpt><trkpt lat="44.418395" lon="11.422935"><ele>99.25</ele><time>2026-04-04T08:43:30.997Z</time></trkpt><trkpt lat="44.4182483" lon="11.4229417"><ele>102.0</ele><time>2026-04-04T08:43:31.997Z</time></trkpt><trkpt lat="44.418105" lon="11.42296"><ele>99.75</ele><time>2026-04-04T08:43:32.994Z</time></trkpt><trkpt lat="44.41796" lon="11.4229883"><ele>97.5</ele><time>2026-04-04T08:43:33.995Z</time></trkpt><trkpt lat="44.4178217" lon="11.423025"><ele>95.25</ele><time>2026-04-04T08:43:34.995Z</time></trkpt><trkpt lat="44.4176933" lon="11.4230467"><ele>93.0</ele><time>2026-04-04T08:43:35.998Z</time></trkpt><trkpt lat="44.4175567" lon="11.4230583"><ele>93.0</ele><time>2026-04-04T08:43:36.998Z</time></trkpt><trkpt lat="44.4174267" lon="11.42308"><ele>93.0</ele><time>2026-04-04T08:43:37.997Z</time></trkpt><trkpt lat="44.4173067" lon="11.4230983"><ele>93.0</ele><time>2026-04-04T08:43:38.995Z</time></trkpt><trkpt lat="44.4171733" lon="11.4231333"><ele>93.0</ele><time>2026-04-04T08:43:39.994Z</time></trkpt><trkpt lat="44.4170333" lon="11.423175"><ele>92.66666666666667</ele><time>2026-04-04T08:43:40.996Z</time></trkpt><trkpt lat="44.4167417" lon="11.4232617"><ele>92.33333333333334</ele><time>2026-04-04T08:43:42.997Z</time></trkpt><trkpt lat="44.416595" lon="11.423305"><ele>92.0</ele><time>2026-04-04T08:43:43.997Z</time></trkpt><trkpt lat="44.41645" lon="11.4233483"><ele>91.75</ele><time>2026-04-04T08:43:44.998Z</time></trkpt><trkpt lat="44.4163133" lon="11.4233867"><ele>91.5</ele><time>2026-04-04T08:43:45.997Z</time></trkpt><trkpt lat="44.41617" lon="11.423425"><ele>91.25</ele><time>2026-04-04T08:43:46.996Z</time></trkpt><trkpt lat="44.4160317" lon="11.4234617"><ele>91.0</ele><time>2026-04-04T08:43:47.998Z</time></trkpt><trkpt lat="44.415895" lon="11.4235017"><ele>91.0</ele><time>2026-04-04T08:43:48.998Z</time></trkpt><trkpt lat="44.41576" lon="11.4235417"><ele>91.0</ele><time>2026-04-04T08:43:49.999Z</time></trkpt><trkpt lat="44.4156267" lon="11.4235817"><ele>91.0</ele><time>2026-04-04T08:43:50.997Z</time></trkpt><trkpt lat="44.4154983" lon="11.42362"><ele>91.0</ele><time>2026-04-04T08:43:51.997Z</time></trkpt><trkpt lat="44.415375" lon="11.423655"><ele>91.5</ele><time>2026-04-04T08:43:52.997Z</time></trkpt><trkpt lat="44.4152567" lon="11.42369"><ele>92.0</ele><time>2026-04-04T08:43:53.998Z</time></trkpt><trkpt lat="44.415135" lon="11.4237267"><ele>92.5</ele><time>2026-04-04T08:43:54.998Z</time></trkpt><trkpt lat="44.4150133" lon="11.42376"><ele>93.0</ele><time>2026-04-04T08:43:55.997Z</time></trkpt><trkpt lat="44.4148933" lon="11.4237883"><ele>93.25</ele><time>2026-04-04T08:43:57.001Z</time></trkpt><trkpt lat="44.4147717" lon="11.42382"><ele>93.5</ele><time>2026-04-04T08:43:57.998Z</time></trkpt><trkpt lat="44.4146533" lon="11.4238533"><ele>93.75</ele><time>2026-04-04T08:43:58.997Z</time></trkpt><trkpt lat="44.414535" lon="11.4238817"><ele>94.0</ele><time>2026-04-04T08:43:59.997Z</time></trkpt><trkpt lat="44.4144167" lon="11.4239117"><ele>94.0</ele><time>2026-04-04T08:44:00.997Z</time></trkpt><trkpt lat="44.41429" lon="11.4239517"><ele>94.0</ele><time>2026-04-04T08:44:01.997Z</time></trkpt><trkpt lat="44.4140383" lon="11.42404"><ele>94.0</ele><time>2026-04-04T08:44:03.999Z</time></trkpt><trkpt lat="44.41391" lon="11.4240767"><ele>94.25</ele><time>2026-04-04T08:44:04.997Z</time></trkpt><trkpt lat="44.4137883" lon="11.42411"><ele>94.5</ele><time>2026-04-04T08:44:05.998Z</time></trkpt><trkpt lat="44.4136633" lon="11.4241433"><ele>94.75</ele><time>2026-04-04T08:44:06.998Z</time></trkpt><trkpt lat="44.41354" lon="11.4241783"><ele>95.0</ele><time>2026-04-04T08:44:07.998Z</time></trkpt><trkpt lat="44.41342" lon="11.4242133"><ele>95.0</ele><time>2026-04-04T08:44:08.998Z</time></trkpt><trkpt lat="44.4133033" lon="11.4242417"><ele>95.0</ele><time>2026-04-04T08:44:09.998Z</time></trkpt><trkpt lat="44.41319" lon="11.4242683"><ele>95.0</ele><time>2026-04-04T08:44:10.997Z</time></trkpt><trkpt lat="44.4130833" lon="11.4243017"><ele>95.0</ele><time>2026-04-04T08:44:11.997Z</time></trkpt><trkpt lat="44.4129733" lon="11.4243267"><ele>94.75</ele><time>2026-04-04T08:44:12.997Z</time></trkpt><trkpt lat="44.4128567" lon="11.424355"><ele>94.5</ele><time>2026-04-04T08:44:13.998Z</time></trkpt><trkpt lat="44.4127367" lon="11.4243883"><ele>94.25</ele><time>2026-04-04T08:44:14.997Z</time></trkpt><trkpt lat="44.412615" lon="11.4244267"><ele>94.0</ele><time>2026-04-04T08:44:16Z</time></trkpt><trkpt lat="44.41249" lon="11.42446"><ele>94.0</ele><time>2026-04-04T08:44:17Z</time></trkpt><trkpt lat="44.412365" lon="11.424495"><ele>94.0</ele><time>2026-04-04T08:44:17.998Z</time></trkpt><trkpt lat="44.412235" lon="11.4245333"><ele>94.0</ele><time>2026-04-04T08:44:18.995Z</time></trkpt><trkpt lat="44.4120967" lon="11.4245733"><ele>94.0</ele><time>2026-04-04T08:44:19.998Z</time></trkpt><trkpt lat="44.4119533" lon="11.4246067"><ele>94.0</ele><time>2026-04-04T08:44:21Z</time></trkpt><trkpt lat="44.4118167" lon="11.4246467"><ele>94.0</ele><time>2026-04-04T08:44:21.997Z</time></trkpt><trkpt lat="44.411685" lon="11.4246917"><ele>94.0</ele><time>2026-04-04T08:44:22.996Z</time></trkpt><trkpt lat="44.411435" lon="11.4247583"><ele>94.25</ele><time>2026-04-04T08:44:24.997Z</time></trkpt><trkpt lat="44.4113083" lon="11.4247983"><ele>94.5</ele><time>2026-04-04T08:44:25.998Z</time></trkpt><trkpt lat="44.4111783" lon="11.42484"><ele>94.75</ele><time>2026-04-04T08:44:26.994Z</time></trkpt><trkpt lat="44.411045" lon="11.4248783"><ele>95.0</ele><time>2026-04-04T08:44:27.995Z</time></trkpt><trkpt lat="44.4109117" lon="11.4249133"><ele>95.0</ele><time>2026-04-04T08:44:28.998Z</time></trkpt><trkpt lat="44.4107883" lon="11.424945"><ele>95.0</ele><time>2026-04-04T08:44:29.998Z</time></trkpt><trkpt lat="44.410675" lon="11.424975"><ele>95.0</ele><time>2026-04-04T08:44:30.998Z</time></trkpt><trkpt lat="44.4105667" lon="11.4249967"><ele>95.0</ele><time>2026-04-04T08:44:31.997Z</time></trkpt><trkpt lat="44.4104533" lon="11.4250017"><ele>95.25</ele><time>2026-04-04T08:44:32.998Z</time></trkpt><trkpt lat="44.4103367" lon="11.4250033"><ele>95.5</ele><time>2026-04-04T08:44:33.998Z</time></trkpt><trkpt lat="44.41022" lon="11.42499"><ele>95.75</ele><time>2026-04-04T08:44:34.997Z</time></trkpt><trkpt lat="44.4101017" lon="11.424975"><ele>96.0</ele><time>2026-04-04T08:44:35.997Z</time></trkpt><trkpt lat="44.4099867" lon="11.4249633"><ele>96.0</ele><time>2026-04-04T08:44:36.997Z</time></trkpt><trkpt lat="44.4098767" lon="11.42495"><ele>96.0</ele><time>2026-04-04T08:44:37.997Z</time></trkpt><trkpt lat="44.40977" lon="11.42494"><ele>96.0</ele><time>2026-04-04T08:44:38.998Z</time></trkpt><trkpt lat="44.40966" lon="11.4249233"><ele>96.0</ele><time>2026-04-04T08:44:39.998Z</time></trkpt><trkpt lat="44.4095383" lon="11.42491"><ele>96.25</ele><time>2026-04-04T08:44:40.996Z</time></trkpt><trkpt lat="44.40942" lon="11.4248967"><ele>96.5</ele><time>2026-04-04T08:44:41.996Z</time></trkpt><trkpt lat="44.4093167" lon="11.4248833"><ele>96.75</ele><time>2026-04-04T08:44:42.997Z</time></trkpt><trkpt lat="44.40921" lon="11.424875"><ele>97.0</ele><time>2026-04-04T08:44:43.998Z</time></trkpt><trkpt lat="44.4089867" lon="11.4248617"><ele>97.0</ele><time>2026-04-04T08:44:45.996Z</time></trkpt><trkpt lat="44.4088783" lon="11.424855"><ele>97.0</ele><time>2026-04-04T08:44:46.997Z</time></trkpt><trkpt lat="44.40876" lon="11.4248433"><ele>97.0</ele><time>2026-04-04T08:44:47.996Z</time></trkpt><trkpt lat="44.4086367" lon="11.42483"><ele>97.0</ele><time>2026-04-04T08:44:48.997Z</time></trkpt><trkpt lat="44.4085067" lon="11.424815"><ele>96.5</ele><time>2026-04-04T08:44:49.997Z</time></trkpt><trkpt lat="44.40838" lon="11.4248017"><ele>96.0</ele><time>2026-04-04T08:44:50.998Z</time></trkpt><trkpt lat="44.4082567" lon="11.4247883"><ele>95.5</ele><time>2026-04-04T08:44:51.997Z</time></trkpt><trkpt lat="44.408135" lon="11.4247783"><ele>95.0</ele><time>2026-04-04T08:44:52.997Z</time></trkpt><trkpt lat="44.4080083" lon="11.4247667"><ele>95.0</ele><time>2026-04-04T08:44:53.998Z</time></trkpt><trkpt lat="44.4078783" lon="11.424755"><ele>95.0</ele><time>2026-04-04T08:44:54.997Z</time></trkpt><trkpt lat="44.407745" lon="11.424745"><ele>95.0</ele><time>2026-04-04T08:44:55.997Z</time></trkpt><trkpt lat="44.40761" lon="11.424735"><ele>95.0</ele><time>2026-04-04T08:44:56.998Z</time></trkpt><trkpt lat="44.407465" lon="11.4247233"><ele>95.0</ele><time>2026-04-04T08:44:57.995Z</time></trkpt><trkpt lat="44.4073133" lon="11.4247133"><ele>95.0</ele><time>2026-04-04T08:44:58.997Z</time></trkpt><trkpt lat="44.4071583" lon="11.4247017"><ele>95.0</ele><time>2026-04-04T08:44:59.998Z</time></trkpt><trkpt lat="44.40701" lon="11.4246867"><ele>95.5</ele><time>2026-04-04T08:45:00.998Z</time></trkpt><trkpt lat="44.4068717" lon="11.4246717"><ele>96.0</ele><time>2026-04-04T08:45:01.997Z</time></trkpt><trkpt lat="44.4067417" lon="11.4246533"><ele>96.5</ele><time>2026-04-04T08:45:02.995Z</time></trkpt><trkpt lat="44.4066167" lon="11.4246283"><ele>97.0</ele><time>2026-04-04T08:45:03.994Z</time></trkpt><trkpt lat="44.406495" lon="11.4245933"><ele>98.33333333333334</ele><time>2026-04-04T08:45:04.998Z</time></trkpt><trkpt lat="44.406265" lon="11.424505"><ele>99.66666666666666</ele><time>2026-04-04T08:45:06.998Z</time></trkpt><trkpt lat="44.4061583" lon="11.4244433"><ele>101.0</ele><time>2026-04-04T08:45:07.998Z</time></trkpt><trkpt lat="44.406065" lon="11.4243767"><ele>101.0</ele><time>2026-04-04T08:45:08.997Z</time></trkpt><trkpt lat="44.405985" lon="11.4243117"><ele>101.0</ele><time>2026-04-04T08:45:09.994Z</time></trkpt><trkpt lat="44.405915" lon="11.42424"><ele>101.0</ele><time>2026-04-04T08:45:10.997Z</time></trkpt><trkpt lat="44.405845" lon="11.4241583"><ele>101.0</ele><time>2026-04-04T08:45:11.996Z</time></trkpt><trkpt lat="44.4057717" lon="11.42408"><ele>101.0</ele><time>2026-04-04T08:45:12.997Z</time></trkpt><trkpt lat="44.4056933" lon="11.4239883"><ele>101.0</ele><time>2026-04-04T08:45:13.998Z</time></trkpt><trkpt lat="44.40562" lon="11.4238867"><ele>101.0</ele><time>2026-04-04T08:45:14.997Z</time></trkpt><trkpt lat="44.4055483" lon="11.4237683"><ele>101.0</ele><time>2026-04-04T08:45:15.997Z</time></trkpt><trkpt lat="44.4054767" lon="11.42365"><ele>101.0</ele><time>2026-04-04T08:45:16.998Z</time></trkpt><trkpt lat="44.4054017" lon="11.4235317"><ele>101.0</ele><time>2026-04-04T08:45:17.997Z</time></trkpt><trkpt lat="44.4053217" lon="11.423415"><ele>102.8</ele><time>2026-04-04T08:45:18.995Z</time></trkpt><trkpt lat="44.405235" lon="11.4233083"><ele>104.6</ele><time>2026-04-04T08:45:19.995Z</time></trkpt><trkpt lat="44.40515" lon="11.4232183"><ele>106.4</ele><time>2026-04-04T08:45:20.995Z</time></trkpt><trkpt lat="44.40506" lon="11.4231333"><ele>108.2</ele><time>2026-04-04T08:45:21.994Z</time></trkpt><trkpt lat="44.4049667" lon="11.423065"><ele>110.0</ele><time>2026-04-04T08:45:22.997Z</time></trkpt><trkpt lat="44.4048733" lon="11.422995"><ele>112.5</ele><time>2026-04-04T08:45:23.995Z</time></trkpt><trkpt lat="44.4047767" lon="11.422935"><ele>115.0</ele><time>2026-04-04T08:45:24.995Z</time></trkpt><trkpt lat="44.4046733" lon="11.42287"><ele>117.5</ele><time>2026-04-04T08:45:25.996Z</time></trkpt><trkpt lat="44.4044633" lon="11.422785"><ele>120.0</ele><time>2026-04-04T08:45:27.995Z</time></trkpt><trkpt lat="44.4043617" lon="11.4227567"><ele>120.0</ele><time>2026-04-04T08:45:28.996Z</time></trkpt><trkpt lat="44.404265" lon="11.422735"><ele>120.0</ele><time>2026-04-04T08:45:29.996Z</time></trkpt><trkpt lat="44.4041717" lon="11.42272"><ele>120.0</ele><time>2026-04-04T08:45:31Z</time></trkpt><trkpt lat="44.40408" lon="11.4227083"><ele>120.0</ele><time>2026-04-04T08:45:31.998Z</time></trkpt><trkpt lat="44.4039883" lon="11.422705"><ele>120.0</ele><time>2026-04-04T08:45:32.996Z</time></trkpt><trkpt lat="44.4039" lon="11.4227133"><ele>120.2</ele><time>2026-04-04T08:45:33.996Z</time></trkpt><trkpt lat="44.4038083" lon="11.42272"><ele>120.4</ele><time>2026-04-04T08:45:34.994Z</time></trkpt><trkpt lat="44.40372" lon="11.4227267"><ele>120.6</ele><time>2026-04-04T08:45:35.996Z</time></trkpt><trkpt lat="44.403625" lon="11.4227483"><ele>120.8</ele><time>2026-04-04T08:45:36.995Z</time></trkpt><trkpt lat="44.40353" lon="11.4227717"><ele>121.0</ele><time>2026-04-04T08:45:37.995Z</time></trkpt><trkpt lat="44.4034383" lon="11.42281"><ele>121.0</ele><time>2026-04-04T08:45:38.994Z</time></trkpt><trkpt lat="44.4033467" lon="11.4228583"><ele>121.0</ele><time>2026-04-04T08:45:39.994Z</time></trkpt><trkpt lat="44.40325" lon="11.42292"><ele>121.0</ele><time>2026-04-04T08:45:40.994Z</time></trkpt><trkpt lat="44.403155" lon="11.4229867"><ele>121.0</ele><time>2026-04-04T08:45:41.995Z</time></trkpt><trkpt lat="44.4030583" lon="11.4230533"><ele>121.0</ele><time>2026-04-04T08:45:42.997Z</time></trkpt><trkpt lat="44.402985" lon="11.423085"><ele>116.5</ele><time>2026-04-04T08:45:43.996Z</time></trkpt><trkpt lat="44.4029067" lon="11.4231367"><ele>112.0</ele><time>2026-04-04T08:45:44.997Z</time></trkpt><trkpt lat="44.4028317" lon="11.423185"><ele>107.5</ele><time>2026-04-04T08:45:45.997Z</time></trkpt><trkpt lat="44.40274" lon="11.4232383"><ele>103.0</ele><time>2026-04-04T08:45:46.996Z</time></trkpt><trkpt lat="44.4025483" lon="11.4233533"><ele>103.00000000000001</ele><time>2026-04-04T08:45:48.996Z</time></trkpt><trkpt lat="44.4024667" lon="11.4234067"><ele>103.0</ele><time>2026-04-04T08:45:49.997Z</time></trkpt><trkpt lat="44.4023933" lon="11.423455"><ele>103.0</ele><time>2026-04-04T08:45:50.997Z</time></trkpt><trkpt lat="44.4023183" lon="11.4235"><ele>103.0</ele><time>2026-04-04T08:45:51.999Z</time></trkpt><trkpt lat="44.40224" lon="11.4235433"><ele>103.00000000000001</ele><time>2026-04-04T08:45:52.997Z</time></trkpt><trkpt lat="44.402165" lon="11.42359"><ele>103.0</ele><time>2026-04-04T08:45:53.998Z</time></trkpt><trkpt lat="44.4020933" lon="11.4236333"><ele>102.80000000000001</ele><time>2026-04-04T08:45:54.998Z</time></trkpt><trkpt lat="44.4020117" lon="11.42368"><ele>102.6</ele><time>2026-04-04T08:45:55.997Z</time></trkpt><trkpt lat="44.40192" lon="11.423725"><ele>102.4</ele><time>2026-04-04T08:45:56.997Z</time></trkpt><trkpt lat="44.4018283" lon="11.423775"><ele>102.19999999999999</ele><time>2026-04-04T08:45:57.996Z</time></trkpt><trkpt lat="44.4017333" lon="11.42383"><ele>102.0</ele><time>2026-04-04T08:45:58.996Z</time></trkpt><trkpt lat="44.401635" lon="11.423885"><ele>102.0</ele><time>2026-04-04T08:45:59.997Z</time></trkpt><trkpt lat="44.401545" lon="11.4239317"><ele>102.0</ele><time>2026-04-04T08:46:00.997Z</time></trkpt><trkpt lat="44.40146" lon="11.4239783"><ele>102.0</ele><time>2026-04-04T08:46:01.997Z</time></trkpt><trkpt lat="44.4013683" lon="11.4240267"><ele>102.0</ele><time>2026-04-04T08:46:02.997Z</time></trkpt><trkpt lat="44.4012683" lon="11.4240833"><ele>102.0</ele><time>2026-04-04T08:46:03.997Z</time></trkpt><trkpt lat="44.401165" lon="11.424145"><ele>102.75</ele><time>2026-04-04T08:46:04.997Z</time></trkpt><trkpt lat="44.4010617" lon="11.4242083"><ele>103.5</ele><time>2026-04-04T08:46:05.997Z</time></trkpt><trkpt lat="44.40096" lon="11.42427"><ele>104.25</ele><time>2026-04-04T08:46:06.999Z</time></trkpt><trkpt lat="44.4008517" lon="11.4243317"><ele>105.0</ele><time>2026-04-04T08:46:07.996Z</time></trkpt><trkpt lat="44.4006417" lon="11.42446"><ele>105.0</ele><time>2026-04-04T08:46:09.997Z</time></trkpt><trkpt lat="44.4005383" lon="11.4245233"><ele>105.0</ele><time>2026-04-04T08:46:10.998Z</time></trkpt><trkpt lat="44.4004383" lon="11.42458"><ele>105.0</ele><time>2026-04-04T08:46:11.998Z</time></trkpt><trkpt lat="44.4003433" lon="11.4246317"><ele>105.0</ele><time>2026-04-04T08:46:12.998Z</time></trkpt><trkpt lat="44.4002567" lon="11.4246683"><ele>105.0</ele><time>2026-04-04T08:46:13.998Z</time></trkpt><trkpt lat="44.4001683" lon="11.4247133"><ele>105.2</ele><time>2026-04-04T08:46:14.998Z</time></trkpt><trkpt lat="44.4000783" lon="11.424765"><ele>105.4</ele><time>2026-04-04T08:46:15.997Z</time></trkpt><trkpt lat="44.39999" lon="11.4248167"><ele>105.6</ele><time>2026-04-04T08:46:16.997Z</time></trkpt><trkpt lat="44.3999067" lon="11.42487"><ele>105.8</ele><time>2026-04-04T08:46:17.997Z</time></trkpt><trkpt lat="44.39982" lon="11.4249217"><ele>106.0</ele><time>2026-04-04T08:46:18.997Z</time></trkpt><trkpt lat="44.399725" lon="11.42498"><ele>106.6</ele><time>2026-04-04T08:46:19.998Z</time></trkpt><trkpt lat="44.3996283" lon="11.4250367"><ele>107.19999999999999</ele><time>2026-04-04T08:46:20.998Z</time></trkpt><trkpt lat="44.3995333" lon="11.4250917"><ele>107.80000000000001</ele><time>2026-04-04T08:46:21.997Z</time></trkpt><trkpt lat="44.3994433" lon="11.4251433"><ele>108.4</ele><time>2026-04-04T08:46:22.998Z</time></trkpt><trkpt lat="44.3993567" lon="11.4251933"><ele>109.0</ele><time>2026-04-04T08:46:23.996Z</time></trkpt><trkpt lat="44.3992717" lon="11.4252433"><ele>109.0</ele><time>2026-04-04T08:46:24.997Z</time></trkpt><trkpt lat="44.3991833" lon="11.425295"><ele>109.0</ele><time>2026-04-04T08:46:25.997Z</time></trkpt><trkpt lat="44.399095" lon="11.4253417"><ele>109.0</ele><time>2026-04-04T08:46:26.997Z</time></trkpt><trkpt lat="44.3990117" lon="11.4253883"><ele>109.0</ele><time>2026-04-04T08:46:27.998Z</time></trkpt><trkpt lat="44.3989283" lon="11.425435"><ele>109.0</ele><time>2026-04-04T08:46:28.997Z</time></trkpt><trkpt lat="44.398755" lon="11.4255367"><ele>109.2</ele><time>2026-04-04T08:46:30.997Z</time></trkpt><trkpt lat="44.3986683" lon="11.42559"><ele>109.4</ele><time>2026-04-04T08:46:31.997Z</time></trkpt><trkpt lat="44.3985833" lon="11.4256433"><ele>109.6</ele><time>2026-04-04T08:46:32.997Z</time></trkpt><trkpt lat="44.3985017" lon="11.4256917"><ele>109.8</ele><time>2026-04-04T08:46:33.998Z</time></trkpt><trkpt lat="44.3984233" lon="11.4257383"><ele>110.0</ele><time>2026-04-04T08:46:34.997Z</time></trkpt><trkpt lat="44.3983383" lon="11.4257817"><ele>110.0</ele><time>2026-04-04T08:46:35.997Z</time></trkpt><trkpt lat="44.3982483" lon="11.4258317"><ele>110.0</ele><time>2026-04-04T08:46:36.997Z</time></trkpt><trkpt lat="44.3981617" lon="11.4258783"><ele>110.0</ele><time>2026-04-04T08:46:37.998Z</time></trkpt><trkpt lat="44.3980783" lon="11.4259267"><ele>110.0</ele><time>2026-04-04T08:46:38.998Z</time></trkpt><trkpt lat="44.3979967" lon="11.4259717"><ele>110.0</ele><time>2026-04-04T08:46:39.997Z</time></trkpt><trkpt lat="44.3979167" lon="11.4260183"><ele>109.99999999999999</ele><time>2026-04-04T08:46:40.998Z</time></trkpt><trkpt lat="44.397835" lon="11.4260633"><ele>110.0</ele><time>2026-04-04T08:46:41.997Z</time></trkpt><trkpt lat="44.3977533" lon="11.4261067"><ele>110.0</ele><time>2026-04-04T08:46:42.998Z</time></trkpt><trkpt lat="44.3976717" lon="11.4261483"><ele>110.0</ele><time>2026-04-04T08:46:43.998Z</time></trkpt><trkpt lat="44.3975913" lon="11.4261956"><ele>109.99999999999999</ele><time>2026-04-04T08:46:44.998Z</time></trkpt><trkpt lat="44.3975129" lon="11.426242"><ele>110.0</ele><time>2026-04-04T08:46:45.998Z</time></trkpt><trkpt lat="44.3974367" lon="11.4262845"><ele>109.99999999999999</ele><time>2026-04-04T08:46:46.997Z</time></trkpt><trkpt lat="44.3973632" lon="11.426326"><ele>110.0</ele><time>2026-04-04T08:46:47.994Z</time></trkpt><trkpt lat="44.3972984" lon="11.4263598"><ele>110.0</ele><time>2026-04-04T08:46:48.995Z</time></trkpt><trkpt lat="44.3972374" lon="11.426391"><ele>110.0</ele><time>2026-04-04T08:46:49.994Z</time></trkpt><trkpt lat="44.3971054" lon="11.4264587"><ele>109.99999999999999</ele><time>2026-04-04T08:46:51.994Z</time></trkpt><trkpt lat="44.3970373" lon="11.4264911"><ele>110.0</ele><time>2026-04-04T08:46:52.995Z</time></trkpt><trkpt lat="44.3969671" lon="11.4265183"><ele>109.71428571428571</ele><time>2026-04-04T08:46:53.994Z</time></trkpt><trkpt lat="44.396898" lon="11.4265382"><ele>109.42857142857143</ele><time>2026-04-04T08:46:54.998Z</time></trkpt><trkpt lat="44.3968298" lon="11.4265561"><ele>109.14285714285714</ele><time>2026-04-04T08:46:55.998Z</time></trkpt><trkpt lat="44.3967609" lon="11.4265676"><ele>108.85714285714286</ele><time>2026-04-04T08:46:56.997Z</time></trkpt><trkpt lat="44.3966906" lon="11.4265777"><ele>108.57142857142857</ele><time>2026-04-04T08:46:57.998Z</time></trkpt><trkpt lat="44.396617" lon="11.42659"><ele>108.28571428571428</ele><time>2026-04-04T08:46:58.997Z</time></trkpt><trkpt lat="44.3965419" lon="11.4266043"><ele>108.0</ele><time>2026-04-04T08:46:59.997Z</time></trkpt><trkpt lat="44.3964609" lon="11.4266205"><ele>108.0</ele><time>2026-04-04T08:47:00.996Z</time></trkpt><trkpt lat="44.3963761" lon="11.4266383"><ele>108.00000000000001</ele><time>2026-04-04T08:47:01.998Z</time></trkpt><trkpt lat="44.3962914" lon="11.4266537"><ele>108.00000000000001</ele><time>2026-04-04T08:47:02.998Z</time></trkpt><trkpt lat="44.3962018" lon="11.4266714"><ele>108.0</ele><time>2026-04-04T08:47:03.997Z</time></trkpt><trkpt lat="44.3960917" lon="11.4266944"><ele>108.0</ele><time>2026-04-04T08:47:04.996Z</time></trkpt><trkpt lat="44.3959661" lon="11.4267201"><ele>108.75</ele><time>2026-04-04T08:47:05.997Z</time></trkpt><trkpt lat="44.395833" lon="11.4267494"><ele>109.5</ele><time>2026-04-04T08:47:06.997Z</time></trkpt><trkpt lat="44.3956908" lon="11.4267799"><ele>110.25</ele><time>2026-04-04T08:47:07.998Z</time></trkpt><trkpt lat="44.3955403" lon="11.4268132"><ele>111.0</ele><time>2026-04-04T08:47:08.997Z</time></trkpt><trkpt lat="44.3953851" lon="11.4268523"><ele>111.0</ele><time>2026-04-04T08:47:09.998Z</time></trkpt><trkpt lat="44.39523" lon="11.4268891"><ele>111.0</ele><time>2026-04-04T08:47:10.997Z</time></trkpt><trkpt lat="44.3949364" lon="11.4269478"><ele>111.0</ele><time>2026-04-04T08:47:12.998Z</time></trkpt><trkpt lat="44.3947997" lon="11.4269773"><ele>111.0</ele><time>2026-04-04T08:47:13.994Z</time></trkpt><trkpt lat="44.3946631" lon="11.4270076"><ele>111.0</ele><time>2026-04-04T08:47:14.995Z</time></trkpt><trkpt lat="44.3945109" lon="11.4270423"><ele>111.0</ele><time>2026-04-04T08:47:15.998Z</time></trkpt><trkpt lat="44.3943557" lon="11.4270761"><ele>111.33333333333334</ele><time>2026-04-04T08:47:16.997Z</time></trkpt><trkpt lat="44.3942034" lon="11.4271085"><ele>111.66666666666667</ele><time>2026-04-04T08:47:17.994Z</time></trkpt><trkpt lat="44.3940492" lon="11.4271418"><ele>112.0</ele><time>2026-04-04T08:47:18.994Z</time></trkpt><trkpt lat="44.3938934" lon="11.4271736"><ele>111.66666666666667</ele><time>2026-04-04T08:47:19.995Z</time></trkpt><trkpt lat="44.3937346" lon="11.4272044"><ele>111.33333333333334</ele><time>2026-04-04T08:47:20.996Z</time></trkpt><trkpt lat="44.3935728" lon="11.4272378"><ele>111.0</ele><time>2026-04-04T08:47:21.999Z</time></trkpt><trkpt lat="44.3934139" lon="11.4272752"><ele>111.0</ele><time>2026-04-04T08:47:22.994Z</time></trkpt><trkpt lat="44.3932625" lon="11.4273098"><ele>111.0</ele><time>2026-04-04T08:47:23.996Z</time></trkpt><trkpt lat="44.3931182" lon="11.4273459"><ele>111.0</ele><time>2026-04-04T08:47:24.999Z</time></trkpt><trkpt lat="44.3929739" lon="11.4273783"><ele>111.0</ele><time>2026-04-04T08:47:26.001Z</time></trkpt><trkpt lat="44.3928238" lon="11.4274099"><ele>110.5</ele><time>2026-04-04T08:47:26.996Z</time></trkpt><trkpt lat="44.3926735" lon="11.4274385"><ele>110.0</ele><time>2026-04-04T08:47:27.997Z</time></trkpt><trkpt lat="44.3925308" lon="11.4274679"><ele>109.5</ele><time>2026-04-04T08:47:28.996Z</time></trkpt><trkpt lat="44.3923969" lon="11.4274989"><ele>109.0</ele><time>2026-04-04T08:47:29.997Z</time></trkpt><trkpt lat="44.39227" lon="11.4275246"><ele>109.66666666666667</ele><time>2026-04-04T08:47:30.997Z</time></trkpt><trkpt lat="44.3921398" lon="11.4275522"><ele>110.33333333333334</ele><time>2026-04-04T08:47:31.995Z</time></trkpt><trkpt lat="44.3918652" lon="11.4276163"><ele>111.0</ele><time>2026-04-04T08:47:33.997Z</time></trkpt><trkpt lat="44.3917315" lon="11.4276518"><ele>111.0</ele><time>2026-04-04T08:47:34.998Z</time></trkpt><trkpt lat="44.3915941" lon="11.4276901"><ele>111.0</ele><time>2026-04-04T08:47:35.997Z</time></trkpt><trkpt lat="44.3914496" lon="11.4277285"><ele>111.0</ele><time>2026-04-04T08:47:36.998Z</time></trkpt><trkpt lat="44.3912921" lon="11.427768"><ele>111.0</ele><time>2026-04-04T08:47:37.997Z</time></trkpt><trkpt lat="44.3911288" lon="11.4278005"><ele>111.5</ele><time>2026-04-04T08:47:38.998Z</time></trkpt><trkpt lat="44.3909701" lon="11.4278331"><ele>112.0</ele><time>2026-04-04T08:47:39.998Z</time></trkpt><trkpt lat="44.3908226" lon="11.4278632"><ele>112.5</ele><time>2026-04-04T08:47:40.998Z</time></trkpt><trkpt lat="44.3906856" lon="11.4278898"><ele>113.0</ele><time>2026-04-04T08:47:41.998Z</time></trkpt><trkpt lat="44.3905515" lon="11.4279122"><ele>114.0</ele><time>2026-04-04T08:47:42.998Z</time></trkpt><trkpt lat="44.3904283" lon="11.4279335"><ele>115.0</ele><time>2026-04-04T08:47:43.998Z</time></trkpt><trkpt lat="44.3903121" lon="11.4279572"><ele>116.0</ele><time>2026-04-04T08:47:44.997Z</time></trkpt><trkpt lat="44.3902037" lon="11.4279805"><ele>117.0</ele><time>2026-04-04T08:47:45.998Z</time></trkpt><trkpt lat="44.3900977" lon="11.4280092"><ele>117.5</ele><time>2026-04-04T08:47:46.997Z</time></trkpt><trkpt lat="44.3899947" lon="11.4280524"><ele>118.0</ele><time>2026-04-04T08:47:47.998Z</time></trkpt><trkpt lat="44.3898898" lon="11.4281112"><ele>118.5</ele><time>2026-04-04T08:47:48.997Z</time></trkpt><trkpt lat="44.3897875" lon="11.4281876"><ele>119.0</ele><time>2026-04-04T08:47:49.998Z</time></trkpt><trkpt lat="44.3896891" lon="11.4282893"><ele>118.0</ele><time>2026-04-04T08:47:50.998Z</time></trkpt><trkpt lat="44.3895994" lon="11.4284051"><ele>117.0</ele><time>2026-04-04T08:47:51.997Z</time></trkpt><trkpt lat="44.3895103" lon="11.4285267"><ele>116.0</ele><time>2026-04-04T08:47:52.995Z</time></trkpt><trkpt lat="44.3893514" lon="11.4287673"><ele>115.99999999999999</ele><time>2026-04-04T08:47:54.998Z</time></trkpt><trkpt lat="44.3892901" lon="11.4288712"><ele>116.0</ele><time>2026-04-04T08:47:55.997Z</time></trkpt><trkpt lat="44.3892364" lon="11.4289568"><ele>116.0</ele><time>2026-04-04T08:47:56.997Z</time></trkpt><trkpt lat="44.3891929" lon="11.429026"><ele>116.0</ele><time>2026-04-04T08:47:57.997Z</time></trkpt><trkpt lat="44.3891341" lon="11.4291211"><ele>115.99999999999999</ele><time>2026-04-04T08:47:59.998Z</time></trkpt><trkpt lat="44.3891113" lon="11.4292524"><ele>116.0</ele><time>2026-04-04T08:48:10.997Z</time></trkpt><trkpt lat="44.3891438" lon="11.4294062"><ele>116.0</ele><time>2026-04-04T08:48:12.998Z</time></trkpt><trkpt lat="44.3892217" lon="11.4295617"><ele>116.0</ele><time>2026-04-04T08:48:14.998Z</time></trkpt><trkpt lat="44.389315" lon="11.4297267"><ele>116.0</ele><time>2026-04-04T08:48:16.997Z</time></trkpt><trkpt lat="44.3893667" lon="11.42981"><ele>116.0</ele><time>2026-04-04T08:48:17.996Z</time></trkpt><trkpt lat="44.38942" lon="11.4298933"><ele>116.0</ele><time>2026-04-04T08:48:18.997Z</time></trkpt><trkpt lat="44.389475" lon="11.42998"><ele>115.99999999999999</ele><time>2026-04-04T08:48:19.999Z</time></trkpt><trkpt lat="44.3895283" lon="11.430065"><ele>116.0</ele><time>2026-04-04T08:48:20.997Z</time></trkpt><trkpt lat="44.3895817" lon="11.4301567"><ele>116.0</ele><time>2026-04-04T08:48:21.997Z</time></trkpt><trkpt lat="44.3896367" lon="11.4302517"><ele>116.0</ele><time>2026-04-04T08:48:22.997Z</time></trkpt><trkpt lat="44.389695" lon="11.430345"><ele>115.99999999999999</ele><time>2026-04-04T08:48:23.995Z</time></trkpt><trkpt lat="44.3897483" lon="11.4304333"><ele>116.0</ele><time>2026-04-04T08:48:24.998Z</time></trkpt><trkpt lat="44.389795" lon="11.43051"><ele>116.49999999999999</ele><time>2026-04-04T08:48:25.998Z</time></trkpt><trkpt lat="44.389845" lon="11.4305917"><ele>117.0</ele><time>2026-04-04T08:48:26.997Z</time></trkpt><trkpt lat="44.3898983" lon="11.4306733"><ele>117.5</ele><time>2026-04-04T08:48:27.998Z</time></trkpt><trkpt lat="44.3899467" lon="11.430745"><ele>118.0</ele><time>2026-04-04T08:48:28.998Z</time></trkpt><trkpt lat="44.3900233" lon="11.43086"><ele>118.49999999999999</ele><time>2026-04-04T08:48:30.997Z</time></trkpt><trkpt lat="44.3900833" lon="11.4309433"><ele>119.0</ele><time>2026-04-04T08:48:32.997Z</time></trkpt><trkpt lat="44.3901433" lon="11.4310333"><ele>119.0</ele><time>2026-04-04T08:48:34.997Z</time></trkpt><trkpt lat="44.3902" lon="11.43112"><ele>119.0</ele><time>2026-04-04T08:48:36.998Z</time></trkpt><trkpt lat="44.3901517" lon="11.43136"><ele>119.0</ele><time>2026-04-04T08:48:45.997Z</time></trkpt><trkpt lat="44.3900883" lon="11.4314667"><ele>119.0</ele><time>2026-04-04T08:48:46.999Z</time></trkpt><trkpt lat="44.3900133" lon="11.43159"><ele>119.75</ele><time>2026-04-04T08:48:47.998Z</time></trkpt><trkpt lat="44.389925" lon="11.4317167"><ele>120.5</ele><time>2026-04-04T08:48:48.994Z</time></trkpt><trkpt lat="44.3898317" lon="11.43185"><ele>121.25</ele><time>2026-04-04T08:48:49.997Z</time></trkpt><trkpt lat="44.3897383" lon="11.4319883"><ele>122.0</ele><time>2026-04-04T08:48:50.998Z</time></trkpt><trkpt lat="44.389645" lon="11.43212"><ele>123.75</ele><time>2026-04-04T08:48:51.995Z</time></trkpt><trkpt lat="44.38956" lon="11.4322333"><ele>125.5</ele><time>2026-04-04T08:48:52.997Z</time></trkpt><trkpt lat="44.3894783" lon="11.43234"><ele>127.25</ele><time>2026-04-04T08:48:53.995Z</time></trkpt><trkpt lat="44.3893917" lon="11.4324367"><ele>129.0</ele><time>2026-04-04T08:48:54.994Z</time></trkpt><trkpt lat="44.38929" lon="11.4325233"><ele>129.0</ele><time>2026-04-04T08:48:55.995Z</time></trkpt><trkpt lat="44.3891833" lon="11.4326"><ele>129.0</ele><time>2026-04-04T08:48:56.999Z</time></trkpt><trkpt lat="44.38907" lon="11.4326667"><ele>129.0</ele><time>2026-04-04T08:48:57.995Z</time></trkpt><trkpt lat="44.3888083" lon="11.4327433"><ele>127.75</ele><time>2026-04-04T08:48:59.998Z</time></trkpt><trkpt lat="44.3886667" lon="11.43275"><ele>126.5</ele><time>2026-04-04T08:49:00.997Z</time></trkpt><trkpt lat="44.3885183" lon="11.4327467"><ele>125.25</ele><time>2026-04-04T08:49:01.995Z</time></trkpt><trkpt lat="44.3883667" lon="11.4327367"><ele>124.0</ele><time>2026-04-04T08:49:02.996Z</time></trkpt><trkpt lat="44.3882233" lon="11.4327183"><ele>124.0</ele><time>2026-04-04T08:49:03.997Z</time></trkpt><trkpt lat="44.388085" lon="11.432685"><ele>124.0</ele><time>2026-04-04T08:49:04.994Z</time></trkpt><trkpt lat="44.3879483" lon="11.4326333"><ele>124.0</ele><time>2026-04-04T08:49:05.997Z</time></trkpt><trkpt lat="44.3878233" lon="11.4325533"><ele>124.0</ele><time>2026-04-04T08:49:06.997Z</time></trkpt><trkpt lat="44.3877017" lon="11.4324683"><ele>124.25</ele><time>2026-04-04T08:49:07.997Z</time></trkpt><trkpt lat="44.3875783" lon="11.432385"><ele>124.5</ele><time>2026-04-04T08:49:08.996Z</time></trkpt><trkpt lat="44.3874483" lon="11.4323117"><ele>124.75</ele><time>2026-04-04T08:49:09.999Z</time></trkpt><trkpt lat="44.3873167" lon="11.4322617"><ele>125.0</ele><time>2026-04-04T08:49:10.998Z</time></trkpt><trkpt lat="44.387185" lon="11.4322417"><ele>124.75</ele><time>2026-04-04T08:49:11.998Z</time></trkpt><trkpt lat="44.3870483" lon="11.4322417"><ele>124.5</ele><time>2026-04-04T08:49:12.998Z</time></trkpt><trkpt lat="44.3869017" lon="11.4322617"><ele>124.25</ele><time>2026-04-04T08:49:13.997Z</time></trkpt><trkpt lat="44.3867483" lon="11.4322983"><ele>124.0</ele><time>2026-04-04T08:49:14.997Z</time></trkpt><trkpt lat="44.3865967" lon="11.4323383"><ele>124.0</ele><time>2026-04-04T08:49:15.997Z</time></trkpt><trkpt lat="44.38644" lon="11.4323767"><ele>124.0</ele><time>2026-04-04T08:49:16.998Z</time></trkpt><trkpt lat="44.3862767" lon="11.43241"><ele>124.0</ele><time>2026-04-04T08:49:17.995Z</time></trkpt><trkpt lat="44.3861083" lon="11.4324383"><ele>123.5</ele><time>2026-04-04T08:49:18.998Z</time></trkpt><trkpt lat="44.3857533" lon="11.4324833"><ele>123.0</ele><time>2026-04-04T08:49:20.995Z</time></trkpt><trkpt lat="44.385575" lon="11.432505"><ele>122.33333333333334</ele><time>2026-04-04T08:49:21.996Z</time></trkpt><trkpt lat="44.385405" lon="11.4325217"><ele>121.66666666666667</ele><time>2026-04-04T08:49:22.995Z</time></trkpt><trkpt lat="44.3852417" lon="11.4325367"><ele>121.0</ele><time>2026-04-04T08:49:23.996Z</time></trkpt><trkpt lat="44.3850833" lon="11.4325533"><ele>121.0</ele><time>2026-04-04T08:49:24.995Z</time></trkpt><trkpt lat="44.3849283" lon="11.4325633"><ele>121.0</ele><time>2026-04-04T08:49:25.997Z</time></trkpt><trkpt lat="44.38478" lon="11.4325667"><ele>121.0</ele><time>2026-04-04T08:49:26.998Z</time></trkpt><trkpt lat="44.3846333" lon="11.4325517"><ele>121.0</ele><time>2026-04-04T08:49:27.998Z</time></trkpt><trkpt lat="44.3844817" lon="11.4325233"><ele>121.0</ele><time>2026-04-04T08:49:28.998Z</time></trkpt><trkpt lat="44.384325" lon="11.4324767"><ele>121.0</ele><time>2026-04-04T08:49:29.998Z</time></trkpt><trkpt lat="44.3841683" lon="11.4324067"><ele>121.0</ele><time>2026-04-04T08:49:30.997Z</time></trkpt><trkpt lat="44.3840083" lon="11.4323167"><ele>121.0</ele><time>2026-04-04T08:49:31.996Z</time></trkpt><trkpt lat="44.3838467" lon="11.4322033"><ele>121.0</ele><time>2026-04-04T08:49:32.996Z</time></trkpt><trkpt lat="44.3836867" lon="11.4320783"><ele>123.66666666666667</ele><time>2026-04-04T08:49:33.996Z</time></trkpt><trkpt lat="44.38353" lon="11.4319433"><ele>126.33333333333334</ele><time>2026-04-04T08:49:34.997Z</time></trkpt><trkpt lat="44.3833733" lon="11.4318117"><ele>129.0</ele><time>2026-04-04T08:49:35.997Z</time></trkpt><trkpt lat="44.3832183" lon="11.4316833"><ele>129.0</ele><time>2026-04-04T08:49:36.996Z</time></trkpt><trkpt lat="44.38307" lon="11.4315583"><ele>129.0</ele><time>2026-04-04T08:49:37.997Z</time></trkpt><trkpt lat="44.3829283" lon="11.4314433"><ele>129.0</ele><time>2026-04-04T08:49:38.994Z</time></trkpt><trkpt lat="44.3827867" lon="11.4313317"><ele>129.5</ele><time>2026-04-04T08:49:39.998Z</time></trkpt><trkpt lat="44.382515" lon="11.431115"><ele>130.0</ele><time>2026-04-04T08:49:41.997Z</time></trkpt><trkpt lat="44.38238" lon="11.4310033"><ele>130.0</ele><time>2026-04-04T08:49:42.997Z</time></trkpt><trkpt lat="44.3822433" lon="11.4308833"><ele>130.0</ele><time>2026-04-04T08:49:43.997Z</time></trkpt><trkpt lat="44.3821083" lon="11.4307567"><ele>130.0</ele><time>2026-04-04T08:49:44.996Z</time></trkpt><trkpt lat="44.38198" lon="11.4306283"><ele>129.66666666666669</ele><time>2026-04-04T08:49:45.995Z</time></trkpt><trkpt lat="44.3818567" lon="11.4305017"><ele>129.33333333333334</ele><time>2026-04-04T08:49:46.997Z</time></trkpt><trkpt lat="44.3817367" lon="11.430375"><ele>129.0</ele><time>2026-04-04T08:49:47.997Z</time></trkpt><trkpt lat="44.381615" lon="11.4302483"><ele>129.0</ele><time>2026-04-04T08:49:48.997Z</time></trkpt><trkpt lat="44.3814933" lon="11.4301133"><ele>129.0</ele><time>2026-04-04T08:49:49.997Z</time></trkpt><trkpt lat="44.3813717" lon="11.42997"><ele>129.0</ele><time>2026-04-04T08:49:50.997Z</time></trkpt><trkpt lat="44.3812533" lon="11.4298133"><ele>129.33333333333334</ele><time>2026-04-04T08:49:51.996Z</time></trkpt><trkpt lat="44.3811383" lon="11.4296483"><ele>129.66666666666669</ele><time>2026-04-04T08:49:52.994Z</time></trkpt><trkpt lat="44.38103" lon="11.4294833"><ele>130.0</ele><time>2026-04-04T08:49:53.994Z</time></trkpt><trkpt lat="44.3809267" lon="11.42932"><ele>130.0</ele><time>2026-04-04T08:49:54.997Z</time></trkpt><trkpt lat="44.3808233" lon="11.4291567"><ele>130.0</ele><time>2026-04-04T08:49:55.999Z</time></trkpt><trkpt lat="44.3807233" lon="11.4289883"><ele>130.0</ele><time>2026-04-04T08:49:56.997Z</time></trkpt><trkpt lat="44.3806333" lon="11.42882"><ele>130.25</ele><time>2026-04-04T08:49:57.997Z</time></trkpt><trkpt lat="44.3805567" lon="11.4286483"><ele>130.5</ele><time>2026-04-04T08:49:58.996Z</time></trkpt><trkpt lat="44.3804933" lon="11.4284683"><ele>130.75</ele><time>2026-04-04T08:49:59.997Z</time></trkpt><trkpt lat="44.3804317" lon="11.4282817"><ele>131.0</ele><time>2026-04-04T08:50:00.998Z</time></trkpt><trkpt lat="44.3802983" lon="11.4279333"><ele>131.0</ele><time>2026-04-04T08:50:02.993Z</time></trkpt><trkpt lat="44.38021" lon="11.4277717"><ele>131.0</ele><time>2026-04-04T08:50:03.997Z</time></trkpt><trkpt lat="44.380105" lon="11.4276333"><ele>131.0</ele><time>2026-04-04T08:50:04.996Z</time></trkpt><trkpt lat="44.379985" lon="11.42752"><ele>131.0</ele><time>2026-04-04T08:50:05.996Z</time></trkpt><trkpt lat="44.37985" lon="11.4274183"><ele>131.0</ele><time>2026-04-04T08:50:06.997Z</time></trkpt><trkpt lat="44.3797017" lon="11.42732"><ele>131.0</ele><time>2026-04-04T08:50:07.999Z</time></trkpt><trkpt lat="44.3795417" lon="11.42722"><ele>131.0</ele><time>2026-04-04T08:50:08.996Z</time></trkpt><trkpt lat="44.3793767" lon="11.4271183"><ele>129.66666666666666</ele><time>2026-04-04T08:50:09.996Z</time></trkpt><trkpt lat="44.379215" lon="11.4270233"><ele>128.33333333333334</ele><time>2026-04-04T08:50:10.996Z</time></trkpt><trkpt lat="44.3790533" lon="11.42694"><ele>127.0</ele><time>2026-04-04T08:50:12Z</time></trkpt><trkpt lat="44.378885" lon="11.426865"><ele>128.0</ele><time>2026-04-04T08:50:12.997Z</time></trkpt><trkpt lat="44.378715" lon="11.4267967"><ele>129.0</ele><time>2026-04-04T08:50:13.997Z</time></trkpt><trkpt lat="44.3785417" lon="11.4267267"><ele>130.0</ele><time>2026-04-04T08:50:14.997Z</time></trkpt><trkpt lat="44.3783717" lon="11.4266667"><ele>130.0</ele><time>2026-04-04T08:50:15.997Z</time></trkpt><trkpt lat="44.3782" lon="11.4266183"><ele>130.0</ele><time>2026-04-04T08:50:16.997Z</time></trkpt><trkpt lat="44.3780333" lon="11.4265633"><ele>130.0</ele><time>2026-04-04T08:50:17.997Z</time></trkpt><trkpt lat="44.3778717" lon="11.42651"><ele>130.66666666666669</ele><time>2026-04-04T08:50:18.997Z</time></trkpt><trkpt lat="44.37772" lon="11.42646"><ele>131.33333333333334</ele><time>2026-04-04T08:50:19.997Z</time></trkpt><trkpt lat="44.3775733" lon="11.4264083"><ele>132.0</ele><time>2026-04-04T08:50:20.994Z</time></trkpt><trkpt lat="44.3774217" lon="11.4263617"><ele>133.0</ele><time>2026-04-04T08:50:21.998Z</time></trkpt><trkpt lat="44.3771" lon="11.426315"><ele>134.0</ele><time>2026-04-04T08:50:23.997Z</time></trkpt><trkpt lat="44.3769367" lon="11.4263167"><ele>134.0</ele><time>2026-04-04T08:50:24.997Z</time></trkpt><trkpt lat="44.3767717" lon="11.4263433"><ele>134.0</ele><time>2026-04-04T08:50:25.996Z</time></trkpt><trkpt lat="44.3765983" lon="11.4263767"><ele>134.0</ele><time>2026-04-04T08:50:26.996Z</time></trkpt><trkpt lat="44.3764167" lon="11.426415"><ele>134.0</ele><time>2026-04-04T08:50:27.996Z</time></trkpt><trkpt lat="44.3762267" lon="11.42645"><ele>134.0</ele><time>2026-04-04T08:50:28.997Z</time></trkpt><trkpt lat="44.3760383" lon="11.4264817"><ele>134.0</ele><time>2026-04-04T08:50:29.997Z</time></trkpt><trkpt lat="44.3758483" lon="11.4265133"><ele>134.0</ele><time>2026-04-04T08:50:30.996Z</time></trkpt><trkpt lat="44.3756667" lon="11.4265533"><ele>134.0</ele><time>2026-04-04T08:50:31.997Z</time></trkpt><trkpt lat="44.3754933" lon="11.4265967"><ele>134.0</ele><time>2026-04-04T08:50:32.996Z</time></trkpt><trkpt lat="44.375325" lon="11.4266417"><ele>134.66666666666666</ele><time>2026-04-04T08:50:33.994Z</time></trkpt><trkpt lat="44.3751583" lon="11.4266883"><ele>135.33333333333334</ele><time>2026-04-04T08:50:34.996Z</time></trkpt><trkpt lat="44.3749917" lon="11.4267367"><ele>136.0</ele><time>2026-04-04T08:50:35.998Z</time></trkpt><trkpt lat="44.374825" lon="11.4267883"><ele>135.33333333333334</ele><time>2026-04-04T08:50:36.996Z</time></trkpt><trkpt lat="44.3746533" lon="11.4268383"><ele>134.66666666666666</ele><time>2026-04-04T08:50:37.998Z</time></trkpt><trkpt lat="44.374475" lon="11.4269"><ele>134.0</ele><time>2026-04-04T08:50:38.997Z</time></trkpt><trkpt lat="44.3742933" lon="11.4269733"><ele>134.0</ele><time>2026-04-04T08:50:39.998Z</time></trkpt><trkpt lat="44.3741117" lon="11.4270567"><ele>134.0</ele><time>2026-04-04T08:50:40.997Z</time></trkpt><trkpt lat="44.3739333" lon="11.4271467"><ele>134.0</ele><time>2026-04-04T08:50:41.994Z</time></trkpt><trkpt lat="44.373765" lon="11.4272367"><ele>136.5</ele><time>2026-04-04T08:50:42.996Z</time></trkpt><trkpt lat="44.3734583" lon="11.4273967"><ele>139.0</ele><time>2026-04-04T08:50:44.997Z</time></trkpt><trkpt lat="44.3733067" lon="11.4274683"><ele>139.0</ele><time>2026-04-04T08:50:45.996Z</time></trkpt><trkpt lat="44.3731517" lon="11.4275267"><ele>139.0</ele><time>2026-04-04T08:50:46.998Z</time></trkpt><trkpt lat="44.372995" lon="11.4275617"><ele>139.0</ele><time>2026-04-04T08:50:47.995Z</time></trkpt><trkpt lat="44.372835" lon="11.427565"><ele>140.0</ele><time>2026-04-04T08:50:48.996Z</time></trkpt><trkpt lat="44.3726683" lon="11.4275433"><ele>141.0</ele><time>2026-04-04T08:50:49.996Z</time></trkpt><trkpt lat="44.3724867" lon="11.427495"><ele>142.0</ele><time>2026-04-04T08:50:50.995Z</time></trkpt><trkpt lat="44.3722867" lon="11.4274233"><ele>145.33333333333334</ele><time>2026-04-04T08:50:51.996Z</time></trkpt><trkpt lat="44.3720783" lon="11.4273383"><ele>148.66666666666666</ele><time>2026-04-04T08:50:52.996Z</time></trkpt><trkpt lat="44.3718817" lon="11.4272533"><ele>152.0</ele><time>2026-04-04T08:50:53.999Z</time></trkpt><trkpt lat="44.3717017" lon="11.4271767"><ele>152.0</ele><time>2026-04-04T08:50:54.997Z</time></trkpt><trkpt lat="44.37153" lon="11.427105"><ele>152.0</ele><time>2026-04-04T08:50:55.997Z</time></trkpt><trkpt lat="44.3713667" lon="11.4270283"><ele>152.0</ele><time>2026-04-04T08:50:56.997Z</time></trkpt><trkpt lat="44.3712083" lon="11.42695"><ele>152.0</ele><time>2026-04-04T08:50:57.998Z</time></trkpt><trkpt lat="44.3710583" lon="11.4268683"><ele>152.0</ele><time>2026-04-04T08:50:58.995Z</time></trkpt><trkpt lat="44.370915" lon="11.4267783"><ele>152.0</ele><time>2026-04-04T08:50:59.998Z</time></trkpt><trkpt lat="44.3707767" lon="11.4266783"><ele>152.0</ele><time>2026-04-04T08:51:00.995Z</time></trkpt><trkpt lat="44.37064" lon="11.42656"><ele>152.0</ele><time>2026-04-04T08:51:01.997Z</time></trkpt><trkpt lat="44.3705" lon="11.4264233"><ele>152.0</ele><time>2026-04-04T08:51:02.996Z</time></trkpt><trkpt lat="44.3703583" lon="11.4262617"><ele>150.5</ele><time>2026-04-04T08:51:03.999Z</time></trkpt><trkpt lat="44.3700667" lon="11.4258783"><ele>149.0</ele><time>2026-04-04T08:51:05.996Z</time></trkpt><trkpt lat="44.36992" lon="11.4256833"><ele>149.0</ele><time>2026-04-04T08:51:06.996Z</time></trkpt><trkpt lat="44.3697767" lon="11.4254817"><ele>149.0</ele><time>2026-04-04T08:51:07.996Z</time></trkpt><trkpt lat="44.3696433" lon="11.42529"><ele>149.0</ele><time>2026-04-04T08:51:08.997Z</time></trkpt><trkpt lat="44.36951" lon="11.4251033"><ele>150.66666666666666</ele><time>2026-04-04T08:51:09.996Z</time></trkpt><trkpt lat="44.3693767" lon="11.4249083"><ele>152.33333333333334</ele><time>2026-04-04T08:51:10.996Z</time></trkpt><trkpt lat="44.36924" lon="11.4247183"><ele>154.0</ele><time>2026-04-04T08:51:11.996Z</time></trkpt><trkpt lat="44.3691017" lon="11.42453"><ele>150.0</ele><time>2026-04-04T08:51:12.996Z</time></trkpt><trkpt lat="44.36896" lon="11.4243367"><ele>146.0</ele><time>2026-04-04T08:51:13.996Z</time></trkpt><trkpt lat="44.368825" lon="11.4241467"><ele>142.0</ele><time>2026-04-04T08:51:14.998Z</time></trkpt><trkpt lat="44.3687" lon="11.423975"><ele>144.33333333333334</ele><time>2026-04-04T08:51:15.996Z</time></trkpt><trkpt lat="44.368585" lon="11.4238183"><ele>146.66666666666666</ele><time>2026-04-04T08:51:16.997Z</time></trkpt><trkpt lat="44.36848" lon="11.4236683"><ele>149.0</ele><time>2026-04-04T08:51:17.998Z</time></trkpt><trkpt lat="44.3683783" lon="11.423535"><ele>149.0</ele><time>2026-04-04T08:51:18.998Z</time></trkpt><trkpt lat="44.368285" lon="11.4233933"><ele>149.0</ele><time>2026-04-04T08:51:19.995Z</time></trkpt><trkpt lat="44.36821" lon="11.42326"><ele>149.0</ele><time>2026-04-04T08:51:20.998Z</time></trkpt><trkpt lat="44.36815" lon="11.4231267"><ele>149.0</ele><time>2026-04-04T08:51:21.996Z</time></trkpt><trkpt lat="44.3681067" lon="11.4229733"><ele>147.33333333333331</ele><time>2026-04-04T08:51:22.997Z</time></trkpt><trkpt lat="44.368075" lon="11.422795"><ele>145.66666666666666</ele><time>2026-04-04T08:51:23.997Z</time></trkpt><trkpt lat="44.3680567" lon="11.4225917"><ele>144.0</ele><time>2026-04-04T08:51:24.996Z</time></trkpt><trkpt lat="44.3680383" lon="11.42216"><ele>146.33333333333334</ele><time>2026-04-04T08:51:26.997Z</time></trkpt><trkpt lat="44.368025" lon="11.4219417"><ele>148.66666666666669</ele><time>2026-04-04T08:51:27.997Z</time></trkpt><trkpt lat="44.3679967" lon="11.4217183"><ele>151.0</ele><time>2026-04-04T08:51:28.997Z</time></trkpt><trkpt lat="44.3679533" lon="11.4214967"><ele>152.33333333333334</ele><time>2026-04-04T08:51:29.996Z</time></trkpt><trkpt lat="44.3678917" lon="11.4212833"><ele>153.66666666666666</ele><time>2026-04-04T08:51:30.996Z</time></trkpt><trkpt lat="44.367805" lon="11.4210717"><ele>155.0</ele><time>2026-04-04T08:51:31.996Z</time></trkpt><trkpt lat="44.3677033" lon="11.42087"><ele>155.0</ele><time>2026-04-04T08:51:32.996Z</time></trkpt><trkpt lat="44.3675967" lon="11.4206767"><ele>155.0</ele><time>2026-04-04T08:51:33.996Z</time></trkpt><trkpt lat="44.36749" lon="11.42048"><ele>155.0</ele><time>2026-04-04T08:51:34.997Z</time></trkpt><trkpt lat="44.3673883" lon="11.420275"><ele>155.33333333333331</ele><time>2026-04-04T08:51:35.997Z</time></trkpt><trkpt lat="44.3672867" lon="11.4200533"><ele>155.66666666666666</ele><time>2026-04-04T08:51:36.996Z</time></trkpt><trkpt lat="44.36719" lon="11.4198183"><ele>156.0</ele><time>2026-04-04T08:51:37.997Z</time></trkpt><trkpt lat="44.3670983" lon="11.419585"><ele>156.0</ele><time>2026-04-04T08:51:38.996Z</time></trkpt><trkpt lat="44.36702" lon="11.4193567"><ele>156.0</ele><time>2026-04-04T08:51:39.997Z</time></trkpt><trkpt lat="44.3669517" lon="11.4191383"><ele>156.0</ele><time>2026-04-04T08:51:40.995Z</time></trkpt><trkpt lat="44.3668817" lon="11.4189333"><ele>155.33333333333334</ele><time>2026-04-04T08:51:41.998Z</time></trkpt><trkpt lat="44.36682" lon="11.41874"><ele>154.66666666666669</ele><time>2026-04-04T08:51:43Z</time></trkpt><trkpt lat="44.366755" lon="11.4185583"><ele>154.0</ele><time>2026-04-04T08:51:43.996Z</time></trkpt><trkpt lat="44.3666733" lon="11.4183733"><ele>154.0</ele><time>2026-04-04T08:51:44.997Z</time></trkpt><trkpt lat="44.3665867" lon="11.4182117"><ele>154.0</ele><time>2026-04-04T08:51:45.998Z</time></trkpt><trkpt lat="44.36639" lon="11.4179583"><ele>154.0</ele><time>2026-04-04T08:51:47.998Z</time></trkpt><trkpt lat="44.366275" lon="11.417875"><ele>154.0</ele><time>2026-04-04T08:51:48.996Z</time></trkpt><trkpt lat="44.366145" lon="11.4178133"><ele>154.0</ele><time>2026-04-04T08:51:49.997Z</time></trkpt><trkpt lat="44.3660067" lon="11.4177733"><ele>154.0</ele><time>2026-04-04T08:51:50.997Z</time></trkpt><trkpt lat="44.3658583" lon="11.417755"><ele>154.0</ele><time>2026-04-04T08:51:51.995Z</time></trkpt><trkpt lat="44.3657" lon="11.4177533"><ele>154.0</ele><time>2026-04-04T08:51:52.996Z</time></trkpt><trkpt lat="44.3655317" lon="11.41776"><ele>154.0</ele><time>2026-04-04T08:51:53.997Z</time></trkpt><trkpt lat="44.3653617" lon="11.4177783"><ele>154.0</ele><time>2026-04-04T08:51:54.997Z</time></trkpt><trkpt lat="44.3651883" lon="11.4177867"><ele>154.33333333333334</ele><time>2026-04-04T08:51:55.997Z</time></trkpt><trkpt lat="44.3650033" lon="11.4178117"><ele>154.66666666666666</ele><time>2026-04-04T08:51:56.997Z</time></trkpt><trkpt lat="44.36481" lon="11.4178417"><ele>155.0</ele><time>2026-04-04T08:51:57.997Z</time></trkpt><trkpt lat="44.3646133" lon="11.4178717"><ele>155.0</ele><time>2026-04-04T08:51:58.996Z</time></trkpt><trkpt lat="44.364415" lon="11.4179083"><ele>155.0</ele><time>2026-04-04T08:51:59.998Z</time></trkpt><trkpt lat="44.36422" lon="11.4179517"><ele>155.0</ele><time>2026-04-04T08:52:00.996Z</time></trkpt><trkpt lat="44.36403" lon="11.4179967"><ele>154.66666666666666</ele><time>2026-04-04T08:52:01.998Z</time></trkpt><trkpt lat="44.3638517" lon="11.4180383"><ele>154.33333333333334</ele><time>2026-04-04T08:52:02.997Z</time></trkpt><trkpt lat="44.36367" lon="11.4180817"><ele>154.0</ele><time>2026-04-04T08:52:03.997Z</time></trkpt><trkpt lat="44.3634817" lon="11.4181233"><ele>154.0</ele><time>2026-04-04T08:52:04.996Z</time></trkpt><trkpt lat="44.3632867" lon="11.4181683"><ele>154.0</ele><time>2026-04-04T08:52:05.997Z</time></trkpt><trkpt lat="44.3630983" lon="11.4182133"><ele>154.0</ele><time>2026-04-04T08:52:06.997Z</time></trkpt><trkpt lat="44.3627417" lon="11.418295"><ele>154.0</ele><time>2026-04-04T08:52:08.997Z</time></trkpt><trkpt lat="44.3625783" lon="11.418325"><ele>154.0</ele><time>2026-04-04T08:52:09.997Z</time></trkpt><trkpt lat="44.3624267" lon="11.41836"><ele>154.0</ele><time>2026-04-04T08:52:10.996Z</time></trkpt><trkpt lat="44.3622783" lon="11.41839"><ele>155.0</ele><time>2026-04-04T08:52:11.996Z</time></trkpt><trkpt lat="44.3621283" lon="11.4184"><ele>156.0</ele><time>2026-04-04T08:52:12.997Z</time></trkpt><trkpt lat="44.36198" lon="11.41839"><ele>157.0</ele><time>2026-04-04T08:52:13.997Z</time></trkpt><trkpt lat="44.36183" lon="11.4183467"><ele>157.0</ele><time>2026-04-04T08:52:14.997Z</time></trkpt><trkpt lat="44.3616717" lon="11.41827"><ele>157.0</ele><time>2026-04-04T08:52:15.996Z</time></trkpt><trkpt lat="44.3615067" lon="11.4181633"><ele>157.0</ele><time>2026-04-04T08:52:16.996Z</time></trkpt><trkpt lat="44.3613317" lon="11.41804"><ele>157.66666666666669</ele><time>2026-04-04T08:52:17.994Z</time></trkpt><trkpt lat="44.3611417" lon="11.417905"><ele>158.33333333333334</ele><time>2026-04-04T08:52:18.998Z</time></trkpt><trkpt lat="44.3609517" lon="11.417775"><ele>159.0</ele><time>2026-04-04T08:52:19.998Z</time></trkpt><trkpt lat="44.36077" lon="11.4176633"><ele>159.0</ele><time>2026-04-04T08:52:20.994Z</time></trkpt><trkpt lat="44.3606017" lon="11.4175583"><ele>159.0</ele><time>2026-04-04T08:52:21.996Z</time></trkpt><trkpt lat="44.3604417" lon="11.4174467"><ele>159.0</ele><time>2026-04-04T08:52:22.994Z</time></trkpt><trkpt lat="44.3602883" lon="11.417325"><ele>158.66666666666666</ele><time>2026-04-04T08:52:23.996Z</time></trkpt><trkpt lat="44.3601467" lon="11.417195"><ele>158.33333333333331</ele><time>2026-04-04T08:52:24.997Z</time></trkpt><trkpt lat="44.3600083" lon="11.4170567"><ele>158.0</ele><time>2026-04-04T08:52:25.997Z</time></trkpt><trkpt lat="44.35988" lon="11.4169117"><ele>158.0</ele><time>2026-04-04T08:52:26.997Z</time></trkpt><trkpt lat="44.359765" lon="11.416755"><ele>158.0</ele><time>2026-04-04T08:52:27.994Z</time></trkpt><trkpt lat="44.359585" lon="11.41642"><ele>159.5</ele><time>2026-04-04T08:52:29.997Z</time></trkpt><trkpt lat="44.3595133" lon="11.4162367"><ele>161.0</ele><time>2026-04-04T08:52:30.997Z</time></trkpt><trkpt lat="44.3594517" lon="11.41606"><ele>162.5</ele><time>2026-04-04T08:52:31.997Z</time></trkpt><trkpt lat="44.3593817" lon="11.4158917"><ele>164.0</ele><time>2026-04-04T08:52:32.997Z</time></trkpt><trkpt lat="44.3593017" lon="11.41574"><ele>164.0</ele><time>2026-04-04T08:52:33.996Z</time></trkpt><trkpt lat="44.3591983" lon="11.4156083"><ele>164.0</ele><time>2026-04-04T08:52:34.997Z</time></trkpt><trkpt lat="44.35908" lon="11.415485"><ele>164.0</ele><time>2026-04-04T08:52:35.997Z</time></trkpt><trkpt lat="44.3589417" lon="11.41537"><ele>164.0</ele><time>2026-04-04T08:52:36.996Z</time></trkpt><trkpt lat="44.3587817" lon="11.415235"><ele>165.66666666666666</ele><time>2026-04-04T08:52:37.994Z</time></trkpt><trkpt lat="44.358605" lon="11.4150933"><ele>167.33333333333334</ele><time>2026-04-04T08:52:38.996Z</time></trkpt><trkpt lat="44.3584267" lon="11.41495"><ele>169.0</ele><time>2026-04-04T08:52:39.997Z</time></trkpt><trkpt lat="44.3582583" lon="11.4148167"><ele>169.0</ele><time>2026-04-04T08:52:40.996Z</time></trkpt><trkpt lat="44.3581" lon="11.414685"><ele>169.0</ele><time>2026-04-04T08:52:41.997Z</time></trkpt><trkpt lat="44.3579583" lon="11.4145633"><ele>169.0</ele><time>2026-04-04T08:52:42.998Z</time></trkpt><trkpt lat="44.35782" lon="11.414445"><ele>169.75</ele><time>2026-04-04T08:52:43.997Z</time></trkpt><trkpt lat="44.3576883" lon="11.41433"><ele>170.5</ele><time>2026-04-04T08:52:44.996Z</time></trkpt><trkpt lat="44.35757" lon="11.414225"><ele>171.25</ele><time>2026-04-04T08:52:45.995Z</time></trkpt><trkpt lat="44.357465" lon="11.41413"><ele>172.0</ele><time>2026-04-04T08:52:46.996Z</time></trkpt><trkpt lat="44.3573683" lon="11.4140483"><ele>172.0</ele><time>2026-04-04T08:52:47.996Z</time></trkpt><trkpt lat="44.3572767" lon="11.41398"><ele>172.0</ele><time>2026-04-04T08:52:48.996Z</time></trkpt><trkpt lat="44.3570917" lon="11.4138767"><ele>172.0</ele><time>2026-04-04T08:52:50.995Z</time></trkpt><trkpt lat="44.357" lon="11.4138517"><ele>172.0</ele><time>2026-04-04T08:52:51.995Z</time></trkpt><trkpt lat="44.3569083" lon="11.41384"><ele>173.14285714285717</ele><time>2026-04-04T08:52:52.996Z</time></trkpt><trkpt lat="44.35682" lon="11.41384"><ele>174.28571428571428</ele><time>2026-04-04T08:52:53.995Z</time></trkpt><trkpt lat="44.35674" lon="11.4138567"><ele>175.42857142857144</ele><time>2026-04-04T08:52:54.995Z</time></trkpt><trkpt lat="44.3566733" lon="11.41388"><ele>176.57142857142858</ele><time>2026-04-04T08:52:55.996Z</time></trkpt><trkpt lat="44.356615" lon="11.4139317"><ele>177.71428571428572</ele><time>2026-04-04T08:52:56.997Z</time></trkpt><trkpt lat="44.3565633" lon="11.41399"><ele>178.85714285714286</ele><time>2026-04-04T08:52:57.997Z</time></trkpt><trkpt lat="44.3565133" lon="11.4140617"><ele>180.0</ele><time>2026-04-04T08:52:58.997Z</time></trkpt><trkpt lat="44.356465" lon="11.4141217"><ele>180.0</ele><time>2026-04-04T08:52:59.996Z</time></trkpt><trkpt lat="44.356395" lon="11.4141867"><ele>180.0</ele><time>2026-04-04T08:53:01.996Z</time></trkpt><trkpt lat="44.3563367" lon="11.41425"><ele>180.0</ele><time>2026-04-04T08:53:11.994Z</time></trkpt><trkpt lat="44.35622" lon="11.4144983"><ele>180.0</ele><time>2026-04-04T08:53:15.997Z</time></trkpt><trkpt lat="44.3562283" lon="11.41461"><ele>180.66666666666666</ele><time>2026-04-04T08:53:16.997Z</time></trkpt><trkpt lat="44.3562417" lon="11.414715"><ele>181.33333333333334</ele><time>2026-04-04T08:53:17.995Z</time></trkpt><trkpt lat="44.356255" lon="11.4148017"><ele>182.0</ele><time>2026-04-04T08:53:18.995Z</time></trkpt><trkpt lat="44.356285" lon="11.414935"><ele>182.66666666666669</ele><time>2026-04-04T08:53:20.996Z</time></trkpt><trkpt lat="44.3563033" lon="11.4150467"><ele>183.33333333333334</ele><time>2026-04-04T08:53:22.995Z</time></trkpt><trkpt lat="44.3562967" lon="11.4151483"><ele>184.0</ele><time>2026-04-04T08:53:24.996Z</time></trkpt><trkpt lat="44.3562233" lon="11.4152267"><ele>184.0</ele><time>2026-04-04T08:53:26.997Z</time></trkpt><trkpt lat="44.3561167" lon="11.4152767"><ele>184.0</ele><time>2026-04-04T08:53:28.996Z</time></trkpt><trkpt lat="44.3560283" lon="11.4153517"><ele>184.0</ele><time>2026-04-04T08:53:30.998Z</time></trkpt><trkpt lat="44.3559867" lon="11.4154783"><ele>184.0</ele><time>2026-04-04T08:53:32.997Z</time></trkpt><trkpt lat="44.3560133" lon="11.4156883"><ele>184.0</ele><time>2026-04-04T08:53:37.997Z</time></trkpt><trkpt lat="44.356065" lon="11.4155967"><ele>184.0</ele><time>2026-04-04T08:53:39.996Z</time></trkpt><trkpt lat="44.356085" lon="11.41548"><ele>184.0</ele><time>2026-04-04T08:53:41.997Z</time></trkpt><trkpt lat="44.356135" lon="11.4154017"><ele>184.0</ele><time>2026-04-04T08:53:43.996Z</time></trkpt><trkpt lat="44.35623" lon="11.41539"><ele>184.0</ele><time>2026-04-04T08:53:45.996Z</time></trkpt><trkpt lat="44.356325" lon="11.4154717"><ele>187.79999999999998</ele><time>2026-04-04T08:53:47.994Z</time></trkpt><trkpt lat="44.356395" lon="11.4156167"><ele>191.6</ele><time>2026-04-04T08:53:49.996Z</time></trkpt><trkpt lat="44.3564133" lon="11.4157133"><ele>195.4</ele><time>2026-04-04T08:53:50.996Z</time></trkpt><trkpt lat="44.3564267" lon="11.41583"><ele>199.2</ele><time>2026-04-04T08:53:51.995Z</time></trkpt><trkpt lat="44.356445" lon="11.4159533"><ele>203.0</ele><time>2026-04-04T08:53:52.996Z</time></trkpt><trkpt lat="44.3564683" lon="11.4160817"><ele>203.0</ele><time>2026-04-04T08:53:53.995Z</time></trkpt><trkpt lat="44.3564883" lon="11.4163083"><ele>203.0</ele><time>2026-04-04T08:53:55.998Z</time></trkpt><trkpt lat="44.3564933" lon="11.4164083"><ele>203.0</ele><time>2026-04-04T08:53:56.996Z</time></trkpt><trkpt lat="44.3564917" lon="11.4165083"><ele>203.0</ele><time>2026-04-04T08:53:57.994Z</time></trkpt><trkpt lat="44.35648" lon="11.4166183"><ele>203.0</ele><time>2026-04-04T08:53:58.995Z</time></trkpt><trkpt lat="44.35646" lon="11.4167433"><ele>204.66666666666669</ele><time>2026-04-04T08:53:59.998Z</time></trkpt><trkpt lat="44.356435" lon="11.4168667"><ele>206.33333333333334</ele><time>2026-04-04T08:54:00.997Z</time></trkpt><trkpt lat="44.3564117" lon="11.416975"><ele>208.0</ele><time>2026-04-04T08:54:01.995Z</time></trkpt><trkpt lat="44.3563933" lon="11.4170667"><ele>209.66666666666669</ele><time>2026-04-04T08:54:02.997Z</time></trkpt><trkpt lat="44.3563967" lon="11.4171567"><ele>211.33333333333334</ele><time>2026-04-04T08:54:03.994Z</time></trkpt><trkpt lat="44.356495" lon="11.4172717"><ele>213.0</ele><time>2026-04-04T08:54:05.997Z</time></trkpt><trkpt lat="44.3565667" lon="11.4173317"><ele>214.2</ele><time>2026-04-04T08:54:06.993Z</time></trkpt><trkpt lat="44.3566267" lon="11.4173833"><ele>215.4</ele><time>2026-04-04T08:54:07.997Z</time></trkpt><trkpt lat="44.3566883" lon="11.4175217"><ele>216.59999999999997</ele><time>2026-04-04T08:54:09.997Z</time></trkpt><trkpt lat="44.3566917" lon="11.4176633"><ele>217.79999999999998</ele><time>2026-04-04T08:54:11.997Z</time></trkpt><trkpt lat="44.35662" lon="11.4177983"><ele>219.0</ele><time>2026-04-04T08:54:13.995Z</time></trkpt><trkpt lat="44.35657" lon="11.4178683"><ele>223.0</ele><time>2026-04-04T08:54:14.995Z</time></trkpt><trkpt lat="44.3563783" lon="11.4180133"><ele>227.0</ele><time>2026-04-04T08:54:16.995Z</time></trkpt><trkpt lat="44.356265" lon="11.4180967"><ele>231.0</ele><time>2026-04-04T08:54:17.996Z</time></trkpt><trkpt lat="44.3561483" lon="11.4181917"><ele>231.5</ele><time>2026-04-04T08:54:18.995Z</time></trkpt><trkpt lat="44.3560383" lon="11.4182817"><ele>232.0</ele><time>2026-04-04T08:54:19.998Z</time></trkpt><trkpt lat="44.3559433" lon="11.41837"><ele>232.5</ele><time>2026-04-04T08:54:20.996Z</time></trkpt><trkpt lat="44.3558467" lon="11.418445"><ele>233.0</ele><time>2026-04-04T08:54:21.998Z</time></trkpt><trkpt lat="44.3557417" lon="11.4185083"><ele>233.0</ele><time>2026-04-04T08:54:22.996Z</time></trkpt><trkpt lat="44.3556333" lon="11.4185767"><ele>233.0</ele><time>2026-04-04T08:54:23.996Z</time></trkpt><trkpt lat="44.3555317" lon="11.4186433"><ele>233.0</ele><time>2026-04-04T08:54:24.996Z</time></trkpt><trkpt lat="44.35543" lon="11.4187067"><ele>233.0</ele><time>2026-04-04T08:54:25.996Z</time></trkpt><trkpt lat="44.3553383" lon="11.4187617"><ele>233.0</ele><time>2026-04-04T08:54:26.997Z</time></trkpt><trkpt lat="44.355255" lon="11.4188117"><ele>235.33333333333334</ele><time>2026-04-04T08:54:27.997Z</time></trkpt><trkpt lat="44.35518" lon="11.4188567"><ele>237.66666666666669</ele><time>2026-04-04T08:54:28.995Z</time></trkpt><trkpt lat="44.35511" lon="11.4189"><ele>240.0</ele><time>2026-04-04T08:54:29.996Z</time></trkpt><trkpt lat="44.3550533" lon="11.4189467"><ele>242.33333333333331</ele><time>2026-04-04T08:54:30.995Z</time></trkpt><trkpt lat="44.3549683" lon="11.4190667"><ele>244.66666666666666</ele><time>2026-04-04T08:54:32.996Z</time></trkpt><trkpt lat="44.354925" lon="11.4191617"><ele>247.0</ele><time>2026-04-04T08:54:33.996Z</time></trkpt><trkpt lat="44.3548817" lon="11.4192667"><ele>247.0</ele><time>2026-04-04T08:54:34.995Z</time></trkpt><trkpt lat="44.3548283" lon="11.419395"><ele>247.0</ele><time>2026-04-04T08:54:35.996Z</time></trkpt><trkpt lat="44.3546983" lon="11.4196683"><ele>247.0</ele><time>2026-04-04T08:54:37.995Z</time></trkpt><trkpt lat="44.3546033" lon="11.4198333"><ele>246.75</ele><time>2026-04-04T08:54:38.996Z</time></trkpt><trkpt lat="44.3545033" lon="11.42"><ele>246.5</ele><time>2026-04-04T08:54:39.996Z</time></trkpt><trkpt lat="44.3544133" lon="11.4201483"><ele>246.25</ele><time>2026-04-04T08:54:40.995Z</time></trkpt><trkpt lat="44.354335" lon="11.4202633"><ele>246.0</ele><time>2026-04-04T08:54:41.995Z</time></trkpt><trkpt lat="44.3542667" lon="11.42036"><ele>246.0</ele><time>2026-04-04T08:54:42.995Z</time></trkpt><trkpt lat="44.3542067" lon="11.42045"><ele>246.0</ele><time>2026-04-04T08:54:43.995Z</time></trkpt><trkpt lat="44.354155" lon="11.4205433"><ele>246.0</ele><time>2026-04-04T08:54:44.996Z</time></trkpt><trkpt lat="44.3541183" lon="11.4206317"><ele>246.0</ele><time>2026-04-04T08:54:45.998Z</time></trkpt><trkpt lat="44.3540917" lon="11.4207267"><ele>246.0</ele><time>2026-04-04T08:54:46.996Z</time></trkpt><trkpt lat="44.3540833" lon="11.4208233"><ele>246.0</ele><time>2026-04-04T08:54:47.994Z</time></trkpt><trkpt lat="44.3540917" lon="11.4209167"><ele>248.20000000000002</ele><time>2026-04-04T08:54:48.997Z</time></trkpt><trkpt lat="44.3541267" lon="11.4210017"><ele>250.40000000000003</ele><time>2026-04-04T08:54:49.997Z</time></trkpt><trkpt lat="44.354195" lon="11.4210517"><ele>252.6</ele><time>2026-04-04T08:54:50.996Z</time></trkpt><trkpt lat="44.3543317" lon="11.4210433"><ele>254.8</ele><time>2026-04-04T08:54:52.996Z</time></trkpt><trkpt lat="44.3544183" lon="11.4209883"><ele>257.0</ele><time>2026-04-04T08:54:53.997Z</time></trkpt><trkpt lat="44.3545217" lon="11.420895"><ele>257.0</ele><time>2026-04-04T08:54:54.996Z</time></trkpt><trkpt lat="44.3546333" lon="11.4207867"><ele>257.0</ele><time>2026-04-04T08:54:55.997Z</time></trkpt><trkpt lat="44.35474" lon="11.4206917"><ele>257.0</ele><time>2026-04-04T08:54:56.996Z</time></trkpt><trkpt lat="44.35492" lon="11.42057"><ele>259.8</ele><time>2026-04-04T08:54:58.994Z</time></trkpt><trkpt lat="44.3550117" lon="11.4205367"><ele>262.6</ele><time>2026-04-04T08:54:59.996Z</time></trkpt><trkpt lat="44.35511" lon="11.420525"><ele>265.40000000000003</ele><time>2026-04-04T08:55:00.998Z</time></trkpt><trkpt lat="44.3552033" lon="11.420525"><ele>268.2</ele><time>2026-04-04T08:55:01.997Z</time></trkpt><trkpt lat="44.355295" lon="11.4205167"><ele>271.0</ele><time>2026-04-04T08:55:02.997Z</time></trkpt><trkpt lat="44.3553933" lon="11.4204933"><ele>270.5</ele><time>2026-04-04T08:55:03.998Z</time></trkpt><trkpt lat="44.3554983" lon="11.4204417"><ele>270.0</ele><time>2026-04-04T08:55:04.997Z</time></trkpt><trkpt lat="44.3556133" lon="11.4203683"><ele>269.5</ele><time>2026-04-04T08:55:05.996Z</time></trkpt><trkpt lat="44.3557317" lon="11.42029"><ele>269.0</ele><time>2026-04-04T08:55:06.996Z</time></trkpt><trkpt lat="44.355835" lon="11.42022"><ele>269.0</ele><time>2026-04-04T08:55:07.996Z</time></trkpt><trkpt lat="44.3559267" lon="11.4201633"><ele>269.0</ele><time>2026-04-04T08:55:08.996Z</time></trkpt><trkpt lat="44.3560133" lon="11.42012"><ele>269.0</ele><time>2026-04-04T08:55:09.997Z</time></trkpt><trkpt lat="44.3560967" lon="11.4200867"><ele>269.0</ele><time>2026-04-04T08:55:10.995Z</time></trkpt><trkpt lat="44.3561883" lon="11.42007"><ele>269.0</ele><time>2026-04-04T08:55:11.996Z</time></trkpt><trkpt lat="44.35627" lon="11.4200567"><ele>269.0</ele><time>2026-04-04T08:55:12.997Z</time></trkpt><trkpt lat="44.356345" lon="11.4200517"><ele>269.0</ele><time>2026-04-04T08:55:13.995Z</time></trkpt><trkpt lat="44.3564133" lon="11.4200517"><ele>269.0</ele><time>2026-04-04T08:55:14.994Z</time></trkpt><trkpt lat="44.3564767" lon="11.4200783"><ele>269.0</ele><time>2026-04-04T08:55:15.998Z</time></trkpt><trkpt lat="44.35653" lon="11.4202267"><ele>269.0</ele><time>2026-04-04T08:55:17.996Z</time></trkpt><trkpt lat="44.3565383" lon="11.42041"><ele>271.14285714285717</ele><time>2026-04-04T08:55:19.997Z</time></trkpt><trkpt lat="44.356525" lon="11.4205083"><ele>273.28571428571433</ele><time>2026-04-04T08:55:20.996Z</time></trkpt><trkpt lat="44.3565" lon="11.4206117"><ele>275.42857142857144</ele><time>2026-04-04T08:55:21.995Z</time></trkpt><trkpt lat="44.3564733" lon="11.4207167"><ele>277.57142857142856</ele><time>2026-04-04T08:55:22.995Z</time></trkpt><trkpt lat="44.35644" lon="11.420805"><ele>279.71428571428567</ele><time>2026-04-04T08:55:23.995Z</time></trkpt><trkpt lat="44.3563967" lon="11.4208833"><ele>281.85714285714283</ele><time>2026-04-04T08:55:24.997Z</time></trkpt><trkpt lat="44.35634" lon="11.4209517"><ele>284.0</ele><time>2026-04-04T08:55:25.995Z</time></trkpt><trkpt lat="44.3562783" lon="11.4210283"><ele>284.0</ele><time>2026-04-04T08:55:26.996Z</time></trkpt><trkpt lat="44.3562033" lon="11.4211233"><ele>284.0</ele><time>2026-04-04T08:55:27.996Z</time></trkpt><trkpt lat="44.3561283" lon="11.42123"><ele>284.0</ele><time>2026-04-04T08:55:28.996Z</time></trkpt><trkpt lat="44.356055" lon="11.4213317"><ele>284.0</ele><time>2026-04-04T08:55:29.995Z</time></trkpt><trkpt lat="44.3559933" lon="11.421415"><ele>284.0</ele><time>2026-04-04T08:55:30.995Z</time></trkpt><trkpt lat="44.3559433" lon="11.4215033"><ele>286.1666666666667</ele><time>2026-04-04T08:55:31.995Z</time></trkpt><trkpt lat="44.3559083" lon="11.421585"><ele>288.33333333333337</ele><time>2026-04-04T08:55:32.995Z</time></trkpt><trkpt lat="44.3558867" lon="11.4216867"><ele>290.5</ele><time>2026-04-04T08:55:33.996Z</time></trkpt><trkpt lat="44.3558633" lon="11.421775"><ele>292.6666666666667</ele><time>2026-04-04T08:55:34.996Z</time></trkpt><trkpt lat="44.3557817" lon="11.421905"><ele>294.8333333333333</ele><time>2026-04-04T08:55:36.996Z</time></trkpt><trkpt lat="44.355715" lon="11.42198"><ele>297.0</ele><time>2026-04-04T08:55:37.996Z</time></trkpt><trkpt lat="44.355625" lon="11.4220633"><ele>298.6666666666667</ele><time>2026-04-04T08:55:38.996Z</time></trkpt><trkpt lat="44.3554183" lon="11.4222283"><ele>300.33333333333337</ele><time>2026-04-04T08:55:40.996Z</time></trkpt><trkpt lat="44.35532" lon="11.422305"><ele>302.0</ele><time>2026-04-04T08:55:41.996Z</time></trkpt><trkpt lat="44.355225" lon="11.4223833"><ele>302.0</ele><time>2026-04-04T08:55:42.996Z</time></trkpt><trkpt lat="44.355125" lon="11.42247"><ele>302.0</ele><time>2026-04-04T08:55:43.994Z</time></trkpt><trkpt lat="44.35502" lon="11.4225667"><ele>302.0</ele><time>2026-04-04T08:55:44.994Z</time></trkpt><trkpt lat="44.3549083" lon="11.42266"><ele>302.0</ele><time>2026-04-04T08:55:45.995Z</time></trkpt><trkpt lat="44.354795" lon="11.4227533"><ele>303.5</ele><time>2026-04-04T08:55:46.994Z</time></trkpt><trkpt lat="44.3546817" lon="11.422845"><ele>305.0</ele><time>2026-04-04T08:55:47.997Z</time></trkpt><trkpt lat="44.354575" lon="11.4229267"><ele>306.5</ele><time>2026-04-04T08:55:48.996Z</time></trkpt><trkpt lat="44.3544783" lon="11.4230083"><ele>308.0</ele><time>2026-04-04T08:55:49.994Z</time></trkpt><trkpt lat="44.354385" lon="11.4230883"><ele>308.0</ele><time>2026-04-04T08:55:50.996Z</time></trkpt><trkpt lat="44.3542883" lon="11.4231783"><ele>308.0</ele><time>2026-04-04T08:55:51.997Z</time></trkpt><trkpt lat="44.3541867" lon="11.423285"><ele>308.0</ele><time>2026-04-04T08:55:52.994Z</time></trkpt><trkpt lat="44.3540867" lon="11.4234067"><ele>308.0</ele><time>2026-04-04T08:55:53.997Z</time></trkpt><trkpt lat="44.35399" lon="11.42353"><ele>308.0</ele><time>2026-04-04T08:55:54.997Z</time></trkpt><trkpt lat="44.3538967" lon="11.423655"><ele>308.0</ele><time>2026-04-04T08:55:55.996Z</time></trkpt><trkpt lat="44.3538033" lon="11.4237883"><ele>308.0</ele><time>2026-04-04T08:55:56.998Z</time></trkpt><trkpt lat="44.353705" lon="11.42393"><ele>308.0</ele><time>2026-04-04T08:55:57.997Z</time></trkpt><trkpt lat="44.35361" lon="11.4240683"><ele>310.0</ele><time>2026-04-04T08:55:58.997Z</time></trkpt><trkpt lat="44.3535183" lon="11.424215"><ele>312.0</ele><time>2026-04-04T08:55:59.998Z</time></trkpt><trkpt lat="44.3533517" lon="11.42449"><ele>314.0</ele><time>2026-04-04T08:56:01.998Z</time></trkpt><trkpt lat="44.35328" lon="11.4245967"><ele>314.4</ele><time>2026-04-04T08:56:03.001Z</time></trkpt><trkpt lat="44.353225" lon="11.4246917"><ele>314.79999999999995</ele><time>2026-04-04T08:56:03.995Z</time></trkpt><trkpt lat="44.353175" lon="11.4247983"><ele>315.20000000000005</ele><time>2026-04-04T08:56:04.995Z</time></trkpt><trkpt lat="44.3531233" lon="11.4249033"><ele>315.6</ele><time>2026-04-04T08:56:05.997Z</time></trkpt><trkpt lat="44.3530717" lon="11.42502"><ele>316.0</ele><time>2026-04-04T08:56:06.995Z</time></trkpt><trkpt lat="44.353015" lon="11.4251467"><ele>316.0</ele><time>2026-04-04T08:56:07.995Z</time></trkpt><trkpt lat="44.3529433" lon="11.4252733"><ele>316.0</ele><time>2026-04-04T08:56:08.997Z</time></trkpt><trkpt lat="44.35287" lon="11.4254167"><ele>316.0</ele><time>2026-04-04T08:56:09.995Z</time></trkpt><trkpt lat="44.3528083" lon="11.4255533"><ele>316.0</ele><time>2026-04-04T08:56:11Z</time></trkpt><trkpt lat="44.35276" lon="11.425675"><ele>318.20000000000005</ele><time>2026-04-04T08:56:11.998Z</time></trkpt><trkpt lat="44.352725" lon="11.4257783"><ele>320.40000000000003</ele><time>2026-04-04T08:56:12.998Z</time></trkpt><trkpt lat="44.3527083" lon="11.4258833"><ele>322.6</ele><time>2026-04-04T08:56:13.997Z</time></trkpt><trkpt lat="44.3526817" lon="11.426"><ele>324.8</ele><time>2026-04-04T08:56:14.996Z</time></trkpt><trkpt lat="44.352655" lon="11.4261417"><ele>327.0</ele><time>2026-04-04T08:56:15.996Z</time></trkpt><trkpt lat="44.3526367" lon="11.426295"><ele>330.6</ele><time>2026-04-04T08:56:16.997Z</time></trkpt><trkpt lat="44.3526283" lon="11.4264317"><ele>334.20000000000005</ele><time>2026-04-04T08:56:17.996Z</time></trkpt><trkpt lat="44.3526117" lon="11.4265633"><ele>337.8</ele><time>2026-04-04T08:56:18.994Z</time></trkpt><trkpt lat="44.352585" lon="11.4266933"><ele>341.4</ele><time>2026-04-04T08:56:19.995Z</time></trkpt><trkpt lat="44.35256" lon="11.4268133"><ele>345.0</ele><time>2026-04-04T08:56:20.995Z</time></trkpt><trkpt lat="44.3525083" lon="11.42699"><ele>345.0</ele><time>2026-04-04T08:56:22.994Z</time></trkpt><trkpt lat="44.352465" lon="11.4270617"><ele>345.0</ele><time>2026-04-04T08:56:23.996Z</time></trkpt><trkpt lat="44.352385" lon="11.4271167"><ele>345.0</ele><time>2026-04-04T08:56:24.996Z</time></trkpt><trkpt lat="44.3523017" lon="11.42716"><ele>345.0</ele><time>2026-04-04T08:56:25.997Z</time></trkpt><trkpt lat="44.3522167" lon="11.427185"><ele>345.0</ele><time>2026-04-04T08:56:26.996Z</time></trkpt><trkpt lat="44.3521467" lon="11.4272117"><ele>345.0</ele><time>2026-04-04T08:56:27.996Z</time></trkpt><trkpt lat="44.3520833" lon="11.427245"><ele>346.6</ele><time>2026-04-04T08:56:28.997Z</time></trkpt><trkpt lat="44.352" lon="11.4273233"><ele>348.2</ele><time>2026-04-04T08:56:30.998Z</time></trkpt><trkpt lat="44.3520683" lon="11.427405"><ele>349.79999999999995</ele><time>2026-04-04T08:56:32.996Z</time></trkpt><trkpt lat="44.3522133" lon="11.4273833"><ele>351.4</ele><time>2026-04-04T08:56:34.997Z</time></trkpt><trkpt lat="44.3522933" lon="11.427355"><ele>353.0</ele><time>2026-04-04T08:56:35.997Z</time></trkpt><trkpt lat="44.3524183" lon="11.4273233"><ele>351.4</ele><time>2026-04-04T08:56:36.996Z</time></trkpt><trkpt lat="44.352535" lon="11.42728"><ele>349.79999999999995</ele><time>2026-04-04T08:56:37.993Z</time></trkpt><trkpt lat="44.3526433" lon="11.4272233"><ele>348.2</ele><time>2026-04-04T08:56:38.999Z</time></trkpt><trkpt lat="44.3527433" lon="11.4271483"><ele>346.6</ele><time>2026-04-04T08:56:39.996Z</time></trkpt><trkpt lat="44.3528233" lon="11.4270783"><ele>345.0</ele><time>2026-04-04T08:56:40.998Z</time></trkpt><trkpt lat="44.3528967" lon="11.42703"><ele>348.2</ele><time>2026-04-04T08:56:41.996Z</time></trkpt><trkpt lat="44.3530433" lon="11.42697"><ele>351.4</ele><time>2026-04-04T08:56:43.993Z</time></trkpt><trkpt lat="44.3531183" lon="11.4269833"><ele>354.6</ele><time>2026-04-04T08:56:44.997Z</time></trkpt><trkpt lat="44.353185" lon="11.4270083"><ele>357.8</ele><time>2026-04-04T08:56:45.995Z</time></trkpt><trkpt lat="44.3532617" lon="11.42709"><ele>361.0</ele><time>2026-04-04T08:56:47.997Z</time></trkpt><trkpt lat="44.3532633" lon="11.4271983"><ele>361.0</ele><time>2026-04-04T08:56:49.996Z</time></trkpt><trkpt lat="44.35321" lon="11.4272633"><ele>361.0</ele><time>2026-04-04T08:56:51.996Z</time></trkpt><trkpt lat="44.35309" lon="11.4272917"><ele>361.0</ele><time>2026-04-04T08:56:53.995Z</time></trkpt><trkpt lat="44.353005" lon="11.4273567"><ele>361.0</ele><time>2026-04-04T08:56:54.998Z</time></trkpt><trkpt lat="44.3529283" lon="11.4274433"><ele>361.0</ele><time>2026-04-04T08:56:55.996Z</time></trkpt><trkpt lat="44.35286" lon="11.4275633"><ele>361.6</ele><time>2026-04-04T08:56:56.996Z</time></trkpt><trkpt lat="44.352805" lon="11.4276733"><ele>362.20000000000005</ele><time>2026-04-04T08:56:57.997Z</time></trkpt><trkpt lat="44.3527367" lon="11.4277617"><ele>362.79999999999995</ele><time>2026-04-04T08:56:58.996Z</time></trkpt><trkpt lat="44.3526583" lon="11.427835"><ele>363.4</ele><time>2026-04-04T08:56:59.997Z</time></trkpt><trkpt lat="44.35257" lon="11.4279017"><ele>364.0</ele><time>2026-04-04T08:57:00.997Z</time></trkpt><trkpt lat="44.352475" lon="11.4279633"><ele>366.75</ele><time>2026-04-04T08:57:01.996Z</time></trkpt><trkpt lat="44.352375" lon="11.428025"><ele>369.5</ele><time>2026-04-04T08:57:02.994Z</time></trkpt><trkpt lat="44.3521917" lon="11.4281233"><ele>372.25</ele><time>2026-04-04T08:57:04.996Z</time></trkpt><trkpt lat="44.352105" lon="11.4281583"><ele>375.0</ele><time>2026-04-04T08:57:05.996Z</time></trkpt><trkpt lat="44.3520117" lon="11.4281917"><ele>376.6</ele><time>2026-04-04T08:57:06.996Z</time></trkpt><trkpt lat="44.3519233" lon="11.4282217"><ele>378.2</ele><time>2026-04-04T08:57:07.998Z</time></trkpt><trkpt lat="44.3518317" lon="11.4282683"><ele>379.79999999999995</ele><time>2026-04-04T08:57:08.998Z</time></trkpt><trkpt lat="44.3517417" lon="11.4283183"><ele>381.4</ele><time>2026-04-04T08:57:09.995Z</time></trkpt><trkpt lat="44.3516567" lon="11.428365"><ele>383.0</ele><time>2026-04-04T08:57:10.994Z</time></trkpt><trkpt lat="44.351585" lon="11.4284067"><ele>383.0</ele><time>2026-04-04T08:57:11.995Z</time></trkpt><trkpt lat="44.3515233" lon="11.428445"><ele>383.0</ele><time>2026-04-04T08:57:12.997Z</time></trkpt><trkpt lat="44.3514717" lon="11.4285083"><ele>383.0</ele><time>2026-04-04T08:57:13.998Z</time></trkpt><trkpt lat="44.351435" lon="11.4286083"><ele>383.0</ele><time>2026-04-04T08:57:14.996Z</time></trkpt><trkpt lat="44.35141" lon="11.42873"><ele>383.0</ele><time>2026-04-04T08:57:15.996Z</time></trkpt><trkpt lat="44.35138" lon="11.4288217"><ele>383.0</ele><time>2026-04-04T08:57:16.997Z</time></trkpt><trkpt lat="44.3513133" lon="11.428955"><ele>387.79999999999995</ele><time>2026-04-04T08:57:18.996Z</time></trkpt><trkpt lat="44.3511933" lon="11.4290217"><ele>392.6</ele><time>2026-04-04T08:57:20.996Z</time></trkpt><trkpt lat="44.3511083" lon="11.4290167"><ele>397.4</ele><time>2026-04-04T08:57:21.997Z</time></trkpt><trkpt lat="44.3509967" lon="11.4290033"><ele>402.20000000000005</ele><time>2026-04-04T08:57:22.996Z</time></trkpt><trkpt lat="44.3508767" lon="11.428985"><ele>407.0</ele><time>2026-04-04T08:57:23.996Z</time></trkpt><trkpt lat="44.3506617" lon="11.42896"><ele>406.99999999999994</ele><time>2026-04-04T08:57:25.998Z</time></trkpt><trkpt lat="44.35057" lon="11.4289567"><ele>407.0</ele><time>2026-04-04T08:57:26.996Z</time></trkpt><trkpt lat="44.3504883" lon="11.4289633"><ele>407.0</ele><time>2026-04-04T08:57:27.997Z</time></trkpt><trkpt lat="44.35042" lon="11.4289683"><ele>407.0</ele><time>2026-04-04T08:57:28.996Z</time></trkpt><trkpt lat="44.3503583" lon="11.4289883"><ele>406.99999999999994</ele><time>2026-04-04T08:57:29.996Z</time></trkpt><trkpt lat="44.35027" lon="11.4290783"><ele>407.0</ele><time>2026-04-04T08:57:31.996Z</time></trkpt><trkpt lat="44.3502533" lon="11.4292233"><ele>407.0</ele><time>2026-04-04T08:57:33.995Z</time></trkpt><trkpt lat="44.3503417" lon="11.4293333"><ele>407.0</ele><time>2026-04-04T08:57:35.994Z</time></trkpt><trkpt lat="44.35043" lon="11.429365"><ele>407.0</ele><time>2026-04-04T08:57:36.994Z</time></trkpt><trkpt lat="44.3505483" lon="11.4293817"><ele>407.0</ele><time>2026-04-04T08:57:37.996Z</time></trkpt><trkpt lat="44.350695" lon="11.429395"><ele>407.0</ele><time>2026-04-04T08:57:38.996Z</time></trkpt><trkpt lat="44.3508417" lon="11.42941"><ele>407.0</ele><time>2026-04-04T08:57:39.996Z</time></trkpt><trkpt lat="44.350985" lon="11.4294317"><ele>407.0</ele><time>2026-04-04T08:57:40.996Z</time></trkpt><trkpt lat="44.3511167" lon="11.429455"><ele>407.0</ele><time>2026-04-04T08:57:41.997Z</time></trkpt><trkpt lat="44.35123" lon="11.42947"><ele>407.0</ele><time>2026-04-04T08:57:42.996Z</time></trkpt><trkpt lat="44.351335" lon="11.4294833"><ele>407.0</ele><time>2026-04-04T08:57:43.995Z</time></trkpt><trkpt lat="44.3514283" lon="11.4294767"><ele>407.0</ele><time>2026-04-04T08:57:44.998Z</time></trkpt><trkpt lat="44.3515817" lon="11.4293883"><ele>407.0</ele><time>2026-04-04T08:57:46.997Z</time></trkpt><trkpt lat="44.3516333" lon="11.429325"><ele>407.0</ele><time>2026-04-04T08:57:47.995Z</time></trkpt><trkpt lat="44.3517217" lon="11.429235"><ele>407.0</ele><time>2026-04-04T08:57:49.996Z</time></trkpt><trkpt lat="44.3518017" lon="11.429255"><ele>407.0</ele><time>2026-04-04T08:57:51.997Z</time></trkpt><trkpt lat="44.3518217" lon="11.429365"><ele>407.0</ele><time>2026-04-04T08:57:53.998Z</time></trkpt><trkpt lat="44.35175" lon="11.429535"><ele>407.0</ele><time>2026-04-04T08:57:55.997Z</time></trkpt><trkpt lat="44.3517" lon="11.4296317"><ele>407.0</ele><time>2026-04-04T08:57:56.996Z</time></trkpt><trkpt lat="44.3516417" lon="11.42974"><ele>408.8333333333333</ele><time>2026-04-04T08:57:57.996Z</time></trkpt><trkpt lat="44.3515817" lon="11.4298433"><ele>410.66666666666663</ele><time>2026-04-04T08:57:58.998Z</time></trkpt><trkpt lat="44.3515217" lon="11.4299267"><ele>412.5</ele><time>2026-04-04T08:57:59.996Z</time></trkpt><trkpt lat="44.3514583" lon="11.4299883"><ele>414.33333333333337</ele><time>2026-04-04T08:58:00.997Z</time></trkpt><trkpt lat="44.3513833" lon="11.4300283"><ele>416.1666666666667</ele><time>2026-04-04T08:58:01.997Z</time></trkpt><trkpt lat="44.3513033" lon="11.4300517"><ele>418.0</ele><time>2026-04-04T08:58:02.996Z</time></trkpt><trkpt lat="44.351215" lon="11.4300733"><ele>421.5</ele><time>2026-04-04T08:58:03.996Z</time></trkpt><trkpt lat="44.3511217" lon="11.4300967"><ele>425.0</ele><time>2026-04-04T08:58:04.997Z</time></trkpt><trkpt lat="44.3510233" lon="11.4301233"><ele>428.5</ele><time>2026-04-04T08:58:05.997Z</time></trkpt><trkpt lat="44.3508367" lon="11.4301833"><ele>432.0</ele><time>2026-04-04T08:58:07.997Z</time></trkpt><trkpt lat="44.3507567" lon="11.4301817"><ele>432.0</ele><time>2026-04-04T08:58:08.997Z</time></trkpt><trkpt lat="44.3506783" lon="11.430155"><ele>432.0</ele><time>2026-04-04T08:58:09.996Z</time></trkpt><trkpt lat="44.3506133" lon="11.4301267"><ele>432.0</ele><time>2026-04-04T08:58:10.996Z</time></trkpt><trkpt lat="44.35055" lon="11.43011"><ele>432.0</ele><time>2026-04-04T08:58:11.996Z</time></trkpt><trkpt lat="44.35048" lon="11.4301067"><ele>432.0</ele><time>2026-04-04T08:58:12.997Z</time></trkpt><trkpt lat="44.3504017" lon="11.4301233"><ele>432.0</ele><time>2026-04-04T08:58:13.997Z</time></trkpt><trkpt lat="44.3503233" lon="11.430155"><ele>432.0</ele><time>2026-04-04T08:58:14.997Z</time></trkpt><trkpt lat="44.3502417" lon="11.4301917"><ele>432.6666666666667</ele><time>2026-04-04T08:58:15.996Z</time></trkpt><trkpt lat="44.3501683" lon="11.4302333"><ele>433.33333333333337</ele><time>2026-04-04T08:58:16.994Z</time></trkpt><trkpt lat="44.3500967" lon="11.430265"><ele>434.0</ele><time>2026-04-04T08:58:17.996Z</time></trkpt><trkpt lat="44.3500183" lon="11.4302883"><ele>434.6666666666667</ele><time>2026-04-04T08:58:18.996Z</time></trkpt><trkpt lat="44.3499333" lon="11.4302983"><ele>435.33333333333337</ele><time>2026-04-04T08:58:19.995Z</time></trkpt><trkpt lat="44.349845" lon="11.43031"><ele>436.0</ele><time>2026-04-04T08:58:20.997Z</time></trkpt><trkpt lat="44.3497667" lon="11.4303283"><ele>434.50000000000006</ele><time>2026-04-04T08:58:21.996Z</time></trkpt><trkpt lat="44.3496983" lon="11.4303567"><ele>433.0</ele><time>2026-04-04T08:58:22.996Z</time></trkpt><trkpt lat="44.34964" lon="11.4304133"><ele>431.5</ele><time>2026-04-04T08:58:23.996Z</time></trkpt><trkpt lat="44.3495967" lon="11.430495"><ele>430.0</ele><time>2026-04-04T08:58:24.996Z</time></trkpt><trkpt lat="44.3495567" lon="11.4305917"><ele>428.50000000000006</ele><time>2026-04-04T08:58:25.996Z</time></trkpt><trkpt lat="44.3495233" lon="11.4307"><ele>427.0</ele><time>2026-04-04T08:58:26.996Z</time></trkpt><trkpt lat="44.34945" lon="11.4308733"><ele>431.1666666666667</ele><time>2026-04-04T08:58:28.995Z</time></trkpt><trkpt lat="44.349355" lon="11.43097"><ele>435.33333333333337</ele><time>2026-04-04T08:58:30.995Z</time></trkpt><trkpt lat="44.3492867" lon="11.4309883"><ele>439.5</ele><time>2026-04-04T08:58:31.996Z</time></trkpt><trkpt lat="44.34921" lon="11.4310083"><ele>443.66666666666663</ele><time>2026-04-04T08:58:32.995Z</time></trkpt><trkpt lat="44.3491417" lon="11.4310333"><ele>447.8333333333333</ele><time>2026-04-04T08:58:33.996Z</time></trkpt><trkpt lat="44.3490683" lon="11.43108"><ele>452.0</ele><time>2026-04-04T08:58:34.996Z</time></trkpt><trkpt lat="44.3489983" lon="11.4311433"><ele>452.0</ele><time>2026-04-04T08:58:35.996Z</time></trkpt><trkpt lat="44.3489383" lon="11.4312283"><ele>452.00000000000006</ele><time>2026-04-04T08:58:36.997Z</time></trkpt><trkpt lat="44.3488817" lon="11.4313267"><ele>452.00000000000006</ele><time>2026-04-04T08:58:37.993Z</time></trkpt><trkpt lat="44.348835" lon="11.4314517"><ele>452.0</ele><time>2026-04-04T08:58:38.996Z</time></trkpt><trkpt lat="44.348795" lon="11.4315733"><ele>452.0</ele><time>2026-04-04T08:58:39.997Z</time></trkpt><trkpt lat="44.3487667" lon="11.43168"><ele>452.16666666666663</ele><time>2026-04-04T08:58:40.997Z</time></trkpt><trkpt lat="44.3487483" lon="11.43179"><ele>452.3333333333333</ele><time>2026-04-04T08:58:41.993Z</time></trkpt><trkpt lat="44.3487367" lon="11.4319067"><ele>452.5</ele><time>2026-04-04T08:58:42.994Z</time></trkpt><trkpt lat="44.34872" lon="11.4320233"><ele>452.66666666666663</ele><time>2026-04-04T08:58:43.994Z</time></trkpt><trkpt lat="44.3487133" lon="11.4321383"><ele>452.8333333333333</ele><time>2026-04-04T08:58:44.994Z</time></trkpt><trkpt lat="44.3487083" lon="11.432255"><ele>453.0</ele><time>2026-04-04T08:58:45.995Z</time></trkpt><trkpt lat="44.3487117" lon="11.43236"><ele>453.0</ele><time>2026-04-04T08:58:46.995Z</time></trkpt><trkpt lat="44.3486783" lon="11.43248"><ele>452.99999999999994</ele><time>2026-04-04T08:58:47.995Z</time></trkpt><trkpt lat="44.3486017" lon="11.4327133"><ele>452.99999999999994</ele><time>2026-04-04T08:58:49.995Z</time></trkpt><trkpt lat="44.3485767" lon="11.4328283"><ele>453.0</ele><time>2026-04-04T08:58:50.995Z</time></trkpt><trkpt lat="44.3485583" lon="11.4329417"><ele>453.0</ele><time>2026-04-04T08:58:51.996Z</time></trkpt><trkpt lat="44.348555" lon="11.4330417"><ele>453.1666666666667</ele><time>2026-04-04T08:58:52.996Z</time></trkpt><trkpt lat="44.348555" lon="11.433135"><ele>453.33333333333337</ele><time>2026-04-04T08:58:53.996Z</time></trkpt><trkpt lat="44.348565" lon="11.4332417"><ele>453.5</ele><time>2026-04-04T08:58:54.996Z</time></trkpt><trkpt lat="44.3485783" lon="11.43335"><ele>453.6666666666667</ele><time>2026-04-04T08:58:55.997Z</time></trkpt><trkpt lat="44.3485933" lon="11.4334783"><ele>453.83333333333337</ele><time>2026-04-04T08:58:56.995Z</time></trkpt><trkpt lat="44.3485967" lon="11.4336067"><ele>454.0</ele><time>2026-04-04T08:58:57.997Z</time></trkpt><trkpt lat="44.3485917" lon="11.43374"><ele>454.6</ele><time>2026-04-04T08:58:58.996Z</time></trkpt><trkpt lat="44.34858" lon="11.4338733"><ele>455.2</ele><time>2026-04-04T08:58:59.997Z</time></trkpt><trkpt lat="44.3485667" lon="11.4339917"><ele>455.80000000000007</ele><time>2026-04-04T08:59:00.996Z</time></trkpt><trkpt lat="44.3485383" lon="11.4341083"><ele>456.40000000000003</ele><time>2026-04-04T08:59:01.996Z</time></trkpt><trkpt lat="44.348505" lon="11.4342267"><ele>457.0</ele><time>2026-04-04T08:59:02.996Z</time></trkpt><trkpt lat="44.3484617" lon="11.4343667"><ele>457.0</ele><time>2026-04-04T08:59:03.994Z</time></trkpt><trkpt lat="44.348405" lon="11.4345317"><ele>457.0</ele><time>2026-04-04T08:59:04.996Z</time></trkpt><trkpt lat="44.3483483" lon="11.4347183"><ele>457.0</ele><time>2026-04-04T08:59:05.996Z</time></trkpt><trkpt lat="44.3483" lon="11.434915"><ele>457.0</ele><time>2026-04-04T08:59:06.996Z</time></trkpt><trkpt lat="44.348265" lon="11.4350867"><ele>457.75</ele><time>2026-04-04T08:59:07.995Z</time></trkpt><trkpt lat="44.348235" lon="11.435235"><ele>458.5</ele><time>2026-04-04T08:59:08.994Z</time></trkpt><trkpt lat="44.34817" lon="11.4354867"><ele>459.25</ele><time>2026-04-04T08:59:10.997Z</time></trkpt><trkpt lat="44.3481317" lon="11.4355867"><ele>460.0</ele><time>2026-04-04T08:59:11.996Z</time></trkpt><trkpt lat="44.3480817" lon="11.4356833"><ele>462.2</ele><time>2026-04-04T08:59:12.996Z</time></trkpt><trkpt lat="44.34802" lon="11.43577"><ele>464.4</ele><time>2026-04-04T08:59:13.996Z</time></trkpt><trkpt lat="44.3479467" lon="11.4358517"><ele>466.6</ele><time>2026-04-04T08:59:14.996Z</time></trkpt><trkpt lat="44.347865" lon="11.43592"><ele>468.8</ele><time>2026-04-04T08:59:15.996Z</time></trkpt><trkpt lat="44.3477783" lon="11.4359717"><ele>471.0</ele><time>2026-04-04T08:59:16.997Z</time></trkpt><trkpt lat="44.3476833" lon="11.4360117"><ele>471.0</ele><time>2026-04-04T08:59:17.994Z</time></trkpt><trkpt lat="44.3475783" lon="11.4360317"><ele>471.0</ele><time>2026-04-04T08:59:18.995Z</time></trkpt><trkpt lat="44.3474683" lon="11.43603"><ele>471.0</ele><time>2026-04-04T08:59:19.994Z</time></trkpt><trkpt lat="44.3473567" lon="11.4360167"><ele>471.0</ele><time>2026-04-04T08:59:20.995Z</time></trkpt><trkpt lat="44.347245" lon="11.4360017"><ele>471.0</ele><time>2026-04-04T08:59:21.995Z</time></trkpt><trkpt lat="44.3471367" lon="11.4359783"><ele>473.0</ele><time>2026-04-04T08:59:22.994Z</time></trkpt><trkpt lat="44.3470367" lon="11.4359517"><ele>475.0</ele><time>2026-04-04T08:59:23.996Z</time></trkpt><trkpt lat="44.3469533" lon="11.43592"><ele>477.0</ele><time>2026-04-04T08:59:24.997Z</time></trkpt><trkpt lat="44.346875" lon="11.4358833"><ele>479.0</ele><time>2026-04-04T08:59:25.997Z</time></trkpt><trkpt lat="44.3467883" lon="11.4358333"><ele>481.0</ele><time>2026-04-04T08:59:26.997Z</time></trkpt><trkpt lat="44.3466867" lon="11.435775"><ele>481.0</ele><time>2026-04-04T08:59:27.996Z</time></trkpt><trkpt lat="44.3465683" lon="11.4357267"><ele>481.0</ele><time>2026-04-04T08:59:28.996Z</time></trkpt><trkpt lat="44.346445" lon="11.435695"><ele>481.0</ele><time>2026-04-04T08:59:29.996Z</time></trkpt><trkpt lat="44.346215" lon="11.43566"><ele>484.6</ele><time>2026-04-04T08:59:31.996Z</time></trkpt><trkpt lat="44.3461217" lon="11.435645"><ele>488.20000000000005</ele><time>2026-04-04T08:59:32.996Z</time></trkpt><trkpt lat="44.3460267" lon="11.435625"><ele>491.79999999999995</ele><time>2026-04-04T08:59:33.996Z</time></trkpt><trkpt lat="44.345925" lon="11.4356183"><ele>495.4</ele><time>2026-04-04T08:59:34.996Z</time></trkpt><trkpt lat="44.3458333" lon="11.4356333"><ele>499.0</ele><time>2026-04-04T08:59:35.995Z</time></trkpt><trkpt lat="44.3457433" lon="11.4356567"><ele>499.00000000000006</ele><time>2026-04-04T08:59:36.995Z</time></trkpt><trkpt lat="44.3456617" lon="11.43568"><ele>499.0</ele><time>2026-04-04T08:59:37.995Z</time></trkpt><trkpt lat="44.3455833" lon="11.435705"><ele>499.0</ele><time>2026-04-04T08:59:38.994Z</time></trkpt><trkpt lat="44.3455067" lon="11.43574"><ele>499.0</ele><time>2026-04-04T08:59:39.996Z</time></trkpt><trkpt lat="44.34543" lon="11.4357767"><ele>499.00000000000006</ele><time>2026-04-04T08:59:40.995Z</time></trkpt><trkpt lat="44.345355" lon="11.43581"><ele>499.0</ele><time>2026-04-04T08:59:41.995Z</time></trkpt><trkpt lat="44.3452783" lon="11.43584"><ele>499.83333333333337</ele><time>2026-04-04T08:59:42.996Z</time></trkpt><trkpt lat="44.3451933" lon="11.435855"><ele>500.6666666666667</ele><time>2026-04-04T08:59:43.996Z</time></trkpt><trkpt lat="44.345105" lon="11.4358583"><ele>501.5</ele><time>2026-04-04T08:59:44.995Z</time></trkpt><trkpt lat="44.34502" lon="11.4358567"><ele>502.33333333333337</ele><time>2026-04-04T08:59:45.996Z</time></trkpt><trkpt lat="44.3449333" lon="11.4358533"><ele>503.1666666666667</ele><time>2026-04-04T08:59:46.996Z</time></trkpt><trkpt lat="44.3448433" lon="11.4358483"><ele>504.0</ele><time>2026-04-04T08:59:47.996Z</time></trkpt><trkpt lat="44.3447583" lon="11.4358433"><ele>505.0</ele><time>2026-04-04T08:59:48.996Z</time></trkpt><trkpt lat="44.3446867" lon="11.4358417"><ele>506.0</ele><time>2026-04-04T08:59:49.997Z</time></trkpt><trkpt lat="44.3445683" lon="11.4358433"><ele>507.0</ele><time>2026-04-04T08:59:51.996Z</time></trkpt><trkpt lat="44.344435" lon="11.43584"><ele>508.0</ele><time>2026-04-04T08:59:53.996Z</time></trkpt><trkpt lat="44.34436" lon="11.435825"><ele>509.0</ele><time>2026-04-04T08:59:54.996Z</time></trkpt><trkpt lat="44.3442883" lon="11.43579"><ele>509.0</ele><time>2026-04-04T08:59:55.996Z</time></trkpt><trkpt lat="44.3442017" lon="11.435755"><ele>509.0</ele><time>2026-04-04T08:59:56.997Z</time></trkpt><trkpt lat="44.34411" lon="11.435715"><ele>509.0</ele><time>2026-04-04T08:59:57.995Z</time></trkpt><trkpt lat="44.34401" lon="11.4356833"><ele>509.0</ele><time>2026-04-04T08:59:58.995Z</time></trkpt><trkpt lat="44.3438983" lon="11.4356683"><ele>509.0</ele><time>2026-04-04T08:59:59.995Z</time></trkpt><trkpt lat="44.3437867" lon="11.43566"><ele>511.2</ele><time>2026-04-04T09:00:00.998Z</time></trkpt><trkpt lat="44.343685" lon="11.4356683"><ele>513.4</ele><time>2026-04-04T09:00:01.997Z</time></trkpt><trkpt lat="44.343585" lon="11.4356867"><ele>515.6</ele><time>2026-04-04T09:00:02.996Z</time></trkpt><trkpt lat="44.3434817" lon="11.4357133"><ele>517.8</ele><time>2026-04-04T09:00:03.997Z</time></trkpt><trkpt lat="44.3433833" lon="11.4357417"><ele>520.0</ele><time>2026-04-04T09:00:04.996Z</time></trkpt><trkpt lat="44.34329" lon="11.4357683"><ele>520.0</ele><time>2026-04-04T09:00:05.995Z</time></trkpt><trkpt lat="44.3432017" lon="11.4357933"><ele>520.0</ele><time>2026-04-04T09:00:06.995Z</time></trkpt><trkpt lat="44.3431133" lon="11.435815"><ele>520.0</ele><time>2026-04-04T09:00:07.996Z</time></trkpt><trkpt lat="44.3430333" lon="11.4358367"><ele>520.0</ele><time>2026-04-04T09:00:08.995Z</time></trkpt><trkpt lat="44.3429567" lon="11.43585"><ele>520.0</ele><time>2026-04-04T09:00:09.996Z</time></trkpt><trkpt lat="44.342885" lon="11.43587"><ele>520.0</ele><time>2026-04-04T09:00:10.996Z</time></trkpt><trkpt lat="44.3428167" lon="11.4358933"><ele>521.5</ele><time>2026-04-04T09:00:11.996Z</time></trkpt><trkpt lat="44.3427483" lon="11.4359067"><ele>523.0</ele><time>2026-04-04T09:00:12.998Z</time></trkpt><trkpt lat="44.34261" lon="11.4359167"><ele>524.5</ele><time>2026-04-04T09:00:14.996Z</time></trkpt><trkpt lat="44.34254" lon="11.4359117"><ele>526.0</ele><time>2026-04-04T09:00:15.995Z</time></trkpt><trkpt lat="44.3424717" lon="11.4358933"><ele>527.5</ele><time>2026-04-04T09:00:16.996Z</time></trkpt><trkpt lat="44.342395" lon="11.435865"><ele>529.0</ele><time>2026-04-04T09:00:17.995Z</time></trkpt><trkpt lat="44.3423117" lon="11.435815"><ele>529.0</ele><time>2026-04-04T09:00:18.995Z</time></trkpt><trkpt lat="44.3422233" lon="11.4357617"><ele>529.0</ele><time>2026-04-04T09:00:19.996Z</time></trkpt><trkpt lat="44.3421433" lon="11.4357083"><ele>529.0</ele><time>2026-04-04T09:00:20.996Z</time></trkpt><trkpt lat="44.3420717" lon="11.4356567"><ele>529.0</ele><time>2026-04-04T09:00:21.996Z</time></trkpt><trkpt lat="44.342" lon="11.435605"><ele>529.0</ele><time>2026-04-04T09:00:22.996Z</time></trkpt><trkpt lat="44.341925" lon="11.435555"><ele>529.0</ele><time>2026-04-04T09:00:23.996Z</time></trkpt><trkpt lat="44.3418467" lon="11.4355"><ele>528.5</ele><time>2026-04-04T09:00:24.996Z</time></trkpt><trkpt lat="44.3417667" lon="11.4354367"><ele>528.0</ele><time>2026-04-04T09:00:25.996Z</time></trkpt><trkpt lat="44.3416867" lon="11.4353767"><ele>527.5</ele><time>2026-04-04T09:00:26.995Z</time></trkpt><trkpt lat="44.3416167" lon="11.4353083"><ele>527.0</ele><time>2026-04-04T09:00:27.996Z</time></trkpt><trkpt lat="44.341545" lon="11.4352433"><ele>526.5</ele><time>2026-04-04T09:00:28.995Z</time></trkpt><trkpt lat="44.3414733" lon="11.435175"><ele>526.0</ele><time>2026-04-04T09:00:29.994Z</time></trkpt><trkpt lat="44.3414033" lon="11.435105"><ele>521.8</ele><time>2026-04-04T09:00:30.996Z</time></trkpt><trkpt lat="44.3413367" lon="11.43503"><ele>517.6</ele><time>2026-04-04T09:00:31.995Z</time></trkpt><trkpt lat="44.3412683" lon="11.4349633"><ele>513.4</ele><time>2026-04-04T09:00:32.996Z</time></trkpt><trkpt lat="44.3412033" lon="11.434905"><ele>509.2</ele><time>2026-04-04T09:00:33.995Z</time></trkpt><trkpt lat="44.34105" lon="11.4348067"><ele>505.0</ele><time>2026-04-04T09:00:35.995Z</time></trkpt><trkpt lat="44.34095" lon="11.4347683"><ele>505.0</ele><time>2026-04-04T09:00:36.996Z</time></trkpt><trkpt lat="44.3408133" lon="11.4347667"><ele>505.0</ele><time>2026-04-04T09:00:37.995Z</time></trkpt><trkpt lat="44.3406933" lon="11.434765"><ele>505.0</ele><time>2026-04-04T09:00:38.994Z</time></trkpt><trkpt lat="44.34058" lon="11.4347783"><ele>505.0</ele><time>2026-04-04T09:00:39.996Z</time></trkpt><trkpt lat="44.34048" lon="11.434805"><ele>506.4</ele><time>2026-04-04T09:00:40.995Z</time></trkpt><trkpt lat="44.3403817" lon="11.4348517"><ele>507.8</ele><time>2026-04-04T09:00:41.998Z</time></trkpt><trkpt lat="44.3402883" lon="11.4349217"><ele>509.20000000000005</ele><time>2026-04-04T09:00:42.996Z</time></trkpt><trkpt lat="44.3401967" lon="11.4350067"><ele>510.6</ele><time>2026-04-04T09:00:43.996Z</time></trkpt><trkpt lat="44.3401083" lon="11.4350983"><ele>512.0</ele><time>2026-04-04T09:00:44.996Z</time></trkpt><trkpt lat="44.3400267" lon="11.4351883"><ele>512.0</ele><time>2026-04-04T09:00:45.998Z</time></trkpt><trkpt lat="44.3399517" lon="11.4352683"><ele>512.0</ele><time>2026-04-04T09:00:46.996Z</time></trkpt><trkpt lat="44.3398733" lon="11.4353433"><ele>512.0</ele><time>2026-04-04T09:00:47.996Z</time></trkpt><trkpt lat="44.3397967" lon="11.435425"><ele>512.0</ele><time>2026-04-04T09:00:48.994Z</time></trkpt><trkpt lat="44.33972" lon="11.43551"><ele>512.0</ele><time>2026-04-04T09:00:49.995Z</time></trkpt><trkpt lat="44.3396533" lon="11.43559"><ele>513.2</ele><time>2026-04-04T09:00:50.995Z</time></trkpt><trkpt lat="44.3395933" lon="11.43566"><ele>514.4000000000001</ele><time>2026-04-04T09:00:51.997Z</time></trkpt><trkpt lat="44.339535" lon="11.4357367"><ele>515.5999999999999</ele><time>2026-04-04T09:00:52.997Z</time></trkpt><trkpt lat="44.33947" lon="11.435805"><ele>516.8</ele><time>2026-04-04T09:00:53.996Z</time></trkpt><trkpt lat="44.3394033" lon="11.4358683"><ele>518.0</ele><time>2026-04-04T09:00:54.995Z</time></trkpt><trkpt lat="44.3392817" lon="11.4359383"><ele>518.0</ele><time>2026-04-04T09:00:56.996Z</time></trkpt><trkpt lat="44.33915" lon="11.435955"><ele>518.0</ele><time>2026-04-04T09:00:58.996Z</time></trkpt><trkpt lat="44.3390617" lon="11.4359567"><ele>518.0</ele><time>2026-04-04T09:00:59.997Z</time></trkpt><trkpt lat="44.3389633" lon="11.4359533"><ele>518.0</ele><time>2026-04-04T09:01:00.994Z</time></trkpt><trkpt lat="44.3388633" lon="11.435945"><ele>518.0</ele><time>2026-04-04T09:01:01.994Z</time></trkpt><trkpt lat="44.3387733" lon="11.4359517"><ele>519.1999999999999</ele><time>2026-04-04T09:01:02.997Z</time></trkpt><trkpt lat="44.3386833" lon="11.435965"><ele>520.4</ele><time>2026-04-04T09:01:03.996Z</time></trkpt><trkpt lat="44.3385933" lon="11.4359867"><ele>521.5999999999999</ele><time>2026-04-04T09:01:04.998Z</time></trkpt><trkpt lat="44.3385" lon="11.43602"><ele>522.8</ele><time>2026-04-04T09:01:05.996Z</time></trkpt><trkpt lat="44.3384017" lon="11.43607"><ele>524.0</ele><time>2026-04-04T09:01:06.996Z</time></trkpt><trkpt lat="44.3383067" lon="11.43612"><ele>524.0</ele><time>2026-04-04T09:01:07.997Z</time></trkpt><trkpt lat="44.3382233" lon="11.4361617"><ele>524.0</ele><time>2026-04-04T09:01:08.996Z</time></trkpt><trkpt lat="44.3381483" lon="11.4361967"><ele>524.0</ele><time>2026-04-04T09:01:09.996Z</time></trkpt><trkpt lat="44.3380717" lon="11.436225"><ele>524.0</ele><time>2026-04-04T09:01:10.996Z</time></trkpt><trkpt lat="44.3379917" lon="11.4362517"><ele>524.0</ele><time>2026-04-04T09:01:11.999Z</time></trkpt><trkpt lat="44.3379133" lon="11.4362783"><ele>524.0</ele><time>2026-04-04T09:01:12.995Z</time></trkpt><trkpt lat="44.3378317" lon="11.4363217"><ele>526.0</ele><time>2026-04-04T09:01:13.995Z</time></trkpt><trkpt lat="44.33775" lon="11.4363833"><ele>528.0</ele><time>2026-04-04T09:01:14.997Z</time></trkpt><trkpt lat="44.3376733" lon="11.4364817"><ele>530.0</ele><time>2026-04-04T09:01:15.995Z</time></trkpt><trkpt lat="44.337555" lon="11.4366817"><ele>532.0</ele><time>2026-04-04T09:01:17.993Z</time></trkpt><trkpt lat="44.337515" lon="11.4367633"><ele>532.0</ele><time>2026-04-04T09:01:18.995Z</time></trkpt><trkpt lat="44.3374533" lon="11.43686"><ele>532.0</ele><time>2026-04-04T09:01:20.996Z</time></trkpt><trkpt lat="44.3373867" lon="11.4368867"><ele>532.0</ele><time>2026-04-04T09:01:22.995Z</time></trkpt><trkpt lat="44.33731" lon="11.4369017"><ele>532.0</ele><time>2026-04-04T09:01:35.995Z</time></trkpt><trkpt lat="44.337265" lon="11.4369667"><ele>532.0</ele><time>2026-04-04T09:03:05.995Z</time></trkpt><trkpt lat="44.33729" lon="11.4374617"><ele>531.3333333333334</ele><time>2026-04-04T09:04:55.995Z</time></trkpt><trkpt lat="44.3372933" lon="11.4375533"><ele>530.6666666666667</ele><time>2026-04-04T09:04:56.995Z</time></trkpt><trkpt lat="44.33728" lon="11.4376683"><ele>530.0</ele><time>2026-04-04T09:04:57.995Z</time></trkpt><trkpt lat="44.33728" lon="11.4377867"><ele>529.3333333333334</ele><time>2026-04-04T09:04:58.999Z</time></trkpt><trkpt lat="44.3372817" lon="11.4378883"><ele>528.6666666666666</ele><time>2026-04-04T09:04:59.995Z</time></trkpt><trkpt lat="44.3372917" lon="11.43799"><ele>528.0</ele><time>2026-04-04T09:05:00.996Z</time></trkpt><trkpt lat="44.33733" lon="11.43811"><ele>529.3333333333334</ele><time>2026-04-04T09:05:01.996Z</time></trkpt><trkpt lat="44.33736" lon="11.4382333"><ele>530.6666666666666</ele><time>2026-04-04T09:05:02.995Z</time></trkpt><trkpt lat="44.3374" lon="11.438365"><ele>532.0</ele><time>2026-04-04T09:05:03.996Z</time></trkpt><trkpt lat="44.3374283" lon="11.4384833"><ele>533.3333333333333</ele><time>2026-04-04T09:05:04.993Z</time></trkpt><trkpt lat="44.3374533" lon="11.4385867"><ele>534.6666666666666</ele><time>2026-04-04T09:05:05.995Z</time></trkpt><trkpt lat="44.3374883" lon="11.43868"><ele>536.0</ele><time>2026-04-04T09:05:06.994Z</time></trkpt><trkpt lat="44.3375183" lon="11.4387683"><ele>539.2</ele><time>2026-04-04T09:05:07.995Z</time></trkpt><trkpt lat="44.3375567" lon="11.4388633"><ele>542.4000000000001</ele><time>2026-04-04T09:05:08.994Z</time></trkpt><trkpt lat="44.3376183" lon="11.4389517"><ele>545.6</ele><time>2026-04-04T09:05:09.994Z</time></trkpt><trkpt lat="44.3376667" lon="11.4390417"><ele>548.8000000000001</ele><time>2026-04-04T09:05:10.997Z</time></trkpt><trkpt lat="44.337735" lon="11.439135"><ele>552.0</ele><time>2026-04-04T09:05:11.994Z</time></trkpt><trkpt lat="44.337835" lon="11.43932"><ele>552.0</ele><time>2026-04-04T09:05:13.995Z</time></trkpt><trkpt lat="44.3378667" lon="11.4394183"><ele>552.0</ele><time>2026-04-04T09:05:14.994Z</time></trkpt><trkpt lat="44.337895" lon="11.4395233"><ele>552.0</ele><time>2026-04-04T09:05:15.994Z</time></trkpt><trkpt lat="44.337915" lon="11.4396283"><ele>552.0</ele><time>2026-04-04T09:05:16.994Z</time></trkpt><trkpt lat="44.3379467" lon="11.4397267"><ele>552.0</ele><time>2026-04-04T09:05:17.995Z</time></trkpt><trkpt lat="44.3379767" lon="11.4398267"><ele>552.0</ele><time>2026-04-04T09:05:18.994Z</time></trkpt><trkpt lat="44.3380317" lon="11.4399433"><ele>548.4</ele><time>2026-04-04T09:05:19.995Z</time></trkpt><trkpt lat="44.33809" lon="11.440065"><ele>544.8000000000001</ele><time>2026-04-04T09:05:20.994Z</time></trkpt><trkpt lat="44.338145" lon="11.4401683"><ele>541.2</ele><time>2026-04-04T09:05:21.998Z</time></trkpt><trkpt lat="44.33821" lon="11.4402983"><ele>537.6</ele><time>2026-04-04T09:05:22.993Z</time></trkpt><trkpt lat="44.338275" lon="11.44043"><ele>534.0</ele><time>2026-04-04T09:05:23.995Z</time></trkpt><trkpt lat="44.3383267" lon="11.4405417"><ele>534.0</ele><time>2026-04-04T09:05:24.995Z</time></trkpt><trkpt lat="44.3383717" lon="11.440645"><ele>534.0</ele><time>2026-04-04T09:05:25.996Z</time></trkpt><trkpt lat="44.3384267" lon="11.4407467"><ele>534.0</ele><time>2026-04-04T09:05:26.996Z</time></trkpt><trkpt lat="44.338475" lon="11.4408333"><ele>534.0</ele><time>2026-04-04T09:05:27.996Z</time></trkpt><trkpt lat="44.33853" lon="11.4409167"><ele>534.0</ele><time>2026-04-04T09:05:28.995Z</time></trkpt><trkpt lat="44.3385717" lon="11.4409933"><ele>534.0</ele><time>2026-04-04T09:05:29.995Z</time></trkpt><trkpt lat="44.338625" lon="11.4410683"><ele>534.0</ele><time>2026-04-04T09:05:30.996Z</time></trkpt><trkpt lat="44.3386767" lon="11.44113"><ele>534.0</ele><time>2026-04-04T09:05:31.996Z</time></trkpt><trkpt lat="44.3387317" lon="11.44119"><ele>534.0</ele><time>2026-04-04T09:05:32.996Z</time></trkpt><trkpt lat="44.3388567" lon="11.4413683"><ele>534.0</ele><time>2026-04-04T09:05:35.995Z</time></trkpt><trkpt lat="44.3389183" lon="11.4415217"><ele>534.0</ele><time>2026-04-04T09:05:37.995Z</time></trkpt><trkpt lat="44.33896" lon="11.4416133"><ele>533.0</ele><time>2026-04-04T09:05:38.995Z</time></trkpt><trkpt lat="44.3390133" lon="11.4416917"><ele>532.0</ele><time>2026-04-04T09:05:39.993Z</time></trkpt><trkpt lat="44.3390717" lon="11.44177"><ele>531.0</ele><time>2026-04-04T09:05:40.994Z</time></trkpt><trkpt lat="44.33914" lon="11.44184"><ele>530.0</ele><time>2026-04-04T09:05:41.994Z</time></trkpt><trkpt lat="44.3392117" lon="11.4418917"><ele>529.0</ele><time>2026-04-04T09:05:42.995Z</time></trkpt><trkpt lat="44.3392817" lon="11.4419383"><ele>528.0</ele><time>2026-04-04T09:05:43.995Z</time></trkpt><trkpt lat="44.3393617" lon="11.4419783"><ele>528.0</ele><time>2026-04-04T09:05:44.994Z</time></trkpt><trkpt lat="44.339435" lon="11.4420117"><ele>528.0</ele><time>2026-04-04T09:05:45.994Z</time></trkpt><trkpt lat="44.339505" lon="11.4420517"><ele>528.0</ele><time>2026-04-04T09:05:46.993Z</time></trkpt><trkpt lat="44.33957" lon="11.4420767"><ele>528.0</ele><time>2026-04-04T09:05:47.995Z</time></trkpt><trkpt lat="44.33964" lon="11.4421083"><ele>528.0</ele><time>2026-04-04T09:05:48.995Z</time></trkpt><trkpt lat="44.339705" lon="11.4421267"><ele>528.0</ele><time>2026-04-04T09:05:49.993Z</time></trkpt><trkpt lat="44.3398283" lon="11.4421483"><ele>530.5</ele><time>2026-04-04T09:05:51.995Z</time></trkpt><trkpt lat="44.33993" lon="11.4421567"><ele>533.0</ele><time>2026-04-04T09:05:53.994Z</time></trkpt><trkpt lat="44.3401417" lon="11.44221"><ele>535.5</ele><time>2026-04-04T09:05:57.996Z</time></trkpt><trkpt lat="44.3401967" lon="11.4422717"><ele>538.0</ele><time>2026-04-04T09:05:58.998Z</time></trkpt><trkpt lat="44.3402533" lon="11.4423433"><ele>538.0</ele><time>2026-04-04T09:05:59.995Z</time></trkpt><trkpt lat="44.3402983" lon="11.44241"><ele>538.0</ele><time>2026-04-04T09:06:00.995Z</time></trkpt><trkpt lat="44.340365" lon="11.4424767"><ele>538.0</ele><time>2026-04-04T09:06:01.995Z</time></trkpt><trkpt lat="44.3404067" lon="11.4425483"><ele>538.0</ele><time>2026-04-04T09:06:02.994Z</time></trkpt><trkpt lat="44.3404483" lon="11.4426183"><ele>538.0</ele><time>2026-04-04T09:06:03.994Z</time></trkpt><trkpt lat="44.3404983" lon="11.4426883"><ele>538.0</ele><time>2026-04-04T09:06:04.996Z</time></trkpt><trkpt lat="44.3405933" lon="11.44278"><ele>534.5</ele><time>2026-04-04T09:06:06.995Z</time></trkpt><trkpt lat="44.3406583" lon="11.4428133"><ele>531.0</ele><time>2026-04-04T09:06:07.995Z</time></trkpt><trkpt lat="44.34073" lon="11.4428683"><ele>527.5</ele><time>2026-04-04T09:06:08.997Z</time></trkpt><trkpt lat="44.3408133" lon="11.442905"><ele>524.0</ele><time>2026-04-04T09:06:10Z</time></trkpt><trkpt lat="44.3408817" lon="11.4429033"><ele>520.5</ele><time>2026-04-04T09:06:10.995Z</time></trkpt><trkpt lat="44.3409767" lon="11.4429"><ele>517.0</ele><time>2026-04-04T09:06:11.996Z</time></trkpt><trkpt lat="44.34106" lon="11.4428833"><ele>517.0</ele><time>2026-04-04T09:06:12.995Z</time></trkpt><trkpt lat="44.3411333" lon="11.4428717"><ele>517.0</ele><time>2026-04-04T09:06:13.996Z</time></trkpt><trkpt lat="44.3412517" lon="11.4428817"><ele>517.0</ele><time>2026-04-04T09:06:15.994Z</time></trkpt><trkpt lat="44.3414483" lon="11.4429967"><ele>517.0</ele><time>2026-04-04T09:06:19.996Z</time></trkpt><trkpt lat="44.34152" lon="11.4430983"><ele>519.0</ele><time>2026-04-04T09:06:21.995Z</time></trkpt><trkpt lat="44.341575" lon="11.44324"><ele>521.0</ele><time>2026-04-04T09:06:23.995Z</time></trkpt><trkpt lat="44.34166" lon="11.4433567"><ele>523.0</ele><time>2026-04-04T09:06:25.995Z</time></trkpt><trkpt lat="44.3417317" lon="11.44346"><ele>525.0</ele><time>2026-04-04T09:06:27.995Z</time></trkpt><trkpt lat="44.341795" lon="11.4435883"><ele>527.0</ele><time>2026-04-04T09:06:29.995Z</time></trkpt><trkpt lat="44.3418233" lon="11.44367"><ele>527.0</ele><time>2026-04-04T09:06:30.994Z</time></trkpt><trkpt lat="44.34185" lon="11.4437517"><ele>527.0</ele><time>2026-04-04T09:06:31.994Z</time></trkpt><trkpt lat="44.34191" lon="11.44389"><ele>527.0</ele><time>2026-04-04T09:06:33.995Z</time></trkpt><trkpt lat="44.3419567" lon="11.4439583"><ele>527.0</ele><time>2026-04-04T09:06:34.996Z</time></trkpt><trkpt lat="44.34203" lon="11.4440467"><ele>527.0</ele><time>2026-04-04T09:06:35.993Z</time></trkpt><trkpt lat="44.34212" lon="11.4441033"><ele>527.0</ele><time>2026-04-04T09:06:36.994Z</time></trkpt><trkpt lat="44.3422983" lon="11.4442133"><ele>527.1666666666666</ele><time>2026-04-04T09:06:38.994Z</time></trkpt><trkpt lat="44.3423733" lon="11.444265"><ele>527.3333333333333</ele><time>2026-04-04T09:06:39.994Z</time></trkpt><trkpt lat="44.342435" lon="11.4443067"><ele>527.5</ele><time>2026-04-04T09:06:40.995Z</time></trkpt><trkpt lat="44.3424867" lon="11.4443633"><ele>527.6666666666666</ele><time>2026-04-04T09:06:41.995Z</time></trkpt><trkpt lat="44.34258" lon="11.444475"><ele>527.8333333333334</ele><time>2026-04-04T09:06:43.994Z</time></trkpt><trkpt lat="44.3426317" lon="11.444545"><ele>528.0</ele><time>2026-04-04T09:06:44.994Z</time></trkpt><trkpt lat="44.3426833" lon="11.4446017"><ele>527.1999999999999</ele><time>2026-04-04T09:06:45.994Z</time></trkpt><trkpt lat="44.3427433" lon="11.4446383"><ele>526.4</ele><time>2026-04-04T09:06:46.995Z</time></trkpt><trkpt lat="44.3428517" lon="11.4446767"><ele>525.5999999999999</ele><time>2026-04-04T09:06:48.995Z</time></trkpt><trkpt lat="44.3429567" lon="11.4446783"><ele>524.8</ele><time>2026-04-04T09:06:50.994Z</time></trkpt><trkpt lat="44.34308" lon="11.4447133"><ele>524.0</ele><time>2026-04-04T09:06:52.996Z</time></trkpt><trkpt lat="44.343145" lon="11.4447583"><ele>524.0</ele><time>2026-04-04T09:06:53.996Z</time></trkpt><trkpt lat="44.3432067" lon="11.4448183"><ele>524.0</ele><time>2026-04-04T09:06:54.995Z</time></trkpt><trkpt lat="44.343265" lon="11.444895"><ele>524.0</ele><time>2026-04-04T09:06:55.995Z</time></trkpt><trkpt lat="44.3433133" lon="11.4449533"><ele>524.0</ele><time>2026-04-04T09:06:56.994Z</time></trkpt><trkpt lat="44.3433717" lon="11.4450767"><ele>524.0</ele><time>2026-04-04T09:06:58.997Z</time></trkpt><trkpt lat="44.3433633" lon="11.4452967"><ele>524.0</ele><time>2026-04-04T09:07:01.994Z</time></trkpt><trkpt lat="44.3433667" lon="11.44539"><ele>524.0</ele><time>2026-04-04T09:07:02.994Z</time></trkpt><trkpt lat="44.343355" lon="11.4454917"><ele>524.0</ele><time>2026-04-04T09:07:03.999Z</time></trkpt><trkpt lat="44.3433467" lon="11.445595"><ele>524.0</ele><time>2026-04-04T09:07:04.997Z</time></trkpt><trkpt lat="44.34334" lon="11.44569"><ele>524.0</ele><time>2026-04-04T09:07:05.994Z</time></trkpt><trkpt lat="44.343335" lon="11.4457917"><ele>524.0</ele><time>2026-04-04T09:07:06.994Z</time></trkpt><trkpt lat="44.343335" lon="11.4459"><ele>524.0</ele><time>2026-04-04T09:07:07.995Z</time></trkpt><trkpt lat="44.3433517" lon="11.4459933"><ele>523.0</ele><time>2026-04-04T09:07:08.995Z</time></trkpt><trkpt lat="44.34336" lon="11.4460817"><ele>522.0</ele><time>2026-04-04T09:07:09.996Z</time></trkpt><trkpt lat="44.343365" lon="11.4461817"><ele>521.0</ele><time>2026-04-04T09:07:10.995Z</time></trkpt><trkpt lat="44.3434383" lon="11.44629"><ele>520.0</ele><time>2026-04-04T09:07:12.995Z</time></trkpt><trkpt lat="44.3435633" lon="11.4463417"><ele>519.0</ele><time>2026-04-04T09:07:14.996Z</time></trkpt><trkpt lat="44.3436567" lon="11.4463767"><ele>517.2</ele><time>2026-04-04T09:07:15.995Z</time></trkpt><trkpt lat="44.34373" lon="11.44639"><ele>515.4</ele><time>2026-04-04T09:07:16.996Z</time></trkpt><trkpt lat="44.3438067" lon="11.4464183"><ele>513.6</ele><time>2026-04-04T09:07:17.996Z</time></trkpt><trkpt lat="44.343885" lon="11.4464483"><ele>511.8</ele><time>2026-04-04T09:07:18.996Z</time></trkpt><trkpt lat="44.343965" lon="11.446495"><ele>510.0</ele><time>2026-04-04T09:07:19.995Z</time></trkpt><trkpt lat="44.3440983" lon="11.4466067"><ele>510.0</ele><time>2026-04-04T09:07:21.995Z</time></trkpt><trkpt lat="44.3441583" lon="11.4466833"><ele>510.0</ele><time>2026-04-04T09:07:22.996Z</time></trkpt><trkpt lat="44.3442083" lon="11.4467483"><ele>510.0</ele><time>2026-04-04T09:07:23.995Z</time></trkpt><trkpt lat="44.3442583" lon="11.4468283"><ele>510.0</ele><time>2026-04-04T09:07:24.995Z</time></trkpt><trkpt lat="44.3443033" lon="11.446915"><ele>510.0</ele><time>2026-04-04T09:07:25.995Z</time></trkpt><trkpt lat="44.344345" lon="11.4470233"><ele>510.0</ele><time>2026-04-04T09:07:26.995Z</time></trkpt><trkpt lat="44.3443683" lon="11.44712"><ele>509.8333333333333</ele><time>2026-04-04T09:07:27.996Z</time></trkpt><trkpt lat="44.3443883" lon="11.4472333"><ele>509.66666666666663</ele><time>2026-04-04T09:07:28.996Z</time></trkpt><trkpt lat="44.3444067" lon="11.4473367"><ele>509.5</ele><time>2026-04-04T09:07:29.995Z</time></trkpt><trkpt lat="44.344425" lon="11.4474483"><ele>509.3333333333333</ele><time>2026-04-04T09:07:30.995Z</time></trkpt><trkpt lat="44.34444" lon="11.4475817"><ele>509.16666666666663</ele><time>2026-04-04T09:07:31.995Z</time></trkpt><trkpt lat="44.3444517" lon="11.4477133"><ele>509.0</ele><time>2026-04-04T09:07:32.998Z</time></trkpt><trkpt lat="44.3444717" lon="11.447835"><ele>508.99999999999994</ele><time>2026-04-04T09:07:33.996Z</time></trkpt><trkpt lat="44.3444917" lon="11.447945"><ele>509.0</ele><time>2026-04-04T09:07:34.995Z</time></trkpt><trkpt lat="44.344505" lon="11.4480417"><ele>509.0</ele><time>2026-04-04T09:07:35.994Z</time></trkpt><trkpt lat="44.34452" lon="11.4481483"><ele>509.0</ele><time>2026-04-04T09:07:36.995Z</time></trkpt><trkpt lat="44.34452" lon="11.4482717"><ele>508.99999999999994</ele><time>2026-04-04T09:07:37.996Z</time></trkpt><trkpt lat="44.3445167" lon="11.448395"><ele>509.0</ele><time>2026-04-04T09:07:38.995Z</time></trkpt><trkpt lat="44.3445167" lon="11.4484967"><ele>509.0</ele><time>2026-04-04T09:07:39.995Z</time></trkpt><trkpt lat="44.3445133" lon="11.4485917"><ele>509.0</ele><time>2026-04-04T09:07:40.996Z</time></trkpt><trkpt lat="44.3444967" lon="11.4487983"><ele>509.0</ele><time>2026-04-04T09:07:42.995Z</time></trkpt><trkpt lat="44.3444883" lon="11.4488867"><ele>509.0</ele><time>2026-04-04T09:07:43.996Z</time></trkpt><trkpt lat="44.3445033" lon="11.4490617"><ele>509.0</ele><time>2026-04-04T09:07:45.996Z</time></trkpt><trkpt lat="44.3445133" lon="11.4491517"><ele>508.3333333333333</ele><time>2026-04-04T09:07:46.995Z</time></trkpt><trkpt lat="44.344525" lon="11.4492417"><ele>507.66666666666663</ele><time>2026-04-04T09:07:47.993Z</time></trkpt><trkpt lat="44.3445267" lon="11.4493417"><ele>507.0</ele><time>2026-04-04T09:07:48.994Z</time></trkpt><trkpt lat="44.344525" lon="11.4494667"><ele>506.33333333333337</ele><time>2026-04-04T09:07:49.995Z</time></trkpt><trkpt lat="44.3445283" lon="11.44959"><ele>505.6666666666667</ele><time>2026-04-04T09:07:50.997Z</time></trkpt><trkpt lat="44.3445417" lon="11.4497033"><ele>505.0</ele><time>2026-04-04T09:07:51.995Z</time></trkpt><trkpt lat="44.3445583" lon="11.44982"><ele>505.1428571428571</ele><time>2026-04-04T09:07:52.995Z</time></trkpt><trkpt lat="44.344565" lon="11.44994"><ele>505.2857142857142</ele><time>2026-04-04T09:07:53.993Z</time></trkpt><trkpt lat="44.3445883" lon="11.4500383"><ele>505.42857142857144</ele><time>2026-04-04T09:07:54.994Z</time></trkpt><trkpt lat="44.3446117" lon="11.4501417"><ele>505.57142857142856</ele><time>2026-04-04T09:07:55.998Z</time></trkpt><trkpt lat="44.3446367" lon="11.4502417"><ele>505.7142857142857</ele><time>2026-04-04T09:07:56.998Z</time></trkpt><trkpt lat="44.344675" lon="11.4503167"><ele>505.8571428571429</ele><time>2026-04-04T09:07:57.993Z</time></trkpt><trkpt lat="44.3447283" lon="11.4503733"><ele>506.00000000000006</ele><time>2026-04-04T09:07:58.995Z</time></trkpt><trkpt lat="44.3448417" lon="11.450465"><ele>506.0</ele><time>2026-04-04T09:08:00.994Z</time></trkpt><trkpt lat="44.3449317" lon="11.4504483"><ele>506.0</ele><time>2026-04-04T09:08:01.995Z</time></trkpt><trkpt lat="44.3450683" lon="11.4503917"><ele>506.0</ele><time>2026-04-04T09:08:03.997Z</time></trkpt><trkpt lat="44.3451817" lon="11.4502833"><ele>506.0</ele><time>2026-04-04T09:08:05.995Z</time></trkpt><trkpt lat="44.3452683" lon="11.450155"><ele>506.0</ele><time>2026-04-04T09:08:07.997Z</time></trkpt><trkpt lat="44.3453483" lon="11.4500617"><ele>506.0</ele><time>2026-04-04T09:08:09.998Z</time></trkpt><trkpt lat="44.3454333" lon="11.4500433"><ele>506.0</ele><time>2026-04-04T09:08:12.994Z</time></trkpt><trkpt lat="44.34541" lon="11.4501483"><ele>506.0</ele><time>2026-04-04T09:09:13.995Z</time></trkpt><trkpt lat="44.345285" lon="11.4504083"><ele>504.57142857142867</ele><time>2026-04-04T09:09:17.996Z</time></trkpt><trkpt lat="44.3452517" lon="11.45049"><ele>503.14285714285717</ele><time>2026-04-04T09:09:18.995Z</time></trkpt><trkpt lat="44.3452183" lon="11.4505683"><ele>501.7142857142858</ele><time>2026-04-04T09:09:19.996Z</time></trkpt><trkpt lat="44.34518" lon="11.45064"><ele>500.28571428571433</ele><time>2026-04-04T09:09:20.997Z</time></trkpt><trkpt lat="44.3451433" lon="11.4507233"><ele>498.8571428571429</ele><time>2026-04-04T09:09:21.999Z</time></trkpt><trkpt lat="44.34511" lon="11.4508117"><ele>497.42857142857144</ele><time>2026-04-04T09:09:22.995Z</time></trkpt><trkpt lat="44.345095" lon="11.45096"><ele>496.0</ele><time>2026-04-04T09:09:24.996Z</time></trkpt><trkpt lat="44.3451033" lon="11.4511283"><ele>493.6666666666667</ele><time>2026-04-04T09:09:26.996Z</time></trkpt><trkpt lat="44.3450817" lon="11.451305"><ele>491.33333333333337</ele><time>2026-04-04T09:09:28.996Z</time></trkpt><trkpt lat="44.3450467" lon="11.4513867"><ele>489.0</ele><time>2026-04-04T09:09:29.995Z</time></trkpt><trkpt lat="44.3450033" lon="11.451465"><ele>486.66666666666663</ele><time>2026-04-04T09:09:30.995Z</time></trkpt><trkpt lat="44.3449533" lon="11.45154"><ele>484.3333333333333</ele><time>2026-04-04T09:09:31.996Z</time></trkpt><trkpt lat="44.344905" lon="11.45161"><ele>482.0</ele><time>2026-04-04T09:09:32.995Z</time></trkpt><trkpt lat="44.3448517" lon="11.4516767"><ele>482.0</ele><time>2026-04-04T09:09:33.997Z</time></trkpt><trkpt lat="44.344795" lon="11.4517267"><ele>482.00000000000006</ele><time>2026-04-04T09:09:34.995Z</time></trkpt><trkpt lat="44.34465" lon="11.4517833"><ele>482.00000000000006</ele><time>2026-04-04T09:09:36.995Z</time></trkpt><trkpt lat="44.3445667" lon="11.4517917"><ele>482.0</ele><time>2026-04-04T09:09:37.995Z</time></trkpt><trkpt lat="44.3444783" lon="11.45179"><ele>482.0</ele><time>2026-04-04T09:09:38.997Z</time></trkpt><trkpt lat="44.3444017" lon="11.451775"><ele>480.8</ele><time>2026-04-04T09:09:39.998Z</time></trkpt><trkpt lat="44.3443333" lon="11.4517417"><ele>479.6</ele><time>2026-04-04T09:09:40.997Z</time></trkpt><trkpt lat="44.344225" lon="11.4516433"><ele>478.40000000000003</ele><time>2026-04-04T09:09:42.995Z</time></trkpt><trkpt lat="44.3441767" lon="11.45158"><ele>477.20000000000005</ele><time>2026-04-04T09:09:43.994Z</time></trkpt><trkpt lat="44.3440867" lon="11.4514883"><ele>476.0</ele><time>2026-04-04T09:09:45.996Z</time></trkpt><trkpt lat="44.3439983" lon="11.4515583"><ele>475.99999999999994</ele><time>2026-04-04T09:09:47.997Z</time></trkpt><trkpt lat="44.3439717" lon="11.4516433"><ele>476.0</ele><time>2026-04-04T09:09:48.997Z</time></trkpt><trkpt lat="44.34398" lon="11.4517517"><ele>476.0</ele><time>2026-04-04T09:09:49.995Z</time></trkpt><trkpt lat="44.3440117" lon="11.4518517"><ele>476.0</ele><time>2026-04-04T09:09:50.997Z</time></trkpt><trkpt lat="44.3440717" lon="11.4519683"><ele>475.99999999999994</ele><time>2026-04-04T09:09:51.993Z</time></trkpt><trkpt lat="44.3441467" lon="11.4520867"><ele>476.0</ele><time>2026-04-04T09:09:52.996Z</time></trkpt><trkpt lat="44.3442367" lon="11.45217"><ele>473.25</ele><time>2026-04-04T09:09:53.995Z</time></trkpt><trkpt lat="44.3443217" lon="11.452245"><ele>470.5</ele><time>2026-04-04T09:09:54.994Z</time></trkpt><trkpt lat="44.3444" lon="11.4523267"><ele>467.75</ele><time>2026-04-04T09:09:55.997Z</time></trkpt><trkpt lat="44.3445383" lon="11.4525467"><ele>465.0</ele><time>2026-04-04T09:09:57.995Z</time></trkpt><trkpt lat="44.34461" lon="11.4526783"><ele>465.0</ele><time>2026-04-04T09:09:58.994Z</time></trkpt><trkpt lat="44.3446767" lon="11.4528467"><ele>465.0</ele><time>2026-04-04T09:09:59.994Z</time></trkpt><trkpt lat="44.344745" lon="11.45303"><ele>465.0</ele><time>2026-04-04T09:10:00.994Z</time></trkpt><trkpt lat="44.344815" lon="11.4532"><ele>465.0</ele><time>2026-04-04T09:10:01.994Z</time></trkpt><trkpt lat="44.3448833" lon="11.4533733"><ele>463.25</ele><time>2026-04-04T09:10:02.995Z</time></trkpt><trkpt lat="44.3449417" lon="11.4535467"><ele>461.5</ele><time>2026-04-04T09:10:03.995Z</time></trkpt><trkpt lat="44.34499" lon="11.4537133"><ele>459.75</ele><time>2026-04-04T09:10:04.993Z</time></trkpt><trkpt lat="44.3450317" lon="11.4538717"><ele>458.0</ele><time>2026-04-04T09:10:05.994Z</time></trkpt><trkpt lat="44.3450617" lon="11.4540183"><ele>457.79999999999995</ele><time>2026-04-04T09:10:06.994Z</time></trkpt><trkpt lat="44.3450967" lon="11.4541633"><ele>457.59999999999997</ele><time>2026-04-04T09:10:07.993Z</time></trkpt><trkpt lat="44.3451317" lon="11.4542967"><ele>457.40000000000003</ele><time>2026-04-04T09:10:08.993Z</time></trkpt><trkpt lat="44.3451783" lon="11.4544117"><ele>457.20000000000005</ele><time>2026-04-04T09:10:09.996Z</time></trkpt><trkpt lat="44.3452267" lon="11.4545367"><ele>457.0</ele><time>2026-04-04T09:10:10.993Z</time></trkpt><trkpt lat="44.3453183" lon="11.4546133"><ele>457.83333333333337</ele><time>2026-04-04T09:10:11.997Z</time></trkpt><trkpt lat="44.345385" lon="11.45471"><ele>458.6666666666667</ele><time>2026-04-04T09:10:12.994Z</time></trkpt><trkpt lat="44.3454533" lon="11.4547867"><ele>459.5</ele><time>2026-04-04T09:10:13.995Z</time></trkpt><trkpt lat="44.3455183" lon="11.4548533"><ele>460.33333333333337</ele><time>2026-04-04T09:10:14.994Z</time></trkpt><trkpt lat="44.34559" lon="11.4549183"><ele>461.1666666666667</ele><time>2026-04-04T09:10:15.994Z</time></trkpt><trkpt lat="44.345655" lon="11.4549783"><ele>462.0</ele><time>2026-04-04T09:10:16.995Z</time></trkpt><trkpt lat="44.3457683" lon="11.4551"><ele>459.8333333333333</ele><time>2026-04-04T09:10:18.994Z</time></trkpt><trkpt lat="44.34581" lon="11.4551767"><ele>457.66666666666663</ele><time>2026-04-04T09:10:19.994Z</time></trkpt><trkpt lat="44.3458317" lon="11.4552617"><ele>455.5</ele><time>2026-04-04T09:10:20.997Z</time></trkpt><trkpt lat="44.3458367" lon="11.4553617"><ele>453.3333333333333</ele><time>2026-04-04T09:10:21.994Z</time></trkpt><trkpt lat="44.3458317" lon="11.4554683"><ele>451.16666666666663</ele><time>2026-04-04T09:10:22.994Z</time></trkpt><trkpt lat="44.3457983" lon="11.4555883"><ele>449.0</ele><time>2026-04-04T09:10:23.995Z</time></trkpt><trkpt lat="44.3457383" lon="11.4557033"><ele>447.79999999999995</ele><time>2026-04-04T09:10:24.996Z</time></trkpt><trkpt lat="44.3456617" lon="11.4558167"><ele>446.59999999999997</ele><time>2026-04-04T09:10:25.994Z</time></trkpt><trkpt lat="44.3455817" lon="11.4559117"><ele>445.4</ele><time>2026-04-04T09:10:26.994Z</time></trkpt><trkpt lat="44.3455183" lon="11.4560083"><ele>444.2</ele><time>2026-04-04T09:10:27.995Z</time></trkpt><trkpt lat="44.34545" lon="11.456115"><ele>443.0</ele><time>2026-04-04T09:10:28.996Z</time></trkpt><trkpt lat="44.345405" lon="11.45625"><ele>443.2</ele><time>2026-04-04T09:10:29.996Z</time></trkpt><trkpt lat="44.345385" lon="11.456415"><ele>443.4</ele><time>2026-04-04T09:10:30.995Z</time></trkpt><trkpt lat="44.34536" lon="11.4565817"><ele>443.59999999999997</ele><time>2026-04-04T09:10:31.997Z</time></trkpt><trkpt lat="44.3453433" lon="11.4567383"><ele>443.79999999999995</ele><time>2026-04-04T09:10:32.995Z</time></trkpt><trkpt lat="44.34533" lon="11.4568667"><ele>444.0</ele><time>2026-04-04T09:10:33.995Z</time></trkpt><trkpt lat="44.3453167" lon="11.4569817"><ele>444.0</ele><time>2026-04-04T09:10:34.996Z</time></trkpt><trkpt lat="44.34531" lon="11.457095"><ele>444.0</ele><time>2026-04-04T09:10:35.994Z</time></trkpt><trkpt lat="44.3453233" lon="11.457205"><ele>444.0</ele><time>2026-04-04T09:10:36.998Z</time></trkpt><trkpt lat="44.3453667" lon="11.4573133"><ele>444.0</ele><time>2026-04-04T09:10:37.996Z</time></trkpt><trkpt lat="44.3454867" lon="11.457505"><ele>444.0</ele><time>2026-04-04T09:10:39.994Z</time></trkpt><trkpt lat="44.3455467" lon="11.457585"><ele>441.2</ele><time>2026-04-04T09:10:40.995Z</time></trkpt><trkpt lat="44.3455917" lon="11.4576767"><ele>438.4</ele><time>2026-04-04T09:10:41.995Z</time></trkpt><trkpt lat="44.34563" lon="11.4577917"><ele>435.6</ele><time>2026-04-04T09:10:42.996Z</time></trkpt><trkpt lat="44.3456533" lon="11.4579267"><ele>432.8</ele><time>2026-04-04T09:10:43.994Z</time></trkpt><trkpt lat="44.34567" lon="11.458075"><ele>430.0</ele><time>2026-04-04T09:10:44.994Z</time></trkpt><trkpt lat="44.3456833" lon="11.4582233"><ele>430.0</ele><time>2026-04-04T09:10:45.993Z</time></trkpt><trkpt lat="44.345705" lon="11.4583467"><ele>430.0</ele><time>2026-04-04T09:10:46.994Z</time></trkpt><trkpt lat="44.3457333" lon="11.4584683"><ele>430.0</ele><time>2026-04-04T09:10:47.995Z</time></trkpt><trkpt lat="44.3457833" lon="11.4585867"><ele>430.0</ele><time>2026-04-04T09:10:48.994Z</time></trkpt><trkpt lat="44.3458517" lon="11.45872"><ele>430.0</ele><time>2026-04-04T09:10:49.998Z</time></trkpt><trkpt lat="44.3459567" lon="11.4588417"><ele>429.0</ele><time>2026-04-04T09:10:50.996Z</time></trkpt><trkpt lat="44.346075" lon="11.4589767"><ele>428.0</ele><time>2026-04-04T09:10:51.994Z</time></trkpt><trkpt lat="44.34621" lon="11.4591283"><ele>427.0</ele><time>2026-04-04T09:10:52.994Z</time></trkpt><trkpt lat="44.34635" lon="11.459265"><ele>425.33333333333337</ele><time>2026-04-04T09:10:53.995Z</time></trkpt><trkpt lat="44.3464883" lon="11.4594"><ele>423.66666666666663</ele><time>2026-04-04T09:10:54.998Z</time></trkpt><trkpt lat="44.3466267" lon="11.4595317"><ele>422.0</ele><time>2026-04-04T09:10:55.995Z</time></trkpt><trkpt lat="44.3467567" lon="11.459665"><ele>420.66666666666663</ele><time>2026-04-04T09:10:56.993Z</time></trkpt><trkpt lat="44.346875" lon="11.4598267"><ele>419.33333333333337</ele><time>2026-04-04T09:10:57.994Z</time></trkpt><trkpt lat="44.3469883" lon="11.459985"><ele>418.0</ele><time>2026-04-04T09:10:58.996Z</time></trkpt><trkpt lat="44.347215" lon="11.46029"><ele>418.0</ele><time>2026-04-04T09:11:00.994Z</time></trkpt><trkpt lat="44.34733" lon="11.46043"><ele>418.0</ele><time>2026-04-04T09:11:01.994Z</time></trkpt><trkpt lat="44.3474467" lon="11.46057"><ele>418.0</ele><time>2026-04-04T09:11:02.994Z</time></trkpt><trkpt lat="44.3475717" lon="11.460705"><ele>419.5</ele><time>2026-04-04T09:11:03.995Z</time></trkpt><trkpt lat="44.3476933" lon="11.46083"><ele>421.0</ele><time>2026-04-04T09:11:04.998Z</time></trkpt><trkpt lat="44.347805" lon="11.4609367"><ele>422.5</ele><time>2026-04-04T09:11:05.994Z</time></trkpt><trkpt lat="44.3479117" lon="11.461035"><ele>424.0</ele><time>2026-04-04T09:11:06.994Z</time></trkpt><trkpt lat="44.348015" lon="11.4611383"><ele>425.5</ele><time>2026-04-04T09:11:07.994Z</time></trkpt><trkpt lat="44.34811" lon="11.461235"><ele>427.0</ele><time>2026-04-04T09:11:08.996Z</time></trkpt><trkpt lat="44.3481883" lon="11.46135"><ele>428.5</ele><time>2026-04-04T09:11:09.995Z</time></trkpt><trkpt lat="44.3482483" lon="11.4614683"><ele>430.0</ele><time>2026-04-04T09:11:10.994Z</time></trkpt><trkpt lat="44.3482983" lon="11.46162"><ele>430.75</ele><time>2026-04-04T09:11:11.994Z</time></trkpt><trkpt lat="44.34834" lon="11.4617767"><ele>431.5</ele><time>2026-04-04T09:11:12.997Z</time></trkpt><trkpt lat="44.348375" lon="11.4619683"><ele>432.25</ele><time>2026-04-04T09:11:13.994Z</time></trkpt><trkpt lat="44.34841" lon="11.462165"><ele>433.0</ele><time>2026-04-04T09:11:14.996Z</time></trkpt><trkpt lat="44.3484383" lon="11.4623617"><ele>433.0</ele><time>2026-04-04T09:11:15.995Z</time></trkpt><trkpt lat="44.3484667" lon="11.46254"><ele>433.0</ele><time>2026-04-04T09:11:16.994Z</time></trkpt><trkpt lat="44.34849" lon="11.4627133"><ele>433.0</ele><time>2026-04-04T09:11:17.994Z</time></trkpt><trkpt lat="44.3485117" lon="11.4628767"><ele>433.0</ele><time>2026-04-04T09:11:18.994Z</time></trkpt><trkpt lat="44.348535" lon="11.4630367"><ele>431.0</ele><time>2026-04-04T09:11:19.995Z</time></trkpt><trkpt lat="44.348535" lon="11.46337"><ele>429.0</ele><time>2026-04-04T09:11:21.994Z</time></trkpt><trkpt lat="44.3485183" lon="11.4635317"><ele>427.0</ele><time>2026-04-04T09:11:22.995Z</time></trkpt><trkpt lat="44.3484833" lon="11.4637017"><ele>426.75</ele><time>2026-04-04T09:11:23.994Z</time></trkpt><trkpt lat="44.3484183" lon="11.463885"><ele>426.5</ele><time>2026-04-04T09:11:24.995Z</time></trkpt><trkpt lat="44.3483417" lon="11.4640317"><ele>426.25</ele><time>2026-04-04T09:11:25.995Z</time></trkpt><trkpt lat="44.3482833" lon="11.4641583"><ele>426.0</ele><time>2026-04-04T09:11:26.994Z</time></trkpt><trkpt lat="44.3482083" lon="11.4642867"><ele>426.0</ele><time>2026-04-04T09:11:27.996Z</time></trkpt><trkpt lat="44.3481667" lon="11.4644"><ele>426.0</ele><time>2026-04-04T09:11:28.995Z</time></trkpt><trkpt lat="44.3481417" lon="11.4645117"><ele>426.0</ele><time>2026-04-04T09:11:29.997Z</time></trkpt><trkpt lat="44.34814" lon="11.4646367"><ele>426.0</ele><time>2026-04-04T09:11:30.995Z</time></trkpt><trkpt lat="44.3481733" lon="11.4647667"><ele>426.0</ele><time>2026-04-04T09:11:31.994Z</time></trkpt><trkpt lat="44.3482167" lon="11.4649067"><ele>426.4</ele><time>2026-04-04T09:11:32.995Z</time></trkpt><trkpt lat="44.3482567" lon="11.4650483"><ele>426.8</ele><time>2026-04-04T09:11:33.996Z</time></trkpt><trkpt lat="44.3482933" lon="11.4651917"><ele>427.19999999999993</ele><time>2026-04-04T09:11:34.996Z</time></trkpt><trkpt lat="44.3483217" lon="11.46534"><ele>427.59999999999997</ele><time>2026-04-04T09:11:35.994Z</time></trkpt><trkpt lat="44.3483517" lon="11.465485"><ele>428.0</ele><time>2026-04-04T09:11:36.995Z</time></trkpt><trkpt lat="44.3483733" lon="11.46563"><ele>429.5</ele><time>2026-04-04T09:11:37.994Z</time></trkpt><trkpt lat="44.3484017" lon="11.4657783"><ele>431.0</ele><time>2026-04-04T09:11:38.995Z</time></trkpt><trkpt lat="44.34843" lon="11.465925"><ele>432.5</ele><time>2026-04-04T09:11:39.995Z</time></trkpt><trkpt lat="44.34845" lon="11.4660867"><ele>434.0</ele><time>2026-04-04T09:11:40.995Z</time></trkpt><trkpt lat="44.3484817" lon="11.4664117"><ele>434.2</ele><time>2026-04-04T09:11:42.994Z</time></trkpt><trkpt lat="44.3484833" lon="11.466575"><ele>434.4</ele><time>2026-04-04T09:11:43.994Z</time></trkpt><trkpt lat="44.3484717" lon="11.4667317"><ele>434.6</ele><time>2026-04-04T09:11:44.995Z</time></trkpt><trkpt lat="44.3484517" lon="11.4668867"><ele>434.8</ele><time>2026-04-04T09:11:45.994Z</time></trkpt><trkpt lat="44.3484333" lon="11.4670333"><ele>435.0</ele><time>2026-04-04T09:11:46.994Z</time></trkpt><trkpt lat="44.3484083" lon="11.4671683"><ele>437.2</ele><time>2026-04-04T09:11:47.994Z</time></trkpt><trkpt lat="44.3483767" lon="11.4673017"><ele>439.4</ele><time>2026-04-04T09:11:48.996Z</time></trkpt><trkpt lat="44.348325" lon="11.46742"><ele>441.6</ele><time>2026-04-04T09:11:49.994Z</time></trkpt><trkpt lat="44.348275" lon="11.46753"><ele>443.8</ele><time>2026-04-04T09:11:50.995Z</time></trkpt><trkpt lat="44.3482217" lon="11.4676267"><ele>446.0</ele><time>2026-04-04T09:11:51.995Z</time></trkpt><trkpt lat="44.3481733" lon="11.4677233"><ele>446.0</ele><time>2026-04-04T09:11:52.994Z</time></trkpt><trkpt lat="44.3481283" lon="11.467835"><ele>446.0</ele><time>2026-04-04T09:11:53.994Z</time></trkpt><trkpt lat="44.348085" lon="11.4679533"><ele>446.0</ele><time>2026-04-04T09:11:54.994Z</time></trkpt><trkpt lat="44.348045" lon="11.4680683"><ele>446.0</ele><time>2026-04-04T09:11:55.994Z</time></trkpt><trkpt lat="44.3479967" lon="11.4681717"><ele>446.0</ele><time>2026-04-04T09:11:56.994Z</time></trkpt><trkpt lat="44.3479517" lon="11.46827"><ele>445.4</ele><time>2026-04-04T09:11:57.994Z</time></trkpt><trkpt lat="44.3479033" lon="11.46837"><ele>444.8</ele><time>2026-04-04T09:11:58.994Z</time></trkpt><trkpt lat="44.3478533" lon="11.4684767"><ele>444.19999999999993</ele><time>2026-04-04T09:11:59.994Z</time></trkpt><trkpt lat="44.3478217" lon="11.4685933"><ele>443.59999999999997</ele><time>2026-04-04T09:12:00.995Z</time></trkpt><trkpt lat="44.347795" lon="11.46872"><ele>443.0</ele><time>2026-04-04T09:12:01.995Z</time></trkpt><trkpt lat="44.3477633" lon="11.4689817"><ele>443.8333333333333</ele><time>2026-04-04T09:12:03.995Z</time></trkpt><trkpt lat="44.347755" lon="11.4691067"><ele>444.66666666666663</ele><time>2026-04-04T09:12:04.996Z</time></trkpt><trkpt lat="44.34775" lon="11.4692233"><ele>445.5</ele><time>2026-04-04T09:12:05.993Z</time></trkpt><trkpt lat="44.3477433" lon="11.469345"><ele>446.33333333333337</ele><time>2026-04-04T09:12:06.995Z</time></trkpt><trkpt lat="44.3477417" lon="11.469465"><ele>447.1666666666667</ele><time>2026-04-04T09:12:07.994Z</time></trkpt><trkpt lat="44.34775" lon="11.4695817"><ele>448.0</ele><time>2026-04-04T09:12:08.994Z</time></trkpt><trkpt lat="44.3477833" lon="11.4697017"><ele>448.0</ele><time>2026-04-04T09:12:09.996Z</time></trkpt><trkpt lat="44.3478267" lon="11.4698167"><ele>447.99999999999994</ele><time>2026-04-04T09:12:10.994Z</time></trkpt><trkpt lat="44.34787" lon="11.4699283"><ele>447.99999999999994</ele><time>2026-04-04T09:12:11.996Z</time></trkpt><trkpt lat="44.347935" lon="11.4700183"><ele>448.0</ele><time>2026-04-04T09:12:12.996Z</time></trkpt><trkpt lat="44.348" lon="11.47011"><ele>448.0</ele><time>2026-04-04T09:12:13.994Z</time></trkpt><trkpt lat="44.3480667" lon="11.4702033"><ele>447.59999999999997</ele><time>2026-04-04T09:12:14.995Z</time></trkpt><trkpt lat="44.348145" lon="11.4702967"><ele>447.19999999999993</ele><time>2026-04-04T09:12:15.995Z</time></trkpt><trkpt lat="44.3482317" lon="11.4703883"><ele>446.8</ele><time>2026-04-04T09:12:16.995Z</time></trkpt><trkpt lat="44.3483217" lon="11.4704933"><ele>446.4</ele><time>2026-04-04T09:12:17.995Z</time></trkpt><trkpt lat="44.348405" lon="11.4706083"><ele>446.0</ele><time>2026-04-04T09:12:18.997Z</time></trkpt><trkpt lat="44.3484817" lon="11.4707217"><ele>446.0</ele><time>2026-04-04T09:12:19.994Z</time></trkpt><trkpt lat="44.3485433" lon="11.4708417"><ele>446.0</ele><time>2026-04-04T09:12:20.994Z</time></trkpt><trkpt lat="44.3485867" lon="11.4709767"><ele>446.0</ele><time>2026-04-04T09:12:21.995Z</time></trkpt><trkpt lat="44.3486183" lon="11.4711133"><ele>446.0</ele><time>2026-04-04T09:12:22.996Z</time></trkpt><trkpt lat="44.348645" lon="11.47141"><ele>445.20000000000005</ele><time>2026-04-04T09:12:24.995Z</time></trkpt><trkpt lat="44.348645" lon="11.4715717"><ele>444.40000000000003</ele><time>2026-04-04T09:12:25.994Z</time></trkpt><trkpt lat="44.3486417" lon="11.4717267"><ele>443.6</ele><time>2026-04-04T09:12:26.995Z</time></trkpt><trkpt lat="44.348635" lon="11.4718717"><ele>442.8</ele><time>2026-04-04T09:12:27.995Z</time></trkpt><trkpt lat="44.3486283" lon="11.4720067"><ele>442.0</ele><time>2026-04-04T09:12:28.995Z</time></trkpt><trkpt lat="44.3486217" lon="11.47213"><ele>441.8</ele><time>2026-04-04T09:12:29.995Z</time></trkpt><trkpt lat="44.3486233" lon="11.4722417"><ele>441.6</ele><time>2026-04-04T09:12:30.995Z</time></trkpt><trkpt lat="44.3486267" lon="11.47236"><ele>441.40000000000003</ele><time>2026-04-04T09:12:31.996Z</time></trkpt><trkpt lat="44.3486567" lon="11.4724867"><ele>441.20000000000005</ele><time>2026-04-04T09:12:32.996Z</time></trkpt><trkpt lat="44.3486983" lon="11.4726217"><ele>441.0</ele><time>2026-04-04T09:12:33.996Z</time></trkpt><trkpt lat="44.3487333" lon="11.47277"><ele>441.0</ele><time>2026-04-04T09:12:34.994Z</time></trkpt><trkpt lat="44.3487717" lon="11.4729083"><ele>441.0</ele><time>2026-04-04T09:12:35.995Z</time></trkpt><trkpt lat="44.3488083" lon="11.47304"><ele>441.0</ele><time>2026-04-04T09:12:36.994Z</time></trkpt><trkpt lat="44.3488383" lon="11.4731633"><ele>441.0</ele><time>2026-04-04T09:12:37.996Z</time></trkpt><trkpt lat="44.348865" lon="11.4732833"><ele>441.0</ele><time>2026-04-04T09:12:38.995Z</time></trkpt><trkpt lat="44.3488933" lon="11.4733933"><ele>441.20000000000005</ele><time>2026-04-04T09:12:39.995Z</time></trkpt><trkpt lat="44.34891" lon="11.4735133"><ele>441.40000000000003</ele><time>2026-04-04T09:12:40.998Z</time></trkpt><trkpt lat="44.3489067" lon="11.473625"><ele>441.6</ele><time>2026-04-04T09:12:41.995Z</time></trkpt><trkpt lat="44.3489017" lon="11.4737433"><ele>441.8</ele><time>2026-04-04T09:12:42.994Z</time></trkpt><trkpt lat="44.3489067" lon="11.4738617"><ele>442.0</ele><time>2026-04-04T09:12:43.996Z</time></trkpt><trkpt lat="44.3489583" lon="11.474055"><ele>442.83333333333337</ele><time>2026-04-04T09:12:45.996Z</time></trkpt><trkpt lat="44.3490017" lon="11.4741333"><ele>443.6666666666667</ele><time>2026-04-04T09:12:46.999Z</time></trkpt><trkpt lat="44.3490567" lon="11.4741933"><ele>444.5</ele><time>2026-04-04T09:12:47.996Z</time></trkpt><trkpt lat="44.3491517" lon="11.474175"><ele>445.33333333333337</ele><time>2026-04-04T09:12:48.995Z</time></trkpt><trkpt lat="44.3492467" lon="11.4741567"><ele>446.1666666666667</ele><time>2026-04-04T09:12:49.998Z</time></trkpt><trkpt lat="44.349325" lon="11.4741533"><ele>447.0</ele><time>2026-04-04T09:12:50.995Z</time></trkpt><trkpt lat="44.34939" lon="11.47416"><ele>447.0</ele><time>2026-04-04T09:12:51.996Z</time></trkpt><trkpt lat="44.3494983" lon="11.4741917"><ele>447.00000000000006</ele><time>2026-04-04T09:12:53.995Z</time></trkpt><trkpt lat="44.3496133" lon="11.47427"><ele>447.00000000000006</ele><time>2026-04-04T09:12:55.995Z</time></trkpt><trkpt lat="44.3496667" lon="11.4743433"><ele>447.0</ele><time>2026-04-04T09:12:56.996Z</time></trkpt><trkpt lat="44.349715" lon="11.47444"><ele>447.0</ele><time>2026-04-04T09:12:57.995Z</time></trkpt><trkpt lat="44.3497567" lon="11.4745533"><ele>444.6</ele><time>2026-04-04T09:12:58.995Z</time></trkpt><trkpt lat="44.34979" lon="11.4746783"><ele>442.20000000000005</ele><time>2026-04-04T09:12:59.996Z</time></trkpt><trkpt lat="44.349805" lon="11.47482"><ele>439.8</ele><time>2026-04-04T09:13:00.994Z</time></trkpt><trkpt lat="44.3498083" lon="11.474965"><ele>437.4</ele><time>2026-04-04T09:13:01.995Z</time></trkpt><trkpt lat="44.34981" lon="11.4751067"><ele>435.0</ele><time>2026-04-04T09:13:02.994Z</time></trkpt><trkpt lat="44.3498067" lon="11.475245"><ele>435.0</ele><time>2026-04-04T09:13:03.994Z</time></trkpt><trkpt lat="44.3498067" lon="11.47538"><ele>435.0</ele><time>2026-04-04T09:13:04.995Z</time></trkpt><trkpt lat="44.3497733" lon="11.4756617"><ele>435.0</ele><time>2026-04-04T09:13:06.995Z</time></trkpt><trkpt lat="44.349745" lon="11.4758067"><ele>435.0</ele><time>2026-04-04T09:13:07.995Z</time></trkpt><trkpt lat="44.3497067" lon="11.4759617"><ele>433.25</ele><time>2026-04-04T09:13:08.994Z</time></trkpt><trkpt lat="44.3496583" lon="11.4761217"><ele>431.5</ele><time>2026-04-04T09:13:09.994Z</time></trkpt><trkpt lat="44.34961" lon="11.4762817"><ele>429.75</ele><time>2026-04-04T09:13:10.994Z</time></trkpt><trkpt lat="44.3495617" lon="11.4764367"><ele>428.0</ele><time>2026-04-04T09:13:11.995Z</time></trkpt><trkpt lat="44.3495183" lon="11.4765733"><ele>427.79999999999995</ele><time>2026-04-04T09:13:12.994Z</time></trkpt><trkpt lat="44.3494833" lon="11.476685"><ele>427.59999999999997</ele><time>2026-04-04T09:13:13.997Z</time></trkpt><trkpt lat="44.349445" lon="11.4767983"><ele>427.40000000000003</ele><time>2026-04-04T09:13:14.996Z</time></trkpt><trkpt lat="44.34939" lon="11.4769133"><ele>427.20000000000005</ele><time>2026-04-04T09:13:15.994Z</time></trkpt><trkpt lat="44.349315" lon="11.477025"><ele>427.0</ele><time>2026-04-04T09:13:16.994Z</time></trkpt><trkpt lat="44.3492267" lon="11.4771417"><ele>426.8</ele><time>2026-04-04T09:13:17.994Z</time></trkpt><trkpt lat="44.3491333" lon="11.477265"><ele>426.6</ele><time>2026-04-04T09:13:18.995Z</time></trkpt><trkpt lat="44.3490483" lon="11.4773767"><ele>426.40000000000003</ele><time>2026-04-04T09:13:19.994Z</time></trkpt><trkpt lat="44.348985" lon="11.4774783"><ele>426.20000000000005</ele><time>2026-04-04T09:13:20.998Z</time></trkpt><trkpt lat="44.348935" lon="11.4775583"><ele>426.0</ele><time>2026-04-04T09:13:21.995Z</time></trkpt><trkpt lat="44.3488667" lon="11.47769"><ele>425.4</ele><time>2026-04-04T09:13:23.994Z</time></trkpt><trkpt lat="44.3488033" lon="11.4778217"><ele>424.8</ele><time>2026-04-04T09:13:25.995Z</time></trkpt><trkpt lat="44.3486983" lon="11.478"><ele>424.2</ele><time>2026-04-04T09:13:29.995Z</time></trkpt><trkpt lat="44.3486083" lon="11.4780067"><ele>423.59999999999997</ele><time>2026-04-04T09:13:32.998Z</time></trkpt><trkpt lat="44.348545" lon="11.47799"><ele>423.0</ele><time>2026-04-04T09:13:34.996Z</time></trkpt><trkpt lat="44.3484733" lon="11.4779667"><ele>423.0</ele><time>2026-04-04T09:13:36.994Z</time></trkpt><trkpt lat="44.3483917" lon="11.4779483"><ele>423.0</ele><time>2026-04-04T09:13:38.994Z</time></trkpt><trkpt lat="44.34831" lon="11.47795"><ele>423.0</ele><time>2026-04-04T09:13:40.994Z</time></trkpt><trkpt lat="44.3482217" lon="11.477945"><ele>423.0</ele><time>2026-04-04T09:13:42.994Z</time></trkpt><trkpt lat="44.3481433" lon="11.4779267"><ele>423.0</ele><time>2026-04-04T09:13:44.994Z</time></trkpt><trkpt lat="44.34806" lon="11.4778883"><ele>423.0</ele><time>2026-04-04T09:13:46.994Z</time></trkpt><trkpt lat="44.3479467" lon="11.47775"><ele>420.6666666666667</ele><time>2026-04-04T09:13:50.997Z</time></trkpt><trkpt lat="44.3479133" lon="11.4776317"><ele>418.33333333333337</ele><time>2026-04-04T09:13:53.994Z</time></trkpt><trkpt lat="44.34787" lon="11.4775583"><ele>416.0</ele><time>2026-04-04T09:13:55.994Z</time></trkpt><trkpt lat="44.347795" lon="11.4776083"><ele>413.6666666666667</ele><time>2026-04-04T09:13:58.994Z</time></trkpt><trkpt lat="44.34777" lon="11.4777017"><ele>411.33333333333337</ele><time>2026-04-04T09:14:00.995Z</time></trkpt><trkpt lat="44.3478017" lon="11.477825"><ele>409.0</ele><time>2026-04-04T09:14:02.995Z</time></trkpt><trkpt lat="44.3478467" lon="11.47796"><ele>407.5</ele><time>2026-04-04T09:14:04.995Z</time></trkpt><trkpt lat="44.3478817" lon="11.478095"><ele>406.0</ele><time>2026-04-04T09:14:06.995Z</time></trkpt><trkpt lat="44.347915" lon="11.4782217"><ele>404.5</ele><time>2026-04-04T09:14:08.997Z</time></trkpt><trkpt lat="44.347895" lon="11.4785133"><ele>403.0</ele><time>2026-04-04T09:14:12.995Z</time></trkpt><trkpt lat="44.3478517" lon="11.478645"><ele>403.0</ele><time>2026-04-04T09:14:14.995Z</time></trkpt><trkpt lat="44.3477817" lon="11.4787533"><ele>403.0</ele><time>2026-04-04T09:14:16.994Z</time></trkpt><trkpt lat="44.34772" lon="11.4788383"><ele>403.0</ele><time>2026-04-04T09:14:18.996Z</time></trkpt><trkpt lat="44.3476433" lon="11.4789383"><ele>403.0</ele><time>2026-04-04T09:14:20.994Z</time></trkpt><trkpt lat="44.3475633" lon="11.4790217"><ele>403.0</ele><time>2026-04-04T09:14:22.994Z</time></trkpt><trkpt lat="44.3474883" lon="11.479105"><ele>402.75</ele><time>2026-04-04T09:14:24.997Z</time></trkpt><trkpt lat="44.3474133" lon="11.479195"><ele>402.5</ele><time>2026-04-04T09:14:26.995Z</time></trkpt><trkpt lat="44.3473317" lon="11.4793"><ele>402.25</ele><time>2026-04-04T09:14:28.994Z</time></trkpt><trkpt lat="44.3472783" lon="11.4794117"><ele>402.0</ele><time>2026-04-04T09:14:30.995Z</time></trkpt><trkpt lat="44.347195" lon="11.479705"><ele>399.8333333333333</ele><time>2026-04-04T09:14:34.995Z</time></trkpt><trkpt lat="44.3471617" lon="11.4797817"><ele>397.66666666666663</ele><time>2026-04-04T09:14:35.995Z</time></trkpt><trkpt lat="44.3471233" lon="11.479855"><ele>395.5</ele><time>2026-04-04T09:14:36.995Z</time></trkpt><trkpt lat="44.3470883" lon="11.47993"><ele>393.3333333333333</ele><time>2026-04-04T09:14:37.995Z</time></trkpt><trkpt lat="44.34703" lon="11.4800583"><ele>391.16666666666663</ele><time>2026-04-04T09:14:39.996Z</time></trkpt><trkpt lat="44.3469383" lon="11.4801583"><ele>389.0</ele><time>2026-04-04T09:14:41.995Z</time></trkpt><trkpt lat="44.34685" lon="11.480205"><ele>389.0</ele><time>2026-04-04T09:14:43.994Z</time></trkpt><trkpt lat="44.34676" lon="11.4802167"><ele>389.0</ele><time>2026-04-04T09:14:45.994Z</time></trkpt><trkpt lat="44.3466433" lon="11.4802083"><ele>389.0</ele><time>2026-04-04T09:14:47.996Z</time></trkpt><trkpt lat="44.3465783" lon="11.48018"><ele>389.0</ele><time>2026-04-04T09:14:48.995Z</time></trkpt><trkpt lat="44.3464483" lon="11.4801383"><ele>389.0</ele><time>2026-04-04T09:14:50.994Z</time></trkpt><trkpt lat="44.3463767" lon="11.480105"><ele>389.2</ele><time>2026-04-04T09:14:51.995Z</time></trkpt><trkpt lat="44.3462417" lon="11.4800367"><ele>389.4</ele><time>2026-04-04T09:14:53.996Z</time></trkpt><trkpt lat="44.34612" lon="11.4799683"><ele>389.6</ele><time>2026-04-04T09:14:55.994Z</time></trkpt><trkpt lat="44.3460483" lon="11.47994"><ele>389.8</ele><time>2026-04-04T09:14:56.994Z</time></trkpt><trkpt lat="44.3459783" lon="11.47992"><ele>390.0</ele><time>2026-04-04T09:14:57.995Z</time></trkpt><trkpt lat="44.34591" lon="11.4799033"><ele>390.0</ele><time>2026-04-04T09:14:58.994Z</time></trkpt><trkpt lat="44.3457967" lon="11.4799133"><ele>390.0</ele><time>2026-04-04T09:15:00.995Z</time></trkpt><trkpt lat="44.3457067" lon="11.47996"><ele>390.0</ele><time>2026-04-04T09:15:02.994Z</time></trkpt><trkpt lat="44.3456333" lon="11.480035"><ele>390.0</ele><time>2026-04-04T09:15:04.995Z</time></trkpt><trkpt lat="44.3455783" lon="11.4801417"><ele>390.0</ele><time>2026-04-04T09:15:06.994Z</time></trkpt><trkpt lat="44.34551" lon="11.4802417"><ele>384.75</ele><time>2026-04-04T09:15:08.996Z</time></trkpt><trkpt lat="44.3454533" lon="11.4803517"><ele>379.5</ele><time>2026-04-04T09:15:10.995Z</time></trkpt><trkpt lat="44.34539" lon="11.4804617"><ele>374.25</ele><time>2026-04-04T09:15:12.994Z</time></trkpt><trkpt lat="44.3452567" lon="11.4806767"><ele>369.0</ele><time>2026-04-04T09:15:16.997Z</time></trkpt><trkpt lat="44.3451917" lon="11.4807983"><ele>369.0</ele><time>2026-04-04T09:15:18.995Z</time></trkpt><trkpt lat="44.3451467" lon="11.4809167"><ele>369.0</ele><time>2026-04-04T09:15:20.995Z</time></trkpt><trkpt lat="44.34511" lon="11.4810333"><ele>369.0</ele><time>2026-04-04T09:15:22.999Z</time></trkpt><trkpt lat="44.3450633" lon="11.4811367"><ele>369.0</ele><time>2026-04-04T09:15:24.994Z</time></trkpt><trkpt lat="44.3450183" lon="11.4812217"><ele>369.0</ele><time>2026-04-04T09:15:26.994Z</time></trkpt><trkpt lat="44.3449733" lon="11.48129"><ele>369.0</ele><time>2026-04-04T09:15:28.994Z</time></trkpt><trkpt lat="44.34493" lon="11.48137"><ele>367.5</ele><time>2026-04-04T09:15:30.994Z</time></trkpt><trkpt lat="44.3449233" lon="11.48147"><ele>366.0</ele><time>2026-04-04T09:15:32.995Z</time></trkpt><trkpt lat="44.344945" lon="11.4815817"><ele>364.5</ele><time>2026-04-04T09:15:34.994Z</time></trkpt><trkpt lat="44.3450417" lon="11.4817517"><ele>363.0</ele><time>2026-04-04T09:15:38.994Z</time></trkpt><trkpt lat="44.345105" lon="11.4817783"><ele>361.5</ele><time>2026-04-04T09:15:40.994Z</time></trkpt><trkpt lat="44.345165" lon="11.481815"><ele>360.0</ele><time>2026-04-04T09:15:42.995Z</time></trkpt><trkpt lat="44.3452233" lon="11.48186"><ele>360.0</ele><time>2026-04-04T09:15:44.994Z</time></trkpt><trkpt lat="44.3452817" lon="11.4819283"><ele>360.0</ele><time>2026-04-04T09:15:46.995Z</time></trkpt><trkpt lat="44.3453333" lon="11.4819983"><ele>360.0</ele><time>2026-04-04T09:15:48.995Z</time></trkpt><trkpt lat="44.34537" lon="11.48207"><ele>360.0</ele><time>2026-04-04T09:15:50.995Z</time></trkpt><trkpt lat="44.34538" lon="11.4821617"><ele>360.0</ele><time>2026-04-04T09:15:52.995Z</time></trkpt><trkpt lat="44.3453567" lon="11.48228"><ele>360.0</ele><time>2026-04-04T09:15:54.995Z</time></trkpt><trkpt lat="44.3452833" lon="11.4823783"><ele>357.5</ele><time>2026-04-04T09:15:56.996Z</time></trkpt><trkpt lat="44.3451033" lon="11.4823783"><ele>355.0</ele><time>2026-04-04T09:16:00.995Z</time></trkpt><trkpt lat="44.3449983" lon="11.4823433"><ele>352.5</ele><time>2026-04-04T09:16:02.994Z</time></trkpt><trkpt lat="44.3448933" lon="11.48231"><ele>350.0</ele><time>2026-04-04T09:16:04.995Z</time></trkpt><trkpt lat="44.3448" lon="11.48226"><ele>348.1666666666667</ele><time>2026-04-04T09:16:06.995Z</time></trkpt><trkpt lat="44.3447083" lon="11.4822017"><ele>346.33333333333337</ele><time>2026-04-04T09:16:08.996Z</time></trkpt><trkpt lat="44.3446283" lon="11.48216"><ele>344.5</ele><time>2026-04-04T09:16:10.994Z</time></trkpt><trkpt lat="44.3445583" lon="11.4820933"><ele>342.6666666666667</ele><time>2026-04-04T09:16:12.994Z</time></trkpt><trkpt lat="44.3444867" lon="11.4820217"><ele>340.8333333333333</ele><time>2026-04-04T09:16:14.995Z</time></trkpt><trkpt lat="44.344415" lon="11.4819533"><ele>339.0</ele><time>2026-04-04T09:16:16.994Z</time></trkpt><trkpt lat="44.3443417" lon="11.48188"><ele>339.0</ele><time>2026-04-04T09:16:18.994Z</time></trkpt><trkpt lat="44.3442183" lon="11.4818067"><ele>339.0</ele><time>2026-04-04T09:16:20.994Z</time></trkpt><trkpt lat="44.344155" lon="11.48177"><ele>339.0</ele><time>2026-04-04T09:16:21.994Z</time></trkpt><trkpt lat="44.3440883" lon="11.4817467"><ele>339.0</ele><time>2026-04-04T09:16:22.994Z</time></trkpt><trkpt lat="44.3440217" lon="11.4817217"><ele>339.0</ele><time>2026-04-04T09:16:23.994Z</time></trkpt><trkpt lat="44.343955" lon="11.4816983"><ele>339.0</ele><time>2026-04-04T09:16:24.994Z</time></trkpt><trkpt lat="44.343895" lon="11.48167"><ele>336.6</ele><time>2026-04-04T09:16:25.994Z</time></trkpt><trkpt lat="44.343785" lon="11.48163"><ele>334.2</ele><time>2026-04-04T09:16:27.994Z</time></trkpt><trkpt lat="44.34367" lon="11.481595"><ele>331.8</ele><time>2026-04-04T09:16:29.995Z</time></trkpt><trkpt lat="44.3435767" lon="11.4815667"><ele>329.40000000000003</ele><time>2026-04-04T09:16:31.994Z</time></trkpt><trkpt lat="44.34351" lon="11.4815"><ele>327.0</ele><time>2026-04-04T09:16:33.994Z</time></trkpt><trkpt lat="44.3434517" lon="11.4814417"><ele>327.0</ele><time>2026-04-04T09:16:35.995Z</time></trkpt><trkpt lat="44.3434033" lon="11.481365"><ele>327.0</ele><time>2026-04-04T09:16:37.996Z</time></trkpt><trkpt lat="44.3433467" lon="11.48125"><ele>327.0</ele><time>2026-04-04T09:16:39.994Z</time></trkpt><trkpt lat="44.3432667" lon="11.4811083"><ele>327.0</ele><time>2026-04-04T09:16:41.995Z</time></trkpt><trkpt lat="44.3432217" lon="11.4810467"><ele>327.0</ele><time>2026-04-04T09:16:42.994Z</time></trkpt><trkpt lat="44.3431683" lon="11.4809767"><ele>327.0</ele><time>2026-04-04T09:16:43.994Z</time></trkpt><trkpt lat="44.343115" lon="11.4809167"><ele>326.8333333333333</ele><time>2026-04-04T09:16:44.995Z</time></trkpt><trkpt lat="44.3430617" lon="11.4808617"><ele>326.6666666666667</ele><time>2026-04-04T09:16:45.994Z</time></trkpt><trkpt lat="44.3430167" lon="11.4808"><ele>326.5</ele><time>2026-04-04T09:16:46.997Z</time></trkpt><trkpt lat="44.342935" lon="11.4806917"><ele>326.33333333333337</ele><time>2026-04-04T09:16:48.995Z</time></trkpt><trkpt lat="44.34286" lon="11.48059"><ele>326.1666666666667</ele><time>2026-04-04T09:16:50.995Z</time></trkpt><trkpt lat="44.3428117" lon="11.4805183"><ele>326.0</ele><time>2026-04-04T09:16:51.994Z</time></trkpt><trkpt lat="44.3427617" lon="11.4804567"><ele>323.33333333333337</ele><time>2026-04-04T09:16:52.996Z</time></trkpt><trkpt lat="44.342675" lon="11.4803683"><ele>320.6666666666667</ele><time>2026-04-04T09:16:54.995Z</time></trkpt><trkpt lat="44.3426" lon="11.4803"><ele>318.0</ele><time>2026-04-04T09:16:55.994Z</time></trkpt><trkpt lat="44.342515" lon="11.4802433"><ele>315.3333333333333</ele><time>2026-04-04T09:16:56.994Z</time></trkpt><trkpt lat="44.3424567" lon="11.480175"><ele>312.66666666666663</ele><time>2026-04-04T09:16:57.994Z</time></trkpt><trkpt lat="44.3424" lon="11.4801233"><ele>310.0</ele><time>2026-04-04T09:16:58.994Z</time></trkpt><trkpt lat="44.342335" lon="11.48009"><ele>310.0</ele><time>2026-04-04T09:16:59.994Z</time></trkpt><trkpt lat="44.3422733" lon="11.48006"><ele>310.0</ele><time>2026-04-04T09:17:00.997Z</time></trkpt><trkpt lat="44.3421" lon="11.4799517"><ele>310.0</ele><time>2026-04-04T09:17:03.995Z</time></trkpt><trkpt lat="44.3420433" lon="11.4799117"><ele>310.0</ele><time>2026-04-04T09:17:04.994Z</time></trkpt><trkpt lat="44.34198" lon="11.4798683"><ele>310.0</ele><time>2026-04-04T09:17:05.994Z</time></trkpt><trkpt lat="44.3419067" lon="11.4798583"><ele>308.3333333333333</ele><time>2026-04-04T09:17:06.995Z</time></trkpt><trkpt lat="44.3418317" lon="11.479855"><ele>306.66666666666663</ele><time>2026-04-04T09:17:07.995Z</time></trkpt><trkpt lat="44.341695" lon="11.479845"><ele>305.0</ele><time>2026-04-04T09:17:09.995Z</time></trkpt><trkpt lat="44.3416167" lon="11.4798433"><ele>303.3333333333333</ele><time>2026-04-04T09:17:10.996Z</time></trkpt><trkpt lat="44.341545" lon="11.4798533"><ele>301.6666666666667</ele><time>2026-04-04T09:17:11.995Z</time></trkpt><trkpt lat="44.3414783" lon="11.4798667"><ele>300.0</ele><time>2026-04-04T09:17:12.995Z</time></trkpt><trkpt lat="44.3413717" lon="11.4798583"><ele>298.6</ele><time>2026-04-04T09:17:14.995Z</time></trkpt><trkpt lat="44.341265" lon="11.4797733"><ele>297.2</ele><time>2026-04-04T09:17:16.994Z</time></trkpt><trkpt lat="44.3412183" lon="11.4797033"><ele>295.8</ele><time>2026-04-04T09:17:17.996Z</time></trkpt><trkpt lat="44.341185" lon="11.4796217"><ele>294.4</ele><time>2026-04-04T09:17:18.994Z</time></trkpt><trkpt lat="44.3411483" lon="11.4794867"><ele>293.0</ele><time>2026-04-04T09:17:19.994Z</time></trkpt><trkpt lat="44.341085" lon="11.4793567"><ele>293.0</ele><time>2026-04-04T09:17:21.995Z</time></trkpt><trkpt lat="44.3409983" lon="11.47919"><ele>293.0</ele><time>2026-04-04T09:17:23.994Z</time></trkpt><trkpt lat="44.3409433" lon="11.479145"><ele>293.0</ele><time>2026-04-04T09:17:24.996Z</time></trkpt><trkpt lat="44.34087" lon="11.479085"><ele>293.0</ele><time>2026-04-04T09:17:25.995Z</time></trkpt><trkpt lat="44.3408117" lon="11.4790517"><ele>293.0</ele><time>2026-04-04T09:17:26.994Z</time></trkpt><trkpt lat="44.340745" lon="11.4790033"><ele>293.0</ele><time>2026-04-04T09:17:27.994Z</time></trkpt><trkpt lat="44.3406767" lon="11.4789417"><ele>293.0</ele><time>2026-04-04T09:17:28.995Z</time></trkpt><trkpt lat="44.3406117" lon="11.47894"><ele>293.0</ele><time>2026-04-04T09:17:29.995Z</time></trkpt><trkpt lat="44.3405317" lon="11.478935"><ele>293.0</ele><time>2026-04-04T09:17:30.994Z</time></trkpt><trkpt lat="44.3404133" lon="11.4789767"><ele>293.0</ele><time>2026-04-04T09:17:32.995Z</time></trkpt><trkpt lat="44.3403117" lon="11.4790083"><ele>293.0</ele><time>2026-04-04T09:17:34.994Z</time></trkpt><trkpt lat="44.3402583" lon="11.4791183"><ele>289.25</ele><time>2026-04-04T09:17:36.996Z</time></trkpt><trkpt lat="44.34024" lon="11.479225"><ele>285.5</ele><time>2026-04-04T09:17:38.994Z</time></trkpt><trkpt lat="44.3401833" lon="11.47934"><ele>281.75</ele><time>2026-04-04T09:17:40.995Z</time></trkpt><trkpt lat="44.34009" lon="11.4794383"><ele>278.0</ele><time>2026-04-04T09:17:42.994Z</time></trkpt><trkpt lat="44.3399333" lon="11.4795033"><ele>278.0</ele><time>2026-04-04T09:17:44.994Z</time></trkpt><trkpt lat="44.33985" lon="11.479575"><ele>278.0</ele><time>2026-04-04T09:17:45.994Z</time></trkpt><trkpt lat="44.3397567" lon="11.4796583"><ele>278.0</ele><time>2026-04-04T09:17:46.994Z</time></trkpt><trkpt lat="44.3396867" lon="11.4797433"><ele>278.0</ele><time>2026-04-04T09:17:47.995Z</time></trkpt><trkpt lat="44.3396167" lon="11.47982"><ele>278.0</ele><time>2026-04-04T09:17:48.994Z</time></trkpt><trkpt lat="44.3395483" lon="11.4798883"><ele>276.85714285714283</ele><time>2026-04-04T09:17:49.994Z</time></trkpt><trkpt lat="44.3394817" lon="11.479945"><ele>275.7142857142857</ele><time>2026-04-04T09:17:50.995Z</time></trkpt><trkpt lat="44.3394083" lon="11.48"><ele>274.57142857142856</ele><time>2026-04-04T09:17:51.995Z</time></trkpt><trkpt lat="44.3393333" lon="11.4800367"><ele>273.42857142857144</ele><time>2026-04-04T09:17:52.994Z</time></trkpt><trkpt lat="44.339265" lon="11.4800483"><ele>272.2857142857143</ele><time>2026-04-04T09:17:53.994Z</time></trkpt><trkpt lat="44.3392" lon="11.4800583"><ele>271.1428571428571</ele><time>2026-04-04T09:17:54.994Z</time></trkpt><trkpt lat="44.339135" lon="11.4800633"><ele>270.0</ele><time>2026-04-04T09:17:55.995Z</time></trkpt><trkpt lat="44.3390567" lon="11.480045"><ele>270.0</ele><time>2026-04-04T09:17:56.996Z</time></trkpt><trkpt lat="44.3389567" lon="11.48006"><ele>270.0</ele><time>2026-04-04T09:17:58.994Z</time></trkpt><trkpt lat="44.3388267" lon="11.4800233"><ele>270.0</ele><time>2026-04-04T09:18:00.996Z</time></trkpt><trkpt lat="44.3387517" lon="11.47998"><ele>270.0</ele><time>2026-04-04T09:18:01.995Z</time></trkpt><trkpt lat="44.3386867" lon="11.4799417"><ele>270.0</ele><time>2026-04-04T09:18:02.995Z</time></trkpt><trkpt lat="44.3386233" lon="11.4799167"><ele>267.25</ele><time>2026-04-04T09:18:03.995Z</time></trkpt><trkpt lat="44.3384417" lon="11.4798217"><ele>264.5</ele><time>2026-04-04T09:18:07.997Z</time></trkpt><trkpt lat="44.3383567" lon="11.479755"><ele>261.75</ele><time>2026-04-04T09:18:24.998Z</time></trkpt><trkpt lat="44.3382333" lon="11.47968"><ele>259.0</ele><time>2026-04-04T09:18:28.995Z</time></trkpt><trkpt lat="44.3381617" lon="11.4795967"><ele>259.0</ele><time>2026-04-04T09:18:30.994Z</time></trkpt><trkpt lat="44.338105" lon="11.479545"><ele>259.0</ele><time>2026-04-04T09:18:31.996Z</time></trkpt><trkpt lat="44.3380317" lon="11.4795233"><ele>259.0</ele><time>2026-04-04T09:18:32.995Z</time></trkpt><trkpt lat="44.337965" lon="11.4794733"><ele>259.0</ele><time>2026-04-04T09:18:33.995Z</time></trkpt><trkpt lat="44.3378933" lon="11.4794183"><ele>259.0</ele><time>2026-04-04T09:18:34.994Z</time></trkpt><trkpt lat="44.3378267" lon="11.479385"><ele>259.0</ele><time>2026-04-04T09:18:35.997Z</time></trkpt><trkpt lat="44.33776" lon="11.4793683"><ele>259.0</ele><time>2026-04-04T09:18:36.995Z</time></trkpt><trkpt lat="44.3376883" lon="11.4793633"><ele>257.7142857142857</ele><time>2026-04-04T09:18:37.995Z</time></trkpt><trkpt lat="44.33762" lon="11.47938"><ele>256.42857142857144</ele><time>2026-04-04T09:18:38.994Z</time></trkpt><trkpt lat="44.3375533" lon="11.4794083"><ele>255.14285714285714</ele><time>2026-04-04T09:18:39.995Z</time></trkpt><trkpt lat="44.337475" lon="11.4794383"><ele>253.85714285714286</ele><time>2026-04-04T09:18:40.994Z</time></trkpt><trkpt lat="44.3374067" lon="11.479475"><ele>252.57142857142858</ele><time>2026-04-04T09:18:41.994Z</time></trkpt><trkpt lat="44.3373333" lon="11.4795067"><ele>251.28571428571428</ele><time>2026-04-04T09:18:42.996Z</time></trkpt><trkpt lat="44.33726" lon="11.47953"><ele>250.0</ele><time>2026-04-04T09:18:43.994Z</time></trkpt><trkpt lat="44.3371467" lon="11.4795867"><ele>247.5</ele><time>2026-04-04T09:18:45.996Z</time></trkpt><trkpt lat="44.3369633" lon="11.479665"><ele>245.0</ele><time>2026-04-04T09:18:49.996Z</time></trkpt><trkpt lat="44.336885" lon="11.4796917"><ele>242.5</ele><time>2026-04-04T09:18:51.996Z</time></trkpt><trkpt lat="44.3368017" lon="11.4797033"><ele>240.0</ele><time>2026-04-04T09:18:53.996Z</time></trkpt><trkpt lat="44.3367033" lon="11.4797"><ele>240.0</ele><time>2026-04-04T09:18:55.996Z</time></trkpt><trkpt lat="44.3365967" lon="11.4797033"><ele>240.0</ele><time>2026-04-04T09:18:57.995Z</time></trkpt><trkpt lat="44.3364783" lon="11.4797367"><ele>240.0</ele><time>2026-04-04T09:18:59.994Z</time></trkpt><trkpt lat="44.336415" lon="11.479765"><ele>240.0</ele><time>2026-04-04T09:19:00.995Z</time></trkpt><trkpt lat="44.3363467" lon="11.479795"><ele>240.0</ele><time>2026-04-04T09:19:01.995Z</time></trkpt><trkpt lat="44.3362783" lon="11.47983"><ele>240.0</ele><time>2026-04-04T09:19:02.994Z</time></trkpt><trkpt lat="44.3362117" lon="11.47987"><ele>239.6</ele><time>2026-04-04T09:19:03.995Z</time></trkpt><trkpt lat="44.3361467" lon="11.479915"><ele>239.2</ele><time>2026-04-04T09:19:04.994Z</time></trkpt><trkpt lat="44.3360817" lon="11.479965"><ele>238.8</ele><time>2026-04-04T09:19:05.996Z</time></trkpt><trkpt lat="44.336015" lon="11.4800233"><ele>238.4</ele><time>2026-04-04T09:19:06.995Z</time></trkpt><trkpt lat="44.3358667" lon="11.4801617"><ele>238.0</ele><time>2026-04-04T09:19:08.995Z</time></trkpt><trkpt lat="44.335795" lon="11.4802283"><ele>237.99999999999997</ele><time>2026-04-04T09:19:09.996Z</time></trkpt><trkpt lat="44.33573" lon="11.4802967"><ele>238.0</ele><time>2026-04-04T09:19:10.995Z</time></trkpt><trkpt lat="44.33566" lon="11.480365"><ele>238.0</ele><time>2026-04-04T09:19:11.995Z</time></trkpt><trkpt lat="44.3355833" lon="11.4804317"><ele>238.0</ele><time>2026-04-04T09:19:12.995Z</time></trkpt><trkpt lat="44.3355017" lon="11.4805017"><ele>237.99999999999997</ele><time>2026-04-04T09:19:13.994Z</time></trkpt><trkpt lat="44.3354233" lon="11.4805717"><ele>238.0</ele><time>2026-04-04T09:19:14.994Z</time></trkpt><trkpt lat="44.3353467" lon="11.4806383"><ele>236.2</ele><time>2026-04-04T09:19:15.996Z</time></trkpt><trkpt lat="44.3352667" lon="11.4807033"><ele>234.4</ele><time>2026-04-04T09:19:16.997Z</time></trkpt><trkpt lat="44.3351833" lon="11.480775"><ele>232.59999999999997</ele><time>2026-04-04T09:19:17.994Z</time></trkpt><trkpt lat="44.3351017" lon="11.4808467"><ele>230.79999999999998</ele><time>2026-04-04T09:19:18.996Z</time></trkpt><trkpt lat="44.3350183" lon="11.48092"><ele>229.0</ele><time>2026-04-04T09:19:19.995Z</time></trkpt><trkpt lat="44.3349317" lon="11.48099"><ele>229.0</ele><time>2026-04-04T09:19:20.995Z</time></trkpt><trkpt lat="44.3348433" lon="11.48105"><ele>228.99999999999997</ele><time>2026-04-04T09:19:21.994Z</time></trkpt><trkpt lat="44.3347617" lon="11.48112"><ele>228.99999999999997</ele><time>2026-04-04T09:19:22.994Z</time></trkpt><trkpt lat="44.33468" lon="11.48119"><ele>229.0</ele><time>2026-04-04T09:19:23.996Z</time></trkpt><trkpt lat="44.3345933" lon="11.481265"><ele>229.0</ele><time>2026-04-04T09:19:24.996Z</time></trkpt><trkpt lat="44.334505" lon="11.4813533"><ele>229.0</ele><time>2026-04-04T09:19:25.995Z</time></trkpt><trkpt lat="44.3344133" lon="11.4814367"><ele>229.0</ele><time>2026-04-04T09:19:26.993Z</time></trkpt><trkpt lat="44.3343217" lon="11.48151"><ele>229.0</ele><time>2026-04-04T09:19:27.993Z</time></trkpt><trkpt lat="44.3341533" lon="11.4816467"><ele>229.0</ele><time>2026-04-04T09:19:29.994Z</time></trkpt><trkpt lat="44.3340667" lon="11.4817067"><ele>229.0</ele><time>2026-04-04T09:19:30.993Z</time></trkpt><trkpt lat="44.33398" lon="11.4817683"><ele>228.99999999999997</ele><time>2026-04-04T09:19:31.997Z</time></trkpt><trkpt lat="44.3338983" lon="11.4818283"><ele>228.99999999999997</ele><time>2026-04-04T09:19:32.994Z</time></trkpt><trkpt lat="44.3338217" lon="11.4818933"><ele>229.0</ele><time>2026-04-04T09:19:33.994Z</time></trkpt><trkpt lat="44.3337517" lon="11.4819717"><ele>229.0</ele><time>2026-04-04T09:19:34.993Z</time></trkpt><trkpt lat="44.3336867" lon="11.4820617"><ele>228.6</ele><time>2026-04-04T09:19:35.993Z</time></trkpt><trkpt lat="44.3336217" lon="11.48216"><ele>228.2</ele><time>2026-04-04T09:19:36.994Z</time></trkpt><trkpt lat="44.3335717" lon="11.4822717"><ele>227.79999999999998</ele><time>2026-04-04T09:19:37.995Z</time></trkpt><trkpt lat="44.3335267" lon="11.4823983"><ele>227.39999999999998</ele><time>2026-04-04T09:19:38.993Z</time></trkpt><trkpt lat="44.3334883" lon="11.4825183"><ele>227.0</ele><time>2026-04-04T09:19:39.996Z</time></trkpt><trkpt lat="44.3334433" lon="11.4826317"><ele>227.0</ele><time>2026-04-04T09:19:40.993Z</time></trkpt><trkpt lat="44.3334" lon="11.4827383"><ele>227.00000000000003</ele><time>2026-04-04T09:19:41.994Z</time></trkpt><trkpt lat="44.333355" lon="11.4828267"><ele>227.0</ele><time>2026-04-04T09:19:42.994Z</time></trkpt><trkpt lat="44.3333067" lon="11.4829183"><ele>227.0</ele><time>2026-04-04T09:19:43.994Z</time></trkpt><trkpt lat="44.3332617" lon="11.4829917"><ele>227.00000000000003</ele><time>2026-04-04T09:19:44.994Z</time></trkpt><trkpt lat="44.3332183" lon="11.4830633"><ele>227.0</ele><time>2026-04-04T09:19:45.993Z</time></trkpt><trkpt lat="44.3331783" lon="11.4831317"><ele>227.0</ele><time>2026-04-04T09:19:46.994Z</time></trkpt><trkpt lat="44.3331067" lon="11.4832267"><ele>224.39999999999998</ele><time>2026-04-04T09:19:48.993Z</time></trkpt><trkpt lat="44.3329167" lon="11.483265"><ele>221.79999999999998</ele><time>2026-04-04T09:19:52.994Z</time></trkpt><trkpt lat="44.3328467" lon="11.483245"><ele>219.2</ele><time>2026-04-04T09:19:53.994Z</time></trkpt><trkpt lat="44.3327633" lon="11.4832217"><ele>216.6</ele><time>2026-04-04T09:19:54.994Z</time></trkpt><trkpt lat="44.3326667" lon="11.483205"><ele>214.0</ele><time>2026-04-04T09:19:55.994Z</time></trkpt><trkpt lat="44.3325233" lon="11.4831617"><ele>214.0</ele><time>2026-04-04T09:19:56.994Z</time></trkpt><trkpt lat="44.33239" lon="11.4831333"><ele>214.0</ele><time>2026-04-04T09:19:57.994Z</time></trkpt><trkpt lat="44.3322717" lon="11.4831083"><ele>214.0</ele><time>2026-04-04T09:19:58.994Z</time></trkpt><trkpt lat="44.3321583" lon="11.48309"><ele>214.0</ele><time>2026-04-04T09:19:59.994Z</time></trkpt><trkpt lat="44.3320417" lon="11.48307"><ele>214.0</ele><time>2026-04-04T09:20:00.994Z</time></trkpt><trkpt lat="44.33193" lon="11.4830583"><ele>213.99999999999997</ele><time>2026-04-04T09:20:01.994Z</time></trkpt><trkpt lat="44.3318183" lon="11.483045"><ele>213.99999999999997</ele><time>2026-04-04T09:20:02.994Z</time></trkpt><trkpt lat="44.3317133" lon="11.483035"><ele>214.0</ele><time>2026-04-04T09:20:03.993Z</time></trkpt><trkpt lat="44.3316067" lon="11.4830183"><ele>214.0</ele><time>2026-04-04T09:20:04.995Z</time></trkpt><trkpt lat="44.3314933" lon="11.48298"><ele>214.0</ele><time>2026-04-04T09:20:05.994Z</time></trkpt><trkpt lat="44.3314017" lon="11.4829567"><ele>213.99999999999997</ele><time>2026-04-04T09:20:06.995Z</time></trkpt><trkpt lat="44.331315" lon="11.4829233"><ele>213.99999999999997</ele><time>2026-04-04T09:20:07.995Z</time></trkpt><trkpt lat="44.3312317" lon="11.48289"><ele>214.0</ele><time>2026-04-04T09:20:08.994Z</time></trkpt><trkpt lat="44.3311533" lon="11.4828567"><ele>214.0</ele><time>2026-04-04T09:20:09.994Z</time></trkpt><trkpt lat="44.3309983" lon="11.4827767"><ele>213.2</ele><time>2026-04-04T09:20:11.993Z</time></trkpt><trkpt lat="44.3309133" lon="11.4827333"><ele>212.39999999999998</ele><time>2026-04-04T09:20:12.995Z</time></trkpt><trkpt lat="44.3308217" lon="11.4827017"><ele>211.6</ele><time>2026-04-04T09:20:13.995Z</time></trkpt><trkpt lat="44.3307333" lon="11.482685"><ele>210.8</ele><time>2026-04-04T09:20:14.994Z</time></trkpt><trkpt lat="44.3306417" lon="11.4826667"><ele>210.0</ele><time>2026-04-04T09:20:15.994Z</time></trkpt><trkpt lat="44.330555" lon="11.4826567"><ele>209.33333333333334</ele><time>2026-04-04T09:20:16.993Z</time></trkpt><trkpt lat="44.33047" lon="11.4826567"><ele>208.66666666666669</ele><time>2026-04-04T09:20:17.994Z</time></trkpt><trkpt lat="44.3303833" lon="11.4826517"><ele>208.0</ele><time>2026-04-04T09:20:18.995Z</time></trkpt><trkpt lat="44.3302983" lon="11.48265"><ele>207.33333333333334</ele><time>2026-04-04T09:20:19.995Z</time></trkpt><trkpt lat="44.3302067" lon="11.4826383"><ele>206.66666666666669</ele><time>2026-04-04T09:20:20.995Z</time></trkpt><trkpt lat="44.3301117" lon="11.4826217"><ele>206.0</ele><time>2026-04-04T09:20:21.994Z</time></trkpt><trkpt lat="44.3300167" lon="11.4825983"><ele>206.0</ele><time>2026-04-04T09:20:22.993Z</time></trkpt><trkpt lat="44.3299233" lon="11.4825667"><ele>206.0</ele><time>2026-04-04T09:20:23.994Z</time></trkpt><trkpt lat="44.3298333" lon="11.4825283"><ele>206.0</ele><time>2026-04-04T09:20:24.994Z</time></trkpt><trkpt lat="44.3297517" lon="11.4824867"><ele>206.0</ele><time>2026-04-04T09:20:25.995Z</time></trkpt><trkpt lat="44.3296617" lon="11.482455"><ele>206.0</ele><time>2026-04-04T09:20:26.997Z</time></trkpt><trkpt lat="44.3295633" lon="11.4824383"><ele>206.25</ele><time>2026-04-04T09:20:27.994Z</time></trkpt><trkpt lat="44.3294583" lon="11.4824383"><ele>206.5</ele><time>2026-04-04T09:20:28.993Z</time></trkpt><trkpt lat="44.3293583" lon="11.4824467"><ele>206.75</ele><time>2026-04-04T09:20:29.994Z</time></trkpt><trkpt lat="44.329265" lon="11.4824717"><ele>207.0</ele><time>2026-04-04T09:20:30.995Z</time></trkpt><trkpt lat="44.32911" lon="11.4825367"><ele>207.0</ele><time>2026-04-04T09:20:32.993Z</time></trkpt><trkpt lat="44.329045" lon="11.4825817"><ele>207.0</ele><time>2026-04-04T09:20:33.994Z</time></trkpt><trkpt lat="44.3289767" lon="11.48264"><ele>207.0</ele><time>2026-04-04T09:20:34.994Z</time></trkpt><trkpt lat="44.3289183" lon="11.4827167"><ele>207.0</ele><time>2026-04-04T09:20:35.994Z</time></trkpt><trkpt lat="44.3288567" lon="11.4828133"><ele>207.0</ele><time>2026-04-04T09:20:36.995Z</time></trkpt><trkpt lat="44.3287867" lon="11.482905"><ele>207.0</ele><time>2026-04-04T09:20:37.994Z</time></trkpt><trkpt lat="44.3287117" lon="11.482995"><ele>205.39999999999998</ele><time>2026-04-04T09:20:38.994Z</time></trkpt><trkpt lat="44.3286367" lon="11.48308"><ele>203.79999999999998</ele><time>2026-04-04T09:20:39.993Z</time></trkpt><trkpt lat="44.3285533" lon="11.483155"><ele>202.2</ele><time>2026-04-04T09:20:40.993Z</time></trkpt><trkpt lat="44.3284633" lon="11.4832167"><ele>200.6</ele><time>2026-04-04T09:20:41.995Z</time></trkpt><trkpt lat="44.32838" lon="11.48327"><ele>199.0</ele><time>2026-04-04T09:20:42.994Z</time></trkpt><trkpt lat="44.328305" lon="11.4833033"><ele>198.99999999999997</ele><time>2026-04-04T09:20:43.995Z</time></trkpt><trkpt lat="44.3282317" lon="11.48333"><ele>199.0</ele><time>2026-04-04T09:20:44.994Z</time></trkpt><trkpt lat="44.32816" lon="11.4833533"><ele>199.0</ele><time>2026-04-04T09:20:45.994Z</time></trkpt><trkpt lat="44.3280883" lon="11.4833683"><ele>199.0</ele><time>2026-04-04T09:20:46.993Z</time></trkpt><trkpt lat="44.328005" lon="11.4833767"><ele>198.99999999999997</ele><time>2026-04-04T09:20:47.993Z</time></trkpt><trkpt lat="44.32792" lon="11.4833717"><ele>199.0</ele><time>2026-04-04T09:20:48.994Z</time></trkpt><trkpt lat="44.3278317" lon="11.48338"><ele>198.25</ele><time>2026-04-04T09:20:49.993Z</time></trkpt><trkpt lat="44.32774" lon="11.4834"><ele>197.5</ele><time>2026-04-04T09:20:50.995Z</time></trkpt><trkpt lat="44.3276367" lon="11.4834367"><ele>196.75</ele><time>2026-04-04T09:20:51.993Z</time></trkpt><trkpt lat="44.3274567" lon="11.48354"><ele>196.0</ele><time>2026-04-04T09:20:53.998Z</time></trkpt><trkpt lat="44.32737" lon="11.4835817"><ele>195.99999999999997</ele><time>2026-04-04T09:20:54.996Z</time></trkpt><trkpt lat="44.3272833" lon="11.4836133"><ele>196.0</ele><time>2026-04-04T09:20:55.995Z</time></trkpt><trkpt lat="44.3271967" lon="11.4836383"><ele>196.0</ele><time>2026-04-04T09:20:56.994Z</time></trkpt><trkpt lat="44.3271133" lon="11.48366"><ele>196.0</ele><time>2026-04-04T09:20:57.995Z</time></trkpt><trkpt lat="44.3270367" lon="11.4836733"><ele>195.99999999999997</ele><time>2026-04-04T09:20:58.994Z</time></trkpt><trkpt lat="44.3269667" lon="11.4836917"><ele>196.0</ele><time>2026-04-04T09:20:59.998Z</time></trkpt><trkpt lat="44.3268883" lon="11.4836817"><ele>195.60000000000002</ele><time>2026-04-04T09:21:00.994Z</time></trkpt><trkpt lat="44.3268083" lon="11.4836517"><ele>195.2</ele><time>2026-04-04T09:21:01.995Z</time></trkpt><trkpt lat="44.32673" lon="11.4836067"><ele>194.8</ele><time>2026-04-04T09:21:02.994Z</time></trkpt><trkpt lat="44.3266433" lon="11.4835567"><ele>194.39999999999998</ele><time>2026-04-04T09:21:03.994Z</time></trkpt><trkpt lat="44.3265583" lon="11.483495"><ele>194.0</ele><time>2026-04-04T09:21:04.995Z</time></trkpt><trkpt lat="44.326475" lon="11.4834333"><ele>193.79999999999998</ele><time>2026-04-04T09:21:05.995Z</time></trkpt><trkpt lat="44.3263867" lon="11.483365"><ele>193.6</ele><time>2026-04-04T09:21:06.995Z</time></trkpt><trkpt lat="44.32629" lon="11.4832883"><ele>193.4</ele><time>2026-04-04T09:21:07.993Z</time></trkpt><trkpt lat="44.3262083" lon="11.4832283"><ele>193.2</ele><time>2026-04-04T09:21:08.993Z</time></trkpt><trkpt lat="44.32612" lon="11.4831783"><ele>193.0</ele><time>2026-04-04T09:21:09.994Z</time></trkpt><trkpt lat="44.3260267" lon="11.483145"><ele>193.0</ele><time>2026-04-04T09:21:10.995Z</time></trkpt><trkpt lat="44.32593" lon="11.48313"><ele>193.0</ele><time>2026-04-04T09:21:11.994Z</time></trkpt><trkpt lat="44.3258433" lon="11.4831483"><ele>193.0</ele><time>2026-04-04T09:21:12.995Z</time></trkpt><trkpt lat="44.32565" lon="11.4832133"><ele>193.0</ele><time>2026-04-04T09:21:14.995Z</time></trkpt><trkpt lat="44.3255633" lon="11.483255"><ele>192.2</ele><time>2026-04-04T09:21:15.995Z</time></trkpt><trkpt lat="44.325475" lon="11.4832967"><ele>191.4</ele><time>2026-04-04T09:21:16.994Z</time></trkpt><trkpt lat="44.3253867" lon="11.48332"><ele>190.6</ele><time>2026-04-04T09:21:17.995Z</time></trkpt><trkpt lat="44.3253" lon="11.4833417"><ele>189.79999999999998</ele><time>2026-04-04T09:21:18.995Z</time></trkpt><trkpt lat="44.325195" lon="11.4833517"><ele>189.0</ele><time>2026-04-04T09:21:19.994Z</time></trkpt><trkpt lat="44.3250967" lon="11.4833767"><ele>189.0</ele><time>2026-04-04T09:21:20.993Z</time></trkpt><trkpt lat="44.3250033" lon="11.483415"><ele>189.0</ele><time>2026-04-04T09:21:21.995Z</time></trkpt><trkpt lat="44.3249083" lon="11.483445"><ele>189.0</ele><time>2026-04-04T09:21:22.994Z</time></trkpt><trkpt lat="44.324825" lon="11.48348"><ele>189.0</ele><time>2026-04-04T09:21:23.994Z</time></trkpt><trkpt lat="44.3247417" lon="11.4835233"><ele>189.0</ele><time>2026-04-04T09:21:24.994Z</time></trkpt><trkpt lat="44.3246683" lon="11.4835667"><ele>188.79999999999998</ele><time>2026-04-04T09:21:25.993Z</time></trkpt><trkpt lat="44.3246" lon="11.4836083"><ele>188.6</ele><time>2026-04-04T09:21:26.994Z</time></trkpt><trkpt lat="44.3244917" lon="11.4836583"><ele>188.4</ele><time>2026-04-04T09:21:28.994Z</time></trkpt><trkpt lat="44.324375" lon="11.4836633"><ele>188.2</ele><time>2026-04-04T09:21:30.993Z</time></trkpt><trkpt lat="44.3243017" lon="11.4836467"><ele>188.0</ele><time>2026-04-04T09:21:31.993Z</time></trkpt><trkpt lat="44.3242083" lon="11.48364"><ele>188.0</ele><time>2026-04-04T09:21:32.994Z</time></trkpt><trkpt lat="44.3241133" lon="11.4836333"><ele>188.0</ele><time>2026-04-04T09:21:33.993Z</time></trkpt><trkpt lat="44.3238933" lon="11.4836233"><ele>188.0</ele><time>2026-04-04T09:21:35.998Z</time></trkpt><trkpt lat="44.32377" lon="11.4836133"><ele>188.0</ele><time>2026-04-04T09:21:36.994Z</time></trkpt><trkpt lat="44.323645" lon="11.4836017"><ele>187.60000000000002</ele><time>2026-04-04T09:21:37.994Z</time></trkpt><trkpt lat="44.3235233" lon="11.48358"><ele>187.20000000000002</ele><time>2026-04-04T09:21:38.994Z</time></trkpt><trkpt lat="44.3234067" lon="11.483555"><ele>186.8</ele><time>2026-04-04T09:21:39.995Z</time></trkpt><trkpt lat="44.3233067" lon="11.483525"><ele>186.4</ele><time>2026-04-04T09:21:40.994Z</time></trkpt><trkpt lat="44.3232167" lon="11.4835117"><ele>186.0</ele><time>2026-04-04T09:21:41.994Z</time></trkpt><trkpt lat="44.3231217" lon="11.483515"><ele>186.0</ele><time>2026-04-04T09:21:42.994Z</time></trkpt><trkpt lat="44.323025" lon="11.4835267"><ele>186.0</ele><time>2026-04-04T09:21:43.994Z</time></trkpt><trkpt lat="44.3229283" lon="11.4835483"><ele>186.0</ele><time>2026-04-04T09:21:44.993Z</time></trkpt><trkpt lat="44.32284" lon="11.4835833"><ele>186.0</ele><time>2026-04-04T09:21:45.993Z</time></trkpt><trkpt lat="44.3227517" lon="11.4836217"><ele>186.0</ele><time>2026-04-04T09:21:46.993Z</time></trkpt><trkpt lat="44.3226667" lon="11.4836567"><ele>186.00000000000003</ele><time>2026-04-04T09:21:47.995Z</time></trkpt><trkpt lat="44.32259" lon="11.4836833"><ele>186.0</ele><time>2026-04-04T09:21:48.994Z</time></trkpt><trkpt lat="44.3225217" lon="11.4837167"><ele>186.0</ele><time>2026-04-04T09:21:49.994Z</time></trkpt><trkpt lat="44.3224617" lon="11.4837533"><ele>186.0</ele><time>2026-04-04T09:21:50.994Z</time></trkpt><trkpt lat="44.3224083" lon="11.4838033"><ele>186.0</ele><time>2026-04-04T09:21:51.993Z</time></trkpt><trkpt lat="44.32236" lon="11.48387"><ele>186.00000000000003</ele><time>2026-04-04T09:21:52.995Z</time></trkpt><trkpt lat="44.32232" lon="11.48396"><ele>186.0</ele><time>2026-04-04T09:21:53.994Z</time></trkpt><trkpt lat="44.3222933" lon="11.484065"><ele>185.20000000000002</ele><time>2026-04-04T09:21:54.994Z</time></trkpt><trkpt lat="44.32224" lon="11.48429"><ele>184.4</ele><time>2026-04-04T09:21:56.997Z</time></trkpt><trkpt lat="44.3221983" lon="11.4843933"><ele>183.6</ele><time>2026-04-04T09:21:57.993Z</time></trkpt><trkpt lat="44.3221483" lon="11.48449"><ele>182.8</ele><time>2026-04-04T09:21:58.993Z</time></trkpt><trkpt lat="44.32209" lon="11.4845883"><ele>182.0</ele><time>2026-04-04T09:21:59.993Z</time></trkpt><trkpt lat="44.3220167" lon="11.4846733"><ele>181.66666666666666</ele><time>2026-04-04T09:22:00.994Z</time></trkpt><trkpt lat="44.3219467" lon="11.484755"><ele>181.33333333333331</ele><time>2026-04-04T09:22:01.994Z</time></trkpt><trkpt lat="44.321885" lon="11.48482"><ele>181.0</ele><time>2026-04-04T09:22:02.995Z</time></trkpt><trkpt lat="44.3218233" lon="11.4848817"><ele>180.66666666666666</ele><time>2026-04-04T09:22:03.994Z</time></trkpt><trkpt lat="44.32175" lon="11.48494"><ele>180.33333333333334</ele><time>2026-04-04T09:22:04.995Z</time></trkpt><trkpt lat="44.32168" lon="11.4850167"><ele>180.0</ele><time>2026-04-04T09:22:05.994Z</time></trkpt><trkpt lat="44.3216133" lon="11.485095"><ele>180.0</ele><time>2026-04-04T09:22:06.994Z</time></trkpt><trkpt lat="44.32155" lon="11.485175"><ele>180.0</ele><time>2026-04-04T09:22:07.994Z</time></trkpt><trkpt lat="44.3214833" lon="11.4852483"><ele>180.0</ele><time>2026-04-04T09:22:08.996Z</time></trkpt><trkpt lat="44.321415" lon="11.4853133"><ele>180.0</ele><time>2026-04-04T09:22:09.998Z</time></trkpt><trkpt lat="44.3213467" lon="11.4853717"><ele>180.0</ele><time>2026-04-04T09:22:10.994Z</time></trkpt><trkpt lat="44.321275" lon="11.4854117"><ele>180.0</ele><time>2026-04-04T09:22:11.994Z</time></trkpt><trkpt lat="44.321205" lon="11.4854333"><ele>179.8</ele><time>2026-04-04T09:22:12.994Z</time></trkpt><trkpt lat="44.3211283" lon="11.48545"><ele>179.6</ele><time>2026-04-04T09:22:13.993Z</time></trkpt><trkpt lat="44.32105" lon="11.4854717"><ele>179.39999999999998</ele><time>2026-04-04T09:22:14.998Z</time></trkpt><trkpt lat="44.32097" lon="11.48548"><ele>179.2</ele><time>2026-04-04T09:22:15.993Z</time></trkpt><trkpt lat="44.3208367" lon="11.4854517"><ele>179.0</ele><time>2026-04-04T09:22:17.994Z</time></trkpt><trkpt lat="44.3207467" lon="11.4853667"><ele>178.33333333333331</ele><time>2026-04-04T09:22:19.995Z</time></trkpt><trkpt lat="44.320675" lon="11.4852733"><ele>177.66666666666666</ele><time>2026-04-04T09:22:21.996Z</time></trkpt><trkpt lat="44.3206267" lon="11.4852083"><ele>177.0</ele><time>2026-04-04T09:22:23.995Z</time></trkpt><trkpt lat="44.3205283" lon="11.485145"><ele>176.33333333333334</ele><time>2026-04-04T09:22:25.996Z</time></trkpt><trkpt lat="44.3204617" lon="11.48512"><ele>175.66666666666669</ele><time>2026-04-04T09:22:26.994Z</time></trkpt><trkpt lat="44.32036" lon="11.4850917"><ele>175.0</ele><time>2026-04-04T09:22:28.994Z</time></trkpt><trkpt lat="44.3202717" lon="11.4849133"><ele>174.6</ele><time>2026-04-04T09:22:40.994Z</time></trkpt><trkpt lat="44.32026" lon="11.4846783"><ele>174.2</ele><time>2026-04-04T09:22:42.995Z</time></trkpt><trkpt lat="44.3202567" lon="11.48458"><ele>173.8</ele><time>2026-04-04T09:22:43.994Z</time></trkpt><trkpt lat="44.3202233" lon="11.484455"><ele>173.4</ele><time>2026-04-04T09:22:45.994Z</time></trkpt><trkpt lat="44.3201367" lon="11.4844467"><ele>173.0</ele><time>2026-04-04T09:22:48.997Z</time></trkpt><trkpt lat="44.3201" lon="11.4845817"><ele>173.0</ele><time>2026-04-04T09:22:50.995Z</time></trkpt><trkpt lat="44.3200817" lon="11.484745"><ele>173.0</ele><time>2026-04-04T09:22:52.993Z</time></trkpt><trkpt lat="44.32009" lon="11.4848383"><ele>173.0</ele><time>2026-04-04T09:22:54.997Z</time></trkpt><trkpt lat="44.3202167" lon="11.48489"><ele>173.0</ele><time>2026-04-04T09:24:11.994Z</time></trkpt><trkpt lat="44.3197676" lon="11.4861952"><ele>171.33333333333331</ele><time>2026-04-04T09:26:08.995Z</time></trkpt><trkpt lat="44.3196304" lon="11.4865195"><ele>169.66666666666666</ele><time>2026-04-04T09:26:09.995Z</time></trkpt><trkpt lat="44.3195599" lon="11.486733"><ele>168.0</ele><time>2026-04-04T09:26:10.996Z</time></trkpt><trkpt lat="44.3195243" lon="11.4868693"><ele>168.0</ele><time>2026-04-04T09:26:11.994Z</time></trkpt><trkpt lat="44.3195001" lon="11.4869739"><ele>168.0</ele><time>2026-04-04T09:26:12.995Z</time></trkpt><trkpt lat="44.3194851" lon="11.4870625"><ele>168.0</ele><time>2026-04-04T09:26:13.995Z</time></trkpt><trkpt lat="44.3194697" lon="11.4872147"><ele>168.0</ele><time>2026-04-04T09:26:15.995Z</time></trkpt><trkpt lat="44.3194453" lon="11.4873933"><ele>168.0</ele><time>2026-04-04T09:26:17.995Z</time></trkpt><trkpt lat="44.3203733" lon="11.48507"><ele>169.25</ele><time>2026-04-04T09:30:10.995Z</time></trkpt><trkpt lat="44.3202444" lon="11.484965"><ele>170.5</ele><time>2026-04-04T09:30:26.995Z</time></trkpt><trkpt lat="44.3203455" lon="11.4849888"><ele>171.75</ele><time>2026-04-04T09:36:06Z</time></trkpt><trkpt lat="44.3204823" lon="11.4849307"><ele>173.0</ele><time>2026-04-04T09:36:12.995Z</time></trkpt><trkpt lat="44.3204012" lon="11.4849647"><ele>173.0</ele><time>2026-04-04T09:36:27.995Z</time></trkpt><trkpt lat="44.3202953" lon="11.4849258"><ele>173.0</ele><time>2026-04-04T09:37:24.997Z</time></trkpt><trkpt lat="44.3202281" lon="11.4850101"><ele>173.0</ele><time>2026-04-04T09:39:08.995Z</time></trkpt><trkpt lat="44.3202261" lon="11.4847917"><ele>173.0</ele><time>2026-04-04T10:10:31.997Z</time></trkpt><trkpt lat="44.320253" lon="11.4846014"><ele>172.83333333333331</ele><time>2026-04-04T10:10:34.998Z</time></trkpt><trkpt lat="44.3202521" lon="11.4844944"><ele>172.66666666666666</ele><time>2026-04-04T10:10:35.997Z</time></trkpt><trkpt lat="44.3202512" lon="11.4843952"><ele>172.5</ele><time>2026-04-04T10:10:36.998Z</time></trkpt><trkpt lat="44.3202515" lon="11.4842475"><ele>172.33333333333334</ele><time>2026-04-04T10:10:38.997Z</time></trkpt><trkpt lat="44.3202536" lon="11.4840829"><ele>172.16666666666669</ele><time>2026-04-04T10:10:41Z</time></trkpt><trkpt lat="44.3202473" lon="11.4839778"><ele>172.0</ele><time>2026-04-04T10:10:41.995Z</time></trkpt><trkpt lat="44.3202361" lon="11.4838721"><ele>172.00000000000003</ele><time>2026-04-04T10:10:42.998Z</time></trkpt><trkpt lat="44.320224" lon="11.4837751"><ele>172.0</ele><time>2026-04-04T10:10:44Z</time></trkpt><trkpt lat="44.3202119" lon="11.4836817"><ele>172.0</ele><time>2026-04-04T10:10:45.001Z</time></trkpt><trkpt lat="44.3201973" lon="11.4835911"><ele>172.0</ele><time>2026-04-04T10:10:45.999Z</time></trkpt><trkpt lat="44.3201785" lon="11.483498"><ele>172.0</ele><time>2026-04-04T10:10:47Z</time></trkpt><trkpt lat="44.3201571" lon="11.4834032"><ele>172.00000000000003</ele><time>2026-04-04T10:10:47.998Z</time></trkpt><trkpt lat="44.3201321" lon="11.4833094"><ele>172.0</ele><time>2026-04-04T10:10:48.998Z</time></trkpt><trkpt lat="44.3201039" lon="11.4832171"><ele>172.8</ele><time>2026-04-04T10:10:49.998Z</time></trkpt><trkpt lat="44.3200744" lon="11.483122"><ele>173.6</ele><time>2026-04-04T10:10:50.997Z</time></trkpt><trkpt lat="44.3200371" lon="11.4830163"><ele>174.4</ele><time>2026-04-04T10:10:51.998Z</time></trkpt><trkpt lat="44.3199904" lon="11.4829119"><ele>175.20000000000002</ele><time>2026-04-04T10:10:52.997Z</time></trkpt><trkpt lat="44.3198931" lon="11.4826946"><ele>176.0</ele><time>2026-04-04T10:10:54.998Z</time></trkpt><trkpt lat="44.3198446" lon="11.4825804"><ele>175.8</ele><time>2026-04-04T10:10:55.998Z</time></trkpt><trkpt lat="44.3197946" lon="11.4824628"><ele>175.60000000000002</ele><time>2026-04-04T10:10:56.998Z</time></trkpt><trkpt lat="44.3197455" lon="11.4823483"><ele>175.4</ele><time>2026-04-04T10:10:57.998Z</time></trkpt><trkpt lat="44.3196979" lon="11.4822347"><ele>175.2</ele><time>2026-04-04T10:10:58.998Z</time></trkpt><trkpt lat="44.3196494" lon="11.4821235"><ele>175.0</ele><time>2026-04-04T10:10:59.997Z</time></trkpt><trkpt lat="44.3195995" lon="11.4820044"><ele>175.0</ele><time>2026-04-04T10:11:00.999Z</time></trkpt><trkpt lat="44.3195455" lon="11.481887"><ele>175.0</ele><time>2026-04-04T10:11:01.997Z</time></trkpt><trkpt lat="44.3194917" lon="11.4817713"><ele>175.0</ele><time>2026-04-04T10:11:02.998Z</time></trkpt><trkpt lat="44.319432" lon="11.481656"><ele>175.0</ele><time>2026-04-04T10:11:03.997Z</time></trkpt><trkpt lat="44.3193718" lon="11.4815408"><ele>175.0</ele><time>2026-04-04T10:11:04.997Z</time></trkpt><trkpt lat="44.3193114" lon="11.4814256"><ele>175.0</ele><time>2026-04-04T10:11:05.999Z</time></trkpt><trkpt lat="44.3192499" lon="11.4813121"><ele>175.0</ele><time>2026-04-04T10:11:06.997Z</time></trkpt><trkpt lat="44.3191882" lon="11.4811951"><ele>175.0</ele><time>2026-04-04T10:11:07.998Z</time></trkpt><trkpt lat="44.3191289" lon="11.4810874"><ele>175.0</ele><time>2026-04-04T10:11:08.997Z</time></trkpt><trkpt lat="44.3190716" lon="11.4809797"><ele>175.0</ele><time>2026-04-04T10:11:09.998Z</time></trkpt><trkpt lat="44.3190187" lon="11.4808784"><ele>175.2</ele><time>2026-04-04T10:11:11.001Z</time></trkpt><trkpt lat="44.3189658" lon="11.4807813"><ele>175.4</ele><time>2026-04-04T10:11:11.996Z</time></trkpt><trkpt lat="44.3189086" lon="11.4806876"><ele>175.60000000000002</ele><time>2026-04-04T10:11:12.999Z</time></trkpt><trkpt lat="44.3188492" lon="11.4805949"><ele>175.8</ele><time>2026-04-04T10:11:13.998Z</time></trkpt><trkpt lat="44.318717" lon="11.4804224"><ele>176.0</ele><time>2026-04-04T10:11:15.998Z</time></trkpt><trkpt lat="44.3186537" lon="11.4803453"><ele>176.66666666666666</ele><time>2026-04-04T10:11:16.998Z</time></trkpt><trkpt lat="44.3185941" lon="11.4802722"><ele>177.33333333333331</ele><time>2026-04-04T10:11:17.997Z</time></trkpt><trkpt lat="44.3185402" lon="11.4802006"><ele>178.0</ele><time>2026-04-04T10:11:18.998Z</time></trkpt><trkpt lat="44.3184726" lon="11.4801348"><ele>178.66666666666666</ele><time>2026-04-04T10:11:19.997Z</time></trkpt><trkpt lat="44.3183987" lon="11.4800742"><ele>179.33333333333334</ele><time>2026-04-04T10:11:20.998Z</time></trkpt><trkpt lat="44.3183234" lon="11.4800161"><ele>180.0</ele><time>2026-04-04T10:11:21.998Z</time></trkpt><trkpt lat="44.3182452" lon="11.4799533"><ele>180.0</ele><time>2026-04-04T10:11:22.995Z</time></trkpt><trkpt lat="44.3181653" lon="11.479881"><ele>180.0</ele><time>2026-04-04T10:11:23.997Z</time></trkpt><trkpt lat="44.318089" lon="11.4798022"><ele>180.0</ele><time>2026-04-04T10:11:24.998Z</time></trkpt><trkpt lat="44.3180181" lon="11.4797216"><ele>180.0</ele><time>2026-04-04T10:11:25.998Z</time></trkpt><trkpt lat="44.3179551" lon="11.4796328"><ele>180.0</ele><time>2026-04-04T10:11:26.997Z</time></trkpt><trkpt lat="44.3178994" lon="11.4795323"><ele>179.16666666666666</ele><time>2026-04-04T10:11:27.997Z</time></trkpt><trkpt lat="44.3178505" lon="11.4794185"><ele>178.33333333333334</ele><time>2026-04-04T10:11:28.998Z</time></trkpt><trkpt lat="44.3178016" lon="11.479307"><ele>177.5</ele><time>2026-04-04T10:11:29.999Z</time></trkpt><trkpt lat="44.3177521" lon="11.4792055"><ele>176.66666666666669</ele><time>2026-04-04T10:11:30.999Z</time></trkpt><trkpt lat="44.3177025" lon="11.4791199"><ele>175.83333333333334</ele><time>2026-04-04T10:11:31.998Z</time></trkpt><trkpt lat="44.3176497" lon="11.4790437"><ele>175.0</ele><time>2026-04-04T10:11:32.998Z</time></trkpt><trkpt lat="44.3175859" lon="11.4789747"><ele>175.0</ele><time>2026-04-04T10:11:33.997Z</time></trkpt><trkpt lat="44.3175035" lon="11.4789023"><ele>175.0</ele><time>2026-04-04T10:11:34.997Z</time></trkpt><trkpt lat="44.317319" lon="11.4787419"><ele>175.0</ele><time>2026-04-04T10:11:36.997Z</time></trkpt><trkpt lat="44.3172194" lon="11.4786422"><ele>175.0</ele><time>2026-04-04T10:11:37.997Z</time></trkpt><trkpt lat="44.3171156" lon="11.4785247"><ele>175.25</ele><time>2026-04-04T10:11:38.998Z</time></trkpt><trkpt lat="44.3170151" lon="11.4783927"><ele>175.5</ele><time>2026-04-04T10:11:39.998Z</time></trkpt><trkpt lat="44.3169264" lon="11.4782445"><ele>175.75</ele><time>2026-04-04T10:11:40.997Z</time></trkpt><trkpt lat="44.3168479" lon="11.4780745"><ele>176.0</ele><time>2026-04-04T10:11:41.997Z</time></trkpt><trkpt lat="44.3167757" lon="11.4778907"><ele>177.25</ele><time>2026-04-04T10:11:42.999Z</time></trkpt><trkpt lat="44.3167034" lon="11.4777134"><ele>178.5</ele><time>2026-04-04T10:11:43.997Z</time></trkpt><trkpt lat="44.3166237" lon="11.4775551"><ele>179.75</ele><time>2026-04-04T10:11:44.997Z</time></trkpt><trkpt lat="44.3165301" lon="11.4774155"><ele>181.0</ele><time>2026-04-04T10:11:45.997Z</time></trkpt><trkpt lat="44.3164286" lon="11.4773014"><ele>180.75</ele><time>2026-04-04T10:11:46.997Z</time></trkpt><trkpt lat="44.3163244" lon="11.4772059"><ele>180.5</ele><time>2026-04-04T10:11:48Z</time></trkpt><trkpt lat="44.3162245" lon="11.4771237"><ele>180.25</ele><time>2026-04-04T10:11:48.997Z</time></trkpt><trkpt lat="44.3161296" lon="11.4770408"><ele>180.0</ele><time>2026-04-04T10:11:49.998Z</time></trkpt><trkpt lat="44.3160387" lon="11.4769427"><ele>180.0</ele><time>2026-04-04T10:11:50.997Z</time></trkpt><trkpt lat="44.3159547" lon="11.4768311"><ele>180.0</ele><time>2026-04-04T10:11:51.999Z</time></trkpt><trkpt lat="44.3158747" lon="11.4766959"><ele>180.0</ele><time>2026-04-04T10:11:52.998Z</time></trkpt><trkpt lat="44.3158022" lon="11.4765411"><ele>180.0</ele><time>2026-04-04T10:11:53.998Z</time></trkpt><trkpt lat="44.3157338" lon="11.4763618"><ele>176.5</ele><time>2026-04-04T10:11:54.998Z</time></trkpt><trkpt lat="44.315666" lon="11.4761724"><ele>173.0</ele><time>2026-04-04T10:11:55.995Z</time></trkpt><trkpt lat="44.3155241" lon="11.4757686"><ele>173.0</ele><time>2026-04-04T10:11:57.999Z</time></trkpt><trkpt lat="44.31545" lon="11.4755504"><ele>173.0</ele><time>2026-04-04T10:11:58.997Z</time></trkpt><trkpt lat="44.3153763" lon="11.4753258"><ele>173.0</ele><time>2026-04-04T10:11:59.998Z</time></trkpt><trkpt lat="44.3153088" lon="11.4751026"><ele>174.33333333333331</ele><time>2026-04-04T10:12:00.998Z</time></trkpt><trkpt lat="44.3152496" lon="11.4748853"><ele>175.66666666666666</ele><time>2026-04-04T10:12:01.996Z</time></trkpt><trkpt lat="44.3152004" lon="11.4746816"><ele>177.0</ele><time>2026-04-04T10:12:02.997Z</time></trkpt><trkpt lat="44.3151552" lon="11.4744834"><ele>178.5</ele><time>2026-04-04T10:12:03.997Z</time></trkpt><trkpt lat="44.3151096" lon="11.4742843"><ele>180.0</ele><time>2026-04-04T10:12:04.995Z</time></trkpt><trkpt lat="44.3150681" lon="11.4740875"><ele>181.5</ele><time>2026-04-04T10:12:05.998Z</time></trkpt><trkpt lat="44.3150403" lon="11.4738938"><ele>183.0</ele><time>2026-04-04T10:12:07Z</time></trkpt><trkpt lat="44.3150162" lon="11.4736995"><ele>184.0</ele><time>2026-04-04T10:12:07.998Z</time></trkpt><trkpt lat="44.3149949" lon="11.4735019"><ele>185.0</ele><time>2026-04-04T10:12:09Z</time></trkpt><trkpt lat="44.3149778" lon="11.4733055"><ele>186.0</ele><time>2026-04-04T10:12:10Z</time></trkpt><trkpt lat="44.314954" lon="11.4731267"><ele>187.0</ele><time>2026-04-04T10:12:11Z</time></trkpt><trkpt lat="44.3149267" lon="11.4729575"><ele>187.25</ele><time>2026-04-04T10:12:11.998Z</time></trkpt><trkpt lat="44.3148965" lon="11.4727974"><ele>187.5</ele><time>2026-04-04T10:12:12.998Z</time></trkpt><trkpt lat="44.3148511" lon="11.4726526"><ele>187.75</ele><time>2026-04-04T10:12:13.996Z</time></trkpt><trkpt lat="44.314797" lon="11.4725171"><ele>188.0</ele><time>2026-04-04T10:12:14.995Z</time></trkpt><trkpt lat="44.3147442" lon="11.4723806"><ele>184.0</ele><time>2026-04-04T10:12:15.998Z</time></trkpt><trkpt lat="44.3147053" lon="11.4722421"><ele>180.0</ele><time>2026-04-04T10:12:16.997Z</time></trkpt><trkpt lat="44.3146888" lon="11.4719342"><ele>176.0</ele><time>2026-04-04T10:12:18.998Z</time></trkpt><trkpt lat="44.3147044" lon="11.4717629"><ele>176.0</ele><time>2026-04-04T10:12:19.999Z</time></trkpt><trkpt lat="44.3147335" lon="11.4715797"><ele>176.0</ele><time>2026-04-04T10:12:20.997Z</time></trkpt><trkpt lat="44.3147762" lon="11.4713828"><ele>176.0</ele><time>2026-04-04T10:12:21.999Z</time></trkpt><trkpt lat="44.3148241" lon="11.4711857"><ele>176.0</ele><time>2026-04-04T10:12:22.997Z</time></trkpt><trkpt lat="44.314873" lon="11.4709887"><ele>179.33333333333331</ele><time>2026-04-04T10:12:23.998Z</time></trkpt><trkpt lat="44.3149228" lon="11.4707882"><ele>182.66666666666666</ele><time>2026-04-04T10:12:24.997Z</time></trkpt><trkpt lat="44.3149778" lon="11.4705802"><ele>186.0</ele><time>2026-04-04T10:12:25.997Z</time></trkpt><trkpt lat="44.3150296" lon="11.4703741"><ele>186.0</ele><time>2026-04-04T10:12:26.997Z</time></trkpt><trkpt lat="44.3150787" lon="11.4701794"><ele>186.0</ele><time>2026-04-04T10:12:27.997Z</time></trkpt><trkpt lat="44.3151247" lon="11.4699941"><ele>186.0</ele><time>2026-04-04T10:12:28.998Z</time></trkpt><trkpt lat="44.3151699" lon="11.4698223"><ele>186.0</ele><time>2026-04-04T10:12:30Z</time></trkpt><trkpt lat="44.3152122" lon="11.4696628"><ele>185.25</ele><time>2026-04-04T10:12:31Z</time></trkpt><trkpt lat="44.3152524" lon="11.4695167"><ele>184.5</ele><time>2026-04-04T10:12:32Z</time></trkpt><trkpt lat="44.315296" lon="11.4693675"><ele>183.75</ele><time>2026-04-04T10:12:32.997Z</time></trkpt><trkpt lat="44.315345" lon="11.4692084"><ele>183.0</ele><time>2026-04-04T10:12:33.996Z</time></trkpt><trkpt lat="44.3153991" lon="11.4690426"><ele>183.0</ele><time>2026-04-04T10:12:34.998Z</time></trkpt><trkpt lat="44.3154529" lon="11.4688728"><ele>183.0</ele><time>2026-04-04T10:12:35.998Z</time></trkpt><trkpt lat="44.3155054" lon="11.4687033"><ele>183.0</ele><time>2026-04-04T10:12:36.999Z</time></trkpt><trkpt lat="44.3155572" lon="11.4685415"><ele>183.0</ele><time>2026-04-04T10:12:37.997Z</time></trkpt><trkpt lat="44.3156327" lon="11.4682656"><ele>183.5</ele><time>2026-04-04T10:12:39.998Z</time></trkpt><trkpt lat="44.3156639" lon="11.468145"><ele>184.0</ele><time>2026-04-04T10:12:40.998Z</time></trkpt><trkpt lat="44.315685" lon="11.468033"><ele>184.5</ele><time>2026-04-04T10:12:42Z</time></trkpt><trkpt lat="44.3156948" lon="11.4679236"><ele>185.0</ele><time>2026-04-04T10:12:43Z</time></trkpt><trkpt lat="44.3156841" lon="11.4678118"><ele>185.5</ele><time>2026-04-04T10:12:44Z</time></trkpt><trkpt lat="44.3156614" lon="11.4676952"><ele>186.0</ele><time>2026-04-04T10:12:45Z</time></trkpt><trkpt lat="44.3156262" lon="11.467572"><ele>186.0</ele><time>2026-04-04T10:12:45.998Z</time></trkpt><trkpt lat="44.3155792" lon="11.4674442"><ele>186.0</ele><time>2026-04-04T10:12:47Z</time></trkpt><trkpt lat="44.3155322" lon="11.4673162"><ele>186.0</ele><time>2026-04-04T10:12:47.997Z</time></trkpt><trkpt lat="44.3154926" lon="11.4671863"><ele>186.0</ele><time>2026-04-04T10:12:48.998Z</time></trkpt><trkpt lat="44.3154686" lon="11.4670562"><ele>186.0</ele><time>2026-04-04T10:12:49.999Z</time></trkpt><trkpt lat="44.3154636" lon="11.4669219"><ele>185.75</ele><time>2026-04-04T10:12:50.998Z</time></trkpt><trkpt lat="44.3154729" lon="11.4667699"><ele>185.5</ele><time>2026-04-04T10:12:51.997Z</time></trkpt><trkpt lat="44.3154833" lon="11.4666017"><ele>185.25</ele><time>2026-04-04T10:12:52.996Z</time></trkpt><trkpt lat="44.3154892" lon="11.466433"><ele>185.0</ele><time>2026-04-04T10:12:53.998Z</time></trkpt><trkpt lat="44.315488" lon="11.4662772"><ele>185.0</ele><time>2026-04-04T10:12:55Z</time></trkpt><trkpt lat="44.3154803" lon="11.4661333"><ele>185.0</ele><time>2026-04-04T10:12:55.999Z</time></trkpt><trkpt lat="44.3154588" lon="11.4660003"><ele>185.0</ele><time>2026-04-04T10:12:56.996Z</time></trkpt><trkpt lat="44.3154192" lon="11.4658708"><ele>185.0</ele><time>2026-04-04T10:12:57.998Z</time></trkpt><trkpt lat="44.3153625" lon="11.465746"><ele>185.0</ele><time>2026-04-04T10:12:58.998Z</time></trkpt><trkpt lat="44.3151946" lon="11.4655026"><ele>187.0</ele><time>2026-04-04T10:13:00.996Z</time></trkpt><trkpt lat="44.3150886" lon="11.4653682"><ele>189.0</ele><time>2026-04-04T10:13:02Z</time></trkpt><trkpt lat="44.3149743" lon="11.4652301"><ele>191.0</ele><time>2026-04-04T10:13:02.998Z</time></trkpt><trkpt lat="44.3148532" lon="11.4650892"><ele>189.0</ele><time>2026-04-04T10:13:03.998Z</time></trkpt><trkpt lat="44.3147221" lon="11.4649609"><ele>187.0</ele><time>2026-04-04T10:13:04.997Z</time></trkpt><trkpt lat="44.3145836" lon="11.4648412"><ele>185.0</ele><time>2026-04-04T10:13:05.998Z</time></trkpt><trkpt lat="44.31444" lon="11.464725"><ele>185.0</ele><time>2026-04-04T10:13:06.999Z</time></trkpt><trkpt lat="44.3142943" lon="11.464613"><ele>185.0</ele><time>2026-04-04T10:13:08Z</time></trkpt><trkpt lat="44.3141447" lon="11.464497"><ele>185.0</ele><time>2026-04-04T10:13:08.997Z</time></trkpt><trkpt lat="44.3139963" lon="11.4643795"><ele>186.33333333333331</ele><time>2026-04-04T10:13:09.999Z</time></trkpt><trkpt lat="44.3138524" lon="11.4642641"><ele>187.66666666666666</ele><time>2026-04-04T10:13:11.001Z</time></trkpt><trkpt lat="44.3137025" lon="11.4641468"><ele>189.0</ele><time>2026-04-04T10:13:11.998Z</time></trkpt><trkpt lat="44.3135546" lon="11.4640319"><ele>189.0</ele><time>2026-04-04T10:13:13.001Z</time></trkpt><trkpt lat="44.3134034" lon="11.4639168"><ele>189.0</ele><time>2026-04-04T10:13:14Z</time></trkpt><trkpt lat="44.3132514" lon="11.4638049"><ele>189.0</ele><time>2026-04-04T10:13:15Z</time></trkpt><trkpt lat="44.3131007" lon="11.4636947"><ele>188.0</ele><time>2026-04-04T10:13:16Z</time></trkpt><trkpt lat="44.3129487" lon="11.4635838"><ele>187.0</ele><time>2026-04-04T10:13:17.001Z</time></trkpt><trkpt lat="44.3127942" lon="11.463475"><ele>186.0</ele><time>2026-04-04T10:13:17.997Z</time></trkpt><trkpt lat="44.3126387" lon="11.4633637"><ele>186.0</ele><time>2026-04-04T10:13:19Z</time></trkpt><trkpt lat="44.3124836" lon="11.4632488"><ele>186.0</ele><time>2026-04-04T10:13:19.997Z</time></trkpt><trkpt lat="44.3121718" lon="11.4629953"><ele>185.66666666666666</ele><time>2026-04-04T10:13:21.998Z</time></trkpt><trkpt lat="44.3120199" lon="11.462862"><ele>185.33333333333331</ele><time>2026-04-04T10:13:22.997Z</time></trkpt><trkpt lat="44.3118709" lon="11.462723"><ele>185.0</ele><time>2026-04-04T10:13:24Z</time></trkpt><trkpt lat="44.311727" lon="11.4625825"><ele>185.0</ele><time>2026-04-04T10:13:24.999Z</time></trkpt><trkpt lat="44.3115881" lon="11.4624469"><ele>185.0</ele><time>2026-04-04T10:13:25.999Z</time></trkpt><trkpt lat="44.3114551" lon="11.4623112"><ele>185.0</ele><time>2026-04-04T10:13:26.997Z</time></trkpt><trkpt lat="44.3113324" lon="11.4621854"><ele>185.0</ele><time>2026-04-04T10:13:27.998Z</time></trkpt><trkpt lat="44.3112212" lon="11.4620713"><ele>185.0</ele><time>2026-04-04T10:13:29Z</time></trkpt><trkpt lat="44.311119" lon="11.461967"><ele>185.0</ele><time>2026-04-04T10:13:29.998Z</time></trkpt><trkpt lat="44.3110283" lon="11.4618581"><ele>185.0</ele><time>2026-04-04T10:13:30.998Z</time></trkpt><trkpt lat="44.3109483" lon="11.4617461"><ele>185.0</ele><time>2026-04-04T10:13:31.997Z</time></trkpt><trkpt lat="44.3108816" lon="11.4616305"><ele>185.0</ele><time>2026-04-04T10:13:32.999Z</time></trkpt><trkpt lat="44.3108325" lon="11.461511"><ele>185.0</ele><time>2026-04-04T10:13:33.998Z</time></trkpt><trkpt lat="44.3107932" lon="11.4613723"><ele>185.0</ele><time>2026-04-04T10:13:34.999Z</time></trkpt><trkpt lat="44.3107735" lon="11.4612056"><ele>185.0</ele><time>2026-04-04T10:13:35.999Z</time></trkpt><trkpt lat="44.3107702" lon="11.4610212"><ele>186.0</ele><time>2026-04-04T10:13:36.998Z</time></trkpt><trkpt lat="44.3107695" lon="11.4608282"><ele>187.0</ele><time>2026-04-04T10:13:37.998Z</time></trkpt><trkpt lat="44.310766" lon="11.4606389"><ele>188.0</ele><time>2026-04-04T10:13:38.998Z</time></trkpt><trkpt lat="44.3107661" lon="11.4604542"><ele>189.0</ele><time>2026-04-04T10:13:39.999Z</time></trkpt><trkpt lat="44.3107681" lon="11.4602776"><ele>190.0</ele><time>2026-04-04T10:13:40.998Z</time></trkpt><trkpt lat="44.3107626" lon="11.4599657"><ele>191.0</ele><time>2026-04-04T10:13:42.998Z</time></trkpt><trkpt lat="44.3107525" lon="11.4598353"><ele>192.0</ele><time>2026-04-04T10:13:43.998Z</time></trkpt><trkpt lat="44.3107358" lon="11.4597226"><ele>193.0</ele><time>2026-04-04T10:13:44.998Z</time></trkpt><trkpt lat="44.3107133" lon="11.4596208"><ele>193.0</ele><time>2026-04-04T10:13:45.998Z</time></trkpt><trkpt lat="44.3106776" lon="11.4595237"><ele>193.0</ele><time>2026-04-04T10:13:46.995Z</time></trkpt><trkpt lat="44.3106307" lon="11.4594271"><ele>193.0</ele><time>2026-04-04T10:13:47.998Z</time></trkpt><trkpt lat="44.3105732" lon="11.4593214"><ele>193.0</ele><time>2026-04-04T10:13:48.998Z</time></trkpt><trkpt lat="44.3105014" lon="11.4591994"><ele>193.0</ele><time>2026-04-04T10:13:50.001Z</time></trkpt><trkpt lat="44.3104197" lon="11.4590572"><ele>192.75</ele><time>2026-04-04T10:13:51Z</time></trkpt><trkpt lat="44.3103399" lon="11.4589176"><ele>192.5</ele><time>2026-04-04T10:13:52.001Z</time></trkpt><trkpt lat="44.3102628" lon="11.4587889"><ele>192.25</ele><time>2026-04-04T10:13:52.999Z</time></trkpt><trkpt lat="44.310185" lon="11.4586608"><ele>192.0</ele><time>2026-04-04T10:13:53.997Z</time></trkpt><trkpt lat="44.3101034" lon="11.4585385"><ele>192.0</ele><time>2026-04-04T10:13:54.999Z</time></trkpt><trkpt lat="44.3100146" lon="11.4584225"><ele>192.0</ele><time>2026-04-04T10:13:55.997Z</time></trkpt><trkpt lat="44.3099223" lon="11.4583104"><ele>192.0</ele><time>2026-04-04T10:13:56.999Z</time></trkpt><trkpt lat="44.309823" lon="11.4582035"><ele>192.0</ele><time>2026-04-04T10:13:57.998Z</time></trkpt><trkpt lat="44.3097099" lon="11.458099"><ele>191.66666666666666</ele><time>2026-04-04T10:13:58.997Z</time></trkpt><trkpt lat="44.3095693" lon="11.4579898"><ele>191.33333333333331</ele><time>2026-04-04T10:13:59.998Z</time></trkpt><trkpt lat="44.3094064" lon="11.457885"><ele>191.0</ele><time>2026-04-04T10:14:01Z</time></trkpt><trkpt lat="44.30923" lon="11.4577815"><ele>191.0</ele><time>2026-04-04T10:14:01.999Z</time></trkpt><trkpt lat="44.308898" lon="11.4575888"><ele>191.0</ele><time>2026-04-04T10:14:03.998Z</time></trkpt><trkpt lat="44.3087588" lon="11.4574984"><ele>191.0</ele><time>2026-04-04T10:14:04.996Z</time></trkpt><trkpt lat="44.3086373" lon="11.4574166"><ele>191.0</ele><time>2026-04-04T10:14:05.998Z</time></trkpt><trkpt lat="44.3085306" lon="11.4573266"><ele>191.0</ele><time>2026-04-04T10:14:06.999Z</time></trkpt><trkpt lat="44.3084398" lon="11.4572264"><ele>191.0</ele><time>2026-04-04T10:14:07.999Z</time></trkpt><trkpt lat="44.3083626" lon="11.4571055"><ele>191.75</ele><time>2026-04-04T10:14:08.997Z</time></trkpt><trkpt lat="44.3082945" lon="11.4569607"><ele>192.5</ele><time>2026-04-04T10:14:09.997Z</time></trkpt><trkpt lat="44.3082366" lon="11.4567866"><ele>193.25</ele><time>2026-04-04T10:14:10.997Z</time></trkpt><trkpt lat="44.3081842" lon="11.4565784"><ele>194.0</ele><time>2026-04-04T10:14:11.998Z</time></trkpt><trkpt lat="44.3081236" lon="11.4563271"><ele>193.5</ele><time>2026-04-04T10:14:12.998Z</time></trkpt><trkpt lat="44.3080443" lon="11.4560431"><ele>193.0</ele><time>2026-04-04T10:14:13.998Z</time></trkpt><trkpt lat="44.307954" lon="11.4557426"><ele>195.0</ele><time>2026-04-04T10:14:14.996Z</time></trkpt><trkpt lat="44.3078586" lon="11.4554446"><ele>197.0</ele><time>2026-04-04T10:14:15.998Z</time></trkpt><trkpt lat="44.3077628" lon="11.4551621"><ele>197.0</ele><time>2026-04-04T10:14:16.997Z</time></trkpt><trkpt lat="44.307671" lon="11.4548973"><ele>197.0</ele><time>2026-04-04T10:14:17.996Z</time></trkpt><trkpt lat="44.3075844" lon="11.4546464"><ele>197.0</ele><time>2026-04-04T10:14:18.999Z</time></trkpt><trkpt lat="44.3074925" lon="11.454404"><ele>197.33333333333334</ele><time>2026-04-04T10:14:19.996Z</time></trkpt><trkpt lat="44.3073926" lon="11.4541712"><ele>197.66666666666669</ele><time>2026-04-04T10:14:20.996Z</time></trkpt><trkpt lat="44.3072955" lon="11.4539473"><ele>198.0</ele><time>2026-04-04T10:14:21.998Z</time></trkpt><trkpt lat="44.3072068" lon="11.4537416"><ele>198.0</ele><time>2026-04-04T10:14:22.996Z</time></trkpt><trkpt lat="44.3070588" lon="11.4533838"><ele>198.0</ele><time>2026-04-04T10:14:24.997Z</time></trkpt><trkpt lat="44.3069935" lon="11.4532303"><ele>198.0</ele><time>2026-04-04T10:14:25.996Z</time></trkpt><trkpt lat="44.3069239" lon="11.4531018"><ele>198.0</ele><time>2026-04-04T10:14:26.997Z</time></trkpt><trkpt lat="44.3068408" lon="11.4529915"><ele>198.0</ele><time>2026-04-04T10:14:27.996Z</time></trkpt><trkpt lat="44.3067426" lon="11.4528902"><ele>198.0</ele><time>2026-04-04T10:14:28.996Z</time></trkpt><trkpt lat="44.3066285" lon="11.4527874"><ele>198.0</ele><time>2026-04-04T10:14:29.996Z</time></trkpt><trkpt lat="44.3065094" lon="11.4526866"><ele>198.0</ele><time>2026-04-04T10:14:30.997Z</time></trkpt><trkpt lat="44.3064015" lon="11.4525846"><ele>198.0</ele><time>2026-04-04T10:14:31.996Z</time></trkpt><trkpt lat="44.3063086" lon="11.4524802"><ele>198.0</ele><time>2026-04-04T10:14:32.996Z</time></trkpt><trkpt lat="44.306228" lon="11.4523636"><ele>198.0</ele><time>2026-04-04T10:14:33.998Z</time></trkpt><trkpt lat="44.3061631" lon="11.4522329"><ele>199.25</ele><time>2026-04-04T10:14:34.996Z</time></trkpt><trkpt lat="44.306105" lon="11.4520824"><ele>200.5</ele><time>2026-04-04T10:14:35.996Z</time></trkpt><trkpt lat="44.3060526" lon="11.4519127"><ele>201.75</ele><time>2026-04-04T10:14:36.997Z</time></trkpt><trkpt lat="44.3060039" lon="11.4517313"><ele>203.0</ele><time>2026-04-04T10:14:37.996Z</time></trkpt><trkpt lat="44.3059457" lon="11.4515533"><ele>203.0</ele><time>2026-04-04T10:14:38.997Z</time></trkpt><trkpt lat="44.3058789" lon="11.4513915"><ele>203.0</ele><time>2026-04-04T10:14:39.997Z</time></trkpt><trkpt lat="44.3058008" lon="11.4512487"><ele>203.0</ele><time>2026-04-04T10:14:40.996Z</time></trkpt><trkpt lat="44.3057055" lon="11.4511159"><ele>203.0</ele><time>2026-04-04T10:14:41.996Z</time></trkpt><trkpt lat="44.3055884" lon="11.4509947"><ele>203.0</ele><time>2026-04-04T10:14:42.997Z</time></trkpt><trkpt lat="44.3054581" lon="11.4508809"><ele>203.0</ele><time>2026-04-04T10:14:43.997Z</time></trkpt><trkpt lat="44.3051889" lon="11.4507067"><ele>203.0</ele><time>2026-04-04T10:14:45.999Z</time></trkpt><trkpt lat="44.305062" lon="11.4506395"><ele>203.0</ele><time>2026-04-04T10:14:46.996Z</time></trkpt><trkpt lat="44.3049414" lon="11.4505729"><ele>203.0</ele><time>2026-04-04T10:14:47.996Z</time></trkpt><trkpt lat="44.3048203" lon="11.4504937"><ele>203.0</ele><time>2026-04-04T10:14:48.999Z</time></trkpt><trkpt lat="44.3047039" lon="11.4504018"><ele>205.0</ele><time>2026-04-04T10:14:49.996Z</time></trkpt><trkpt lat="44.3045873" lon="11.4502931"><ele>207.0</ele><time>2026-04-04T10:14:50.995Z</time></trkpt><trkpt lat="44.3044627" lon="11.4501653"><ele>209.0</ele><time>2026-04-04T10:14:51.996Z</time></trkpt><trkpt lat="44.3043346" lon="11.4500294"><ele>209.0</ele><time>2026-04-04T10:14:52.997Z</time></trkpt><trkpt lat="44.304208" lon="11.4499009"><ele>209.0</ele><time>2026-04-04T10:14:53.999Z</time></trkpt><trkpt lat="44.3040855" lon="11.4497854"><ele>209.0</ele><time>2026-04-04T10:14:54.997Z</time></trkpt><trkpt lat="44.3039666" lon="11.4496814"><ele>209.0</ele><time>2026-04-04T10:14:55.996Z</time></trkpt><trkpt lat="44.3038544" lon="11.449581"><ele>209.25</ele><time>2026-04-04T10:14:56.997Z</time></trkpt><trkpt lat="44.3037503" lon="11.449489"><ele>209.5</ele><time>2026-04-04T10:14:57.997Z</time></trkpt><trkpt lat="44.3036479" lon="11.4493983"><ele>209.75</ele><time>2026-04-04T10:14:58.995Z</time></trkpt><trkpt lat="44.303545" lon="11.4492936"><ele>210.0</ele><time>2026-04-04T10:14:59.995Z</time></trkpt><trkpt lat="44.3034498" lon="11.4491767"><ele>210.0</ele><time>2026-04-04T10:15:00.997Z</time></trkpt><trkpt lat="44.303362" lon="11.449044"><ele>210.0</ele><time>2026-04-04T10:15:01.996Z</time></trkpt><trkpt lat="44.3032809" lon="11.4489105"><ele>210.0</ele><time>2026-04-04T10:15:02.996Z</time></trkpt><trkpt lat="44.3032041" lon="11.448786"><ele>210.0</ele><time>2026-04-04T10:15:03.997Z</time></trkpt><trkpt lat="44.3031295" lon="11.4486887"><ele>209.75</ele><time>2026-04-04T10:15:04.996Z</time></trkpt><trkpt lat="44.3029672" lon="11.4485603"><ele>209.5</ele><time>2026-04-04T10:15:06.998Z</time></trkpt><trkpt lat="44.3028808" lon="11.4485137"><ele>209.25</ele><time>2026-04-04T10:15:07.995Z</time></trkpt><trkpt lat="44.3027892" lon="11.448489"><ele>209.0</ele><time>2026-04-04T10:15:08.997Z</time></trkpt><trkpt lat="44.3026849" lon="11.4484864"><ele>209.0</ele><time>2026-04-04T10:15:09.997Z</time></trkpt><trkpt lat="44.3025613" lon="11.4485172"><ele>209.0</ele><time>2026-04-04T10:15:10.999Z</time></trkpt><trkpt lat="44.3024233" lon="11.4485867"><ele>209.0</ele><time>2026-04-04T10:15:11.997Z</time></trkpt><trkpt lat="44.3023" lon="11.44865"><ele>209.0</ele><time>2026-04-04T10:15:12.998Z</time></trkpt><trkpt lat="44.3021867" lon="11.448705"><ele>209.33333333333334</ele><time>2026-04-04T10:15:13.996Z</time></trkpt><trkpt lat="44.30209" lon="11.4487533"><ele>209.66666666666669</ele><time>2026-04-04T10:15:14.997Z</time></trkpt><trkpt lat="44.302005" lon="11.4487833"><ele>210.0</ele><time>2026-04-04T10:15:15.996Z</time></trkpt><trkpt lat="44.3019283" lon="11.4487983"><ele>210.33333333333331</ele><time>2026-04-04T10:15:16.994Z</time></trkpt><trkpt lat="44.3018617" lon="11.448785"><ele>210.66666666666666</ele><time>2026-04-04T10:15:17.994Z</time></trkpt><trkpt lat="44.3018067" lon="11.448735"><ele>211.0</ele><time>2026-04-04T10:15:18.996Z</time></trkpt><trkpt lat="44.3017333" lon="11.4486333"><ele>211.0</ele><time>2026-04-04T10:15:19.996Z</time></trkpt><trkpt lat="44.3016533" lon="11.4485167"><ele>211.0</ele><time>2026-04-04T10:15:20.996Z</time></trkpt><trkpt lat="44.3015433" lon="11.448355"><ele>211.0</ele><time>2026-04-04T10:15:21.998Z</time></trkpt><trkpt lat="44.30144" lon="11.4482117"><ele>211.0</ele><time>2026-04-04T10:15:22.996Z</time></trkpt><trkpt lat="44.30133" lon="11.44807"><ele>211.0</ele><time>2026-04-04T10:15:23.996Z</time></trkpt><trkpt lat="44.301215" lon="11.4479383"><ele>211.0</ele><time>2026-04-04T10:15:24.996Z</time></trkpt><trkpt lat="44.3011033" lon="11.4478267"><ele>211.0</ele><time>2026-04-04T10:15:25.995Z</time></trkpt><trkpt lat="44.30088" lon="11.4476183"><ele>211.0</ele><time>2026-04-04T10:15:27.996Z</time></trkpt><trkpt lat="44.300765" lon="11.447525"><ele>211.0</ele><time>2026-04-04T10:15:28.997Z</time></trkpt><trkpt lat="44.30064" lon="11.44743"><ele>211.0</ele><time>2026-04-04T10:15:29.997Z</time></trkpt><trkpt lat="44.3005067" lon="11.44734"><ele>211.0</ele><time>2026-04-04T10:15:30.995Z</time></trkpt><trkpt lat="44.3003583" lon="11.447255"><ele>211.0</ele><time>2026-04-04T10:15:31.997Z</time></trkpt><trkpt lat="44.3002133" lon="11.4471917"><ele>211.0</ele><time>2026-04-04T10:15:32.997Z</time></trkpt><trkpt lat="44.3000783" lon="11.4471317"><ele>211.0</ele><time>2026-04-04T10:15:33.997Z</time></trkpt><trkpt lat="44.2999517" lon="11.4470683"><ele>211.0</ele><time>2026-04-04T10:15:34.995Z</time></trkpt><trkpt lat="44.299835" lon="11.4470083"><ele>211.25</ele><time>2026-04-04T10:15:35.997Z</time></trkpt><trkpt lat="44.2997167" lon="11.446955"><ele>211.5</ele><time>2026-04-04T10:15:36.997Z</time></trkpt><trkpt lat="44.2995967" lon="11.44692"><ele>211.75</ele><time>2026-04-04T10:15:37.997Z</time></trkpt><trkpt lat="44.299475" lon="11.446905"><ele>212.0</ele><time>2026-04-04T10:15:38.999Z</time></trkpt><trkpt lat="44.2993567" lon="11.4469"><ele>212.0</ele><time>2026-04-04T10:15:39.996Z</time></trkpt><trkpt lat="44.29924" lon="11.44688"><ele>212.0</ele><time>2026-04-04T10:15:40.996Z</time></trkpt><trkpt lat="44.299125" lon="11.4468383"><ele>212.0</ele><time>2026-04-04T10:15:41.997Z</time></trkpt><trkpt lat="44.2990167" lon="11.44678"><ele>212.0</ele><time>2026-04-04T10:15:42.997Z</time></trkpt><trkpt lat="44.29891" lon="11.4467033"><ele>212.25</ele><time>2026-04-04T10:15:43.996Z</time></trkpt><trkpt lat="44.2988117" lon="11.4466283"><ele>212.5</ele><time>2026-04-04T10:15:44.996Z</time></trkpt><trkpt lat="44.2987167" lon="11.4465667"><ele>212.75</ele><time>2026-04-04T10:15:45.997Z</time></trkpt><trkpt lat="44.298615" lon="11.4465367"><ele>213.0</ele><time>2026-04-04T10:15:46.997Z</time></trkpt><trkpt lat="44.2983883" lon="11.44657"><ele>213.0</ele><time>2026-04-04T10:15:49Z</time></trkpt><trkpt lat="44.2982567" lon="11.4466233"><ele>213.0</ele><time>2026-04-04T10:15:49.999Z</time></trkpt><trkpt lat="44.2981167" lon="11.446685"><ele>213.0</ele><time>2026-04-04T10:15:50.997Z</time></trkpt><trkpt lat="44.297975" lon="11.4467467"><ele>213.0</ele><time>2026-04-04T10:15:51.997Z</time></trkpt><trkpt lat="44.2978417" lon="11.4468"><ele>212.75</ele><time>2026-04-04T10:15:52.995Z</time></trkpt><trkpt lat="44.2977117" lon="11.446835"><ele>212.5</ele><time>2026-04-04T10:15:53.996Z</time></trkpt><trkpt lat="44.2975867" lon="11.4468533"><ele>212.25</ele><time>2026-04-04T10:15:54.996Z</time></trkpt><trkpt lat="44.297465" lon="11.4468517"><ele>212.0</ele><time>2026-04-04T10:15:55.997Z</time></trkpt><trkpt lat="44.29736" lon="11.44683"><ele>212.00000000000003</ele><time>2026-04-04T10:15:56.996Z</time></trkpt><trkpt lat="44.2972733" lon="11.4468133"><ele>212.0</ele><time>2026-04-04T10:15:57.997Z</time></trkpt><trkpt lat="44.2971867" lon="11.4468183"><ele>212.0</ele><time>2026-04-04T10:15:58.996Z</time></trkpt><trkpt lat="44.297105" lon="11.4468517"><ele>212.0</ele><time>2026-04-04T10:15:59.998Z</time></trkpt><trkpt lat="44.2970367" lon="11.4469333"><ele>212.00000000000003</ele><time>2026-04-04T10:16:00.998Z</time></trkpt><trkpt lat="44.2969717" lon="11.4470317"><ele>212.0</ele><time>2026-04-04T10:16:01.996Z</time></trkpt><trkpt lat="44.2969033" lon="11.4471267"><ele>214.8</ele><time>2026-04-04T10:16:02.997Z</time></trkpt><trkpt lat="44.2968233" lon="11.447205"><ele>217.6</ele><time>2026-04-04T10:16:03.996Z</time></trkpt><trkpt lat="44.2967367" lon="11.4472683"><ele>220.40000000000003</ele><time>2026-04-04T10:16:04.996Z</time></trkpt><trkpt lat="44.2966317" lon="11.4472983"><ele>223.20000000000002</ele><time>2026-04-04T10:16:05.997Z</time></trkpt><trkpt lat="44.296525" lon="11.4473067"><ele>226.0</ele><time>2026-04-04T10:16:06.997Z</time></trkpt><trkpt lat="44.296415" lon="11.4472983"><ele>227.0</ele><time>2026-04-04T10:16:07.997Z</time></trkpt><trkpt lat="44.2962233" lon="11.4472533"><ele>228.0</ele><time>2026-04-04T10:16:09.997Z</time></trkpt><trkpt lat="44.2961217" lon="11.447205"><ele>229.0</ele><time>2026-04-04T10:16:10.994Z</time></trkpt><trkpt lat="44.296015" lon="11.447135"><ele>230.0</ele><time>2026-04-04T10:16:11.996Z</time></trkpt><trkpt lat="44.2958983" lon="11.447055"><ele>227.25</ele><time>2026-04-04T10:16:12.997Z</time></trkpt><trkpt lat="44.2957817" lon="11.4469867"><ele>224.5</ele><time>2026-04-04T10:16:13.998Z</time></trkpt><trkpt lat="44.2956717" lon="11.446935"><ele>221.75</ele><time>2026-04-04T10:16:14.996Z</time></trkpt><trkpt lat="44.295565" lon="11.4469033"><ele>219.0</ele><time>2026-04-04T10:16:15.997Z</time></trkpt><trkpt lat="44.2954633" lon="11.4468967"><ele>219.0</ele><time>2026-04-04T10:16:16.996Z</time></trkpt><trkpt lat="44.2953667" lon="11.4469117"><ele>218.99999999999997</ele><time>2026-04-04T10:16:17.996Z</time></trkpt><trkpt lat="44.2952733" lon="11.4469467"><ele>218.99999999999997</ele><time>2026-04-04T10:16:18.998Z</time></trkpt><trkpt lat="44.2951867" lon="11.447015"><ele>219.0</ele><time>2026-04-04T10:16:19.997Z</time></trkpt><trkpt lat="44.2950933" lon="11.447115"><ele>219.0</ele><time>2026-04-04T10:16:20.999Z</time></trkpt><trkpt lat="44.2949883" lon="11.4472367"><ele>219.5</ele><time>2026-04-04T10:16:21.996Z</time></trkpt><trkpt lat="44.2948717" lon="11.4473717"><ele>220.0</ele><time>2026-04-04T10:16:22.998Z</time></trkpt><trkpt lat="44.2947583" lon="11.4475083"><ele>220.5</ele><time>2026-04-04T10:16:23.999Z</time></trkpt><trkpt lat="44.2946517" lon="11.447645"><ele>221.0</ele><time>2026-04-04T10:16:24.999Z</time></trkpt><trkpt lat="44.2945617" lon="11.4477683"><ele>221.0</ele><time>2026-04-04T10:16:25.998Z</time></trkpt><trkpt lat="44.2944767" lon="11.447885"><ele>221.0</ele><time>2026-04-04T10:16:26.997Z</time></trkpt><trkpt lat="44.294395" lon="11.447985"><ele>221.0</ele><time>2026-04-04T10:16:27.998Z</time></trkpt><trkpt lat="44.2942983" lon="11.44807"><ele>221.0</ele><time>2026-04-04T10:16:28.997Z</time></trkpt><trkpt lat="44.29408" lon="11.4481783"><ele>222.8</ele><time>2026-04-04T10:16:30.997Z</time></trkpt><trkpt lat="44.293975" lon="11.4482083"><ele>224.60000000000002</ele><time>2026-04-04T10:16:31.997Z</time></trkpt><trkpt lat="44.2938817" lon="11.4482233"><ele>226.4</ele><time>2026-04-04T10:16:32.997Z</time></trkpt><trkpt lat="44.2937933" lon="11.4482133"><ele>228.2</ele><time>2026-04-04T10:16:33.998Z</time></trkpt><trkpt lat="44.29371" lon="11.4481833"><ele>230.0</ele><time>2026-04-04T10:16:34.997Z</time></trkpt><trkpt lat="44.29363" lon="11.4481333"><ele>230.0</ele><time>2026-04-04T10:16:35.996Z</time></trkpt><trkpt lat="44.293555" lon="11.448055"><ele>230.0</ele><time>2026-04-04T10:16:36.997Z</time></trkpt><trkpt lat="44.293485" lon="11.4479633"><ele>230.0</ele><time>2026-04-04T10:16:37.997Z</time></trkpt><trkpt lat="44.2934117" lon="11.4478817"><ele>230.0</ele><time>2026-04-04T10:16:38.997Z</time></trkpt><trkpt lat="44.293335" lon="11.44782"><ele>230.0</ele><time>2026-04-04T10:16:39.996Z</time></trkpt><trkpt lat="44.2932533" lon="11.4477967"><ele>229.6</ele><time>2026-04-04T10:16:40.997Z</time></trkpt><trkpt lat="44.293175" lon="11.4478017"><ele>229.2</ele><time>2026-04-04T10:16:41.996Z</time></trkpt><trkpt lat="44.29309" lon="11.4478533"><ele>228.8</ele><time>2026-04-04T10:16:42.998Z</time></trkpt><trkpt lat="44.2930067" lon="11.4479383"><ele>228.4</ele><time>2026-04-04T10:16:43.998Z</time></trkpt><trkpt lat="44.29292" lon="11.44805"><ele>228.0</ele><time>2026-04-04T10:16:45Z</time></trkpt><trkpt lat="44.2928367" lon="11.4481867"><ele>228.0</ele><time>2026-04-04T10:16:45.997Z</time></trkpt><trkpt lat="44.29275" lon="11.4483233"><ele>228.0</ele><time>2026-04-04T10:16:46.995Z</time></trkpt><trkpt lat="44.292675" lon="11.448445"><ele>228.0</ele><time>2026-04-04T10:16:47.996Z</time></trkpt><trkpt lat="44.29261" lon="11.4485383"><ele>228.0</ele><time>2026-04-04T10:16:48.998Z</time></trkpt><trkpt lat="44.292545" lon="11.4485983"><ele>228.0</ele><time>2026-04-04T10:16:49.997Z</time></trkpt><trkpt lat="44.29239" lon="11.4486367"><ele>228.0</ele><time>2026-04-04T10:16:51.998Z</time></trkpt><trkpt lat="44.292295" lon="11.448615"><ele>228.0</ele><time>2026-04-04T10:16:52.996Z</time></trkpt><trkpt lat="44.292175" lon="11.44855"><ele>228.0</ele><time>2026-04-04T10:16:53.996Z</time></trkpt><trkpt lat="44.29203" lon="11.44848"><ele>228.0</ele><time>2026-04-04T10:16:54.999Z</time></trkpt><trkpt lat="44.2918867" lon="11.44842"><ele>229.0</ele><time>2026-04-04T10:16:55.996Z</time></trkpt><trkpt lat="44.2917583" lon="11.4483767"><ele>230.0</ele><time>2026-04-04T10:16:56.997Z</time></trkpt><trkpt lat="44.2916333" lon="11.4483517"><ele>231.0</ele><time>2026-04-04T10:16:58Z</time></trkpt><trkpt lat="44.2915033" lon="11.4483467"><ele>232.0</ele><time>2026-04-04T10:16:58.999Z</time></trkpt><trkpt lat="44.291365" lon="11.4483517"><ele>232.0</ele><time>2026-04-04T10:16:59.997Z</time></trkpt><trkpt lat="44.2912217" lon="11.4483583"><ele>232.0</ele><time>2026-04-04T10:17:00.996Z</time></trkpt><trkpt lat="44.2910817" lon="11.4483683"><ele>232.0</ele><time>2026-04-04T10:17:01.996Z</time></trkpt><trkpt lat="44.2909567" lon="11.4483783"><ele>232.0</ele><time>2026-04-04T10:17:02.997Z</time></trkpt><trkpt lat="44.2908417" lon="11.4484"><ele>232.0</ele><time>2026-04-04T10:17:03.995Z</time></trkpt><trkpt lat="44.29073" lon="11.4484383"><ele>232.0</ele><time>2026-04-04T10:17:04.994Z</time></trkpt><trkpt lat="44.29062" lon="11.4484933"><ele>232.0</ele><time>2026-04-04T10:17:05.996Z</time></trkpt><trkpt lat="44.290515" lon="11.44857"><ele>232.0</ele><time>2026-04-04T10:17:06.999Z</time></trkpt><trkpt lat="44.290405" lon="11.448665"><ele>232.0</ele><time>2026-04-04T10:17:07.996Z</time></trkpt><trkpt lat="44.2902983" lon="11.4487767"><ele>232.0</ele><time>2026-04-04T10:17:09Z</time></trkpt><trkpt lat="44.2902" lon="11.4488867"><ele>232.0</ele><time>2026-04-04T10:17:09.996Z</time></trkpt><trkpt lat="44.2901033" lon="11.4489867"><ele>232.0</ele><time>2026-04-04T10:17:10.999Z</time></trkpt><trkpt lat="44.28989" lon="11.44914"><ele>232.75</ele><time>2026-04-04T10:17:12.998Z</time></trkpt><trkpt lat="44.2897567" lon="11.4491933"><ele>233.5</ele><time>2026-04-04T10:17:13.994Z</time></trkpt><trkpt lat="44.28961" lon="11.44924"><ele>234.25</ele><time>2026-04-04T10:17:14.997Z</time></trkpt><trkpt lat="44.2894533" lon="11.4492767"><ele>235.0</ele><time>2026-04-04T10:17:15.996Z</time></trkpt><trkpt lat="44.2892917" lon="11.4492983"><ele>235.0</ele><time>2026-04-04T10:17:16.997Z</time></trkpt><trkpt lat="44.2891317" lon="11.4493117"><ele>235.0</ele><time>2026-04-04T10:17:17.997Z</time></trkpt><trkpt lat="44.28899" lon="11.4493217"><ele>235.0</ele><time>2026-04-04T10:17:18.998Z</time></trkpt><trkpt lat="44.2888517" lon="11.44933"><ele>235.0</ele><time>2026-04-04T10:17:19.998Z</time></trkpt><trkpt lat="44.2887217" lon="11.4493517"><ele>235.0</ele><time>2026-04-04T10:17:20.996Z</time></trkpt><trkpt lat="44.2885867" lon="11.449385"><ele>235.0</ele><time>2026-04-04T10:17:21.996Z</time></trkpt><trkpt lat="44.2884517" lon="11.4494417"><ele>235.0</ele><time>2026-04-04T10:17:22.995Z</time></trkpt><trkpt lat="44.288315" lon="11.4495083"><ele>235.0</ele><time>2026-04-04T10:17:23.996Z</time></trkpt><trkpt lat="44.2881917" lon="11.44958"><ele>235.5</ele><time>2026-04-04T10:17:24.999Z</time></trkpt><trkpt lat="44.2880767" lon="11.44965"><ele>236.0</ele><time>2026-04-04T10:17:25.996Z</time></trkpt><trkpt lat="44.287965" lon="11.4497083"><ele>236.5</ele><time>2026-04-04T10:17:26.997Z</time></trkpt><trkpt lat="44.28786" lon="11.4497533"><ele>237.0</ele><time>2026-04-04T10:17:27.997Z</time></trkpt><trkpt lat="44.287755" lon="11.4498"><ele>237.0</ele><time>2026-04-04T10:17:28.996Z</time></trkpt><trkpt lat="44.28766" lon="11.4498683"><ele>237.0</ele><time>2026-04-04T10:17:29.996Z</time></trkpt><trkpt lat="44.2875833" lon="11.4499767"><ele>237.0</ele><time>2026-04-04T10:17:30.999Z</time></trkpt><trkpt lat="44.2875167" lon="11.450115"><ele>237.0</ele><time>2026-04-04T10:17:31.999Z</time></trkpt><trkpt lat="44.2873867" lon="11.4504617"><ele>237.25</ele><time>2026-04-04T10:17:33.997Z</time></trkpt><trkpt lat="44.2873217" lon="11.4506383"><ele>237.5</ele><time>2026-04-04T10:17:34.997Z</time></trkpt><trkpt lat="44.2872583" lon="11.4508017"><ele>237.75</ele><time>2026-04-04T10:17:35.998Z</time></trkpt><trkpt lat="44.2872" lon="11.4509417"><ele>238.0</ele><time>2026-04-04T10:17:36.998Z</time></trkpt><trkpt lat="44.287135" lon="11.451075"><ele>238.0</ele><time>2026-04-04T10:17:37.998Z</time></trkpt><trkpt lat="44.2870617" lon="11.4511983"><ele>238.0</ele><time>2026-04-04T10:17:38.996Z</time></trkpt><trkpt lat="44.2869783" lon="11.4512917"><ele>238.0</ele><time>2026-04-04T10:17:39.997Z</time></trkpt><trkpt lat="44.28689" lon="11.4513617"><ele>238.0</ele><time>2026-04-04T10:17:40.996Z</time></trkpt><trkpt lat="44.2868" lon="11.451405"><ele>238.0</ele><time>2026-04-04T10:17:41.999Z</time></trkpt><trkpt lat="44.2867117" lon="11.4514317"><ele>239.49999999999997</ele><time>2026-04-04T10:17:42.998Z</time></trkpt><trkpt lat="44.2866317" lon="11.4514667"><ele>241.0</ele><time>2026-04-04T10:17:43.999Z</time></trkpt><trkpt lat="44.2865567" lon="11.4515067"><ele>242.5</ele><time>2026-04-04T10:17:44.999Z</time></trkpt><trkpt lat="44.2865083" lon="11.4515917"><ele>244.0</ele><time>2026-04-04T10:17:45.998Z</time></trkpt><trkpt lat="44.28648" lon="11.4516933"><ele>245.49999999999997</ele><time>2026-04-04T10:17:46.999Z</time></trkpt><trkpt lat="44.2864567" lon="11.451815"><ele>247.0</ele><time>2026-04-04T10:17:47.997Z</time></trkpt><trkpt lat="44.2864233" lon="11.45193"><ele>247.2</ele><time>2026-04-04T10:17:48.996Z</time></trkpt><trkpt lat="44.2863783" lon="11.4520333"><ele>247.39999999999998</ele><time>2026-04-04T10:17:49.998Z</time></trkpt><trkpt lat="44.28631" lon="11.45211"><ele>247.60000000000002</ele><time>2026-04-04T10:17:50.996Z</time></trkpt><trkpt lat="44.2862367" lon="11.4521683"><ele>247.8</ele><time>2026-04-04T10:17:51.996Z</time></trkpt><trkpt lat="44.2861467" lon="11.45219"><ele>248.0</ele><time>2026-04-04T10:17:52.996Z</time></trkpt><trkpt lat="44.2859783" lon="11.452155"><ele>248.00000000000003</ele><time>2026-04-04T10:17:54.997Z</time></trkpt><trkpt lat="44.285915" lon="11.4521033"><ele>248.0</ele><time>2026-04-04T10:17:55.998Z</time></trkpt><trkpt lat="44.2858667" lon="11.452025"><ele>248.0</ele><time>2026-04-04T10:17:56.994Z</time></trkpt><trkpt lat="44.2858183" lon="11.4519117"><ele>248.0</ele><time>2026-04-04T10:17:57.996Z</time></trkpt><trkpt lat="44.285775" lon="11.4517883"><ele>248.00000000000003</ele><time>2026-04-04T10:17:58.998Z</time></trkpt><trkpt lat="44.2857167" lon="11.4516633"><ele>248.0</ele><time>2026-04-04T10:17:59.999Z</time></trkpt><trkpt lat="44.285635" lon="11.451565"><ele>249.75</ele><time>2026-04-04T10:18:00.997Z</time></trkpt><trkpt lat="44.2855317" lon="11.4515017"><ele>251.5</ele><time>2026-04-04T10:18:01.999Z</time></trkpt><trkpt lat="44.2854" lon="11.4514583"><ele>253.25</ele><time>2026-04-04T10:18:02.999Z</time></trkpt><trkpt lat="44.2852617" lon="11.451425"><ele>255.0</ele><time>2026-04-04T10:18:04Z</time></trkpt><trkpt lat="44.2851267" lon="11.451405"><ele>255.0</ele><time>2026-04-04T10:18:04.996Z</time></trkpt><trkpt lat="44.2849917" lon="11.45139"><ele>255.0</ele><time>2026-04-04T10:18:05.997Z</time></trkpt><trkpt lat="44.284865" lon="11.45138"><ele>255.0</ele><time>2026-04-04T10:18:07Z</time></trkpt><trkpt lat="44.284745" lon="11.4513783"><ele>255.0</ele><time>2026-04-04T10:18:07.996Z</time></trkpt><trkpt lat="44.2846333" lon="11.4513817"><ele>254.2</ele><time>2026-04-04T10:18:08.999Z</time></trkpt><trkpt lat="44.28453" lon="11.451395"><ele>253.4</ele><time>2026-04-04T10:18:09.997Z</time></trkpt><trkpt lat="44.284425" lon="11.4514233"><ele>252.60000000000002</ele><time>2026-04-04T10:18:10.996Z</time></trkpt><trkpt lat="44.28433" lon="11.45147"><ele>251.8</ele><time>2026-04-04T10:18:11.996Z</time></trkpt><trkpt lat="44.284245" lon="11.4515283"><ele>251.0</ele><time>2026-04-04T10:18:12.997Z</time></trkpt><trkpt lat="44.284175" lon="11.451595"><ele>251.0</ele><time>2026-04-04T10:18:13.997Z</time></trkpt><trkpt lat="44.2840683" lon="11.4518017"><ele>251.0</ele><time>2026-04-04T10:18:15.999Z</time></trkpt><trkpt lat="44.2840467" lon="11.4519483"><ele>251.0</ele><time>2026-04-04T10:18:17Z</time></trkpt><trkpt lat="44.28404" lon="11.452105"><ele>251.0</ele><time>2026-04-04T10:18:17.996Z</time></trkpt><trkpt lat="44.2840467" lon="11.4522633"><ele>251.66666666666669</ele><time>2026-04-04T10:18:18.997Z</time></trkpt><trkpt lat="44.284065" lon="11.4524167"><ele>252.33333333333334</ele><time>2026-04-04T10:18:19.997Z</time></trkpt><trkpt lat="44.2840817" lon="11.452545"><ele>253.0</ele><time>2026-04-04T10:18:20.996Z</time></trkpt><trkpt lat="44.2840883" lon="11.452655"><ele>253.66666666666669</ele><time>2026-04-04T10:18:21.996Z</time></trkpt><trkpt lat="44.28408" lon="11.4527483"><ele>254.33333333333334</ele><time>2026-04-04T10:18:22.997Z</time></trkpt><trkpt lat="44.2840383" lon="11.4528333"><ele>255.0</ele><time>2026-04-04T10:18:23.996Z</time></trkpt><trkpt lat="44.2839767" lon="11.4529117"><ele>255.66666666666666</ele><time>2026-04-04T10:18:24.998Z</time></trkpt><trkpt lat="44.2838983" lon="11.4529717"><ele>256.3333333333333</ele><time>2026-04-04T10:18:25.998Z</time></trkpt><trkpt lat="44.2838183" lon="11.453015"><ele>257.0</ele><time>2026-04-04T10:18:26.996Z</time></trkpt><trkpt lat="44.283735" lon="11.4530383"><ele>257.66666666666663</ele><time>2026-04-04T10:18:27.996Z</time></trkpt><trkpt lat="44.2836533" lon="11.4530467"><ele>258.3333333333333</ele><time>2026-04-04T10:18:28.996Z</time></trkpt><trkpt lat="44.2835583" lon="11.4530117"><ele>259.0</ele><time>2026-04-04T10:18:29.998Z</time></trkpt><trkpt lat="44.2834733" lon="11.4529717"><ele>257.59999999999997</ele><time>2026-04-04T10:18:30.998Z</time></trkpt><trkpt lat="44.2833783" lon="11.4529033"><ele>256.2</ele><time>2026-04-04T10:18:31.996Z</time></trkpt><trkpt lat="44.2832867" lon="11.452845"><ele>254.79999999999998</ele><time>2026-04-04T10:18:32.996Z</time></trkpt><trkpt lat="44.283185" lon="11.4528083"><ele>253.39999999999998</ele><time>2026-04-04T10:18:33.997Z</time></trkpt><trkpt lat="44.2830767" lon="11.452795"><ele>252.0</ele><time>2026-04-04T10:18:34.999Z</time></trkpt><trkpt lat="44.2828633" lon="11.4527833"><ele>251.6</ele><time>2026-04-04T10:18:36.999Z</time></trkpt><trkpt lat="44.282765" lon="11.4527917"><ele>251.2</ele><time>2026-04-04T10:18:37.996Z</time></trkpt><trkpt lat="44.2826733" lon="11.4528183"><ele>250.8</ele><time>2026-04-04T10:18:38.996Z</time></trkpt><trkpt lat="44.2825883" lon="11.45287"><ele>250.4</ele><time>2026-04-04T10:18:39.999Z</time></trkpt><trkpt lat="44.28253" lon="11.4529767"><ele>250.0</ele><time>2026-04-04T10:18:40.998Z</time></trkpt><trkpt lat="44.282495" lon="11.4531083"><ele>250.2</ele><time>2026-04-04T10:18:41.998Z</time></trkpt><trkpt lat="44.2824583" lon="11.4532417"><ele>250.4</ele><time>2026-04-04T10:18:42.998Z</time></trkpt><trkpt lat="44.2824183" lon="11.45336"><ele>250.60000000000002</ele><time>2026-04-04T10:18:43.997Z</time></trkpt><trkpt lat="44.28237" lon="11.4534567"><ele>250.8</ele><time>2026-04-04T10:18:44.996Z</time></trkpt><trkpt lat="44.28231" lon="11.4535367"><ele>251.0</ele><time>2026-04-04T10:18:45.999Z</time></trkpt><trkpt lat="44.2822217" lon="11.45359"><ele>251.0</ele><time>2026-04-04T10:18:46.999Z</time></trkpt><trkpt lat="44.282105" lon="11.4536267"><ele>251.00000000000003</ele><time>2026-04-04T10:18:47.999Z</time></trkpt><trkpt lat="44.2819933" lon="11.4536617"><ele>251.00000000000003</ele><time>2026-04-04T10:18:48.999Z</time></trkpt><trkpt lat="44.281895" lon="11.4536883"><ele>251.0</ele><time>2026-04-04T10:18:49.996Z</time></trkpt><trkpt lat="44.2818117" lon="11.4537283"><ele>251.0</ele><time>2026-04-04T10:18:51Z</time></trkpt><trkpt lat="44.2817367" lon="11.4537983"><ele>253.5</ele><time>2026-04-04T10:18:51.999Z</time></trkpt><trkpt lat="44.281665" lon="11.4538983"><ele>256.0</ele><time>2026-04-04T10:18:52.999Z</time></trkpt><trkpt lat="44.2815983" lon="11.4540267"><ele>258.5</ele><time>2026-04-04T10:18:53.999Z</time></trkpt><trkpt lat="44.28153" lon="11.4541583"><ele>261.0</ele><time>2026-04-04T10:18:54.999Z</time></trkpt><trkpt lat="44.281455" lon="11.4542867"><ele>261.6666666666667</ele><time>2026-04-04T10:18:55.997Z</time></trkpt><trkpt lat="44.281265" lon="11.4545183"><ele>262.33333333333337</ele><time>2026-04-04T10:18:57.997Z</time></trkpt><trkpt lat="44.2811417" lon="11.4546217"><ele>263.0</ele><time>2026-04-04T10:18:58.994Z</time></trkpt><trkpt lat="44.28101" lon="11.4547117"><ele>263.0</ele><time>2026-04-04T10:18:59.995Z</time></trkpt><trkpt lat="44.2808933" lon="11.4547983"><ele>263.0</ele><time>2026-04-04T10:19:00.998Z</time></trkpt><trkpt lat="44.280775" lon="11.45491"><ele>263.0</ele><time>2026-04-04T10:19:02Z</time></trkpt><trkpt lat="44.280655" lon="11.4550417"><ele>263.0</ele><time>2026-04-04T10:19:02.999Z</time></trkpt><trkpt lat="44.2805367" lon="11.45518"><ele>263.5</ele><time>2026-04-04T10:19:03.999Z</time></trkpt><trkpt lat="44.28043" lon="11.4553117"><ele>264.0</ele><time>2026-04-04T10:19:05Z</time></trkpt><trkpt lat="44.2803367" lon="11.45544"><ele>264.5</ele><time>2026-04-04T10:19:06Z</time></trkpt><trkpt lat="44.280255" lon="11.4555767"><ele>265.0</ele><time>2026-04-04T10:19:06.998Z</time></trkpt><trkpt lat="44.2801833" lon="11.4557367"><ele>265.0</ele><time>2026-04-04T10:19:07.996Z</time></trkpt><trkpt lat="44.280115" lon="11.4559217"><ele>265.0</ele><time>2026-04-04T10:19:09Z</time></trkpt><trkpt lat="44.28005" lon="11.45612"><ele>265.0</ele><time>2026-04-04T10:19:10.001Z</time></trkpt><trkpt lat="44.2799817" lon="11.45631"><ele>264.75</ele><time>2026-04-04T10:19:10.996Z</time></trkpt><trkpt lat="44.279915" lon="11.4564833"><ele>264.5</ele><time>2026-04-04T10:19:11.997Z</time></trkpt><trkpt lat="44.2798533" lon="11.4566333"><ele>264.25</ele><time>2026-04-04T10:19:12.998Z</time></trkpt><trkpt lat="44.2797983" lon="11.4567767"><ele>264.0</ele><time>2026-04-04T10:19:13.996Z</time></trkpt><trkpt lat="44.279755" lon="11.456915"><ele>264.0</ele><time>2026-04-04T10:19:14.997Z</time></trkpt><trkpt lat="44.2797183" lon="11.45707"><ele>264.0</ele><time>2026-04-04T10:19:16Z</time></trkpt><trkpt lat="44.2796967" lon="11.4572233"><ele>264.0</ele><time>2026-04-04T10:19:16.996Z</time></trkpt><trkpt lat="44.2796783" lon="11.4575083"><ele>264.0</ele><time>2026-04-04T10:19:18.996Z</time></trkpt><trkpt lat="44.2796767" lon="11.457625"><ele>265.4</ele><time>2026-04-04T10:19:19.996Z</time></trkpt><trkpt lat="44.27967" lon="11.4577183"><ele>266.79999999999995</ele><time>2026-04-04T10:19:20.996Z</time></trkpt><trkpt lat="44.27965" lon="11.4578167"><ele>268.20000000000005</ele><time>2026-04-04T10:19:21.997Z</time></trkpt><trkpt lat="44.27959" lon="11.45796"><ele>269.6</ele><time>2026-04-04T10:19:23.996Z</time></trkpt><trkpt lat="44.2794717" lon="11.458015"><ele>271.0</ele><time>2026-04-04T10:19:25.996Z</time></trkpt><trkpt lat="44.2793933" lon="11.4579917"><ele>271.0</ele><time>2026-04-04T10:19:26.994Z</time></trkpt><trkpt lat="44.2793167" lon="11.4579717"><ele>271.0</ele><time>2026-04-04T10:19:27.996Z</time></trkpt><trkpt lat="44.2792283" lon="11.457955"><ele>271.0</ele><time>2026-04-04T10:19:28.998Z</time></trkpt><trkpt lat="44.2791217" lon="11.4579633"><ele>271.0</ele><time>2026-04-04T10:19:29.997Z</time></trkpt><trkpt lat="44.2790083" lon="11.4580017"><ele>271.0</ele><time>2026-04-04T10:19:30.997Z</time></trkpt><trkpt lat="44.278885" lon="11.4580533"><ele>271.0</ele><time>2026-04-04T10:19:31.998Z</time></trkpt><trkpt lat="44.2787633" lon="11.45812"><ele>271.0</ele><time>2026-04-04T10:19:32.996Z</time></trkpt><trkpt lat="44.278645" lon="11.4582067"><ele>271.0</ele><time>2026-04-04T10:19:33.996Z</time></trkpt><trkpt lat="44.2785417" lon="11.4583083"><ele>271.0</ele><time>2026-04-04T10:19:34.994Z</time></trkpt><trkpt lat="44.2784567" lon="11.4584167"><ele>271.0</ele><time>2026-04-04T10:19:35.996Z</time></trkpt><trkpt lat="44.2783817" lon="11.4585183"><ele>271.0</ele><time>2026-04-04T10:19:37Z</time></trkpt><trkpt lat="44.27831" lon="11.45862"><ele>271.0</ele><time>2026-04-04T10:19:37.996Z</time></trkpt><trkpt lat="44.278185" lon="11.4588117"><ele>271.0</ele><time>2026-04-04T10:19:39.996Z</time></trkpt><trkpt lat="44.2781267" lon="11.45889"><ele>271.16666666666663</ele><time>2026-04-04T10:19:40.997Z</time></trkpt><trkpt lat="44.2780633" lon="11.4589483"><ele>271.3333333333333</ele><time>2026-04-04T10:19:41.996Z</time></trkpt><trkpt lat="44.277995" lon="11.458965"><ele>271.5</ele><time>2026-04-04T10:19:42.997Z</time></trkpt><trkpt lat="44.2779233" lon="11.4589617"><ele>271.6666666666667</ele><time>2026-04-04T10:19:43.995Z</time></trkpt><trkpt lat="44.27786" lon="11.458935"><ele>271.83333333333337</ele><time>2026-04-04T10:19:44.997Z</time></trkpt><trkpt lat="44.2777967" lon="11.4588667"><ele>272.0</ele><time>2026-04-04T10:19:45.998Z</time></trkpt><trkpt lat="44.2776967" lon="11.4587633"><ele>272.0</ele><time>2026-04-04T10:19:46.996Z</time></trkpt><trkpt lat="44.277585" lon="11.4586783"><ele>272.0</ele><time>2026-04-04T10:19:48Z</time></trkpt><trkpt lat="44.2774783" lon="11.458595"><ele>272.0</ele><time>2026-04-04T10:19:48.997Z</time></trkpt><trkpt lat="44.2773833" lon="11.4585217"><ele>272.0</ele><time>2026-04-04T10:19:50Z</time></trkpt><trkpt lat="44.27729" lon="11.4584733"><ele>273.8</ele><time>2026-04-04T10:19:50.997Z</time></trkpt><trkpt lat="44.2771967" lon="11.4584583"><ele>275.6</ele><time>2026-04-04T10:19:51.997Z</time></trkpt><trkpt lat="44.2770983" lon="11.4584883"><ele>277.40000000000003</ele><time>2026-04-04T10:19:52.996Z</time></trkpt><trkpt lat="44.2769983" lon="11.4585417"><ele>279.2</ele><time>2026-04-04T10:19:53.999Z</time></trkpt><trkpt lat="44.2769083" lon="11.45862"><ele>281.0</ele><time>2026-04-04T10:19:54.996Z</time></trkpt><trkpt lat="44.2768217" lon="11.4586983"><ele>281.0</ele><time>2026-04-04T10:19:55.996Z</time></trkpt><trkpt lat="44.27673" lon="11.458765"><ele>281.0</ele><time>2026-04-04T10:19:56.996Z</time></trkpt><trkpt lat="44.2766283" lon="11.458815"><ele>281.0</ele><time>2026-04-04T10:19:57.997Z</time></trkpt><trkpt lat="44.2765133" lon="11.4588467"><ele>281.0</ele><time>2026-04-04T10:19:58.997Z</time></trkpt><trkpt lat="44.27623" lon="11.4588633"><ele>281.75</ele><time>2026-04-04T10:20:00.996Z</time></trkpt><trkpt lat="44.2760717" lon="11.4588367"><ele>282.5</ele><time>2026-04-04T10:20:01.996Z</time></trkpt><trkpt lat="44.2759267" lon="11.458805"><ele>283.25</ele><time>2026-04-04T10:20:02.995Z</time></trkpt><trkpt lat="44.2757917" lon="11.458775"><ele>284.0</ele><time>2026-04-04T10:20:03.996Z</time></trkpt><trkpt lat="44.2756667" lon="11.4587483"><ele>282.5</ele><time>2026-04-04T10:20:04.997Z</time></trkpt><trkpt lat="44.2755483" lon="11.4587167"><ele>281.0</ele><time>2026-04-04T10:20:05.997Z</time></trkpt><trkpt lat="44.2754283" lon="11.4586833"><ele>279.5</ele><time>2026-04-04T10:20:06.997Z</time></trkpt><trkpt lat="44.2753117" lon="11.4586283"><ele>278.0</ele><time>2026-04-04T10:20:07.997Z</time></trkpt><trkpt lat="44.2751967" lon="11.4585567"><ele>278.0</ele><time>2026-04-04T10:20:08.997Z</time></trkpt><trkpt lat="44.2750817" lon="11.4584717"><ele>278.0</ele><time>2026-04-04T10:20:09.998Z</time></trkpt><trkpt lat="44.2749633" lon="11.4583667"><ele>278.0</ele><time>2026-04-04T10:20:10.996Z</time></trkpt><trkpt lat="44.2748467" lon="11.4582483"><ele>278.0</ele><time>2026-04-04T10:20:11.997Z</time></trkpt><trkpt lat="44.2747383" lon="11.4581317"><ele>277.5</ele><time>2026-04-04T10:20:12.998Z</time></trkpt><trkpt lat="44.2746383" lon="11.458015"><ele>277.0</ele><time>2026-04-04T10:20:13.998Z</time></trkpt><trkpt lat="44.27454" lon="11.45792"><ele>276.5</ele><time>2026-04-04T10:20:14.995Z</time></trkpt><trkpt lat="44.2744467" lon="11.4578417"><ele>276.0</ele><time>2026-04-04T10:20:15.998Z</time></trkpt><trkpt lat="44.27435" lon="11.4577817"><ele>278.75</ele><time>2026-04-04T10:20:16.997Z</time></trkpt><trkpt lat="44.2742617" lon="11.457735"><ele>281.5</ele><time>2026-04-04T10:20:17.997Z</time></trkpt><trkpt lat="44.2741767" lon="11.4577067"><ele>284.25</ele><time>2026-04-04T10:20:18.998Z</time></trkpt><trkpt lat="44.2741017" lon="11.4576833"><ele>287.0</ele><time>2026-04-04T10:20:19.996Z</time></trkpt><trkpt lat="44.2739183" lon="11.4575967"><ele>287.0</ele><time>2026-04-04T10:20:23.996Z</time></trkpt><trkpt lat="44.27383" lon="11.4575083"><ele>287.0</ele><time>2026-04-04T10:21:22.997Z</time></trkpt><trkpt lat="44.2737133" lon="11.4574167"><ele>287.0</ele><time>2026-04-04T10:21:24.998Z</time></trkpt><trkpt lat="44.27365" lon="11.45736"><ele>287.0</ele><time>2026-04-04T10:21:25.997Z</time></trkpt><trkpt lat="44.27357" lon="11.45726"><ele>287.0</ele><time>2026-04-04T10:21:27.997Z</time></trkpt><trkpt lat="44.27355" lon="11.457155"><ele>288.5</ele><time>2026-04-04T10:21:29.997Z</time></trkpt><trkpt lat="44.2736217" lon="11.45706"><ele>290.0</ele><time>2026-04-04T10:21:31.995Z</time></trkpt><trkpt lat="44.2736917" lon="11.4570317"><ele>291.5</ele><time>2026-04-04T10:21:32.998Z</time></trkpt><trkpt lat="44.2737617" lon="11.4569867"><ele>293.0</ele><time>2026-04-04T10:21:33.998Z</time></trkpt><trkpt lat="44.2738217" lon="11.4569217"><ele>294.5</ele><time>2026-04-04T10:21:34.996Z</time></trkpt><trkpt lat="44.2738733" lon="11.4568217"><ele>296.0</ele><time>2026-04-04T10:21:35.996Z</time></trkpt><trkpt lat="44.273905" lon="11.456685"><ele>296.0</ele><time>2026-04-04T10:21:36.997Z</time></trkpt><trkpt lat="44.2739383" lon="11.456545"><ele>296.0</ele><time>2026-04-04T10:21:37.997Z</time></trkpt><trkpt lat="44.27397" lon="11.45643"><ele>296.0</ele><time>2026-04-04T10:21:38.997Z</time></trkpt><trkpt lat="44.2740117" lon="11.45634"><ele>296.0</ele><time>2026-04-04T10:21:39.996Z</time></trkpt><trkpt lat="44.274055" lon="11.4562683"><ele>296.0</ele><time>2026-04-04T10:21:40.998Z</time></trkpt><trkpt lat="44.2741083" lon="11.4562133"><ele>296.0</ele><time>2026-04-04T10:21:41.996Z</time></trkpt><trkpt lat="44.27419" lon="11.456195"><ele>299.0</ele><time>2026-04-04T10:21:42.997Z</time></trkpt><trkpt lat="44.2742867" lon="11.4562033"><ele>302.0</ele><time>2026-04-04T10:21:43.997Z</time></trkpt><trkpt lat="44.2744733" lon="11.4562217"><ele>305.0</ele><time>2026-04-04T10:21:45.996Z</time></trkpt><trkpt lat="44.2745667" lon="11.4562317"><ele>308.0</ele><time>2026-04-04T10:21:46.997Z</time></trkpt><trkpt lat="44.274655" lon="11.4562317"><ele>308.0</ele><time>2026-04-04T10:21:47.997Z</time></trkpt><trkpt lat="44.274745" lon="11.4562333"><ele>308.0</ele><time>2026-04-04T10:21:48.997Z</time></trkpt><trkpt lat="44.2748233" lon="11.4562333"><ele>308.0</ele><time>2026-04-04T10:21:49.996Z</time></trkpt><trkpt lat="44.2748883" lon="11.4562333"><ele>308.0</ele><time>2026-04-04T10:21:50.996Z</time></trkpt><trkpt lat="44.275" lon="11.4562"><ele>308.0</ele><time>2026-04-04T10:21:52.996Z</time></trkpt><trkpt lat="44.27505" lon="11.4560783"><ele>308.0</ele><time>2026-04-04T10:21:54.996Z</time></trkpt><trkpt lat="44.2749833" lon="11.4559333"><ele>308.0</ele><time>2026-04-04T10:21:56.996Z</time></trkpt><trkpt lat="44.274915" lon="11.455865"><ele>308.0</ele><time>2026-04-04T10:21:57.995Z</time></trkpt><trkpt lat="44.2748083" lon="11.4557733"><ele>308.0</ele><time>2026-04-04T10:21:58.998Z</time></trkpt><trkpt lat="44.27472" lon="11.4556833"><ele>308.0</ele><time>2026-04-04T10:21:59.997Z</time></trkpt><trkpt lat="44.2746383" lon="11.4555983"><ele>308.0</ele><time>2026-04-04T10:22:00.996Z</time></trkpt><trkpt lat="44.2745483" lon="11.4555"><ele>310.0</ele><time>2026-04-04T10:22:01.996Z</time></trkpt><trkpt lat="44.2744767" lon="11.4553967"><ele>312.0</ele><time>2026-04-04T10:22:02.994Z</time></trkpt><trkpt lat="44.2744083" lon="11.4552733"><ele>314.0</ele><time>2026-04-04T10:22:03.996Z</time></trkpt><trkpt lat="44.2743383" lon="11.455135"><ele>316.0</ele><time>2026-04-04T10:22:04.996Z</time></trkpt><trkpt lat="44.274195" lon="11.4547967"><ele>318.3333333333333</ele><time>2026-04-04T10:22:06.996Z</time></trkpt><trkpt lat="44.2741117" lon="11.4546017"><ele>320.6666666666667</ele><time>2026-04-04T10:22:07.997Z</time></trkpt><trkpt lat="44.2740217" lon="11.454405"><ele>323.0</ele><time>2026-04-04T10:22:08.996Z</time></trkpt><trkpt lat="44.27394" lon="11.4542133"><ele>323.75</ele><time>2026-04-04T10:22:09.996Z</time></trkpt><trkpt lat="44.2738617" lon="11.454025"><ele>324.5</ele><time>2026-04-04T10:22:10.996Z</time></trkpt><trkpt lat="44.273785" lon="11.4538433"><ele>325.25</ele><time>2026-04-04T10:22:11.996Z</time></trkpt><trkpt lat="44.273715" lon="11.45368"><ele>326.0</ele><time>2026-04-04T10:22:12.996Z</time></trkpt><trkpt lat="44.273655" lon="11.453535"><ele>327.8</ele><time>2026-04-04T10:22:13.997Z</time></trkpt><trkpt lat="44.2736" lon="11.4534033"><ele>329.6</ele><time>2026-04-04T10:22:14.996Z</time></trkpt><trkpt lat="44.27356" lon="11.453275"><ele>331.4</ele><time>2026-04-04T10:22:15.995Z</time></trkpt><trkpt lat="44.2735167" lon="11.45314"><ele>333.2</ele><time>2026-04-04T10:22:16.996Z</time></trkpt><trkpt lat="44.2734783" lon="11.452995"><ele>335.0</ele><time>2026-04-04T10:22:17.997Z</time></trkpt><trkpt lat="44.2734533" lon="11.452835"><ele>338.0</ele><time>2026-04-04T10:22:18.996Z</time></trkpt><trkpt lat="44.2734317" lon="11.4526383"><ele>341.0</ele><time>2026-04-04T10:22:19.996Z</time></trkpt><trkpt lat="44.27341" lon="11.4524183"><ele>344.0</ele><time>2026-04-04T10:22:20.996Z</time></trkpt><trkpt lat="44.2733883" lon="11.4521917"><ele>345.5</ele><time>2026-04-04T10:22:21.997Z</time></trkpt><trkpt lat="44.273365" lon="11.45198"><ele>347.0</ele><time>2026-04-04T10:22:22.997Z</time></trkpt><trkpt lat="44.2733383" lon="11.4517817"><ele>348.5</ele><time>2026-04-04T10:22:23.996Z</time></trkpt><trkpt lat="44.2733117" lon="11.4516033"><ele>350.0</ele><time>2026-04-04T10:22:24.996Z</time></trkpt><trkpt lat="44.2732917" lon="11.4514533"><ele>351.5</ele><time>2026-04-04T10:22:25.998Z</time></trkpt><trkpt lat="44.2732667" lon="11.4511967"><ele>353.0</ele><time>2026-04-04T10:22:27.997Z</time></trkpt><trkpt lat="44.273275" lon="11.4510767"><ele>354.5</ele><time>2026-04-04T10:22:28.997Z</time></trkpt><trkpt lat="44.2733067" lon="11.4509717"><ele>356.0</ele><time>2026-04-04T10:22:29.996Z</time></trkpt><trkpt lat="44.2733783" lon="11.4508817"><ele>356.0</ele><time>2026-04-04T10:22:30.998Z</time></trkpt><trkpt lat="44.2734517" lon="11.4507883"><ele>356.0</ele><time>2026-04-04T10:22:31.997Z</time></trkpt><trkpt lat="44.273525" lon="11.4506767"><ele>356.0</ele><time>2026-04-04T10:22:32.995Z</time></trkpt><trkpt lat="44.27359" lon="11.45054"><ele>356.0</ele><time>2026-04-04T10:22:33.997Z</time></trkpt><trkpt lat="44.2736467" lon="11.4503967"><ele>356.0</ele><time>2026-04-04T10:22:34.996Z</time></trkpt><trkpt lat="44.273695" lon="11.4502533"><ele>356.33333333333337</ele><time>2026-04-04T10:22:35.997Z</time></trkpt><trkpt lat="44.27374" lon="11.45013"><ele>356.6666666666667</ele><time>2026-04-04T10:22:36.998Z</time></trkpt><trkpt lat="44.2737883" lon="11.4500333"><ele>357.0</ele><time>2026-04-04T10:22:37.997Z</time></trkpt><trkpt lat="44.2738417" lon="11.449955"><ele>357.3333333333333</ele><time>2026-04-04T10:22:38.997Z</time></trkpt><trkpt lat="44.2739067" lon="11.4498983"><ele>357.66666666666663</ele><time>2026-04-04T10:22:39.996Z</time></trkpt><trkpt lat="44.273965" lon="11.4498433"><ele>358.0</ele><time>2026-04-04T10:22:40.996Z</time></trkpt><trkpt lat="44.2740183" lon="11.4497933"><ele>358.0</ele><time>2026-04-04T10:22:41.995Z</time></trkpt><trkpt lat="44.27405" lon="11.4496767"><ele>358.0</ele><time>2026-04-04T10:22:43.999Z</time></trkpt><trkpt lat="44.2739617" lon="11.4495667"><ele>358.0</ele><time>2026-04-04T10:22:46Z</time></trkpt><trkpt lat="44.2738417" lon="11.4495833"><ele>358.0</ele><time>2026-04-04T10:22:47Z</time></trkpt><trkpt lat="44.2735933" lon="11.4496083"><ele>360.25</ele><time>2026-04-04T10:22:48.997Z</time></trkpt><trkpt lat="44.2734533" lon="11.44962"><ele>362.5</ele><time>2026-04-04T10:22:49.997Z</time></trkpt><trkpt lat="44.2733167" lon="11.4496333"><ele>364.75</ele><time>2026-04-04T10:22:50.994Z</time></trkpt><trkpt lat="44.2731933" lon="11.4496533"><ele>367.0</ele><time>2026-04-04T10:22:51.995Z</time></trkpt><trkpt lat="44.2730917" lon="11.4496783"><ele>369.0</ele><time>2026-04-04T10:22:52.997Z</time></trkpt><trkpt lat="44.2729933" lon="11.4497017"><ele>371.0</ele><time>2026-04-04T10:22:53.996Z</time></trkpt><trkpt lat="44.2728917" lon="11.4497083"><ele>373.0</ele><time>2026-04-04T10:22:54.997Z</time></trkpt><trkpt lat="44.272805" lon="11.4496867"><ele>375.0</ele><time>2026-04-04T10:22:55.996Z</time></trkpt><trkpt lat="44.272725" lon="11.4496517"><ele>377.0</ele><time>2026-04-04T10:22:56.996Z</time></trkpt><trkpt lat="44.2726533" lon="11.4496167"><ele>379.0</ele><time>2026-04-04T10:22:57.996Z</time></trkpt><trkpt lat="44.2725967" lon="11.4495417"><ele>380.16666666666663</ele><time>2026-04-04T10:22:58.997Z</time></trkpt><trkpt lat="44.2725567" lon="11.449455"><ele>381.3333333333333</ele><time>2026-04-04T10:22:59.996Z</time></trkpt><trkpt lat="44.2725333" lon="11.4493633"><ele>382.5</ele><time>2026-04-04T10:23:00.996Z</time></trkpt><trkpt lat="44.2725183" lon="11.4492633"><ele>383.66666666666663</ele><time>2026-04-04T10:23:01.997Z</time></trkpt><trkpt lat="44.2725067" lon="11.4491533"><ele>384.8333333333333</ele><time>2026-04-04T10:23:02.996Z</time></trkpt><trkpt lat="44.2725133" lon="11.4490183"><ele>386.0</ele><time>2026-04-04T10:23:03.997Z</time></trkpt><trkpt lat="44.2725367" lon="11.4488317"><ele>388.5</ele><time>2026-04-04T10:23:04.996Z</time></trkpt><trkpt lat="44.2725617" lon="11.4486533"><ele>391.0</ele><time>2026-04-04T10:23:05.997Z</time></trkpt><trkpt lat="44.2725867" lon="11.4484933"><ele>393.5</ele><time>2026-04-04T10:23:06.996Z</time></trkpt><trkpt lat="44.272595" lon="11.448335"><ele>396.0</ele><time>2026-04-04T10:23:07.996Z</time></trkpt><trkpt lat="44.2725783" lon="11.447995"><ele>397.75</ele><time>2026-04-04T10:23:09.997Z</time></trkpt><trkpt lat="44.2725567" lon="11.4478183"><ele>399.5</ele><time>2026-04-04T10:23:10.997Z</time></trkpt><trkpt lat="44.2725283" lon="11.4476517"><ele>401.25</ele><time>2026-04-04T10:23:11.997Z</time></trkpt><trkpt lat="44.272505" lon="11.4475067"><ele>403.0</ele><time>2026-04-04T10:23:12.996Z</time></trkpt><trkpt lat="44.2724767" lon="11.4473683"><ele>403.0</ele><time>2026-04-04T10:23:13.997Z</time></trkpt><trkpt lat="44.272435" lon="11.447235"><ele>403.0</ele><time>2026-04-04T10:23:14.997Z</time></trkpt><trkpt lat="44.2723817" lon="11.4471083"><ele>403.0</ele><time>2026-04-04T10:23:15.996Z</time></trkpt><trkpt lat="44.2723167" lon="11.4469817"><ele>403.0</ele><time>2026-04-04T10:23:16.996Z</time></trkpt><trkpt lat="44.2722367" lon="11.4468467"><ele>403.0</ele><time>2026-04-04T10:23:17.994Z</time></trkpt><trkpt lat="44.27216" lon="11.4467067"><ele>405.5</ele><time>2026-04-04T10:23:18.997Z</time></trkpt><trkpt lat="44.2720733" lon="11.4465583"><ele>408.0</ele><time>2026-04-04T10:23:19.997Z</time></trkpt><trkpt lat="44.2719783" lon="11.4464033"><ele>410.5</ele><time>2026-04-04T10:23:20.996Z</time></trkpt><trkpt lat="44.27188" lon="11.44624"><ele>413.0</ele><time>2026-04-04T10:23:21.997Z</time></trkpt><trkpt lat="44.27177" lon="11.4460667"><ele>413.0</ele><time>2026-04-04T10:23:22.996Z</time></trkpt><trkpt lat="44.2716733" lon="11.445915"><ele>413.0</ele><time>2026-04-04T10:23:23.997Z</time></trkpt><trkpt lat="44.2715967" lon="11.4458"><ele>413.0</ele><time>2026-04-04T10:23:24.997Z</time></trkpt><trkpt lat="44.27153" lon="11.445705"><ele>413.0</ele><time>2026-04-04T10:23:25.996Z</time></trkpt><trkpt lat="44.2714583" lon="11.445625"><ele>413.0</ele><time>2026-04-04T10:23:26.994Z</time></trkpt><trkpt lat="44.2713733" lon="11.4455617"><ele>417.3333333333333</ele><time>2026-04-04T10:23:27.996Z</time></trkpt><trkpt lat="44.2712633" lon="11.4455117"><ele>421.66666666666663</ele><time>2026-04-04T10:23:28.996Z</time></trkpt><trkpt lat="44.2709917" lon="11.4454783"><ele>426.0</ele><time>2026-04-04T10:23:30.998Z</time></trkpt><trkpt lat="44.2708617" lon="11.445465"><ele>426.20000000000005</ele><time>2026-04-04T10:23:31.996Z</time></trkpt><trkpt lat="44.270745" lon="11.4454567"><ele>426.40000000000003</ele><time>2026-04-04T10:23:32.996Z</time></trkpt><trkpt lat="44.2706383" lon="11.44545"><ele>426.6</ele><time>2026-04-04T10:23:33.996Z</time></trkpt><trkpt lat="44.2705417" lon="11.44543"><ele>426.8</ele><time>2026-04-04T10:23:34.997Z</time></trkpt><trkpt lat="44.2704533" lon="11.4453933"><ele>427.0</ele><time>2026-04-04T10:23:35.996Z</time></trkpt><trkpt lat="44.2703667" lon="11.4453417"><ele>427.40000000000003</ele><time>2026-04-04T10:23:36.996Z</time></trkpt><trkpt lat="44.2702883" lon="11.4452717"><ele>427.80000000000007</ele><time>2026-04-04T10:23:37.996Z</time></trkpt><trkpt lat="44.2702167" lon="11.445185"><ele>428.2</ele><time>2026-04-04T10:23:38.997Z</time></trkpt><trkpt lat="44.27016" lon="11.4450783"><ele>428.6</ele><time>2026-04-04T10:23:39.996Z</time></trkpt><trkpt lat="44.2701067" lon="11.4449417"><ele>429.0</ele><time>2026-04-04T10:23:40.996Z</time></trkpt><trkpt lat="44.2700467" lon="11.44477"><ele>428.75</ele><time>2026-04-04T10:23:41.997Z</time></trkpt><trkpt lat="44.2699817" lon="11.4445867"><ele>428.5</ele><time>2026-04-04T10:23:42.998Z</time></trkpt><trkpt lat="44.26991" lon="11.4444067"><ele>428.25</ele><time>2026-04-04T10:23:43.997Z</time></trkpt><trkpt lat="44.2698317" lon="11.4442317"><ele>428.0</ele><time>2026-04-04T10:23:44.994Z</time></trkpt><trkpt lat="44.2697483" lon="11.44407"><ele>430.0</ele><time>2026-04-04T10:23:45.999Z</time></trkpt><trkpt lat="44.2696683" lon="11.443935"><ele>432.0</ele><time>2026-04-04T10:23:47Z</time></trkpt><trkpt lat="44.2695917" lon="11.4438083"><ele>434.0</ele><time>2026-04-04T10:23:47.996Z</time></trkpt><trkpt lat="44.2695217" lon="11.4436883"><ele>436.0</ele><time>2026-04-04T10:23:48.999Z</time></trkpt><trkpt lat="44.269455" lon="11.4435733"><ele>436.0</ele><time>2026-04-04T10:23:49.997Z</time></trkpt><trkpt lat="44.2693283" lon="11.4433333"><ele>436.0</ele><time>2026-04-04T10:23:51.996Z</time></trkpt><trkpt lat="44.2692817" lon="11.4432117"><ele>436.0</ele><time>2026-04-04T10:23:52.995Z</time></trkpt><trkpt lat="44.2692517" lon="11.4430833"><ele>436.0</ele><time>2026-04-04T10:23:53.996Z</time></trkpt><trkpt lat="44.2692417" lon="11.4429383"><ele>435.5</ele><time>2026-04-04T10:23:54.996Z</time></trkpt><trkpt lat="44.2692433" lon="11.4427817"><ele>435.0</ele><time>2026-04-04T10:23:55.997Z</time></trkpt><trkpt lat="44.26926" lon="11.442605"><ele>434.5</ele><time>2026-04-04T10:23:56.996Z</time></trkpt><trkpt lat="44.2692767" lon="11.442415"><ele>434.0</ele><time>2026-04-04T10:23:57.997Z</time></trkpt><trkpt lat="44.269295" lon="11.4422217"><ele>434.0</ele><time>2026-04-04T10:23:58.996Z</time></trkpt><trkpt lat="44.2693167" lon="11.442025"><ele>434.0</ele><time>2026-04-04T10:23:59.998Z</time></trkpt><trkpt lat="44.269345" lon="11.4418283"><ele>434.0</ele><time>2026-04-04T10:24:00.996Z</time></trkpt><trkpt lat="44.269375" lon="11.441635"><ele>434.0</ele><time>2026-04-04T10:24:01.996Z</time></trkpt><trkpt lat="44.26941" lon="11.441465"><ele>433.99999999999994</ele><time>2026-04-04T10:24:02.995Z</time></trkpt><trkpt lat="44.26945" lon="11.4413217"><ele>434.0</ele><time>2026-04-04T10:24:03.997Z</time></trkpt><trkpt lat="44.26948" lon="11.4412017"><ele>434.0</ele><time>2026-04-04T10:24:04.995Z</time></trkpt><trkpt lat="44.2694883" lon="11.4410917"><ele>434.0</ele><time>2026-04-04T10:24:05.996Z</time></trkpt><trkpt lat="44.2694917" lon="11.4409917"><ele>433.99999999999994</ele><time>2026-04-04T10:24:06.996Z</time></trkpt><trkpt lat="44.2694917" lon="11.44088"><ele>434.0</ele><time>2026-04-04T10:24:07.999Z</time></trkpt><trkpt lat="44.269445" lon="11.440755"><ele>431.3333333333333</ele><time>2026-04-04T10:24:08.997Z</time></trkpt><trkpt lat="44.2693917" lon="11.440605"><ele>428.66666666666663</ele><time>2026-04-04T10:24:09.997Z</time></trkpt><trkpt lat="44.2693283" lon="11.440435"><ele>426.0</ele><time>2026-04-04T10:24:10.995Z</time></trkpt><trkpt lat="44.2691967" lon="11.44011"><ele>426.4</ele><time>2026-04-04T10:24:12.998Z</time></trkpt><trkpt lat="44.269145" lon="11.43996"><ele>426.8</ele><time>2026-04-04T10:24:13.997Z</time></trkpt><trkpt lat="44.269095" lon="11.4398183"><ele>427.19999999999993</ele><time>2026-04-04T10:24:14.996Z</time></trkpt><trkpt lat="44.2690367" lon="11.4397117"><ele>427.59999999999997</ele><time>2026-04-04T10:24:16Z</time></trkpt><trkpt lat="44.2689867" lon="11.4396267"><ele>428.0</ele><time>2026-04-04T10:24:16.997Z</time></trkpt><trkpt lat="44.2689367" lon="11.4395633"><ele>427.99999999999994</ele><time>2026-04-04T10:24:17.997Z</time></trkpt><trkpt lat="44.2688833" lon="11.439505"><ele>428.0</ele><time>2026-04-04T10:24:18.997Z</time></trkpt><trkpt lat="44.2688167" lon="11.4394433"><ele>428.0</ele><time>2026-04-04T10:24:19.996Z</time></trkpt><trkpt lat="44.2687517" lon="11.439375"><ele>428.0</ele><time>2026-04-04T10:24:20.995Z</time></trkpt><trkpt lat="44.268695" lon="11.4392933"><ele>427.99999999999994</ele><time>2026-04-04T10:24:21.998Z</time></trkpt><trkpt lat="44.2686533" lon="11.4392067"><ele>428.0</ele><time>2026-04-04T10:24:22.998Z</time></trkpt><trkpt lat="44.268615" lon="11.4391117"><ele>428.0</ele><time>2026-04-04T10:24:23.996Z</time></trkpt><trkpt lat="44.2685933" lon="11.4389933"><ele>427.99999999999994</ele><time>2026-04-04T10:24:24.997Z</time></trkpt><trkpt lat="44.26856" lon="11.43887"><ele>427.99999999999994</ele><time>2026-04-04T10:24:25.996Z</time></trkpt><trkpt lat="44.268495" lon="11.4387667"><ele>428.0</ele><time>2026-04-04T10:24:26.996Z</time></trkpt><trkpt lat="44.2684283" lon="11.4386683"><ele>428.0</ele><time>2026-04-04T10:24:27.998Z</time></trkpt><trkpt lat="44.268365" lon="11.4385767"><ele>425.5</ele><time>2026-04-04T10:24:28.996Z</time></trkpt><trkpt lat="44.2683133" lon="11.4384817"><ele>423.0</ele><time>2026-04-04T10:24:29.995Z</time></trkpt><trkpt lat="44.2682733" lon="11.4383817"><ele>420.5</ele><time>2026-04-04T10:24:30.998Z</time></trkpt><trkpt lat="44.2682433" lon="11.438255"><ele>418.0</ele><time>2026-04-04T10:24:31.996Z</time></trkpt><trkpt lat="44.2681933" lon="11.43797"><ele>417.0</ele><time>2026-04-04T10:24:33.996Z</time></trkpt><trkpt lat="44.2681517" lon="11.437815"><ele>416.0</ele><time>2026-04-04T10:24:34.995Z</time></trkpt><trkpt lat="44.2681" lon="11.43766"><ele>415.0</ele><time>2026-04-04T10:24:35.996Z</time></trkpt><trkpt lat="44.2680517" lon="11.4375117"><ele>414.0</ele><time>2026-04-04T10:24:36.996Z</time></trkpt><trkpt lat="44.2680067" lon="11.4373783"><ele>416.00000000000006</ele><time>2026-04-04T10:24:37.996Z</time></trkpt><trkpt lat="44.2679683" lon="11.4372733"><ele>418.0</ele><time>2026-04-04T10:24:38.996Z</time></trkpt><trkpt lat="44.2679367" lon="11.4371783"><ele>420.0</ele><time>2026-04-04T10:24:39.998Z</time></trkpt><trkpt lat="44.2679167" lon="11.437085"><ele>422.0</ele><time>2026-04-04T10:24:40.996Z</time></trkpt><trkpt lat="44.2679067" lon="11.4369867"><ele>424.0</ele><time>2026-04-04T10:24:41.996Z</time></trkpt><trkpt lat="44.2679167" lon="11.4368933"><ele>426.00000000000006</ele><time>2026-04-04T10:24:42.997Z</time></trkpt><trkpt lat="44.26795" lon="11.4367933"><ele>428.0</ele><time>2026-04-04T10:24:43.996Z</time></trkpt><trkpt lat="44.2679617" lon="11.4366983"><ele>428.0</ele><time>2026-04-04T10:24:44.996Z</time></trkpt><trkpt lat="44.26797" lon="11.4365417"><ele>427.99999999999994</ele><time>2026-04-04T10:24:46.997Z</time></trkpt><trkpt lat="44.26793" lon="11.4363967"><ele>427.99999999999994</ele><time>2026-04-04T10:24:48.996Z</time></trkpt><trkpt lat="44.2678183" lon="11.436305"><ele>428.0</ele><time>2026-04-04T10:24:50.999Z</time></trkpt><trkpt lat="44.267745" lon="11.4362883"><ele>428.0</ele><time>2026-04-04T10:24:51.997Z</time></trkpt><trkpt lat="44.2676783" lon="11.436255"><ele>428.5</ele><time>2026-04-04T10:24:52.998Z</time></trkpt><trkpt lat="44.2675617" lon="11.436125"><ele>429.0</ele><time>2026-04-04T10:24:54.996Z</time></trkpt><trkpt lat="44.2675067" lon="11.4360283"><ele>429.5</ele><time>2026-04-04T10:24:55.997Z</time></trkpt><trkpt lat="44.267445" lon="11.4358917"><ele>430.0</ele><time>2026-04-04T10:24:56.997Z</time></trkpt><trkpt lat="44.2673933" lon="11.4357333"><ele>430.00000000000006</ele><time>2026-04-04T10:24:57.997Z</time></trkpt><trkpt lat="44.2673467" lon="11.4355917"><ele>430.0</ele><time>2026-04-04T10:24:58.998Z</time></trkpt><trkpt lat="44.2673017" lon="11.435455"><ele>430.0</ele><time>2026-04-04T10:24:59.997Z</time></trkpt><trkpt lat="44.2672717" lon="11.435345"><ele>430.0</ele><time>2026-04-04T10:25:00.997Z</time></trkpt><trkpt lat="44.2672533" lon="11.43525"><ele>430.00000000000006</ele><time>2026-04-04T10:25:01.996Z</time></trkpt><trkpt lat="44.26725" lon="11.4351567"><ele>430.0</ele><time>2026-04-04T10:25:02.997Z</time></trkpt><trkpt lat="44.2672817" lon="11.4350183"><ele>432.0</ele><time>2026-04-04T10:25:04.994Z</time></trkpt><trkpt lat="44.2673267" lon="11.434955"><ele>434.0</ele><time>2026-04-04T10:25:05.997Z</time></trkpt><trkpt lat="44.2674067" lon="11.434905"><ele>436.0</ele><time>2026-04-04T10:25:06.998Z</time></trkpt><trkpt lat="44.2675317" lon="11.4348633"><ele>438.0</ele><time>2026-04-04T10:25:07.997Z</time></trkpt><trkpt lat="44.2676517" lon="11.4348217"><ele>440.0</ele><time>2026-04-04T10:25:08.997Z</time></trkpt><trkpt lat="44.2677617" lon="11.4347983"><ele>440.0</ele><time>2026-04-04T10:25:09.997Z</time></trkpt><trkpt lat="44.2678633" lon="11.43475"><ele>440.0</ele><time>2026-04-04T10:25:10.996Z</time></trkpt><trkpt lat="44.26796" lon="11.4346783"><ele>440.0</ele><time>2026-04-04T10:25:11.994Z</time></trkpt><trkpt lat="44.26805" lon="11.43458"><ele>440.0</ele><time>2026-04-04T10:25:12.996Z</time></trkpt><trkpt lat="44.2681367" lon="11.4344667"><ele>442.75</ele><time>2026-04-04T10:25:13.997Z</time></trkpt><trkpt lat="44.2682983" lon="11.4342617"><ele>445.5</ele><time>2026-04-04T10:25:15.998Z</time></trkpt><trkpt lat="44.2683567" lon="11.4341683"><ele>448.25</ele><time>2026-04-04T10:25:16.997Z</time></trkpt><trkpt lat="44.2684083" lon="11.4340817"><ele>451.0</ele><time>2026-04-04T10:25:17.996Z</time></trkpt><trkpt lat="44.2684617" lon="11.4340017"><ele>451.0</ele><time>2026-04-04T10:25:18.997Z</time></trkpt><trkpt lat="44.2685283" lon="11.4339433"><ele>451.0</ele><time>2026-04-04T10:25:19.996Z</time></trkpt><trkpt lat="44.2686333" lon="11.4339117"><ele>451.0</ele><time>2026-04-04T10:25:20.995Z</time></trkpt><trkpt lat="44.268755" lon="11.4338717"><ele>451.0</ele><time>2026-04-04T10:25:21.996Z</time></trkpt><trkpt lat="44.2688883" lon="11.4338167"><ele>453.5</ele><time>2026-04-04T10:25:22.997Z</time></trkpt><trkpt lat="44.2690317" lon="11.4337517"><ele>456.0</ele><time>2026-04-04T10:25:23.997Z</time></trkpt><trkpt lat="44.2691767" lon="11.43369"><ele>458.5</ele><time>2026-04-04T10:25:24.997Z</time></trkpt><trkpt lat="44.2693133" lon="11.4336283"><ele>461.0</ele><time>2026-04-04T10:25:25.998Z</time></trkpt><trkpt lat="44.26943" lon="11.4335767"><ele>460.99999999999994</ele><time>2026-04-04T10:25:26.996Z</time></trkpt><trkpt lat="44.269535" lon="11.4335417"><ele>461.0</ele><time>2026-04-04T10:25:27.997Z</time></trkpt><trkpt lat="44.2696267" lon="11.4335267"><ele>461.0</ele><time>2026-04-04T10:25:28.997Z</time></trkpt><trkpt lat="44.2697067" lon="11.43352"><ele>461.0</ele><time>2026-04-04T10:25:29.995Z</time></trkpt><trkpt lat="44.2697733" lon="11.433505"><ele>460.99999999999994</ele><time>2026-04-04T10:25:30.998Z</time></trkpt><trkpt lat="44.2698367" lon="11.4334733"><ele>461.0</ele><time>2026-04-04T10:25:31.996Z</time></trkpt><trkpt lat="44.26989" lon="11.43342"><ele>461.25</ele><time>2026-04-04T10:25:32.997Z</time></trkpt><trkpt lat="44.2699283" lon="11.4333283"><ele>461.5</ele><time>2026-04-04T10:25:33.997Z</time></trkpt><trkpt lat="44.269965" lon="11.4331967"><ele>461.75</ele><time>2026-04-04T10:25:34.998Z</time></trkpt><trkpt lat="44.27008" lon="11.432915"><ele>462.0</ele><time>2026-04-04T10:25:36.999Z</time></trkpt><trkpt lat="44.2701617" lon="11.4327983"><ele>464.75</ele><time>2026-04-04T10:25:37.996Z</time></trkpt><trkpt lat="44.2702617" lon="11.4326767"><ele>467.5</ele><time>2026-04-04T10:25:38.995Z</time></trkpt><trkpt lat="44.2703683" lon="11.4325483"><ele>470.25</ele><time>2026-04-04T10:25:39.997Z</time></trkpt><trkpt lat="44.2704783" lon="11.4324167"><ele>473.0</ele><time>2026-04-04T10:25:40.996Z</time></trkpt><trkpt lat="44.2705783" lon="11.432285"><ele>472.59999999999997</ele><time>2026-04-04T10:25:41.997Z</time></trkpt><trkpt lat="44.2706667" lon="11.432155"><ele>472.19999999999993</ele><time>2026-04-04T10:25:42.997Z</time></trkpt><trkpt lat="44.2707383" lon="11.432045"><ele>471.8</ele><time>2026-04-04T10:25:43.996Z</time></trkpt><trkpt lat="44.2707983" lon="11.43196"><ele>471.4</ele><time>2026-04-04T10:25:44.996Z</time></trkpt><trkpt lat="44.2708583" lon="11.4318867"><ele>471.0</ele><time>2026-04-04T10:25:45.997Z</time></trkpt><trkpt lat="44.2709233" lon="11.4318233"><ele>473.4</ele><time>2026-04-04T10:25:46.995Z</time></trkpt><trkpt lat="44.271" lon="11.4317733"><ele>475.8</ele><time>2026-04-04T10:25:47.994Z</time></trkpt><trkpt lat="44.271085" lon="11.4317333"><ele>478.19999999999993</ele><time>2026-04-04T10:25:48.997Z</time></trkpt><trkpt lat="44.2712067" lon="11.4317267"><ele>480.59999999999997</ele><time>2026-04-04T10:25:49.997Z</time></trkpt><trkpt lat="44.2713333" lon="11.43173"><ele>483.0</ele><time>2026-04-04T10:25:50.997Z</time></trkpt><trkpt lat="44.27145" lon="11.4317183"><ele>484.0</ele><time>2026-04-04T10:25:51.998Z</time></trkpt><trkpt lat="44.2715617" lon="11.4316983"><ele>484.99999999999994</ele><time>2026-04-04T10:25:52.997Z</time></trkpt><trkpt lat="44.2716583" lon="11.4316767"><ele>485.99999999999994</ele><time>2026-04-04T10:25:53.997Z</time></trkpt><trkpt lat="44.2717367" lon="11.4316517"><ele>487.0</ele><time>2026-04-04T10:25:54.997Z</time></trkpt><trkpt lat="44.2718017" lon="11.4316233"><ele>488.0</ele><time>2026-04-04T10:25:55.997Z</time></trkpt><trkpt lat="44.2718517" lon="11.431415"><ele>490.75</ele><time>2026-04-04T10:25:59.997Z</time></trkpt><trkpt lat="44.2717617" lon="11.4312683"><ele>493.5</ele><time>2026-04-04T10:26:01.997Z</time></trkpt><trkpt lat="44.2716817" lon="11.4311817"><ele>496.25</ele><time>2026-04-04T10:26:02.996Z</time></trkpt><trkpt lat="44.2715933" lon="11.431075"><ele>499.0</ele><time>2026-04-04T10:26:03.997Z</time></trkpt><trkpt lat="44.2714833" lon="11.4309283"><ele>499.33333333333337</ele><time>2026-04-04T10:26:04.994Z</time></trkpt><trkpt lat="44.271375" lon="11.430765"><ele>499.66666666666663</ele><time>2026-04-04T10:26:05.997Z</time></trkpt><trkpt lat="44.2712733" lon="11.4306"><ele>500.0</ele><time>2026-04-04T10:26:06.996Z</time></trkpt><trkpt lat="44.2711817" lon="11.430445"><ele>503.0</ele><time>2026-04-04T10:26:07.998Z</time></trkpt><trkpt lat="44.27109" lon="11.4303067"><ele>506.0</ele><time>2026-04-04T10:26:08.996Z</time></trkpt><trkpt lat="44.271005" lon="11.4301667"><ele>509.0</ele><time>2026-04-04T10:26:09.997Z</time></trkpt><trkpt lat="44.27092" lon="11.430045"><ele>512.0</ele><time>2026-04-04T10:26:10.996Z</time></trkpt><trkpt lat="44.2708417" lon="11.4299367"><ele>511.99999999999994</ele><time>2026-04-04T10:26:11.996Z</time></trkpt><trkpt lat="44.2707767" lon="11.4298467"><ele>512.0</ele><time>2026-04-04T10:26:12.995Z</time></trkpt><trkpt lat="44.2707233" lon="11.4297617"><ele>512.0</ele><time>2026-04-04T10:26:13.997Z</time></trkpt><trkpt lat="44.270685" lon="11.429675"><ele>512.0</ele><time>2026-04-04T10:26:14.998Z</time></trkpt><trkpt lat="44.27066" lon="11.429575"><ele>511.99999999999994</ele><time>2026-04-04T10:26:15.997Z</time></trkpt><trkpt lat="44.2706583" lon="11.42946"><ele>512.0</ele><time>2026-04-04T10:26:16.997Z</time></trkpt><trkpt lat="44.270665" lon="11.4292017"><ele>513.3333333333333</ele><time>2026-04-04T10:26:18.998Z</time></trkpt><trkpt lat="44.270645" lon="11.4290833"><ele>514.6666666666666</ele><time>2026-04-04T10:26:19.997Z</time></trkpt><trkpt lat="44.2706033" lon="11.4289817"><ele>516.0</ele><time>2026-04-04T10:26:20.997Z</time></trkpt><trkpt lat="44.2705583" lon="11.42889"><ele>517.3333333333334</ele><time>2026-04-04T10:26:21.995Z</time></trkpt><trkpt lat="44.270525" lon="11.4287983"><ele>518.6666666666667</ele><time>2026-04-04T10:26:22.996Z</time></trkpt><trkpt lat="44.2704933" lon="11.4287117"><ele>520.0</ele><time>2026-04-04T10:26:23.998Z</time></trkpt><trkpt lat="44.2704933" lon="11.428615"><ele>524.0</ele><time>2026-04-04T10:26:24.997Z</time></trkpt><trkpt lat="44.2705017" lon="11.4285267"><ele>528.0</ele><time>2026-04-04T10:26:25.996Z</time></trkpt><trkpt lat="44.27054" lon="11.4284317"><ele>532.0</ele><time>2026-04-04T10:26:26.997Z</time></trkpt><trkpt lat="44.270565" lon="11.4283483"><ele>536.0</ele><time>2026-04-04T10:26:27.997Z</time></trkpt><trkpt lat="44.2705783" lon="11.42817"><ele>540.0</ele><time>2026-04-04T10:26:29.994Z</time></trkpt><trkpt lat="44.2705633" lon="11.42808"><ele>544.0</ele><time>2026-04-04T10:26:30.996Z</time></trkpt><trkpt lat="44.2705317" lon="11.428"><ele>543.8</ele><time>2026-04-04T10:26:31.999Z</time></trkpt><trkpt lat="44.270455" lon="11.427955"><ele>543.5999999999999</ele><time>2026-04-04T10:26:32.996Z</time></trkpt><trkpt lat="44.27038" lon="11.4279"><ele>543.4</ele><time>2026-04-04T10:26:33.996Z</time></trkpt><trkpt lat="44.27027" lon="11.4278967"><ele>543.1999999999999</ele><time>2026-04-04T10:26:35Z</time></trkpt><trkpt lat="44.2701733" lon="11.42788"><ele>543.0</ele><time>2026-04-04T10:26:35.995Z</time></trkpt><trkpt lat="44.27009" lon="11.427855"><ele>543.0</ele><time>2026-04-04T10:26:36.998Z</time></trkpt><trkpt lat="44.2700167" lon="11.4278083"><ele>543.0</ele><time>2026-04-04T10:26:37.996Z</time></trkpt><trkpt lat="44.2698983" lon="11.427645"><ele>543.0</ele><time>2026-04-04T10:26:39.997Z</time></trkpt><trkpt lat="44.269845" lon="11.4275133"><ele>543.0</ele><time>2026-04-04T10:26:40.997Z</time></trkpt><trkpt lat="44.2697933" lon="11.4273883"><ele>543.5714285714286</ele><time>2026-04-04T10:26:41.996Z</time></trkpt><trkpt lat="44.2697533" lon="11.4272733"><ele>544.1428571428571</ele><time>2026-04-04T10:26:42.996Z</time></trkpt><trkpt lat="44.26973" lon="11.42717"><ele>544.7142857142857</ele><time>2026-04-04T10:26:43.996Z</time></trkpt><trkpt lat="44.26971" lon="11.427075"><ele>545.2857142857142</ele><time>2026-04-04T10:26:44.997Z</time></trkpt><trkpt lat="44.2697167" lon="11.4269867"><ele>545.8571428571428</ele><time>2026-04-04T10:26:45.997Z</time></trkpt><trkpt lat="44.2697467" lon="11.4269067"><ele>546.4285714285714</ele><time>2026-04-04T10:26:46.994Z</time></trkpt><trkpt lat="44.2697983" lon="11.4268233"><ele>547.0</ele><time>2026-04-04T10:26:47.996Z</time></trkpt><trkpt lat="44.2698417" lon="11.4267417"><ele>547.0</ele><time>2026-04-04T10:26:48.998Z</time></trkpt><trkpt lat="44.2698683" lon="11.426645"><ele>547.0</ele><time>2026-04-04T10:26:50Z</time></trkpt><trkpt lat="44.2698467" lon="11.426555"><ele>547.0</ele><time>2026-04-04T10:26:50.999Z</time></trkpt><trkpt lat="44.2698167" lon="11.42646"><ele>547.0</ele><time>2026-04-04T10:26:51.997Z</time></trkpt><trkpt lat="44.2697717" lon="11.4263683"><ele>547.0</ele><time>2026-04-04T10:26:52.996Z</time></trkpt><trkpt lat="44.2697067" lon="11.4262733"><ele>547.0</ele><time>2026-04-04T10:26:53.996Z</time></trkpt><trkpt lat="44.2696283" lon="11.42616"><ele>550.8000000000001</ele><time>2026-04-04T10:26:54.996Z</time></trkpt><trkpt lat="44.2695533" lon="11.4260383"><ele>554.6</ele><time>2026-04-04T10:26:55.997Z</time></trkpt><trkpt lat="44.2694767" lon="11.425925"><ele>558.4000000000001</ele><time>2026-04-04T10:26:56.996Z</time></trkpt><trkpt lat="44.2694117" lon="11.4258117"><ele>562.2</ele><time>2026-04-04T10:26:57.996Z</time></trkpt><trkpt lat="44.26935" lon="11.42571"><ele>566.0</ele><time>2026-04-04T10:26:58.996Z</time></trkpt><trkpt lat="44.26924" lon="11.42555"><ele>566.0</ele><time>2026-04-04T10:27:00.996Z</time></trkpt><trkpt lat="44.2691717" lon="11.4254933"><ele>566.0</ele><time>2026-04-04T10:27:01.998Z</time></trkpt><trkpt lat="44.2690883" lon="11.425465"><ele>566.0</ele><time>2026-04-04T10:27:02.996Z</time></trkpt><trkpt lat="44.26902" lon="11.4254433"><ele>566.0</ele><time>2026-04-04T10:27:03.997Z</time></trkpt><trkpt lat="44.2689517" lon="11.425415"><ele>566.0</ele><time>2026-04-04T10:27:04.994Z</time></trkpt><trkpt lat="44.2688817" lon="11.425375"><ele>566.0</ele><time>2026-04-04T10:27:05.996Z</time></trkpt><trkpt lat="44.2688167" lon="11.4253183"><ele>568.8</ele><time>2026-04-04T10:27:06.996Z</time></trkpt><trkpt lat="44.2687617" lon="11.4252333"><ele>571.6</ele><time>2026-04-04T10:27:07.998Z</time></trkpt><trkpt lat="44.268725" lon="11.4251317"><ele>574.4</ele><time>2026-04-04T10:27:08.996Z</time></trkpt><trkpt lat="44.2687033" lon="11.4250117"><ele>577.2</ele><time>2026-04-04T10:27:09.996Z</time></trkpt><trkpt lat="44.2686983" lon="11.4248817"><ele>580.0</ele><time>2026-04-04T10:27:10.996Z</time></trkpt><trkpt lat="44.2687133" lon="11.4247283"><ele>581.0</ele><time>2026-04-04T10:27:11.997Z</time></trkpt><trkpt lat="44.2687367" lon="11.4245733"><ele>582.0</ele><time>2026-04-04T10:27:12.996Z</time></trkpt><trkpt lat="44.26877" lon="11.42441"><ele>583.0</ele><time>2026-04-04T10:27:13.996Z</time></trkpt><trkpt lat="44.2687833" lon="11.4242267"><ele>584.0</ele><time>2026-04-04T10:27:14.996Z</time></trkpt><trkpt lat="44.2688133" lon="11.4240733"><ele>584.0</ele><time>2026-04-04T10:27:15.997Z</time></trkpt><trkpt lat="44.2688467" lon="11.4239183"><ele>584.0</ele><time>2026-04-04T10:27:16.997Z</time></trkpt><trkpt lat="44.2688867" lon="11.4237667"><ele>584.0</ele><time>2026-04-04T10:27:17.997Z</time></trkpt><trkpt lat="44.2689267" lon="11.4236417"><ele>584.0</ele><time>2026-04-04T10:27:18.997Z</time></trkpt><trkpt lat="44.2689667" lon="11.4235317"><ele>584.0</ele><time>2026-04-04T10:27:19.997Z</time></trkpt><trkpt lat="44.269055" lon="11.4233633"><ele>584.3333333333333</ele><time>2026-04-04T10:27:21.997Z</time></trkpt><trkpt lat="44.2691133" lon="11.4232967"><ele>584.6666666666666</ele><time>2026-04-04T10:27:22.995Z</time></trkpt><trkpt lat="44.26918" lon="11.42326"><ele>585.0</ele><time>2026-04-04T10:27:23.998Z</time></trkpt><trkpt lat="44.26925" lon="11.4232383"><ele>585.3333333333334</ele><time>2026-04-04T10:27:24.998Z</time></trkpt><trkpt lat="44.2693267" lon="11.4232467"><ele>585.6666666666667</ele><time>2026-04-04T10:27:25.997Z</time></trkpt><trkpt lat="44.2694033" lon="11.42326"><ele>586.0</ele><time>2026-04-04T10:27:26.998Z</time></trkpt><trkpt lat="44.2695117" lon="11.4232333"><ele>586.0</ele><time>2026-04-04T10:27:28.998Z</time></trkpt><trkpt lat="44.269565" lon="11.4231483"><ele>586.0</ele><time>2026-04-04T10:27:30.997Z</time></trkpt><trkpt lat="44.2695167" lon="11.4230417"><ele>586.0</ele><time>2026-04-04T10:27:32.996Z</time></trkpt><trkpt lat="44.2694533" lon="11.4230067"><ele>586.0</ele><time>2026-04-04T10:27:33.996Z</time></trkpt><trkpt lat="44.2693917" lon="11.4229817"><ele>586.0</ele><time>2026-04-04T10:27:34.998Z</time></trkpt><trkpt lat="44.2693083" lon="11.4229767"><ele>586.0</ele><time>2026-04-04T10:27:35.997Z</time></trkpt><trkpt lat="44.2692217" lon="11.4229683"><ele>589.0</ele><time>2026-04-04T10:27:36.997Z</time></trkpt><trkpt lat="44.2691317" lon="11.4229567"><ele>592.0</ele><time>2026-04-04T10:27:37.996Z</time></trkpt><trkpt lat="44.2690367" lon="11.4229467"><ele>595.0</ele><time>2026-04-04T10:27:38.998Z</time></trkpt><trkpt lat="44.268935" lon="11.4229367"><ele>598.0</ele><time>2026-04-04T10:27:39.996Z</time></trkpt><trkpt lat="44.2688167" lon="11.422925"><ele>601.0</ele><time>2026-04-04T10:27:40.996Z</time></trkpt><trkpt lat="44.2685783" lon="11.4229183"><ele>600.75</ele><time>2026-04-04T10:27:42.996Z</time></trkpt><trkpt lat="44.2684467" lon="11.42292"><ele>600.5</ele><time>2026-04-04T10:27:43.998Z</time></trkpt><trkpt lat="44.268315" lon="11.4229333"><ele>600.25</ele><time>2026-04-04T10:27:44.996Z</time></trkpt><trkpt lat="44.268195" lon="11.4229533"><ele>600.0</ele><time>2026-04-04T10:27:45.996Z</time></trkpt><trkpt lat="44.268075" lon="11.4229667"><ele>600.0</ele><time>2026-04-04T10:27:46.994Z</time></trkpt><trkpt lat="44.2679567" lon="11.422975"><ele>600.0</ele><time>2026-04-04T10:27:47.996Z</time></trkpt><trkpt lat="44.2678467" lon="11.4229883"><ele>600.0</ele><time>2026-04-04T10:27:48.999Z</time></trkpt><trkpt lat="44.267735" lon="11.4230017"><ele>600.0</ele><time>2026-04-04T10:27:49.996Z</time></trkpt><trkpt lat="44.267625" lon="11.4230217"><ele>599.75</ele><time>2026-04-04T10:27:50.995Z</time></trkpt><trkpt lat="44.267515" lon="11.4230567"><ele>599.5</ele><time>2026-04-04T10:27:51.996Z</time></trkpt><trkpt lat="44.26741" lon="11.42312"><ele>599.25</ele><time>2026-04-04T10:27:52.999Z</time></trkpt><trkpt lat="44.2673017" lon="11.4232"><ele>599.0</ele><time>2026-04-04T10:27:53.996Z</time></trkpt><trkpt lat="44.267195" lon="11.4232933"><ele>599.75</ele><time>2026-04-04T10:27:54.997Z</time></trkpt><trkpt lat="44.2670967" lon="11.42338"><ele>600.5</ele><time>2026-04-04T10:27:55.999Z</time></trkpt><trkpt lat="44.2669967" lon="11.4234683"><ele>601.25</ele><time>2026-04-04T10:27:56.996Z</time></trkpt><trkpt lat="44.266885" lon="11.4235533"><ele>602.0</ele><time>2026-04-04T10:27:57.997Z</time></trkpt><trkpt lat="44.26676" lon="11.423625"><ele>602.0</ele><time>2026-04-04T10:27:58.996Z</time></trkpt><trkpt lat="44.2666267" lon="11.423685"><ele>602.0</ele><time>2026-04-04T10:27:59.996Z</time></trkpt><trkpt lat="44.2664967" lon="11.4237333"><ele>602.0</ele><time>2026-04-04T10:28:00.996Z</time></trkpt><trkpt lat="44.266365" lon="11.4237667"><ele>602.0</ele><time>2026-04-04T10:28:01.997Z</time></trkpt><trkpt lat="44.2660817" lon="11.4237917"><ele>603.25</ele><time>2026-04-04T10:28:03.995Z</time></trkpt><trkpt lat="44.2659383" lon="11.4238"><ele>604.5</ele><time>2026-04-04T10:28:04.998Z</time></trkpt><trkpt lat="44.2657933" lon="11.4238117"><ele>605.75</ele><time>2026-04-04T10:28:06Z</time></trkpt><trkpt lat="44.2656383" lon="11.423825"><ele>607.0</ele><time>2026-04-04T10:28:06.999Z</time></trkpt><trkpt lat="44.265475" lon="11.4238417"><ele>610.25</ele><time>2026-04-04T10:28:07.999Z</time></trkpt><trkpt lat="44.2653233" lon="11.423855"><ele>613.5</ele><time>2026-04-04T10:28:08.996Z</time></trkpt><trkpt lat="44.2651833" lon="11.42386"><ele>616.75</ele><time>2026-04-04T10:28:09.996Z</time></trkpt><trkpt lat="44.2650483" lon="11.4238617"><ele>620.0</ele><time>2026-04-04T10:28:10.996Z</time></trkpt><trkpt lat="44.2649167" lon="11.4238633"><ele>620.0</ele><time>2026-04-04T10:28:11.998Z</time></trkpt><trkpt lat="44.2647967" lon="11.42386"><ele>620.0</ele><time>2026-04-04T10:28:12.997Z</time></trkpt><trkpt lat="44.2646917" lon="11.4238533"><ele>620.0</ele><time>2026-04-04T10:28:13.996Z</time></trkpt><trkpt lat="44.2646" lon="11.4238467"><ele>620.0</ele><time>2026-04-04T10:28:14.998Z</time></trkpt><trkpt lat="44.2645317" lon="11.4238467"><ele>620.0</ele><time>2026-04-04T10:28:15.997Z</time></trkpt><trkpt lat="44.2644633" lon="11.423835"><ele>623.0</ele><time>2026-04-04T10:28:16.997Z</time></trkpt><trkpt lat="44.2643983" lon="11.4238217"><ele>623.0</ele><time>2026-04-04T10:28:17.997Z</time></trkpt><trkpt lat="44.264335" lon="11.423815"><ele>623.0</ele><time>2026-04-04T10:28:18.996Z</time></trkpt><trkpt lat="44.2642333" lon="11.4238267"><ele>623.0</ele><time>2026-04-04T10:28:20.997Z</time></trkpt><trkpt lat="44.26416" lon="11.4238517"><ele>623.0</ele><time>2026-04-04T10:28:24Z</time></trkpt></trkseg><trkseg><trkpt lat="44.2504783" lon="11.4277567"><ele>740.0</ele><time>2026-04-04T10:44:22.994Z</time></trkpt><trkpt lat="44.2504017" lon="11.4277333"><ele>740.0</ele><time>2026-04-04T10:44:24.994Z</time></trkpt><trkpt lat="44.250325" lon="11.4277183"><ele>740.0</ele><time>2026-04-04T10:44:26.996Z</time></trkpt><trkpt lat="44.2502333" lon="11.4277183"><ele>740.0</ele><time>2026-04-04T10:44:28.997Z</time></trkpt><trkpt lat="44.250125" lon="11.4277217"><ele>740.0</ele><time>2026-04-04T10:44:30.996Z</time></trkpt><trkpt lat="44.2500167" lon="11.4277267"><ele>740.0</ele><time>2026-04-04T10:44:32.999Z</time></trkpt><trkpt lat="44.2499117" lon="11.4277383"><ele>740.0</ele><time>2026-04-04T10:44:34.997Z</time></trkpt><trkpt lat="44.24982" lon="11.4277433"><ele>740.0</ele><time>2026-04-04T10:44:36.996Z</time></trkpt><trkpt lat="44.249715" lon="11.4277483"><ele>740.0</ele><time>2026-04-04T10:44:38.996Z</time></trkpt><trkpt lat="44.2496" lon="11.4277683"><ele>740.0</ele><time>2026-04-04T10:44:40.997Z</time></trkpt><trkpt lat="44.24949" lon="11.4277967"><ele>740.2</ele><time>2026-04-04T10:44:42.997Z</time></trkpt><trkpt lat="44.2494217" lon="11.42781"><ele>740.4</ele><time>2026-04-04T10:44:43.997Z</time></trkpt><trkpt lat="44.2493583" lon="11.4278183"><ele>740.5999999999999</ele><time>2026-04-04T10:44:44.997Z</time></trkpt><trkpt lat="44.2492433" lon="11.427825"><ele>740.8</ele><time>2026-04-04T10:44:46.996Z</time></trkpt><trkpt lat="44.249135" lon="11.4278367"><ele>741.0</ele><time>2026-04-04T10:44:48.997Z</time></trkpt><trkpt lat="44.2490167" lon="11.4278567"><ele>739.0</ele><time>2026-04-04T10:44:50.997Z</time></trkpt><trkpt lat="44.2489" lon="11.42789"><ele>737.0</ele><time>2026-04-04T10:44:52.996Z</time></trkpt><trkpt lat="44.2487833" lon="11.427925"><ele>735.0</ele><time>2026-04-04T10:44:54.998Z</time></trkpt><trkpt lat="44.2486633" lon="11.4279483"><ele>733.0</ele><time>2026-04-04T10:44:56.996Z</time></trkpt><trkpt lat="44.2485417" lon="11.4279483"><ele>733.0</ele><time>2026-04-04T10:44:58.997Z</time></trkpt><trkpt lat="44.2484267" lon="11.4279233"><ele>733.0</ele><time>2026-04-04T10:45:00.996Z</time></trkpt><trkpt lat="44.2483267" lon="11.42789"><ele>733.0</ele><time>2026-04-04T10:45:02.997Z</time></trkpt><trkpt lat="44.2482433" lon="11.4278167"><ele>733.0</ele><time>2026-04-04T10:45:04.997Z</time></trkpt><trkpt lat="44.24817" lon="11.4277133"><ele>733.0</ele><time>2026-04-04T10:45:06.996Z</time></trkpt><trkpt lat="44.2481017" lon="11.42756"><ele>733.3333333333334</ele><time>2026-04-04T10:45:08.998Z</time></trkpt><trkpt lat="44.2480733" lon="11.4274683"><ele>733.6666666666667</ele><time>2026-04-04T10:45:09.998Z</time></trkpt><trkpt lat="44.2480483" lon="11.4273667"><ele>734.0</ele><time>2026-04-04T10:45:10.996Z</time></trkpt><trkpt lat="44.2480217" lon="11.4272633"><ele>734.3333333333334</ele><time>2026-04-04T10:45:11.996Z</time></trkpt><trkpt lat="44.2479967" lon="11.42716"><ele>734.6666666666666</ele><time>2026-04-04T10:45:12.997Z</time></trkpt><trkpt lat="44.2479717" lon="11.427065"><ele>735.0</ele><time>2026-04-04T10:45:13.997Z</time></trkpt><trkpt lat="44.2479133" lon="11.4269167"><ele>735.0</ele><time>2026-04-04T10:45:15.999Z</time></trkpt><trkpt lat="44.2478667" lon="11.4268433"><ele>735.0</ele><time>2026-04-04T10:45:16.994Z</time></trkpt><trkpt lat="44.2478067" lon="11.426775"><ele>735.0</ele><time>2026-04-04T10:45:17.997Z</time></trkpt><trkpt lat="44.2477417" lon="11.4267183"><ele>735.0</ele><time>2026-04-04T10:45:18.997Z</time></trkpt><trkpt lat="44.2476717" lon="11.4266717"><ele>735.0</ele><time>2026-04-04T10:45:19.997Z</time></trkpt><trkpt lat="44.2476" lon="11.42664"><ele>735.0</ele><time>2026-04-04T10:45:20.996Z</time></trkpt><trkpt lat="44.24753" lon="11.426615"><ele>735.0</ele><time>2026-04-04T10:45:21.996Z</time></trkpt><trkpt lat="44.247455" lon="11.4265933"><ele>735.0</ele><time>2026-04-04T10:45:22.996Z</time></trkpt><trkpt lat="44.24738" lon="11.42657"><ele>735.0</ele><time>2026-04-04T10:45:23.996Z</time></trkpt><trkpt lat="44.247305" lon="11.426545"><ele>735.0</ele><time>2026-04-04T10:45:24.996Z</time></trkpt><trkpt lat="44.24723" lon="11.4265133"><ele>735.0</ele><time>2026-04-04T10:45:25.996Z</time></trkpt><trkpt lat="44.2471583" lon="11.4264783"><ele>735.0</ele><time>2026-04-04T10:45:26.996Z</time></trkpt><trkpt lat="44.2470833" lon="11.4264367"><ele>735.0</ele><time>2026-04-04T10:45:27.997Z</time></trkpt><trkpt lat="44.2470083" lon="11.426395"><ele>735.2</ele><time>2026-04-04T10:45:28.996Z</time></trkpt><trkpt lat="44.2469283" lon="11.4263533"><ele>735.4</ele><time>2026-04-04T10:45:29.997Z</time></trkpt><trkpt lat="44.2468417" lon="11.4263117"><ele>735.5999999999999</ele><time>2026-04-04T10:45:30.996Z</time></trkpt><trkpt lat="44.24675" lon="11.42627"><ele>735.8</ele><time>2026-04-04T10:45:31.996Z</time></trkpt><trkpt lat="44.2466567" lon="11.42623"><ele>736.0</ele><time>2026-04-04T10:45:32.998Z</time></trkpt><trkpt lat="44.246565" lon="11.4261967"><ele>736.0</ele><time>2026-04-04T10:45:33.996Z</time></trkpt><trkpt lat="44.24648" lon="11.4261683"><ele>736.0</ele><time>2026-04-04T10:45:34.999Z</time></trkpt><trkpt lat="44.2464017" lon="11.4261467"><ele>736.0</ele><time>2026-04-04T10:45:35.997Z</time></trkpt><trkpt lat="44.2463167" lon="11.4261267"><ele>736.0</ele><time>2026-04-04T10:45:36.996Z</time></trkpt><trkpt lat="44.2462233" lon="11.4261083"><ele>736.0</ele><time>2026-04-04T10:45:37.996Z</time></trkpt><trkpt lat="44.2461283" lon="11.4260917"><ele>736.0</ele><time>2026-04-04T10:45:38.996Z</time></trkpt><trkpt lat="44.2460317" lon="11.42608"><ele>736.5999999999999</ele><time>2026-04-04T10:45:39.997Z</time></trkpt><trkpt lat="44.2459367" lon="11.4260683"><ele>737.2</ele><time>2026-04-04T10:45:40.998Z</time></trkpt><trkpt lat="44.2458417" lon="11.42606"><ele>737.8</ele><time>2026-04-04T10:45:41.996Z</time></trkpt><trkpt lat="44.2457467" lon="11.426055"><ele>738.4000000000001</ele><time>2026-04-04T10:45:42.996Z</time></trkpt><trkpt lat="44.245655" lon="11.426055"><ele>739.0</ele><time>2026-04-04T10:45:43.996Z</time></trkpt><trkpt lat="44.2455617" lon="11.4260633"><ele>739.2</ele><time>2026-04-04T10:45:44.996Z</time></trkpt><trkpt lat="44.2454683" lon="11.426075"><ele>739.4000000000001</ele><time>2026-04-04T10:45:45.996Z</time></trkpt><trkpt lat="44.2453767" lon="11.4260833"><ele>739.6</ele><time>2026-04-04T10:45:46.997Z</time></trkpt><trkpt lat="44.2452833" lon="11.4260817"><ele>739.8</ele><time>2026-04-04T10:45:47.996Z</time></trkpt><trkpt lat="44.2451833" lon="11.4260817"><ele>740.0</ele><time>2026-04-04T10:45:48.998Z</time></trkpt><trkpt lat="44.2450867" lon="11.4260833"><ele>740.0</ele><time>2026-04-04T10:45:49.996Z</time></trkpt><trkpt lat="44.2449883" lon="11.4260833"><ele>740.0</ele><time>2026-04-04T10:45:50.997Z</time></trkpt><trkpt lat="44.24489" lon="11.4260817"><ele>740.0</ele><time>2026-04-04T10:45:51.996Z</time></trkpt><trkpt lat="44.244795" lon="11.4260783"><ele>740.0</ele><time>2026-04-04T10:45:52.997Z</time></trkpt><trkpt lat="44.2447067" lon="11.426065"><ele>740.0</ele><time>2026-04-04T10:45:53.996Z</time></trkpt><trkpt lat="44.2446183" lon="11.4260483"><ele>739.4</ele><time>2026-04-04T10:45:54.998Z</time></trkpt><trkpt lat="44.2445283" lon="11.4260267"><ele>738.8</ele><time>2026-04-04T10:45:55.999Z</time></trkpt><trkpt lat="44.2444333" lon="11.4259983"><ele>738.2</ele><time>2026-04-04T10:45:56.997Z</time></trkpt><trkpt lat="44.2443367" lon="11.4259667"><ele>737.6</ele><time>2026-04-04T10:45:57.996Z</time></trkpt><trkpt lat="44.2442367" lon="11.4259267"><ele>737.0</ele><time>2026-04-04T10:45:58.997Z</time></trkpt><trkpt lat="44.2441383" lon="11.4258833"><ele>737.0</ele><time>2026-04-04T10:45:59.996Z</time></trkpt><trkpt lat="44.2440417" lon="11.4258417"><ele>737.0</ele><time>2026-04-04T10:46:00.996Z</time></trkpt><trkpt lat="44.2439533" lon="11.425805"><ele>737.0</ele><time>2026-04-04T10:46:01.996Z</time></trkpt><trkpt lat="44.24387" lon="11.425775"><ele>737.0</ele><time>2026-04-04T10:46:02.996Z</time></trkpt><trkpt lat="44.2437817" lon="11.4257417"><ele>737.0</ele><time>2026-04-04T10:46:03.996Z</time></trkpt><trkpt lat="44.2436933" lon="11.425715"><ele>736.4000000000001</ele><time>2026-04-04T10:46:04.996Z</time></trkpt><trkpt lat="44.2436067" lon="11.425695"><ele>735.8000000000001</ele><time>2026-04-04T10:46:05.998Z</time></trkpt><trkpt lat="44.2435167" lon="11.4256733"><ele>735.2</ele><time>2026-04-04T10:46:06.996Z</time></trkpt><trkpt lat="44.2434217" lon="11.4256417"><ele>734.6</ele><time>2026-04-04T10:46:07.996Z</time></trkpt><trkpt lat="44.2433267" lon="11.4256083"><ele>734.0</ele><time>2026-04-04T10:46:08.997Z</time></trkpt><trkpt lat="44.2432283" lon="11.425575"><ele>733.8000000000001</ele><time>2026-04-04T10:46:09.996Z</time></trkpt><trkpt lat="44.2431283" lon="11.4255383"><ele>733.6</ele><time>2026-04-04T10:46:10.997Z</time></trkpt><trkpt lat="44.2430283" lon="11.425505"><ele>733.4</ele><time>2026-04-04T10:46:11.996Z</time></trkpt><trkpt lat="44.2429333" lon="11.4254733"><ele>733.2</ele><time>2026-04-04T10:46:12.996Z</time></trkpt><trkpt lat="44.2428417" lon="11.4254417"><ele>733.0</ele><time>2026-04-04T10:46:13.997Z</time></trkpt><trkpt lat="44.2427533" lon="11.4254017"><ele>733.0</ele><time>2026-04-04T10:46:14.996Z</time></trkpt><trkpt lat="44.24267" lon="11.425355"><ele>733.0</ele><time>2026-04-04T10:46:15.996Z</time></trkpt><trkpt lat="44.242595" lon="11.4252967"><ele>733.0</ele><time>2026-04-04T10:46:16.997Z</time></trkpt><trkpt lat="44.2425267" lon="11.42522"><ele>733.0</ele><time>2026-04-04T10:46:17.996Z</time></trkpt><trkpt lat="44.242465" lon="11.4251317"><ele>733.0</ele><time>2026-04-04T10:46:18.999Z</time></trkpt><trkpt lat="44.2424167" lon="11.4250467"><ele>733.0</ele><time>2026-04-04T10:46:19.999Z</time></trkpt><trkpt lat="44.2423783" lon="11.424965"><ele>733.0</ele><time>2026-04-04T10:46:20.996Z</time></trkpt><trkpt lat="44.2423233" lon="11.4248333"><ele>733.0</ele><time>2026-04-04T10:46:22.996Z</time></trkpt><trkpt lat="44.2422567" lon="11.4247283"><ele>733.0</ele><time>2026-04-04T10:46:24.997Z</time></trkpt><trkpt lat="44.2422083" lon="11.42466"><ele>733.0</ele><time>2026-04-04T10:46:25.996Z</time></trkpt><trkpt lat="44.2421467" lon="11.424585"><ele>733.0</ele><time>2026-04-04T10:46:26.997Z</time></trkpt><trkpt lat="44.2420767" lon="11.4245167"><ele>733.0</ele><time>2026-04-04T10:46:27.996Z</time></trkpt><trkpt lat="44.2420083" lon="11.424455"><ele>733.0</ele><time>2026-04-04T10:46:28.996Z</time></trkpt><trkpt lat="44.2419417" lon="11.4244017"><ele>733.0</ele><time>2026-04-04T10:46:29.996Z</time></trkpt><trkpt lat="44.2418717" lon="11.424345"><ele>733.0</ele><time>2026-04-04T10:46:30.996Z</time></trkpt><trkpt lat="44.2418" lon="11.4242917"><ele>733.0</ele><time>2026-04-04T10:46:31.996Z</time></trkpt><trkpt lat="44.2417283" lon="11.4242433"><ele>733.0</ele><time>2026-04-04T10:46:32.996Z</time></trkpt><trkpt lat="44.2416567" lon="11.4241967"><ele>733.0</ele><time>2026-04-04T10:46:33.995Z</time></trkpt><trkpt lat="44.2415867" lon="11.4241467"><ele>733.0</ele><time>2026-04-04T10:46:34.996Z</time></trkpt><trkpt lat="44.2415217" lon="11.424095"><ele>733.0</ele><time>2026-04-04T10:46:35.998Z</time></trkpt><trkpt lat="44.2414617" lon="11.42405"><ele>733.0</ele><time>2026-04-04T10:46:36.997Z</time></trkpt><trkpt lat="44.241405" lon="11.4240067"><ele>733.0</ele><time>2026-04-04T10:46:37.996Z</time></trkpt><trkpt lat="44.2412983" lon="11.4239167"><ele>733.0</ele><time>2026-04-04T10:46:39.995Z</time></trkpt><trkpt lat="44.241245" lon="11.4238667"><ele>733.0</ele><time>2026-04-04T10:46:40.996Z</time></trkpt><trkpt lat="44.2411467" lon="11.4237783"><ele>732.5999999999999</ele><time>2026-04-04T10:46:42.997Z</time></trkpt><trkpt lat="44.241045" lon="11.4237333"><ele>732.1999999999999</ele><time>2026-04-04T10:46:44.996Z</time></trkpt><trkpt lat="44.24094" lon="11.4236717"><ele>731.8</ele><time>2026-04-04T10:46:46.996Z</time></trkpt><trkpt lat="44.2408767" lon="11.4236217"><ele>731.4</ele><time>2026-04-04T10:46:47.994Z</time></trkpt><trkpt lat="44.2408" lon="11.4235567"><ele>731.0</ele><time>2026-04-04T10:46:48.994Z</time></trkpt><trkpt lat="44.2407133" lon="11.4234783"><ele>729.8</ele><time>2026-04-04T10:46:49.995Z</time></trkpt><trkpt lat="44.2406317" lon="11.4233967"><ele>728.5999999999999</ele><time>2026-04-04T10:46:50.994Z</time></trkpt><trkpt lat="44.2405517" lon="11.42331"><ele>727.4</ele><time>2026-04-04T10:46:51.997Z</time></trkpt><trkpt lat="44.240475" lon="11.4232167"><ele>726.2</ele><time>2026-04-04T10:46:52.994Z</time></trkpt><trkpt lat="44.24041" lon="11.423125"><ele>725.0</ele><time>2026-04-04T10:46:53.995Z</time></trkpt><trkpt lat="44.2403517" lon="11.4230367"><ele>726.3333333333333</ele><time>2026-04-04T10:46:54.995Z</time></trkpt><trkpt lat="44.2403" lon="11.42294"><ele>727.6666666666666</ele><time>2026-04-04T10:46:55.997Z</time></trkpt><trkpt lat="44.2402533" lon="11.422835"><ele>729.0</ele><time>2026-04-04T10:46:56.997Z</time></trkpt><trkpt lat="44.2402117" lon="11.4227317"><ele>730.3333333333334</ele><time>2026-04-04T10:46:57.997Z</time></trkpt><trkpt lat="44.24018" lon="11.4226433"><ele>731.6666666666667</ele><time>2026-04-04T10:46:58.994Z</time></trkpt><trkpt lat="44.2401383" lon="11.4224983"><ele>733.0</ele><time>2026-04-04T10:47:00.995Z</time></trkpt><trkpt lat="44.240065" lon="11.4223667"><ele>733.0</ele><time>2026-04-04T10:47:02.994Z</time></trkpt><trkpt lat="44.2400217" lon="11.42229"><ele>733.0</ele><time>2026-04-04T10:47:03.997Z</time></trkpt><trkpt lat="44.2399783" lon="11.4222017"><ele>733.0</ele><time>2026-04-04T10:47:04.995Z</time></trkpt><trkpt lat="44.23993" lon="11.4221033"><ele>733.0</ele><time>2026-04-04T10:47:05.995Z</time></trkpt><trkpt lat="44.2398783" lon="11.4219983"><ele>733.0</ele><time>2026-04-04T10:47:06.994Z</time></trkpt><trkpt lat="44.23983" lon="11.4219"><ele>733.0</ele><time>2026-04-04T10:47:07.995Z</time></trkpt><trkpt lat="44.2397833" lon="11.4218183"><ele>732.5714285714286</ele><time>2026-04-04T10:47:08.994Z</time></trkpt><trkpt lat="44.2397333" lon="11.4217567"><ele>732.1428571428571</ele><time>2026-04-04T10:47:09.995Z</time></trkpt><trkpt lat="44.2396783" lon="11.42171"><ele>731.7142857142858</ele><time>2026-04-04T10:47:10.995Z</time></trkpt><trkpt lat="44.23962" lon="11.421665"><ele>731.2857142857142</ele><time>2026-04-04T10:47:11.994Z</time></trkpt><trkpt lat="44.2395583" lon="11.4216167"><ele>730.8571428571429</ele><time>2026-04-04T10:47:12.995Z</time></trkpt><trkpt lat="44.2394983" lon="11.42157"><ele>730.4285714285714</ele><time>2026-04-04T10:47:13.994Z</time></trkpt><trkpt lat="44.2394417" lon="11.4215283"><ele>730.0</ele><time>2026-04-04T10:47:14.994Z</time></trkpt><trkpt lat="44.23934" lon="11.4214633"><ele>730.0</ele><time>2026-04-04T10:47:16.997Z</time></trkpt><trkpt lat="44.2392533" lon="11.42142"><ele>730.0</ele><time>2026-04-04T10:47:18.995Z</time></trkpt><trkpt lat="44.2391633" lon="11.4214067"><ele>730.0</ele><time>2026-04-04T10:47:20.994Z</time></trkpt><trkpt lat="44.2390667" lon="11.4214"><ele>730.0</ele><time>2026-04-04T10:47:22.994Z</time></trkpt><trkpt lat="44.2389683" lon="11.4213867"><ele>730.0</ele><time>2026-04-04T10:47:24.998Z</time></trkpt><trkpt lat="44.2388467" lon="11.4213733"><ele>730.1666666666667</ele><time>2026-04-04T10:47:26.997Z</time></trkpt><trkpt lat="44.2387683" lon="11.421375"><ele>730.3333333333334</ele><time>2026-04-04T10:47:27.996Z</time></trkpt><trkpt lat="44.23869" lon="11.4213833"><ele>730.5</ele><time>2026-04-04T10:47:28.996Z</time></trkpt><trkpt lat="44.2386117" lon="11.4213967"><ele>730.6666666666666</ele><time>2026-04-04T10:47:29.996Z</time></trkpt><trkpt lat="44.2385333" lon="11.4214117"><ele>730.8333333333333</ele><time>2026-04-04T10:47:30.997Z</time></trkpt><trkpt lat="44.2384567" lon="11.4214183"><ele>731.0</ele><time>2026-04-04T10:47:31.996Z</time></trkpt><trkpt lat="44.23838" lon="11.42141"><ele>731.0</ele><time>2026-04-04T10:47:32.998Z</time></trkpt><trkpt lat="44.2383017" lon="11.4213983"><ele>731.0</ele><time>2026-04-04T10:47:33.997Z</time></trkpt><trkpt lat="44.238225" lon="11.4213883"><ele>731.0</ele><time>2026-04-04T10:47:34.997Z</time></trkpt><trkpt lat="44.23815" lon="11.42139"><ele>731.0</ele><time>2026-04-04T10:47:35.996Z</time></trkpt><trkpt lat="44.2380783" lon="11.42141"><ele>731.0</ele><time>2026-04-04T10:47:36.996Z</time></trkpt><trkpt lat="44.2380067" lon="11.421435"><ele>731.0</ele><time>2026-04-04T10:47:37.997Z</time></trkpt><trkpt lat="44.2379367" lon="11.42145"><ele>731.0</ele><time>2026-04-04T10:47:38.997Z</time></trkpt><trkpt lat="44.2378733" lon="11.4214533"><ele>731.1999999999999</ele><time>2026-04-04T10:47:39.996Z</time></trkpt><trkpt lat="44.2377567" lon="11.4214383"><ele>731.4</ele><time>2026-04-04T10:47:41.997Z</time></trkpt><trkpt lat="44.2376433" lon="11.421395"><ele>731.6</ele><time>2026-04-04T10:47:43.996Z</time></trkpt><trkpt lat="44.2375617" lon="11.42132"><ele>731.8</ele><time>2026-04-04T10:47:45.997Z</time></trkpt><trkpt lat="44.2374933" lon="11.4212183"><ele>732.0</ele><time>2026-04-04T10:47:47.996Z</time></trkpt><trkpt lat="44.2374217" lon="11.4211133"><ele>732.8</ele><time>2026-04-04T10:47:49.997Z</time></trkpt><trkpt lat="44.2373233" lon="11.4210017"><ele>733.6</ele><time>2026-04-04T10:47:51.997Z</time></trkpt><trkpt lat="44.2372333" lon="11.42095"><ele>734.4</ele><time>2026-04-04T10:47:53.996Z</time></trkpt><trkpt lat="44.2371583" lon="11.420905"><ele>735.1999999999999</ele><time>2026-04-04T10:47:55.998Z</time></trkpt><trkpt lat="44.2370967" lon="11.4208467"><ele>736.0</ele><time>2026-04-04T10:47:58.997Z</time></trkpt><trkpt lat="44.2370233" lon="11.4208317"><ele>737.5</ele><time>2026-04-04T10:48:40.998Z</time></trkpt><trkpt lat="44.2369017" lon="11.4208617"><ele>739.0</ele><time>2026-04-04T10:48:42.997Z</time></trkpt><trkpt lat="44.2368367" lon="11.420885"><ele>740.5</ele><time>2026-04-04T10:48:43.998Z</time></trkpt><trkpt lat="44.2367617" lon="11.4209183"><ele>742.0</ele><time>2026-04-04T10:48:44.996Z</time></trkpt><trkpt lat="44.2366833" lon="11.4209583"><ele>743.5</ele><time>2026-04-04T10:48:45.996Z</time></trkpt><trkpt lat="44.23661" lon="11.421"><ele>745.0</ele><time>2026-04-04T10:48:46.997Z</time></trkpt><trkpt lat="44.23655" lon="11.4210367"><ele>746.6</ele><time>2026-04-04T10:48:47.996Z</time></trkpt><trkpt lat="44.236435" lon="11.4211017"><ele>748.2</ele><time>2026-04-04T10:48:49.996Z</time></trkpt><trkpt lat="44.2363767" lon="11.421135"><ele>749.8</ele><time>2026-04-04T10:48:50.996Z</time></trkpt><trkpt lat="44.2363167" lon="11.4211667"><ele>751.4</ele><time>2026-04-04T10:48:51.996Z</time></trkpt><trkpt lat="44.2362067" lon="11.4212017"><ele>753.0</ele><time>2026-04-04T10:48:53.997Z</time></trkpt><trkpt lat="44.2361167" lon="11.4211917"><ele>753.0</ele><time>2026-04-04T10:48:55.995Z</time></trkpt><trkpt lat="44.2360317" lon="11.4211967"><ele>753.0</ele><time>2026-04-04T10:48:57.997Z</time></trkpt><trkpt lat="44.235935" lon="11.42119"><ele>753.0</ele><time>2026-04-04T10:48:59.996Z</time></trkpt><trkpt lat="44.2358383" lon="11.421155"><ele>753.0</ele><time>2026-04-04T10:49:01.996Z</time></trkpt><trkpt lat="44.2357583" lon="11.421145"><ele>753.0</ele><time>2026-04-04T10:49:03.997Z</time></trkpt><trkpt lat="44.23565" lon="11.421165"><ele>752.2</ele><time>2026-04-04T10:49:05.997Z</time></trkpt><trkpt lat="44.23559" lon="11.4211933"><ele>751.4</ele><time>2026-04-04T10:49:06.996Z</time></trkpt><trkpt lat="44.23549" lon="11.4212533"><ele>750.6</ele><time>2026-04-04T10:49:08.996Z</time></trkpt><trkpt lat="44.2353967" lon="11.42133"><ele>749.8000000000001</ele><time>2026-04-04T10:49:10.998Z</time></trkpt><trkpt lat="44.23532" lon="11.4214067"><ele>749.0</ele><time>2026-04-04T10:49:12.996Z</time></trkpt><trkpt lat="44.23525" lon="11.4214817"><ele>749.0</ele><time>2026-04-04T10:49:14.996Z</time></trkpt><trkpt lat="44.23517" lon="11.4215833"><ele>749.0</ele><time>2026-04-04T10:49:16.996Z</time></trkpt><trkpt lat="44.2350767" lon="11.42166"><ele>749.0</ele><time>2026-04-04T10:49:18.995Z</time></trkpt><trkpt lat="44.2349667" lon="11.4217067"><ele>749.0</ele><time>2026-04-04T10:49:20.995Z</time></trkpt><trkpt lat="44.2348583" lon="11.4217867"><ele>748.3333333333333</ele><time>2026-04-04T10:49:22.994Z</time></trkpt><trkpt lat="44.2347617" lon="11.421905"><ele>747.6666666666666</ele><time>2026-04-04T10:49:24.997Z</time></trkpt><trkpt lat="44.2347083" lon="11.421965"><ele>747.0</ele><time>2026-04-04T10:49:25.997Z</time></trkpt><trkpt lat="44.23465" lon="11.42201"><ele>746.3333333333334</ele><time>2026-04-04T10:49:26.997Z</time></trkpt><trkpt lat="44.2345883" lon="11.422055"><ele>745.6666666666667</ele><time>2026-04-04T10:49:27.996Z</time></trkpt><trkpt lat="44.234525" lon="11.4221017"><ele>745.0</ele><time>2026-04-04T10:49:28.996Z</time></trkpt><trkpt lat="44.234465" lon="11.4221533"><ele>743.8333333333334</ele><time>2026-04-04T10:49:29.997Z</time></trkpt><trkpt lat="44.2344083" lon="11.422215"><ele>742.6666666666667</ele><time>2026-04-04T10:49:30.996Z</time></trkpt><trkpt lat="44.2343583" lon="11.4222733"><ele>741.5</ele><time>2026-04-04T10:49:31.996Z</time></trkpt><trkpt lat="44.2342817" lon="11.42237"><ele>740.3333333333334</ele><time>2026-04-04T10:49:33.997Z</time></trkpt><trkpt lat="44.2342167" lon="11.4224633"><ele>739.1666666666666</ele><time>2026-04-04T10:49:35.997Z</time></trkpt><trkpt lat="44.2341517" lon="11.4225367"><ele>738.0</ele><time>2026-04-04T10:49:37.997Z</time></trkpt><trkpt lat="44.2340783" lon="11.42257"><ele>738.0</ele><time>2026-04-04T10:49:39.998Z</time></trkpt><trkpt lat="44.233995" lon="11.42253"><ele>738.0</ele><time>2026-04-04T10:49:41.996Z</time></trkpt><trkpt lat="44.2339433" lon="11.4224083"><ele>738.0</ele><time>2026-04-04T10:49:43.996Z</time></trkpt><trkpt lat="44.2339433" lon="11.4222567"><ele>738.0</ele><time>2026-04-04T10:49:45.997Z</time></trkpt><trkpt lat="44.2339483" lon="11.422085"><ele>738.0</ele><time>2026-04-04T10:49:47.994Z</time></trkpt><trkpt lat="44.2339433" lon="11.4219967"><ele>736.5714285714286</ele><time>2026-04-04T10:49:48.999Z</time></trkpt><trkpt lat="44.2339283" lon="11.4219083"><ele>735.1428571428571</ele><time>2026-04-04T10:49:49.996Z</time></trkpt><trkpt lat="44.2339083" lon="11.421815"><ele>733.7142857142858</ele><time>2026-04-04T10:49:50.995Z</time></trkpt><trkpt lat="44.2338833" lon="11.4217217"><ele>732.2857142857142</ele><time>2026-04-04T10:49:51.997Z</time></trkpt><trkpt lat="44.2338617" lon="11.42162"><ele>730.8571428571429</ele><time>2026-04-04T10:49:52.996Z</time></trkpt><trkpt lat="44.23385" lon="11.421515"><ele>729.4285714285714</ele><time>2026-04-04T10:49:53.996Z</time></trkpt><trkpt lat="44.23384" lon="11.421415"><ele>728.0</ele><time>2026-04-04T10:49:54.996Z</time></trkpt><trkpt lat="44.2338167" lon="11.4212617"><ele>728.0</ele><time>2026-04-04T10:49:56.996Z</time></trkpt><trkpt lat="44.2337483" lon="11.42114"><ele>728.0</ele><time>2026-04-04T10:49:58.996Z</time></trkpt><trkpt lat="44.2336533" lon="11.4210433"><ele>728.0</ele><time>2026-04-04T10:50:00.996Z</time></trkpt><trkpt lat="44.2335683" lon="11.420955"><ele>728.0</ele><time>2026-04-04T10:50:02.996Z</time></trkpt><trkpt lat="44.233505" lon="11.420845"><ele>728.0</ele><time>2026-04-04T10:50:04.996Z</time></trkpt><trkpt lat="44.2334717" lon="11.42071"><ele>728.0</ele><time>2026-04-04T10:50:06.997Z</time></trkpt><trkpt lat="44.2334517" lon="11.420615"><ele>728.0</ele><time>2026-04-04T10:50:08.997Z</time></trkpt><trkpt lat="44.233435" lon="11.420495"><ele>728.0</ele><time>2026-04-04T10:50:19.997Z</time></trkpt><trkpt lat="44.233455" lon="11.42038"><ele>728.0</ele><time>2026-04-04T10:50:21.996Z</time></trkpt><trkpt lat="44.233495" lon="11.420275"><ele>728.0</ele><time>2026-04-04T10:50:23.996Z</time></trkpt><trkpt lat="44.233545" lon="11.4201717"><ele>728.0</ele><time>2026-04-04T10:50:25.996Z</time></trkpt><trkpt lat="44.2336017" lon="11.420045"><ele>727.4</ele><time>2026-04-04T10:50:27.997Z</time></trkpt><trkpt lat="44.23365" lon="11.4199"><ele>726.8</ele><time>2026-04-04T10:50:29.996Z</time></trkpt><trkpt lat="44.233675" lon="11.419755"><ele>726.2</ele><time>2026-04-04T10:50:31.997Z</time></trkpt><trkpt lat="44.23368" lon="11.419615"><ele>725.6</ele><time>2026-04-04T10:50:33.996Z</time></trkpt><trkpt lat="44.2336667" lon="11.4194667"><ele>725.0</ele><time>2026-04-04T10:50:35.999Z</time></trkpt><trkpt lat="44.233635" lon="11.4193483"><ele>725.0</ele><time>2026-04-04T10:50:37.997Z</time></trkpt><trkpt lat="44.2336033" lon="11.419225"><ele>725.0</ele><time>2026-04-04T10:50:39.997Z</time></trkpt><trkpt lat="44.2335617" lon="11.4191183"><ele>725.0</ele><time>2026-04-04T10:50:41.996Z</time></trkpt><trkpt lat="44.2334983" lon="11.419025"><ele>725.0</ele><time>2026-04-04T10:50:43.996Z</time></trkpt><trkpt lat="44.23343" lon="11.418945"><ele>725.0</ele><time>2026-04-04T10:50:45.996Z</time></trkpt><trkpt lat="44.2333767" lon="11.4188867"><ele>725.0</ele><time>2026-04-04T10:50:47.997Z</time></trkpt><trkpt lat="44.233315" lon="11.4188533"><ele>725.0</ele><time>2026-04-04T10:50:49.996Z</time></trkpt><trkpt lat="44.2332533" lon="11.41882"><ele>725.0</ele><time>2026-04-04T10:50:51.996Z</time></trkpt><trkpt lat="44.2331867" lon="11.41878"><ele>725.0</ele><time>2026-04-04T10:50:53.998Z</time></trkpt><trkpt lat="44.2331033" lon="11.4187383"><ele>725.0</ele><time>2026-04-04T10:50:55.997Z</time></trkpt><trkpt lat="44.2330167" lon="11.4187067"><ele>725.0</ele><time>2026-04-04T10:50:57.996Z</time></trkpt><trkpt lat="44.23293" lon="11.41865"><ele>725.0</ele><time>2026-04-04T10:50:59.996Z</time></trkpt><trkpt lat="44.23284" lon="11.4185817"><ele>724.6666666666666</ele><time>2026-04-04T10:51:01.997Z</time></trkpt><trkpt lat="44.2327517" lon="11.4185233"><ele>724.3333333333333</ele><time>2026-04-04T10:51:03.998Z</time></trkpt><trkpt lat="44.2326567" lon="11.4184817"><ele>724.0</ele><time>2026-04-04T10:51:05.996Z</time></trkpt><trkpt lat="44.2325667" lon="11.4184567"><ele>723.6666666666666</ele><time>2026-04-04T10:51:07.995Z</time></trkpt><trkpt lat="44.2324917" lon="11.4184433"><ele>723.3333333333334</ele><time>2026-04-04T10:51:09.997Z</time></trkpt><trkpt lat="44.2324167" lon="11.4184267"><ele>723.0</ele><time>2026-04-04T10:51:53.997Z</time></trkpt><trkpt lat="44.2323367" lon="11.4183667"><ele>720.1666666666666</ele><time>2026-04-04T10:51:55.995Z</time></trkpt><trkpt lat="44.2322567" lon="11.41829"><ele>717.3333333333334</ele><time>2026-04-04T10:51:57.996Z</time></trkpt><trkpt lat="44.23216" lon="11.4182317"><ele>714.5</ele><time>2026-04-04T10:51:59.996Z</time></trkpt><trkpt lat="44.2321" lon="11.41819"><ele>711.6666666666667</ele><time>2026-04-04T10:52:00.997Z</time></trkpt><trkpt lat="44.2320433" lon="11.41815"><ele>708.8333333333334</ele><time>2026-04-04T10:52:01.996Z</time></trkpt><trkpt lat="44.2319867" lon="11.4181033"><ele>706.0</ele><time>2026-04-04T10:52:02.998Z</time></trkpt><trkpt lat="44.23193" lon="11.418055"><ele>706.0</ele><time>2026-04-04T10:52:03.996Z</time></trkpt><trkpt lat="44.231875" lon="11.4179983"><ele>706.0</ele><time>2026-04-04T10:52:04.996Z</time></trkpt><trkpt lat="44.231825" lon="11.4179417"><ele>706.0</ele><time>2026-04-04T10:52:05.996Z</time></trkpt><trkpt lat="44.2317767" lon="11.417885"><ele>706.0</ele><time>2026-04-04T10:52:06.997Z</time></trkpt><trkpt lat="44.2316883" lon="11.4177733"><ele>706.0</ele><time>2026-04-04T10:52:08.996Z</time></trkpt><trkpt lat="44.2316067" lon="11.4176667"><ele>706.0</ele><time>2026-04-04T10:52:10.996Z</time></trkpt><trkpt lat="44.2315517" lon="11.41752"><ele>707.0</ele><time>2026-04-04T10:52:12.998Z</time></trkpt><trkpt lat="44.23153" lon="11.4173767"><ele>708.0</ele><time>2026-04-04T10:52:14.997Z</time></trkpt><trkpt lat="44.2315083" lon="11.41725"><ele>709.0</ele><time>2026-04-04T10:52:16.996Z</time></trkpt><trkpt lat="44.2314517" lon="11.4171317"><ele>710.0</ele><time>2026-04-04T10:52:18.999Z</time></trkpt><trkpt lat="44.2313633" lon="11.4170533"><ele>711.0</ele><time>2026-04-04T10:52:20.994Z</time></trkpt><trkpt lat="44.2313017" lon="11.417035"><ele>711.0</ele><time>2026-04-04T10:52:21.996Z</time></trkpt><trkpt lat="44.2312333" lon="11.4170267"><ele>711.0</ele><time>2026-04-04T10:52:22.996Z</time></trkpt><trkpt lat="44.2311683" lon="11.41703"><ele>711.0</ele><time>2026-04-04T10:52:23.994Z</time></trkpt><trkpt lat="44.231105" lon="11.41704"><ele>711.0</ele><time>2026-04-04T10:52:24.999Z</time></trkpt><trkpt lat="44.2309967" lon="11.4170683"><ele>711.0</ele><time>2026-04-04T10:52:26.997Z</time></trkpt><trkpt lat="44.23089" lon="11.4170683"><ele>711.0</ele><time>2026-04-04T10:52:28.997Z</time></trkpt><trkpt lat="44.23077" lon="11.41705"><ele>711.0</ele><time>2026-04-04T10:52:30.997Z</time></trkpt><trkpt lat="44.2306617" lon="11.417005"><ele>711.0</ele><time>2026-04-04T10:52:32.996Z</time></trkpt><trkpt lat="44.2305417" lon="11.4169383"><ele>711.0</ele><time>2026-04-04T10:52:34.998Z</time></trkpt><trkpt lat="44.2304833" lon="11.4168983"><ele>711.0</ele><time>2026-04-04T10:52:35.997Z</time></trkpt><trkpt lat="44.2303833" lon="11.4167983"><ele>711.0</ele><time>2026-04-04T10:52:37.996Z</time></trkpt><trkpt lat="44.2302767" lon="11.4167167"><ele>709.1666666666666</ele><time>2026-04-04T10:52:39.996Z</time></trkpt><trkpt lat="44.2301633" lon="11.4166733"><ele>707.3333333333334</ele><time>2026-04-04T10:52:41.997Z</time></trkpt><trkpt lat="44.2300983" lon="11.4166567"><ele>705.5</ele><time>2026-04-04T10:52:42.997Z</time></trkpt><trkpt lat="44.2300317" lon="11.4166417"><ele>703.6666666666667</ele><time>2026-04-04T10:52:43.996Z</time></trkpt><trkpt lat="44.2299633" lon="11.416625"><ele>701.8333333333334</ele><time>2026-04-04T10:52:44.996Z</time></trkpt><trkpt lat="44.22989" lon="11.4166"><ele>700.0</ele><time>2026-04-04T10:52:45.997Z</time></trkpt><trkpt lat="44.22981" lon="11.41657"><ele>698.3333333333334</ele><time>2026-04-04T10:52:46.996Z</time></trkpt><trkpt lat="44.2297217" lon="11.4165433"><ele>696.6666666666667</ele><time>2026-04-04T10:52:47.994Z</time></trkpt><trkpt lat="44.22964" lon="11.4165217"><ele>695.0</ele><time>2026-04-04T10:52:48.994Z</time></trkpt><trkpt lat="44.2295667" lon="11.4165"><ele>693.3333333333334</ele><time>2026-04-04T10:52:49.994Z</time></trkpt><trkpt lat="44.2294967" lon="11.4164733"><ele>691.6666666666666</ele><time>2026-04-04T10:52:50.994Z</time></trkpt><trkpt lat="44.2294233" lon="11.4164383"><ele>690.0</ele><time>2026-04-04T10:52:51.994Z</time></trkpt><trkpt lat="44.229355" lon="11.4164033"><ele>690.0</ele><time>2026-04-04T10:52:52.994Z</time></trkpt><trkpt lat="44.2292933" lon="11.4163733"><ele>690.0</ele><time>2026-04-04T10:52:53.995Z</time></trkpt><trkpt lat="44.2292117" lon="11.41635"><ele>690.0</ele><time>2026-04-04T10:52:55.997Z</time></trkpt><trkpt lat="44.229145" lon="11.4163583"><ele>690.0</ele><time>2026-04-04T10:52:57.996Z</time></trkpt><trkpt lat="44.2290967" lon="11.4164333"><ele>690.0</ele><time>2026-04-04T10:52:59.997Z</time></trkpt><trkpt lat="44.2291283" lon="11.4165483"><ele>690.0</ele><time>2026-04-04T10:53:01.996Z</time></trkpt><trkpt lat="44.2292267" lon="11.4166417"><ele>690.0</ele><time>2026-04-04T10:53:03.997Z</time></trkpt><trkpt lat="44.2293417" lon="11.416705"><ele>690.0</ele><time>2026-04-04T10:53:05.996Z</time></trkpt><trkpt lat="44.2293983" lon="11.4167517"><ele>690.0</ele><time>2026-04-04T10:53:06.996Z</time></trkpt><trkpt lat="44.2294517" lon="11.41681"><ele>690.0</ele><time>2026-04-04T10:53:07.997Z</time></trkpt><trkpt lat="44.229505" lon="11.41688"><ele>690.0</ele><time>2026-04-04T10:53:08.997Z</time></trkpt><trkpt lat="44.2295533" lon="11.4169617"><ele>690.0</ele><time>2026-04-04T10:53:09.996Z</time></trkpt><trkpt lat="44.2296" lon="11.4170383"><ele>690.0</ele><time>2026-04-04T10:53:10.997Z</time></trkpt><trkpt lat="44.2296417" lon="11.417115"><ele>690.0</ele><time>2026-04-04T10:53:11.996Z</time></trkpt><trkpt lat="44.2296933" lon="11.41719"><ele>690.0</ele><time>2026-04-04T10:53:12.996Z</time></trkpt><trkpt lat="44.229745" lon="11.4172567"><ele>690.0</ele><time>2026-04-04T10:53:13.996Z</time></trkpt><trkpt lat="44.2298333" lon="11.4173483"><ele>690.0</ele><time>2026-04-04T10:53:15.997Z</time></trkpt><trkpt lat="44.229925" lon="11.4174183"><ele>690.0</ele><time>2026-04-04T10:53:17.995Z</time></trkpt><trkpt lat="44.23001" lon="11.417515"><ele>688.8</ele><time>2026-04-04T10:53:19.995Z</time></trkpt><trkpt lat="44.2300867" lon="11.4176467"><ele>687.6</ele><time>2026-04-04T10:53:21.996Z</time></trkpt><trkpt lat="44.2301517" lon="11.41779"><ele>686.4000000000001</ele><time>2026-04-04T10:53:23.994Z</time></trkpt><trkpt lat="44.2301867" lon="11.417865"><ele>685.2</ele><time>2026-04-04T10:53:24.996Z</time></trkpt><trkpt lat="44.230245" lon="11.4180017"><ele>684.0</ele><time>2026-04-04T10:53:26.996Z</time></trkpt><trkpt lat="44.2303267" lon="11.41812"><ele>683.6666666666666</ele><time>2026-04-04T10:53:28.995Z</time></trkpt><trkpt lat="44.2304233" lon="11.4182367"><ele>683.3333333333334</ele><time>2026-04-04T10:53:30.998Z</time></trkpt><trkpt lat="44.230475" lon="11.41829"><ele>683.0</ele><time>2026-04-04T10:53:31.996Z</time></trkpt><trkpt lat="44.230525" lon="11.418345"><ele>682.6666666666667</ele><time>2026-04-04T10:53:32.994Z</time></trkpt><trkpt lat="44.23058" lon="11.41841"><ele>682.3333333333334</ele><time>2026-04-04T10:53:33.998Z</time></trkpt><trkpt lat="44.2306283" lon="11.418475"><ele>682.0</ele><time>2026-04-04T10:53:34.997Z</time></trkpt><trkpt lat="44.2306733" lon="11.4185383"><ele>682.0</ele><time>2026-04-04T10:53:35.997Z</time></trkpt><trkpt lat="44.23071" lon="11.4186167"><ele>682.0</ele><time>2026-04-04T10:53:36.996Z</time></trkpt><trkpt lat="44.2307667" lon="11.41877"><ele>682.0</ele><time>2026-04-04T10:53:38.995Z</time></trkpt><trkpt lat="44.2307883" lon="11.4188533"><ele>682.0</ele><time>2026-04-04T10:53:39.999Z</time></trkpt><trkpt lat="44.230815" lon="11.418945"><ele>682.0</ele><time>2026-04-04T10:53:40.996Z</time></trkpt><trkpt lat="44.2308467" lon="11.4190383"><ele>682.0</ele><time>2026-04-04T10:53:41.996Z</time></trkpt><trkpt lat="44.230875" lon="11.41913"><ele>680.3333333333334</ele><time>2026-04-04T10:53:42.996Z</time></trkpt><trkpt lat="44.23091" lon="11.4192217"><ele>678.6666666666667</ele><time>2026-04-04T10:53:43.996Z</time></trkpt><trkpt lat="44.2309517" lon="11.4193083"><ele>677.0</ele><time>2026-04-04T10:53:44.998Z</time></trkpt><trkpt lat="44.230995" lon="11.4193917"><ele>675.3333333333334</ele><time>2026-04-04T10:53:45.996Z</time></trkpt><trkpt lat="44.2310367" lon="11.41946"><ele>673.6666666666666</ele><time>2026-04-04T10:53:46.996Z</time></trkpt><trkpt lat="44.231095" lon="11.4195617"><ele>672.0</ele><time>2026-04-04T10:53:48.995Z</time></trkpt><trkpt lat="44.231155" lon="11.4196533"><ele>673.4000000000001</ele><time>2026-04-04T10:53:50.997Z</time></trkpt><trkpt lat="44.2312267" lon="11.419735"><ele>674.8000000000001</ele><time>2026-04-04T10:53:52.994Z</time></trkpt><trkpt lat="44.2313033" lon="11.41982"><ele>676.2</ele><time>2026-04-04T10:53:54.998Z</time></trkpt><trkpt lat="44.2313783" lon="11.41991"><ele>677.6</ele><time>2026-04-04T10:53:56.997Z</time></trkpt><trkpt lat="44.23145" lon="11.420015"><ele>679.0</ele><time>2026-04-04T10:53:58.997Z</time></trkpt><trkpt lat="44.23149" lon="11.42017"><ele>679.0</ele><time>2026-04-04T10:54:00.996Z</time></trkpt><trkpt lat="44.2315" lon="11.4202617"><ele>679.0</ele><time>2026-04-04T10:54:01.996Z</time></trkpt><trkpt lat="44.2314983" lon="11.42036"><ele>679.0</ele><time>2026-04-04T10:54:02.996Z</time></trkpt><trkpt lat="44.2314883" lon="11.4204567"><ele>679.0</ele><time>2026-04-04T10:54:03.996Z</time></trkpt><trkpt lat="44.2314683" lon="11.4205567"><ele>679.0</ele><time>2026-04-04T10:54:04.996Z</time></trkpt><trkpt lat="44.23144" lon="11.42065"><ele>679.0</ele><time>2026-04-04T10:54:05.996Z</time></trkpt><trkpt lat="44.2314017" lon="11.420745"><ele>679.0</ele><time>2026-04-04T10:54:06.996Z</time></trkpt><trkpt lat="44.23136" lon="11.4208283"><ele>675.8571428571429</ele><time>2026-04-04T10:54:07.997Z</time></trkpt><trkpt lat="44.231315" lon="11.4209133"><ele>672.7142857142858</ele><time>2026-04-04T10:54:08.997Z</time></trkpt><trkpt lat="44.2312767" lon="11.421005"><ele>669.5714285714286</ele><time>2026-04-04T10:54:10Z</time></trkpt><trkpt lat="44.2312383" lon="11.4211033"><ele>666.4285714285714</ele><time>2026-04-04T10:54:10.997Z</time></trkpt><trkpt lat="44.2312067" lon="11.4211933"><ele>663.2857142857143</ele><time>2026-04-04T10:54:11.996Z</time></trkpt><trkpt lat="44.2311733" lon="11.421285"><ele>660.1428571428571</ele><time>2026-04-04T10:54:12.996Z</time></trkpt><trkpt lat="44.231135" lon="11.42137"><ele>657.0</ele><time>2026-04-04T10:54:13.997Z</time></trkpt><trkpt lat="44.2310883" lon="11.4214483"><ele>657.0</ele><time>2026-04-04T10:54:14.997Z</time></trkpt><trkpt lat="44.2310333" lon="11.4215233"><ele>657.0</ele><time>2026-04-04T10:54:15.997Z</time></trkpt><trkpt lat="44.2309767" lon="11.42159"><ele>657.0</ele><time>2026-04-04T10:54:16.997Z</time></trkpt><trkpt lat="44.2309217" lon="11.4216517"><ele>657.0</ele><time>2026-04-04T10:54:17.996Z</time></trkpt><trkpt lat="44.2308667" lon="11.4217067"><ele>657.0</ele><time>2026-04-04T10:54:18.996Z</time></trkpt><trkpt lat="44.23081" lon="11.421755"><ele>657.0</ele><time>2026-04-04T10:54:19.996Z</time></trkpt><trkpt lat="44.2307533" lon="11.4217967"><ele>657.0</ele><time>2026-04-04T10:54:20.996Z</time></trkpt><trkpt lat="44.230695" lon="11.4218367"><ele>654.6666666666666</ele><time>2026-04-04T10:54:21.997Z</time></trkpt><trkpt lat="44.2306383" lon="11.4218833"><ele>652.3333333333334</ele><time>2026-04-04T10:54:22.996Z</time></trkpt><trkpt lat="44.2305833" lon="11.42194"><ele>650.0</ele><time>2026-04-04T10:54:23.997Z</time></trkpt><trkpt lat="44.230535" lon="11.422"><ele>647.6666666666667</ele><time>2026-04-04T10:54:24.998Z</time></trkpt><trkpt lat="44.23049" lon="11.422065"><ele>645.3333333333334</ele><time>2026-04-04T10:54:25.996Z</time></trkpt><trkpt lat="44.23042" lon="11.4221917"><ele>643.0</ele><time>2026-04-04T10:54:27.997Z</time></trkpt><trkpt lat="44.230395" lon="11.4223483"><ele>643.0</ele><time>2026-04-04T10:54:29.996Z</time></trkpt><trkpt lat="44.2304" lon="11.4224483"><ele>643.0</ele><time>2026-04-04T10:54:30.997Z</time></trkpt><trkpt lat="44.2304117" lon="11.42255"><ele>643.0</ele><time>2026-04-04T10:54:31.997Z</time></trkpt><trkpt lat="44.2304183" lon="11.4226567"><ele>643.0</ele><time>2026-04-04T10:54:32.997Z</time></trkpt><trkpt lat="44.2304267" lon="11.422775"><ele>643.0</ele><time>2026-04-04T10:54:33.996Z</time></trkpt><trkpt lat="44.2304367" lon="11.422905"><ele>643.0</ele><time>2026-04-04T10:54:34.996Z</time></trkpt><trkpt lat="44.2304483" lon="11.42303"><ele>643.0</ele><time>2026-04-04T10:54:35.996Z</time></trkpt><trkpt lat="44.230455" lon="11.4231483"><ele>643.0</ele><time>2026-04-04T10:54:36.997Z</time></trkpt><trkpt lat="44.2304617" lon="11.42326"><ele>643.0</ele><time>2026-04-04T10:54:37.996Z</time></trkpt><trkpt lat="44.2304667" lon="11.42336"><ele>643.0</ele><time>2026-04-04T10:54:38.996Z</time></trkpt><trkpt lat="44.2304567" lon="11.42353"><ele>643.0</ele><time>2026-04-04T10:54:40.997Z</time></trkpt><trkpt lat="44.2304017" lon="11.4236817"><ele>644.5</ele><time>2026-04-04T10:54:42.996Z</time></trkpt><trkpt lat="44.2303167" lon="11.4238217"><ele>646.0</ele><time>2026-04-04T10:54:44.996Z</time></trkpt><trkpt lat="44.23026" lon="11.4238767"><ele>647.5</ele><time>2026-04-04T10:54:45.996Z</time></trkpt><trkpt lat="44.2302017" lon="11.423925"><ele>649.0</ele><time>2026-04-04T10:54:46.997Z</time></trkpt><trkpt lat="44.23014" lon="11.423975"><ele>650.5</ele><time>2026-04-04T10:54:47.996Z</time></trkpt><trkpt lat="44.2300767" lon="11.4240317"><ele>652.0</ele><time>2026-04-04T10:54:48.997Z</time></trkpt><trkpt lat="44.2300133" lon="11.4240883"><ele>652.0</ele><time>2026-04-04T10:54:49.997Z</time></trkpt><trkpt lat="44.229955" lon="11.4241483"><ele>652.0</ele><time>2026-04-04T10:54:50.996Z</time></trkpt><trkpt lat="44.2298983" lon="11.4242017"><ele>652.0</ele><time>2026-04-04T10:54:51.996Z</time></trkpt><trkpt lat="44.22985" lon="11.4242617"><ele>652.0</ele><time>2026-04-04T10:54:52.996Z</time></trkpt><trkpt lat="44.2298067" lon="11.4243333"><ele>652.0</ele><time>2026-04-04T10:54:53.998Z</time></trkpt><trkpt lat="44.229765" lon="11.4244183"><ele>652.0</ele><time>2026-04-04T10:54:54.996Z</time></trkpt><trkpt lat="44.22973" lon="11.4245117"><ele>652.0</ele><time>2026-04-04T10:54:55.996Z</time></trkpt><trkpt lat="44.2297" lon="11.4246117"><ele>648.8333333333334</ele><time>2026-04-04T10:54:56.996Z</time></trkpt><trkpt lat="44.2296717" lon="11.4247217"><ele>645.6666666666667</ele><time>2026-04-04T10:54:57.996Z</time></trkpt><trkpt lat="44.229655" lon="11.4248383"><ele>642.5</ele><time>2026-04-04T10:54:58.997Z</time></trkpt><trkpt lat="44.229635" lon="11.4249583"><ele>639.3333333333334</ele><time>2026-04-04T10:54:59.997Z</time></trkpt><trkpt lat="44.2296083" lon="11.4250733"><ele>636.1666666666666</ele><time>2026-04-04T10:55:00.996Z</time></trkpt><trkpt lat="44.2295817" lon="11.4251817"><ele>633.0</ele><time>2026-04-04T10:55:01.997Z</time></trkpt><trkpt lat="44.229555" lon="11.4252883"><ele>633.0</ele><time>2026-04-04T10:55:02.996Z</time></trkpt><trkpt lat="44.2295267" lon="11.4253967"><ele>633.0</ele><time>2026-04-04T10:55:03.996Z</time></trkpt><trkpt lat="44.2294983" lon="11.4255117"><ele>633.0</ele><time>2026-04-04T10:55:04.996Z</time></trkpt><trkpt lat="44.22947" lon="11.4256233"><ele>633.0</ele><time>2026-04-04T10:55:05.997Z</time></trkpt><trkpt lat="44.229445" lon="11.4257333"><ele>633.0</ele><time>2026-04-04T10:55:06.997Z</time></trkpt><trkpt lat="44.22942" lon="11.425845"><ele>633.0</ele><time>2026-04-04T10:55:07.996Z</time></trkpt><trkpt lat="44.2293933" lon="11.4259583"><ele>633.0</ele><time>2026-04-04T10:55:08.997Z</time></trkpt><trkpt lat="44.2293667" lon="11.4260717"><ele>633.0</ele><time>2026-04-04T10:55:09.998Z</time></trkpt><trkpt lat="44.2293417" lon="11.4261783"><ele>633.0</ele><time>2026-04-04T10:55:10.997Z</time></trkpt><trkpt lat="44.2293183" lon="11.4262833"><ele>633.0</ele><time>2026-04-04T10:55:11.996Z</time></trkpt><trkpt lat="44.2292967" lon="11.4263817"><ele>633.0</ele><time>2026-04-04T10:55:12.996Z</time></trkpt><trkpt lat="44.2292733" lon="11.4264683"><ele>633.0</ele><time>2026-04-04T10:55:13.997Z</time></trkpt><trkpt lat="44.2292133" lon="11.426615"><ele>633.1666666666666</ele><time>2026-04-04T10:55:15.997Z</time></trkpt><trkpt lat="44.2291517" lon="11.42675"><ele>633.3333333333334</ele><time>2026-04-04T10:55:17.997Z</time></trkpt><trkpt lat="44.2291183" lon="11.4268333"><ele>633.5</ele><time>2026-04-04T10:55:18.996Z</time></trkpt><trkpt lat="44.2290767" lon="11.42693"><ele>633.6666666666667</ele><time>2026-04-04T10:55:19.996Z</time></trkpt><trkpt lat="44.2290333" lon="11.4270167"><ele>633.8333333333334</ele><time>2026-04-04T10:55:20.996Z</time></trkpt><trkpt lat="44.22898" lon="11.4270867"><ele>634.0</ele><time>2026-04-04T10:55:21.996Z</time></trkpt><trkpt lat="44.2289217" lon="11.4271317"><ele>632.8333333333334</ele><time>2026-04-04T10:55:22.997Z</time></trkpt><trkpt lat="44.2288633" lon="11.4271733"><ele>631.6666666666667</ele><time>2026-04-04T10:55:23.997Z</time></trkpt><trkpt lat="44.2287533" lon="11.42724"><ele>630.5</ele><time>2026-04-04T10:55:25.997Z</time></trkpt><trkpt lat="44.22869" lon="11.42727"><ele>629.3333333333334</ele><time>2026-04-04T10:55:26.996Z</time></trkpt><trkpt lat="44.2286233" lon="11.4273"><ele>628.1666666666666</ele><time>2026-04-04T10:55:27.996Z</time></trkpt><trkpt lat="44.22856" lon="11.427325"><ele>627.0</ele><time>2026-04-04T10:55:28.997Z</time></trkpt><trkpt lat="44.2284383" lon="11.427355"><ele>627.0</ele><time>2026-04-04T10:55:30.996Z</time></trkpt><trkpt lat="44.228315" lon="11.4274033"><ele>627.0</ele><time>2026-04-04T10:55:32.999Z</time></trkpt><trkpt lat="44.2282517" lon="11.4274467"><ele>627.0</ele><time>2026-04-04T10:55:33.997Z</time></trkpt><trkpt lat="44.2281933" lon="11.4275"><ele>627.0</ele><time>2026-04-04T10:55:34.996Z</time></trkpt><trkpt lat="44.228135" lon="11.4275517"><ele>627.0</ele><time>2026-04-04T10:55:35.996Z</time></trkpt><trkpt lat="44.2280767" lon="11.4276083"><ele>627.0</ele><time>2026-04-04T10:55:36.996Z</time></trkpt><trkpt lat="44.22802" lon="11.4276617"><ele>625.3333333333334</ele><time>2026-04-04T10:55:37.996Z</time></trkpt><trkpt lat="44.2279683" lon="11.4277133"><ele>623.6666666666666</ele><time>2026-04-04T10:55:38.998Z</time></trkpt><trkpt lat="44.2278717" lon="11.42781"><ele>622.0</ele><time>2026-04-04T10:55:40.996Z</time></trkpt><trkpt lat="44.2278183" lon="11.4278633"><ele>620.3333333333333</ele><time>2026-04-04T10:55:41.996Z</time></trkpt><trkpt lat="44.2277667" lon="11.427915"><ele>618.6666666666666</ele><time>2026-04-04T10:55:42.996Z</time></trkpt><trkpt lat="44.2276683" lon="11.428015"><ele>617.0</ele><time>2026-04-04T10:55:44.996Z</time></trkpt><trkpt lat="44.2275733" lon="11.42812"><ele>617.0</ele><time>2026-04-04T10:55:46.997Z</time></trkpt><trkpt lat="44.2274933" lon="11.4282317"><ele>617.0</ele><time>2026-04-04T10:55:48.996Z</time></trkpt><trkpt lat="44.2274183" lon="11.4283667"><ele>617.0</ele><time>2026-04-04T10:55:50.997Z</time></trkpt><trkpt lat="44.2273817" lon="11.4284417"><ele>617.0</ele><time>2026-04-04T10:55:51.996Z</time></trkpt><trkpt lat="44.227345" lon="11.4285183"><ele>617.0</ele><time>2026-04-04T10:55:52.996Z</time></trkpt><trkpt lat="44.22729" lon="11.4286717"><ele>614.0</ele><time>2026-04-04T10:55:54.996Z</time></trkpt><trkpt lat="44.2272717" lon="11.4287567"><ele>611.0</ele><time>2026-04-04T10:55:55.996Z</time></trkpt><trkpt lat="44.2272567" lon="11.4288483"><ele>608.0</ele><time>2026-04-04T10:55:56.997Z</time></trkpt><trkpt lat="44.227245" lon="11.4289433"><ele>605.0</ele><time>2026-04-04T10:55:57.996Z</time></trkpt><trkpt lat="44.227235" lon="11.4290417"><ele>602.0</ele><time>2026-04-04T10:55:58.998Z</time></trkpt><trkpt lat="44.2272217" lon="11.42914"><ele>599.0</ele><time>2026-04-04T10:55:59.997Z</time></trkpt><trkpt lat="44.227205" lon="11.4292367"><ele>596.0</ele><time>2026-04-04T10:56:00.996Z</time></trkpt><trkpt lat="44.227185" lon="11.4293383"><ele>596.0</ele><time>2026-04-04T10:56:01.996Z</time></trkpt><trkpt lat="44.2271617" lon="11.4294417"><ele>596.0</ele><time>2026-04-04T10:56:02.997Z</time></trkpt><trkpt lat="44.227135" lon="11.4295433"><ele>596.0</ele><time>2026-04-04T10:56:03.996Z</time></trkpt><trkpt lat="44.227105" lon="11.4296417"><ele>596.0</ele><time>2026-04-04T10:56:04.997Z</time></trkpt><trkpt lat="44.2270783" lon="11.4297333"><ele>596.0</ele><time>2026-04-04T10:56:05.996Z</time></trkpt><trkpt lat="44.2270483" lon="11.4298183"><ele>596.0</ele><time>2026-04-04T10:56:06.996Z</time></trkpt><trkpt lat="44.227015" lon="11.4298983"><ele>596.0</ele><time>2026-04-04T10:56:07.997Z</time></trkpt><trkpt lat="44.2269517" lon="11.43004"><ele>595.75</ele><time>2026-04-04T10:56:09.996Z</time></trkpt><trkpt lat="44.2268883" lon="11.4301583"><ele>595.5</ele><time>2026-04-04T10:56:11.996Z</time></trkpt><trkpt lat="44.2268233" lon="11.4302767"><ele>595.25</ele><time>2026-04-04T10:56:13.997Z</time></trkpt><trkpt lat="44.2267517" lon="11.4304033"><ele>595.0</ele><time>2026-04-04T10:56:15.996Z</time></trkpt><trkpt lat="44.2266717" lon="11.4305333"><ele>595.0</ele><time>2026-04-04T10:56:17.996Z</time></trkpt><trkpt lat="44.2265867" lon="11.43065"><ele>595.0</ele><time>2026-04-04T10:56:20Z</time></trkpt><trkpt lat="44.226505" lon="11.4307583"><ele>595.0</ele><time>2026-04-04T10:56:21.997Z</time></trkpt><trkpt lat="44.2264167" lon="11.4308817"><ele>595.0</ele><time>2026-04-04T10:56:23.996Z</time></trkpt><trkpt lat="44.2263717" lon="11.43095"><ele>595.0</ele><time>2026-04-04T10:56:24.999Z</time></trkpt><trkpt lat="44.2263233" lon="11.4310267"><ele>594.0</ele><time>2026-04-04T10:56:25.997Z</time></trkpt><trkpt lat="44.2262717" lon="11.431105"><ele>593.0</ele><time>2026-04-04T10:56:26.997Z</time></trkpt><trkpt lat="44.226215" lon="11.4311967"><ele>592.0</ele><time>2026-04-04T10:56:27.996Z</time></trkpt><trkpt lat="44.22616" lon="11.4312983"><ele>591.0</ele><time>2026-04-04T10:56:28.996Z</time></trkpt><trkpt lat="44.2261083" lon="11.43139"><ele>590.0</ele><time>2026-04-04T10:56:29.996Z</time></trkpt><trkpt lat="44.226055" lon="11.43147"><ele>589.0</ele><time>2026-04-04T10:56:30.996Z</time></trkpt><trkpt lat="44.2259983" lon="11.4315383"><ele>589.0</ele><time>2026-04-04T10:56:31.997Z</time></trkpt><trkpt lat="44.2259333" lon="11.4316017"><ele>589.0</ele><time>2026-04-04T10:56:32.996Z</time></trkpt><trkpt lat="44.2258633" lon="11.4316683"><ele>589.0</ele><time>2026-04-04T10:56:33.997Z</time></trkpt><trkpt lat="44.225795" lon="11.431735"><ele>589.0</ele><time>2026-04-04T10:56:34.997Z</time></trkpt><trkpt lat="44.225725" lon="11.4318017"><ele>589.0</ele><time>2026-04-04T10:56:35.997Z</time></trkpt><trkpt lat="44.225655" lon="11.4318567"><ele>589.0</ele><time>2026-04-04T10:56:36.999Z</time></trkpt><trkpt lat="44.2255883" lon="11.4318983"><ele>588.5714285714286</ele><time>2026-04-04T10:56:37.996Z</time></trkpt><trkpt lat="44.2255217" lon="11.431935"><ele>588.1428571428571</ele><time>2026-04-04T10:56:38.996Z</time></trkpt><trkpt lat="44.2254583" lon="11.4319617"><ele>587.7142857142857</ele><time>2026-04-04T10:56:39.996Z</time></trkpt><trkpt lat="44.225395" lon="11.43199"><ele>587.2857142857142</ele><time>2026-04-04T10:56:40.997Z</time></trkpt><trkpt lat="44.2253317" lon="11.4320217"><ele>586.8571428571429</ele><time>2026-04-04T10:56:41.997Z</time></trkpt><trkpt lat="44.2252683" lon="11.4320633"><ele>586.4285714285713</ele><time>2026-04-04T10:56:42.997Z</time></trkpt><trkpt lat="44.2252033" lon="11.43211"><ele>586.0</ele><time>2026-04-04T10:56:43.996Z</time></trkpt><trkpt lat="44.2251417" lon="11.4321583"><ele>585.9999999999999</ele><time>2026-04-04T10:56:44.996Z</time></trkpt><trkpt lat="44.2250783" lon="11.4322117"><ele>586.0</ele><time>2026-04-04T10:56:45.996Z</time></trkpt><trkpt lat="44.2250167" lon="11.4322667"><ele>586.0</ele><time>2026-04-04T10:56:46.997Z</time></trkpt><trkpt lat="44.2249617" lon="11.4323167"><ele>586.0</ele><time>2026-04-04T10:56:47.996Z</time></trkpt><trkpt lat="44.224905" lon="11.4323717"><ele>586.0</ele><time>2026-04-04T10:56:48.997Z</time></trkpt><trkpt lat="44.2248467" lon="11.4324333"><ele>585.9999999999999</ele><time>2026-04-04T10:56:49.996Z</time></trkpt><trkpt lat="44.2247933" lon="11.4324983"><ele>586.0</ele><time>2026-04-04T10:56:50.999Z</time></trkpt><trkpt lat="44.2247167" lon="11.4326217"><ele>584.6</ele><time>2026-04-04T10:56:52.999Z</time></trkpt><trkpt lat="44.2246583" lon="11.4327583"><ele>583.2</ele><time>2026-04-04T10:56:54.996Z</time></trkpt><trkpt lat="44.2246283" lon="11.4328367"><ele>581.8</ele><time>2026-04-04T10:56:55.998Z</time></trkpt><trkpt lat="44.2246017" lon="11.4329167"><ele>580.4</ele><time>2026-04-04T10:56:56.997Z</time></trkpt><trkpt lat="44.2245667" lon="11.43307"><ele>579.0</ele><time>2026-04-04T10:56:58.999Z</time></trkpt><trkpt lat="44.2245567" lon="11.433215"><ele>579.0</ele><time>2026-04-04T10:57:00.996Z</time></trkpt><trkpt lat="44.2245767" lon="11.4333383"><ele>579.0</ele><time>2026-04-04T10:57:02.997Z</time></trkpt><trkpt lat="44.2245883" lon="11.4334567"><ele>579.0</ele><time>2026-04-04T10:57:04.996Z</time></trkpt><trkpt lat="44.2245833" lon="11.433555"><ele>579.0</ele><time>2026-04-04T10:57:06.996Z</time></trkpt><trkpt lat="44.224525" lon="11.433645"><ele>579.0</ele><time>2026-04-04T10:57:09.997Z</time></trkpt><trkpt lat="44.2244567" lon="11.4336717"><ele>579.0</ele><time>2026-04-04T10:57:22.998Z</time></trkpt><trkpt lat="44.22439" lon="11.4336433"><ele>579.0</ele><time>2026-04-04T10:57:24.998Z</time></trkpt><trkpt lat="44.2243067" lon="11.4336067"><ele>579.0</ele><time>2026-04-04T10:57:26.996Z</time></trkpt><trkpt lat="44.2242167" lon="11.4336117"><ele>579.0</ele><time>2026-04-04T10:57:28.998Z</time></trkpt><trkpt lat="44.2241317" lon="11.4336533"><ele>579.0</ele><time>2026-04-04T10:57:30.997Z</time></trkpt><trkpt lat="44.2240617" lon="11.4336967"><ele>579.0</ele><time>2026-04-04T10:57:32.996Z</time></trkpt><trkpt lat="44.22399" lon="11.4336917"><ele>579.0</ele><time>2026-04-04T10:57:34.997Z</time></trkpt><trkpt lat="44.2239383" lon="11.4335983"><ele>579.0</ele><time>2026-04-04T10:57:36.997Z</time></trkpt><trkpt lat="44.22394" lon="11.4334683"><ele>579.0</ele><time>2026-04-04T10:57:38.996Z</time></trkpt><trkpt lat="44.223975" lon="11.4333117"><ele>579.0</ele><time>2026-04-04T10:57:40.997Z</time></trkpt><trkpt lat="44.2239933" lon="11.4332167"><ele>579.0</ele><time>2026-04-04T10:57:41.999Z</time></trkpt><trkpt lat="44.2240083" lon="11.4331217"><ele>579.0</ele><time>2026-04-04T10:57:42.996Z</time></trkpt><trkpt lat="44.2240183" lon="11.43302"><ele>579.0</ele><time>2026-04-04T10:57:43.996Z</time></trkpt><trkpt lat="44.22402" lon="11.4329133"><ele>578.1666666666666</ele><time>2026-04-04T10:57:44.996Z</time></trkpt><trkpt lat="44.22401" lon="11.4328067"><ele>577.3333333333334</ele><time>2026-04-04T10:57:45.998Z</time></trkpt><trkpt lat="44.2239933" lon="11.4327117"><ele>576.5</ele><time>2026-04-04T10:57:46.998Z</time></trkpt><trkpt lat="44.2239733" lon="11.4326283"><ele>575.6666666666667</ele><time>2026-04-04T10:57:47.996Z</time></trkpt><trkpt lat="44.2239217" lon="11.43246"><ele>574.8333333333334</ele><time>2026-04-04T10:57:49.996Z</time></trkpt><trkpt lat="44.2238983" lon="11.4323733"><ele>574.0</ele><time>2026-04-04T10:57:50.998Z</time></trkpt><trkpt lat="44.2238833" lon="11.4322783"><ele>571.0</ele><time>2026-04-04T10:57:51.997Z</time></trkpt><trkpt lat="44.223875" lon="11.4321783"><ele>568.0</ele><time>2026-04-04T10:57:52.996Z</time></trkpt><trkpt lat="44.2238683" lon="11.4320783"><ele>565.0</ele><time>2026-04-04T10:57:53.996Z</time></trkpt><trkpt lat="44.2238633" lon="11.4319767"><ele>562.0</ele><time>2026-04-04T10:57:54.998Z</time></trkpt><trkpt lat="44.22386" lon="11.43188"><ele>559.0</ele><time>2026-04-04T10:57:55.997Z</time></trkpt><trkpt lat="44.2238583" lon="11.431785"><ele>556.0</ele><time>2026-04-04T10:57:56.997Z</time></trkpt><trkpt lat="44.2238567" lon="11.4316917"><ele>553.0</ele><time>2026-04-04T10:57:57.997Z</time></trkpt><trkpt lat="44.2238533" lon="11.4315967"><ele>552.4285714285714</ele><time>2026-04-04T10:57:58.996Z</time></trkpt><trkpt lat="44.2238533" lon="11.4315"><ele>551.8571428571429</ele><time>2026-04-04T10:57:59.997Z</time></trkpt><trkpt lat="44.22385" lon="11.4314017"><ele>551.2857142857142</ele><time>2026-04-04T10:58:00.997Z</time></trkpt><trkpt lat="44.223845" lon="11.4313033"><ele>550.7142857142858</ele><time>2026-04-04T10:58:01.996Z</time></trkpt><trkpt lat="44.2238383" lon="11.4312033"><ele>550.1428571428571</ele><time>2026-04-04T10:58:02.996Z</time></trkpt><trkpt lat="44.2238283" lon="11.431095"><ele>549.5714285714286</ele><time>2026-04-04T10:58:03.997Z</time></trkpt><trkpt lat="44.2238183" lon="11.4309883"><ele>549.0</ele><time>2026-04-04T10:58:04.997Z</time></trkpt><trkpt lat="44.223805" lon="11.4308883"><ele>547.8</ele><time>2026-04-04T10:58:05.996Z</time></trkpt><trkpt lat="44.22379" lon="11.4307917"><ele>546.5999999999999</ele><time>2026-04-04T10:58:06.997Z</time></trkpt><trkpt lat="44.22376" lon="11.4306317"><ele>545.4</ele><time>2026-04-04T10:58:08.997Z</time></trkpt><trkpt lat="44.2237333" lon="11.4304633"><ele>544.1999999999999</ele><time>2026-04-04T10:58:10.996Z</time></trkpt><trkpt lat="44.22372" lon="11.4303667"><ele>543.0</ele><time>2026-04-04T10:58:11.996Z</time></trkpt><trkpt lat="44.2237033" lon="11.430275"><ele>541.8</ele><time>2026-04-04T10:58:12.998Z</time></trkpt><trkpt lat="44.2236867" lon="11.430185"><ele>540.5999999999999</ele><time>2026-04-04T10:58:13.996Z</time></trkpt><trkpt lat="44.2236567" lon="11.4300267"><ele>539.4000000000001</ele><time>2026-04-04T10:58:15.996Z</time></trkpt><trkpt lat="44.2236383" lon="11.429895"><ele>538.2</ele><time>2026-04-04T10:58:17.997Z</time></trkpt><trkpt lat="44.2236283" lon="11.4297433"><ele>537.0</ele><time>2026-04-04T10:58:19.998Z</time></trkpt><trkpt lat="44.2236067" lon="11.429595"><ele>535.8000000000001</ele><time>2026-04-04T10:58:21.997Z</time></trkpt><trkpt lat="44.2235717" lon="11.4294633"><ele>534.6</ele><time>2026-04-04T10:58:23.996Z</time></trkpt><trkpt lat="44.2235467" lon="11.42934"><ele>533.4000000000001</ele><time>2026-04-04T10:58:25.999Z</time></trkpt><trkpt lat="44.2235233" lon="11.4292083"><ele>532.2</ele><time>2026-04-04T10:58:27.996Z</time></trkpt><trkpt lat="44.2235217" lon="11.4290683"><ele>531.0</ele><time>2026-04-04T10:58:29.997Z</time></trkpt><trkpt lat="44.223545" lon="11.428905"><ele>529.4</ele><time>2026-04-04T10:58:31.996Z</time></trkpt><trkpt lat="44.2235767" lon="11.42875"><ele>527.8</ele><time>2026-04-04T10:58:33.996Z</time></trkpt><trkpt lat="44.223585" lon="11.428595"><ele>526.1999999999999</ele><time>2026-04-04T10:58:35.996Z</time></trkpt><trkpt lat="44.2235917" lon="11.42844"><ele>524.6</ele><time>2026-04-04T10:58:37.996Z</time></trkpt><trkpt lat="44.22362" lon="11.4283"><ele>523.0</ele><time>2026-04-04T10:58:39.996Z</time></trkpt><trkpt lat="44.22367" lon="11.4281683"><ele>523.0</ele><time>2026-04-04T10:58:41.996Z</time></trkpt><trkpt lat="44.22373" lon="11.42804"><ele>523.0</ele><time>2026-04-04T10:58:43.997Z</time></trkpt><trkpt lat="44.2237817" lon="11.4279033"><ele>523.0</ele><time>2026-04-04T10:58:45.998Z</time></trkpt><trkpt lat="44.2238283" lon="11.42778"><ele>523.0</ele><time>2026-04-04T10:58:47.995Z</time></trkpt><trkpt lat="44.2238833" lon="11.4276667"><ele>523.0</ele><time>2026-04-04T10:58:49.995Z</time></trkpt><trkpt lat="44.2239267" lon="11.42757"><ele>521.4</ele><time>2026-04-04T10:58:51.994Z</time></trkpt><trkpt lat="44.2239433" lon="11.427465"><ele>519.8</ele><time>2026-04-04T10:58:53.996Z</time></trkpt><trkpt lat="44.2239383" lon="11.4273267"><ele>518.2</ele><time>2026-04-04T10:58:55.996Z</time></trkpt><trkpt lat="44.22391" lon="11.427175"><ele>516.6</ele><time>2026-04-04T10:58:57.997Z</time></trkpt><trkpt lat="44.223875" lon="11.4270417"><ele>515.0</ele><time>2026-04-04T10:58:59.996Z</time></trkpt><trkpt lat="44.2238317" lon="11.4269217"><ele>513.8</ele><time>2026-04-04T10:59:01.997Z</time></trkpt><trkpt lat="44.2237917" lon="11.426805"><ele>512.6</ele><time>2026-04-04T10:59:03.996Z</time></trkpt><trkpt lat="44.2237417" lon="11.4266967"><ele>511.4</ele><time>2026-04-04T10:59:05.998Z</time></trkpt><trkpt lat="44.2236933" lon="11.4265767"><ele>510.2</ele><time>2026-04-04T10:59:07.996Z</time></trkpt><trkpt lat="44.2236733" lon="11.4264483"><ele>509.0</ele><time>2026-04-04T10:59:09.996Z</time></trkpt><trkpt lat="44.2236883" lon="11.42632"><ele>509.4</ele><time>2026-04-04T10:59:11.996Z</time></trkpt><trkpt lat="44.2237217" lon="11.4261833"><ele>509.79999999999995</ele><time>2026-04-04T10:59:13.997Z</time></trkpt><trkpt lat="44.2237533" lon="11.42606"><ele>510.20000000000005</ele><time>2026-04-04T10:59:15.997Z</time></trkpt><trkpt lat="44.22377" lon="11.4259217"><ele>510.6</ele><time>2026-04-04T10:59:17.994Z</time></trkpt><trkpt lat="44.223755" lon="11.4257917"><ele>511.0</ele><time>2026-04-04T10:59:19.994Z</time></trkpt><trkpt lat="44.2236933" lon="11.4256883"><ele>511.00000000000006</ele><time>2026-04-04T10:59:21.996Z</time></trkpt><trkpt lat="44.223595" lon="11.42564"><ele>511.0</ele><time>2026-04-04T10:59:23.995Z</time></trkpt><trkpt lat="44.22347" lon="11.4256533"><ele>511.0</ele><time>2026-04-04T10:59:25.997Z</time></trkpt><trkpt lat="44.223405" lon="11.4256833"><ele>511.0</ele><time>2026-04-04T10:59:26.996Z</time></trkpt><trkpt lat="44.2233383" lon="11.4257133"><ele>511.00000000000006</ele><time>2026-04-04T10:59:27.996Z</time></trkpt><trkpt lat="44.2232767" lon="11.4257317"><ele>511.0</ele><time>2026-04-04T10:59:28.994Z</time></trkpt><trkpt lat="44.2232133" lon="11.4257417"><ele>511.00000000000006</ele><time>2026-04-04T10:59:29.995Z</time></trkpt><trkpt lat="44.2231483" lon="11.42574"><ele>511.0</ele><time>2026-04-04T10:59:30.995Z</time></trkpt><trkpt lat="44.2230283" lon="11.4256967"><ele>511.0</ele><time>2026-04-04T10:59:32.995Z</time></trkpt><trkpt lat="44.2229633" lon="11.4256717"><ele>511.0</ele><time>2026-04-04T10:59:33.996Z</time></trkpt><trkpt lat="44.2228917" lon="11.42564"><ele>511.00000000000006</ele><time>2026-04-04T10:59:34.994Z</time></trkpt><trkpt lat="44.2228167" lon="11.4256"><ele>511.0</ele><time>2026-04-04T10:59:35.995Z</time></trkpt><trkpt lat="44.2227383" lon="11.42555"><ele>511.1666666666667</ele><time>2026-04-04T10:59:36.994Z</time></trkpt><trkpt lat="44.2226683" lon="11.4255117"><ele>511.33333333333337</ele><time>2026-04-04T10:59:37.995Z</time></trkpt><trkpt lat="44.2226033" lon="11.4254767"><ele>511.5</ele><time>2026-04-04T10:59:38.994Z</time></trkpt><trkpt lat="44.2225317" lon="11.42544"><ele>511.66666666666663</ele><time>2026-04-04T10:59:39.994Z</time></trkpt><trkpt lat="44.2224667" lon="11.42541"><ele>511.8333333333333</ele><time>2026-04-04T10:59:40.994Z</time></trkpt><trkpt lat="44.2223483" lon="11.42539"><ele>512.0</ele><time>2026-04-04T10:59:42.995Z</time></trkpt><trkpt lat="44.2222533" lon="11.4254367"><ele>511.16666666666663</ele><time>2026-04-04T10:59:44.994Z</time></trkpt><trkpt lat="44.2221783" lon="11.42555"><ele>510.3333333333333</ele><time>2026-04-04T10:59:46.997Z</time></trkpt><trkpt lat="44.2221383" lon="11.42563"><ele>509.5</ele><time>2026-04-04T10:59:47.996Z</time></trkpt><trkpt lat="44.2221017" lon="11.425715"><ele>508.66666666666663</ele><time>2026-04-04T10:59:48.997Z</time></trkpt><trkpt lat="44.2220667" lon="11.4258"><ele>507.8333333333333</ele><time>2026-04-04T10:59:49.996Z</time></trkpt><trkpt lat="44.2220333" lon="11.42588"><ele>507.0</ele><time>2026-04-04T10:59:50.996Z</time></trkpt><trkpt lat="44.222" lon="11.4259617"><ele>507.0</ele><time>2026-04-04T10:59:51.997Z</time></trkpt><trkpt lat="44.2219633" lon="11.4260467"><ele>507.0</ele><time>2026-04-04T10:59:52.998Z</time></trkpt><trkpt lat="44.2219317" lon="11.426125"><ele>507.0</ele><time>2026-04-04T10:59:53.997Z</time></trkpt><trkpt lat="44.2218717" lon="11.4262667"><ele>507.0</ele><time>2026-04-04T10:59:55.996Z</time></trkpt><trkpt lat="44.22182" lon="11.4263833"><ele>507.0</ele><time>2026-04-04T10:59:57.996Z</time></trkpt><trkpt lat="44.2217833" lon="11.426505"><ele>507.0</ele><time>2026-04-04T10:59:59.996Z</time></trkpt><trkpt lat="44.221725" lon="11.4266317"><ele>505.20000000000005</ele><time>2026-04-04T11:00:01.994Z</time></trkpt><trkpt lat="44.221655" lon="11.426725"><ele>503.40000000000003</ele><time>2026-04-04T11:00:03.996Z</time></trkpt><trkpt lat="44.2215567" lon="11.4267683"><ele>501.59999999999997</ele><time>2026-04-04T11:00:05.997Z</time></trkpt><trkpt lat="44.2214267" lon="11.4267667"><ele>499.79999999999995</ele><time>2026-04-04T11:00:07.996Z</time></trkpt><trkpt lat="44.2213483" lon="11.4267517"><ele>498.0</ele><time>2026-04-04T11:00:08.996Z</time></trkpt><trkpt lat="44.2212667" lon="11.4267333"><ele>497.59999999999997</ele><time>2026-04-04T11:00:09.995Z</time></trkpt><trkpt lat="44.2211917" lon="11.4267083"><ele>497.19999999999993</ele><time>2026-04-04T11:00:10.995Z</time></trkpt><trkpt lat="44.22112" lon="11.426685"><ele>496.8</ele><time>2026-04-04T11:00:11.994Z</time></trkpt><trkpt lat="44.2210517" lon="11.4266667"><ele>496.4</ele><time>2026-04-04T11:00:12.994Z</time></trkpt><trkpt lat="44.2209333" lon="11.42666"><ele>496.0</ele><time>2026-04-04T11:00:14.997Z</time></trkpt><trkpt lat="44.220815" lon="11.4267"><ele>496.0</ele><time>2026-04-04T11:00:16.996Z</time></trkpt><trkpt lat="44.2207317" lon="11.426805"><ele>496.0</ele><time>2026-04-04T11:00:18.996Z</time></trkpt><trkpt lat="44.2207067" lon="11.4269733"><ele>496.0</ele><time>2026-04-04T11:00:20.997Z</time></trkpt><trkpt lat="44.2207083" lon="11.4271367"><ele>496.0</ele><time>2026-04-04T11:00:22.996Z</time></trkpt><trkpt lat="44.2207517" lon="11.4272883"><ele>494.6666666666667</ele><time>2026-04-04T11:00:24.996Z</time></trkpt><trkpt lat="44.2207917" lon="11.4273783"><ele>493.33333333333337</ele><time>2026-04-04T11:00:25.997Z</time></trkpt><trkpt lat="44.2208333" lon="11.4274683"><ele>492.0</ele><time>2026-04-04T11:00:26.996Z</time></trkpt><trkpt lat="44.2208783" lon="11.4275533"><ele>490.66666666666663</ele><time>2026-04-04T11:00:27.996Z</time></trkpt><trkpt lat="44.220925" lon="11.4276433"><ele>489.3333333333333</ele><time>2026-04-04T11:00:28.995Z</time></trkpt><trkpt lat="44.2209733" lon="11.4277367"><ele>488.0</ele><time>2026-04-04T11:00:29.995Z</time></trkpt><trkpt lat="44.2210167" lon="11.42782"><ele>488.0</ele><time>2026-04-04T11:00:30.996Z</time></trkpt><trkpt lat="44.221055" lon="11.427895"><ele>487.99999999999994</ele><time>2026-04-04T11:00:31.995Z</time></trkpt><trkpt lat="44.2211033" lon="11.4280367"><ele>487.99999999999994</ele><time>2026-04-04T11:00:33.994Z</time></trkpt><trkpt lat="44.2211117" lon="11.4281683"><ele>488.0</ele><time>2026-04-04T11:00:35.995Z</time></trkpt><trkpt lat="44.2210633" lon="11.4282933"><ele>488.0</ele><time>2026-04-04T11:00:37.995Z</time></trkpt><trkpt lat="44.2209883" lon="11.4284167"><ele>487.3333333333333</ele><time>2026-04-04T11:00:39.995Z</time></trkpt><trkpt lat="44.2209433" lon="11.4284833"><ele>486.66666666666663</ele><time>2026-04-04T11:00:40.994Z</time></trkpt><trkpt lat="44.2208917" lon="11.42856"><ele>486.0</ele><time>2026-04-04T11:00:41.997Z</time></trkpt><trkpt lat="44.220845" lon="11.4286383"><ele>485.33333333333337</ele><time>2026-04-04T11:00:42.999Z</time></trkpt><trkpt lat="44.2208017" lon="11.4287117"><ele>484.6666666666667</ele><time>2026-04-04T11:00:43.997Z</time></trkpt><trkpt lat="44.2207533" lon="11.42877"><ele>484.0</ele><time>2026-04-04T11:00:44.997Z</time></trkpt><trkpt lat="44.2206467" lon="11.4288533"><ele>482.25</ele><time>2026-04-04T11:00:46.997Z</time></trkpt><trkpt lat="44.22053" lon="11.4288817"><ele>480.5</ele><time>2026-04-04T11:00:48.997Z</time></trkpt><trkpt lat="44.2204117" lon="11.4288683"><ele>478.75</ele><time>2026-04-04T11:00:50.997Z</time></trkpt><trkpt lat="44.2203017" lon="11.4288483"><ele>477.0</ele><time>2026-04-04T11:00:52.997Z</time></trkpt><trkpt lat="44.2201933" lon="11.4288133"><ele>477.6</ele><time>2026-04-04T11:00:54.998Z</time></trkpt><trkpt lat="44.2200933" lon="11.428785"><ele>478.20000000000005</ele><time>2026-04-04T11:00:56.997Z</time></trkpt><trkpt lat="44.2199933" lon="11.4287617"><ele>478.8</ele><time>2026-04-04T11:00:58.995Z</time></trkpt><trkpt lat="44.2198833" lon="11.4287533"><ele>479.4</ele><time>2026-04-04T11:01:00.995Z</time></trkpt><trkpt lat="44.2198167" lon="11.42878"><ele>480.0</ele><time>2026-04-04T11:01:01.998Z</time></trkpt><trkpt lat="44.2197483" lon="11.428815"><ele>478.8333333333333</ele><time>2026-04-04T11:01:02.994Z</time></trkpt><trkpt lat="44.2196783" lon="11.4288517"><ele>477.66666666666663</ele><time>2026-04-04T11:01:03.994Z</time></trkpt><trkpt lat="44.219605" lon="11.428895"><ele>476.5</ele><time>2026-04-04T11:01:04.995Z</time></trkpt><trkpt lat="44.2195317" lon="11.4289383"><ele>475.3333333333333</ele><time>2026-04-04T11:01:05.994Z</time></trkpt><trkpt lat="44.21946" lon="11.4289867"><ele>474.16666666666663</ele><time>2026-04-04T11:01:06.995Z</time></trkpt><trkpt lat="44.2193867" lon="11.429035"><ele>473.0</ele><time>2026-04-04T11:01:07.995Z</time></trkpt><trkpt lat="44.2193217" lon="11.42909"><ele>472.99999999999994</ele><time>2026-04-04T11:01:08.995Z</time></trkpt><trkpt lat="44.2192633" lon="11.42916"><ele>473.0</ele><time>2026-04-04T11:01:09.997Z</time></trkpt><trkpt lat="44.2192067" lon="11.4292433"><ele>473.0</ele><time>2026-04-04T11:01:10.995Z</time></trkpt><trkpt lat="44.2191533" lon="11.42933"><ele>473.0</ele><time>2026-04-04T11:01:11.997Z</time></trkpt><trkpt lat="44.2190983" lon="11.4294183"><ele>472.99999999999994</ele><time>2026-04-04T11:01:12.996Z</time></trkpt><trkpt lat="44.2190433" lon="11.429505"><ele>473.0</ele><time>2026-04-04T11:01:13.996Z</time></trkpt><trkpt lat="44.218985" lon="11.4295833"><ele>471.8333333333333</ele><time>2026-04-04T11:01:14.997Z</time></trkpt><trkpt lat="44.2189317" lon="11.42965"><ele>470.66666666666663</ele><time>2026-04-04T11:01:15.997Z</time></trkpt><trkpt lat="44.2188267" lon="11.4297383"><ele>469.5</ele><time>2026-04-04T11:01:17.995Z</time></trkpt><trkpt lat="44.21876" lon="11.4297717"><ele>468.33333333333337</ele><time>2026-04-04T11:01:18.995Z</time></trkpt><trkpt lat="44.2186817" lon="11.4297933"><ele>467.1666666666667</ele><time>2026-04-04T11:01:19.995Z</time></trkpt><trkpt lat="44.2186033" lon="11.4298017"><ele>466.0</ele><time>2026-04-04T11:01:20.994Z</time></trkpt><trkpt lat="44.2185133" lon="11.429805"><ele>466.00000000000006</ele><time>2026-04-04T11:01:21.996Z</time></trkpt><trkpt lat="44.21842" lon="11.429805"><ele>466.0</ele><time>2026-04-04T11:01:22.994Z</time></trkpt><trkpt lat="44.21833" lon="11.429805"><ele>466.0</ele><time>2026-04-04T11:01:23.995Z</time></trkpt><trkpt lat="44.2182517" lon="11.4297983"><ele>466.0</ele><time>2026-04-04T11:01:24.997Z</time></trkpt><trkpt lat="44.2181783" lon="11.4297867"><ele>466.00000000000006</ele><time>2026-04-04T11:01:25.997Z</time></trkpt><trkpt lat="44.2181033" lon="11.4297683"><ele>466.0</ele><time>2026-04-04T11:01:26.997Z</time></trkpt><trkpt lat="44.2180267" lon="11.4297567"><ele>463.0</ele><time>2026-04-04T11:01:27.996Z</time></trkpt><trkpt lat="44.2179583" lon="11.4297417"><ele>463.0</ele><time>2026-04-04T11:01:28.995Z</time></trkpt><trkpt lat="44.2178433" lon="11.429735"><ele>463.0</ele><time>2026-04-04T11:01:30.994Z</time></trkpt><trkpt lat="44.2177717" lon="11.429765"><ele>463.0</ele><time>2026-04-04T11:01:32.995Z</time></trkpt><trkpt lat="44.21773" lon="11.4298333"><ele>463.0</ele><time>2026-04-04T11:01:34.994Z</time></trkpt></trkseg></trk></gpx>